<?xml version="1.0" encoding="UTF-8"?>
<TrainingCenterDatabase xmlns="http://www.garmin.com/xmlschemas/TrainingCenterDatabase/v2" xmlns:xsi="http://www.w3.org/2001/XMLSchema-instance" xsi:schemaLocation="http://www.garmin.com/xmlschemas/TrainingCenterDatabase/v2 http://www.garmin.com/xmlschemas/TrainingCenterDatabasev2.xsd">
  <Activities>
    <Activity Sport="Other">
      <Id>2022-02-06T07:35:24.000Z</Id>
      <Lap StartTime="2022-02-06T07:35:24.000Z">
        <TotalTimeSeconds>12256</TotalTimeSeconds>
        <DistanceMeters>10280</DistanceMeters>
        <Track>
          <Trackpoint>
            <Time>2022-02-06T07:35:24.000Z</Time>
            <Position>
              <LatitudeDegrees>39.13152742199599742889404296875</LatitudeDegrees>
              <LongitudeDegrees>-0.37124924361705780029296875</LongitudeDegrees>
            </Position>
            <AltitudeMeters>140.1999969482421875</AltitudeMeters>
            <DistanceMeters>0</DistanceMeters>
          </Trackpoint>
          <Trackpoint>
            <Time>2022-02-06T07:35:34.000Z</Time>
            <Position>
              <LatitudeDegrees>39.13139649666845798492431640625</LatitudeDegrees>
              <LongitudeDegrees>-0.371072553098201751708984375</LongitudeDegrees>
            </Position>
            <AltitudeMeters>138.8000030517578125</AltitudeMeters>
            <DistanceMeters>21.096786669302</DistanceMeters>
          </Trackpoint>
          <Trackpoint>
            <Time>2022-02-06T07:35:42.000Z</Time>
            <Position>
              <LatitudeDegrees>39.13127395324409008026123046875</LatitudeDegrees>
              <LongitudeDegrees>-0.3708826191723346710205078125</LongitudeDegrees>
            </Position>
            <AltitudeMeters>136.600006103515625</AltitudeMeters>
            <DistanceMeters>42.42599788882</DistanceMeters>
          </Trackpoint>
          <Trackpoint>
            <Time>2022-02-06T07:35:50.000Z</Time>
            <Position>
              <LatitudeDegrees>39.131190888583660125732421875</LatitudeDegrees>
              <LongitudeDegrees>-0.37066812627017498016357421875</LongitudeDegrees>
            </Position>
            <AltitudeMeters>134.8000030517578125</AltitudeMeters>
            <DistanceMeters>63.124378183117</DistanceMeters>
          </Trackpoint>
          <Trackpoint>
            <Time>2022-02-06T07:35:58.000Z</Time>
            <Position>
              <LatitudeDegrees>39.13113296963274478912353515625</LatitudeDegrees>
              <LongitudeDegrees>-0.3704293258488178253173828125</LongitudeDegrees>
            </Position>
            <AltitudeMeters>134.8000030517578125</AltitudeMeters>
            <DistanceMeters>84.72618899421</DistanceMeters>
          </Trackpoint>
          <Trackpoint>
            <Time>2022-02-06T07:36:06.000Z</Time>
            <Position>
              <LatitudeDegrees>39.13106239400804042816162109375</LatitudeDegrees>
              <LongitudeDegrees>-0.37020175717771053314208984375</LongitudeDegrees>
            </Position>
            <AltitudeMeters>133.600006103515625</AltitudeMeters>
            <DistanceMeters>105.88622940999</DistanceMeters>
          </Trackpoint>
          <Trackpoint>
            <Time>2022-02-06T07:36:14.000Z</Time>
            <Position>
              <LatitudeDegrees>39.1309214942157268524169921875</LatitudeDegrees>
              <LongitudeDegrees>-0.37003831006586551666259765625</LongitudeDegrees>
            </Position>
            <AltitudeMeters>135.600006103515625</AltitudeMeters>
            <DistanceMeters>126.98323009365</DistanceMeters>
          </Trackpoint>
          <Trackpoint>
            <Time>2022-02-06T07:36:23.000Z</Time>
            <Position>
              <LatitudeDegrees>39.1307364217936992645263671875</LatitudeDegrees>
              <LongitudeDegrees>-0.3699396550655364990234375</LongitudeDegrees>
            </Position>
            <AltitudeMeters>136.8000030517578125</AltitudeMeters>
            <DistanceMeters>149.27342673029</DistanceMeters>
          </Trackpoint>
          <Trackpoint>
            <Time>2022-02-06T07:36:31.000Z</Time>
            <Position>
              <LatitudeDegrees>39.13056098856031894683837890625</LatitudeDegrees>
              <LongitudeDegrees>-0.36985558457672595977783203125</LongitudeDegrees>
            </Position>
            <AltitudeMeters>138.600006103515625</AltitudeMeters>
            <DistanceMeters>170.10466105556</DistanceMeters>
          </Trackpoint>
          <Trackpoint>
            <Time>2022-02-06T07:36:39.000Z</Time>
            <Position>
              <LatitudeDegrees>39.1304239444434642791748046875</LatitudeDegrees>
              <LongitudeDegrees>-0.36967034451663494110107421875</LongitudeDegrees>
            </Position>
            <AltitudeMeters>136.399993896484375</AltitudeMeters>
            <DistanceMeters>192.20547246443</DistanceMeters>
          </Trackpoint>
          <Trackpoint>
            <Time>2022-02-06T07:36:46.000Z</Time>
            <Position>
              <LatitudeDegrees>39.13034498691558837890625</LatitudeDegrees>
              <LongitudeDegrees>-0.36943900398910045623779296875</LongitudeDegrees>
            </Position>
            <AltitudeMeters>136</AltitudeMeters>
            <DistanceMeters>214.02688376258</DistanceMeters>
          </Trackpoint>
          <Trackpoint>
            <Time>2022-02-06T07:36:53.000Z</Time>
            <Position>
              <LatitudeDegrees>39.13029461167752742767333984375</LatitudeDegrees>
              <LongitudeDegrees>-0.3692022152245044708251953125</LongitudeDegrees>
            </Position>
            <AltitudeMeters>137.399993896484375</AltitudeMeters>
            <DistanceMeters>235.2257229834</DistanceMeters>
          </Trackpoint>
          <Trackpoint>
            <Time>2022-02-06T07:37:01.000Z</Time>
            <Position>
              <LatitudeDegrees>39.1302643530070781707763671875</LatitudeDegrees>
              <LongitudeDegrees>-0.36894581280648708343505859375</LongitudeDegrees>
            </Position>
            <AltitudeMeters>139.399993896484375</AltitudeMeters>
            <DistanceMeters>257.61777569475</DistanceMeters>
          </Trackpoint>
          <Trackpoint>
            <Time>2022-02-06T07:37:09.000Z</Time>
            <Position>
              <LatitudeDegrees>39.1302589885890483856201171875</LatitudeDegrees>
              <LongitudeDegrees>-0.36870743148028850555419921875</LongitudeDegrees>
            </Position>
            <AltitudeMeters>139</AltitudeMeters>
            <DistanceMeters>278.20811539675</DistanceMeters>
          </Trackpoint>
          <Trackpoint>
            <Time>2022-02-06T07:37:17.000Z</Time>
            <Position>
              <LatitudeDegrees>39.13022772409021854400634765625</LatitudeDegrees>
              <LongitudeDegrees>-0.3684698045253753662109375</LongitudeDegrees>
            </Position>
            <AltitudeMeters>138.600006103515625</AltitudeMeters>
            <DistanceMeters>299.01744709659</DistanceMeters>
          </Trackpoint>
          <Trackpoint>
            <Time>2022-02-06T07:37:25.000Z</Time>
            <Position>
              <LatitudeDegrees>39.130186401307582855224609375</LatitudeDegrees>
              <LongitudeDegrees>-0.36822597496211528778076171875</LongitudeDegrees>
            </Position>
            <AltitudeMeters>138.8000030517578125</AltitudeMeters>
            <DistanceMeters>320.56568439685</DistanceMeters>
          </Trackpoint>
          <Trackpoint>
            <Time>2022-02-06T07:37:33.000Z</Time>
            <Position>
              <LatitudeDegrees>39.13017508573830127716064453125</LatitudeDegrees>
              <LongitudeDegrees>-0.36797426640987396240234375</LongitudeDegrees>
            </Position>
            <AltitudeMeters>139</AltitudeMeters>
            <DistanceMeters>342.33406264314</DistanceMeters>
          </Trackpoint>
          <Trackpoint>
            <Time>2022-02-06T07:37:41.000Z</Time>
            <Position>
              <LatitudeDegrees>39.13015128113329410552978515625</LatitudeDegrees>
              <LongitudeDegrees>-0.3677430935204029083251953125</LongitudeDegrees>
            </Position>
            <AltitudeMeters>140.1999969482421875</AltitudeMeters>
            <DistanceMeters>362.46806849698</DistanceMeters>
          </Trackpoint>
          <Trackpoint>
            <Time>2022-02-06T07:37:50.000Z</Time>
            <Position>
              <LatitudeDegrees>39.130140133202075958251953125</LatitudeDegrees>
              <LongitudeDegrees>-0.36748199723660945892333984375</LongitudeDegrees>
            </Position>
            <AltitudeMeters>140.399993896484375</AltitudeMeters>
            <DistanceMeters>385.04486399492</DistanceMeters>
          </Trackpoint>
          <Trackpoint>
            <Time>2022-02-06T07:37:58.000Z</Time>
            <Position>
              <LatitudeDegrees>39.13012127391993999481201171875</LatitudeDegrees>
              <LongitudeDegrees>-0.36722970195114612579345703125</LongitudeDegrees>
            </Position>
            <AltitudeMeters>140.8000030517578125</AltitudeMeters>
            <DistanceMeters>406.92867248726</DistanceMeters>
          </Trackpoint>
          <Trackpoint>
            <Time>2022-02-06T07:38:06.000Z</Time>
            <Position>
              <LatitudeDegrees>39.1301047615706920623779296875</LatitudeDegrees>
              <LongitudeDegrees>-0.36698587238788604736328125</LongitudeDegrees>
            </Position>
            <AltitudeMeters>139.8000030517578125</AltitudeMeters>
            <DistanceMeters>428.06095585796</DistanceMeters>
          </Trackpoint>
          <Trackpoint>
            <Time>2022-02-06T07:38:15.000Z</Time>
            <Position>
              <LatitudeDegrees>39.13005840964615345001220703125</LatitudeDegrees>
              <LongitudeDegrees>-0.36673449911177158355712890625</LongitudeDegrees>
            </Position>
            <AltitudeMeters>141</AltitudeMeters>
            <DistanceMeters>450.36917279485</DistanceMeters>
          </Trackpoint>
          <Trackpoint>
            <Time>2022-02-06T07:38:22.000Z</Time>
            <Position>
              <LatitudeDegrees>39.13000409491360187530517578125</LatitudeDegrees>
              <LongitudeDegrees>-0.36649846471846103668212890625</LongitudeDegrees>
            </Position>
            <AltitudeMeters>142.399993896484375</AltitudeMeters>
            <DistanceMeters>471.6258650376</DistanceMeters>
          </Trackpoint>
          <Trackpoint>
            <Time>2022-02-06T07:38:29.000Z</Time>
            <Position>
              <LatitudeDegrees>39.1299300827085971832275390625</LatitudeDegrees>
              <LongitudeDegrees>-0.366274081170558929443359375</LongitudeDegrees>
            </Position>
            <AltitudeMeters>143.600006103515625</AltitudeMeters>
            <DistanceMeters>492.67744601482</DistanceMeters>
          </Trackpoint>
          <Trackpoint>
            <Time>2022-02-06T07:38:36.000Z</Time>
            <Position>
              <LatitudeDegrees>39.129851795732975006103515625</LatitudeDegrees>
              <LongitudeDegrees>-0.3660584986209869384765625</LongitudeDegrees>
            </Position>
            <AltitudeMeters>144.399993896484375</AltitudeMeters>
            <DistanceMeters>513.22893660585</DistanceMeters>
          </Trackpoint>
          <Trackpoint>
            <Time>2022-02-06T07:38:44.000Z</Time>
            <Position>
              <LatitudeDegrees>39.129789434373378753662109375</LatitudeDegrees>
              <LongitudeDegrees>-0.36582045257091522216796875</LongitudeDegrees>
            </Position>
            <AltitudeMeters>144.8000030517578125</AltitudeMeters>
            <DistanceMeters>534.92210151558</DistanceMeters>
          </Trackpoint>
          <Trackpoint>
            <Time>2022-02-06T07:38:52.000Z</Time>
            <Position>
              <LatitudeDegrees>39.1297852434217929840087890625</LatitudeDegrees>
              <LongitudeDegrees>-0.36556287668645381927490234375</LongitudeDegrees>
            </Position>
            <AltitudeMeters>145.8000030517578125</AltitudeMeters>
            <DistanceMeters>557.16566122435</DistanceMeters>
          </Trackpoint>
          <Trackpoint>
            <Time>2022-02-06T07:39:04.000Z</Time>
            <Position>
              <LatitudeDegrees>39.12982790730893611907958984375</LatitudeDegrees>
              <LongitudeDegrees>-0.3653324581682682037353515625</LongitudeDegrees>
            </Position>
            <AltitudeMeters>146.600006103515625</AltitudeMeters>
            <DistanceMeters>577.61871286324</DistanceMeters>
          </Trackpoint>
          <Trackpoint>
            <Time>2022-02-06T07:39:19.000Z</Time>
            <Position>
              <LatitudeDegrees>39.1298284940421581268310546875</LatitudeDegrees>
              <LongitudeDegrees>-0.36509533412754535675048828125</LongitudeDegrees>
            </Position>
            <AltitudeMeters>148.600006103515625</AltitudeMeters>
            <DistanceMeters>598.09162248114</DistanceMeters>
          </Trackpoint>
          <Trackpoint>
            <Time>2022-02-06T07:39:34.000Z</Time>
            <Position>
              <LatitudeDegrees>39.1298093833029270172119140625</LatitudeDegrees>
              <LongitudeDegrees>-0.3648496605455875396728515625</LongitudeDegrees>
            </Position>
            <AltitudeMeters>149.8000030517578125</AltitudeMeters>
            <DistanceMeters>619.40897613881</DistanceMeters>
          </Trackpoint>
          <Trackpoint>
            <Time>2022-02-06T07:39:48.000Z</Time>
            <Position>
              <LatitudeDegrees>39.12973402999341487884521484375</LatitudeDegrees>
              <LongitudeDegrees>-0.36462443880736827850341796875</LongitudeDegrees>
            </Position>
            <AltitudeMeters>151.399993896484375</AltitudeMeters>
            <DistanceMeters>640.58607973002</DistanceMeters>
          </Trackpoint>
          <Trackpoint>
            <Time>2022-02-06T07:40:00.000Z</Time>
            <Position>
              <LatitudeDegrees>39.12965121679008007049560546875</LatitudeDegrees>
              <LongitudeDegrees>-0.36439930088818073272705078125</LongitudeDegrees>
            </Position>
            <AltitudeMeters>152.1999969482421875</AltitudeMeters>
            <DistanceMeters>662.09866715583</DistanceMeters>
          </Trackpoint>
          <Trackpoint>
            <Time>2022-02-06T07:40:12.000Z</Time>
            <Position>
              <LatitudeDegrees>39.1295689903199672698974609375</LatitudeDegrees>
              <LongitudeDegrees>-0.3641841374337673187255859375</LongitudeDegrees>
            </Position>
            <AltitudeMeters>154.399993896484375</AltitudeMeters>
            <DistanceMeters>682.8075152763</DistanceMeters>
          </Trackpoint>
          <Trackpoint>
            <Time>2022-02-06T07:40:36.000Z</Time>
            <Position>
              <LatitudeDegrees>39.12950671277940273284912109375</LatitudeDegrees>
              <LongitudeDegrees>-0.36400862038135528564453125</LongitudeDegrees>
            </Position>
            <AltitudeMeters>156.8000030517578125</AltitudeMeters>
            <DistanceMeters>699.47163573928</DistanceMeters>
          </Trackpoint>
          <Trackpoint>
            <Time>2022-02-06T07:40:57.000Z</Time>
            <Position>
              <LatitudeDegrees>39.12940956652164459228515625</LatitudeDegrees>
              <LongitudeDegrees>-0.36382891237735748291015625</LongitudeDegrees>
            </Position>
            <AltitudeMeters>160.399993896484375</AltitudeMeters>
            <DistanceMeters>718.38362314918</DistanceMeters>
          </Trackpoint>
          <Trackpoint>
            <Time>2022-02-06T07:41:10.000Z</Time>
            <Position>
              <LatitudeDegrees>39.129316024482250213623046875</LatitudeDegrees>
              <LongitudeDegrees>-0.36361592821776866912841796875</LongitudeDegrees>
            </Position>
            <AltitudeMeters>161.399993896484375</AltitudeMeters>
            <DistanceMeters>739.5152655423</DistanceMeters>
          </Trackpoint>
          <Trackpoint>
            <Time>2022-02-06T07:41:22.000Z</Time>
            <Position>
              <LatitudeDegrees>39.1292122565209865570068359375</LatitudeDegrees>
              <LongitudeDegrees>-0.363408140838146209716796875</LongitudeDegrees>
            </Position>
            <AltitudeMeters>160.8000030517578125</AltitudeMeters>
            <DistanceMeters>760.85167278077</DistanceMeters>
          </Trackpoint>
          <Trackpoint>
            <Time>2022-02-06T07:41:35.000Z</Time>
            <Position>
              <LatitudeDegrees>39.12913019768893718719482421875</LatitudeDegrees>
              <LongitudeDegrees>-0.36319683305919170379638671875</LongitudeDegrees>
            </Position>
            <AltitudeMeters>159.399993896484375</AltitudeMeters>
            <DistanceMeters>781.25433103683</DistanceMeters>
          </Trackpoint>
          <Trackpoint>
            <Time>2022-02-06T07:41:49.000Z</Time>
            <Position>
              <LatitudeDegrees>39.12903196178376674652099609375</LatitudeDegrees>
              <LongitudeDegrees>-0.36298711784183979034423828125</LongitudeDegrees>
            </Position>
            <AltitudeMeters>158.600006103515625</AltitudeMeters>
            <DistanceMeters>802.405834703</DistanceMeters>
          </Trackpoint>
          <Trackpoint>
            <Time>2022-02-06T07:42:01.000Z</Time>
            <Position>
              <LatitudeDegrees>39.1289381682872772216796875</LatitudeDegrees>
              <LongitudeDegrees>-0.36277907900512218475341796875</LongitudeDegrees>
            </Position>
            <AltitudeMeters>160</AltitudeMeters>
            <DistanceMeters>823.18107390239</DistanceMeters>
          </Trackpoint>
          <Trackpoint>
            <Time>2022-02-06T07:42:13.000Z</Time>
            <Position>
              <LatitudeDegrees>39.12886952050030231475830078125</LatitudeDegrees>
              <LongitudeDegrees>-0.362561903893947601318359375</LongitudeDegrees>
            </Position>
            <AltitudeMeters>163</AltitudeMeters>
            <DistanceMeters>843.42912394946</DistanceMeters>
          </Trackpoint>
          <Trackpoint>
            <Time>2022-02-06T07:42:15.000Z</Time>
            <Position>
              <LatitudeDegrees>39.12885460071265697479248046875</LatitudeDegrees>
              <LongitudeDegrees>-0.3625416196882724761962890625</LongitudeDegrees>
            </Position>
            <AltitudeMeters>163.399993896484375</AltitudeMeters>
            <DistanceMeters>845.84063161686</DistanceMeters>
          </Trackpoint>
          <Trackpoint>
            <Time>2022-02-06T07:42:27.000Z</Time>
            <Position>
              <LatitudeDegrees>39.1287703625857830047607421875</LatitudeDegrees>
              <LongitudeDegrees>-0.36233718506991863250732421875</LongitudeDegrees>
            </Position>
            <AltitudeMeters>166.8000030517578125</AltitudeMeters>
            <DistanceMeters>865.82698850287</DistanceMeters>
          </Trackpoint>
          <Trackpoint>
            <Time>2022-02-06T07:42:39.000Z</Time>
            <Position>
              <LatitudeDegrees>39.12869115360081195831298828125</LatitudeDegrees>
              <LongitudeDegrees>-0.36212696693837642669677734375</LongitudeDegrees>
            </Position>
            <AltitudeMeters>169.600006103515625</AltitudeMeters>
            <DistanceMeters>886.00489936365</DistanceMeters>
          </Trackpoint>
          <Trackpoint>
            <Time>2022-02-06T07:42:41.000Z</Time>
            <Position>
              <LatitudeDegrees>39.1286895610392093658447265625</LatitudeDegrees>
              <LongitudeDegrees>-0.36209813319146633148193359375</LongitudeDegrees>
            </Position>
            <AltitudeMeters>169.8000030517578125</AltitudeMeters>
            <DistanceMeters>888.50104694468</DistanceMeters>
          </Trackpoint>
          <Trackpoint>
            <Time>2022-02-06T07:42:55.000Z</Time>
            <Position>
              <LatitudeDegrees>39.12860264070332050323486328125</LatitudeDegrees>
              <LongitudeDegrees>-0.36188699305057525634765625</LongitudeDegrees>
            </Position>
            <AltitudeMeters>170.8000030517578125</AltitudeMeters>
            <DistanceMeters>909.13869665476</DistanceMeters>
          </Trackpoint>
          <Trackpoint>
            <Time>2022-02-06T07:42:57.000Z</Time>
            <Position>
              <LatitudeDegrees>39.12858973257243633270263671875</LatitudeDegrees>
              <LongitudeDegrees>-0.3618589974939823150634765625</LongitudeDegrees>
            </Position>
            <AltitudeMeters>171</AltitudeMeters>
            <DistanceMeters>911.95123055943</DistanceMeters>
          </Trackpoint>
          <Trackpoint>
            <Time>2022-02-06T07:42:59.000Z</Time>
            <Position>
              <LatitudeDegrees>39.1285886429250240325927734375</LatitudeDegrees>
              <LongitudeDegrees>-0.36182153038680553436279296875</LongitudeDegrees>
            </Position>
            <AltitudeMeters>171.1999969482421875</AltitudeMeters>
            <DistanceMeters>915.18772382761</DistanceMeters>
          </Trackpoint>
          <Trackpoint>
            <Time>2022-02-06T07:43:08.000Z</Time>
            <Position>
              <LatitudeDegrees>39.12857850082218647003173828125</LatitudeDegrees>
              <LongitudeDegrees>-0.36155574023723602294921875</LongitudeDegrees>
            </Position>
            <AltitudeMeters>170.8000030517578125</AltitudeMeters>
            <DistanceMeters>938.16395717842</DistanceMeters>
          </Trackpoint>
          <Trackpoint>
            <Time>2022-02-06T07:43:15.000Z</Time>
            <Position>
              <LatitudeDegrees>39.1285430453717708587646484375</LatitudeDegrees>
              <LongitudeDegrees>-0.3612984158098697662353515625</LongitudeDegrees>
            </Position>
            <AltitudeMeters>171</AltitudeMeters>
            <DistanceMeters>960.72935060726</DistanceMeters>
          </Trackpoint>
          <Trackpoint>
            <Time>2022-02-06T07:43:22.000Z</Time>
            <Position>
              <LatitudeDegrees>39.1285484097898006439208984375</LatitudeDegrees>
              <LongitudeDegrees>-0.3610533289611339569091796875</LongitudeDegrees>
            </Position>
            <AltitudeMeters>170.1999969482421875</AltitudeMeters>
            <DistanceMeters>981.89856418936</DistanceMeters>
          </Trackpoint>
          <Trackpoint>
            <Time>2022-02-06T07:43:28.000Z</Time>
            <Position>
              <LatitudeDegrees>39.1285075061023235321044921875</LatitudeDegrees>
              <LongitudeDegrees>-0.360814444720745086669921875</LongitudeDegrees>
            </Position>
            <AltitudeMeters>170</AltitudeMeters>
            <DistanceMeters>1003.0205895844</DistanceMeters>
          </Trackpoint>
          <Trackpoint>
            <Time>2022-02-06T07:43:34.000Z</Time>
            <Position>
              <LatitudeDegrees>39.12847079336643218994140625</LatitudeDegrees>
              <LongitudeDegrees>-0.36058771423995494842529296875</LongitudeDegrees>
            </Position>
            <AltitudeMeters>171.1999969482421875</AltitudeMeters>
            <DistanceMeters>1023.0189159051</DistanceMeters>
          </Trackpoint>
          <Trackpoint>
            <Time>2022-02-06T07:43:46.000Z</Time>
            <Position>
              <LatitudeDegrees>39.1283640079200267791748046875</LatitudeDegrees>
              <LongitudeDegrees>-0.36041387356817722320556640625</LongitudeDegrees>
            </Position>
            <AltitudeMeters>172.399993896484375</AltitudeMeters>
            <DistanceMeters>1042.1643817655</DistanceMeters>
          </Trackpoint>
          <Trackpoint>
            <Time>2022-02-06T07:43:59.000Z</Time>
            <Position>
              <LatitudeDegrees>39.12821187637746334075927734375</LatitudeDegrees>
              <LongitudeDegrees>-0.36027624271810054779052734375</LongitudeDegrees>
            </Position>
            <AltitudeMeters>174.1999969482421875</AltitudeMeters>
            <DistanceMeters>1062.8503246362</DistanceMeters>
          </Trackpoint>
          <Trackpoint>
            <Time>2022-02-06T07:44:15.000Z</Time>
            <Position>
              <LatitudeDegrees>39.1281708888709545135498046875</LatitudeDegrees>
              <LongitudeDegrees>-0.3600475005805492401123046875</LongitudeDegrees>
            </Position>
            <AltitudeMeters>174.399993896484375</AltitudeMeters>
            <DistanceMeters>1083.1202155634</DistanceMeters>
          </Trackpoint>
          <Trackpoint>
            <Time>2022-02-06T07:44:19.000Z</Time>
            <Position>
              <LatitudeDegrees>39.12815052084624767303466796875</LatitudeDegrees>
              <LongitudeDegrees>-0.3599831275641918182373046875</LongitudeDegrees>
            </Position>
            <AltitudeMeters>174.399993896484375</AltitudeMeters>
            <DistanceMeters>1089.1227154602</DistanceMeters>
          </Trackpoint>
          <Trackpoint>
            <Time>2022-02-06T07:44:32.000Z</Time>
            <Position>
              <LatitudeDegrees>39.12809888832271099090576171875</LatitudeDegrees>
              <LongitudeDegrees>-0.3597554750740528106689453125</LongitudeDegrees>
            </Position>
            <AltitudeMeters>175.1999969482421875</AltitudeMeters>
            <DistanceMeters>1109.601137766</DistanceMeters>
          </Trackpoint>
          <Trackpoint>
            <Time>2022-02-06T07:44:47.000Z</Time>
            <Position>
              <LatitudeDegrees>39.1280471719801425933837890625</LatitudeDegrees>
              <LongitudeDegrees>-0.3595338575541973114013671875</LongitudeDegrees>
            </Position>
            <AltitudeMeters>177.399993896484375</AltitudeMeters>
            <DistanceMeters>1129.582976021</DistanceMeters>
          </Trackpoint>
          <Trackpoint>
            <Time>2022-02-06T07:45:01.000Z</Time>
            <Position>
              <LatitudeDegrees>39.1282034106552600860595703125</LatitudeDegrees>
              <LongitudeDegrees>-0.3594027645885944366455078125</LongitudeDegrees>
            </Position>
            <AltitudeMeters>178.1999969482421875</AltitudeMeters>
            <DistanceMeters>1150.3314666742</DistanceMeters>
          </Trackpoint>
          <Trackpoint>
            <Time>2022-02-06T07:45:15.000Z</Time>
            <Position>
              <LatitudeDegrees>39.12831480614840984344482421875</LatitudeDegrees>
              <LongitudeDegrees>-0.35924040712416172027587890625</LongitudeDegrees>
            </Position>
            <AltitudeMeters>180</AltitudeMeters>
            <DistanceMeters>1169.0459400806</DistanceMeters>
          </Trackpoint>
          <Trackpoint>
            <Time>2022-02-06T07:45:31.000Z</Time>
            <Position>
              <LatitudeDegrees>39.12815873511135578155517578125</LatitudeDegrees>
              <LongitudeDegrees>-0.35916396416723728179931640625</LongitudeDegrees>
            </Position>
            <AltitudeMeters>182</AltitudeMeters>
            <DistanceMeters>1187.6284620628</DistanceMeters>
          </Trackpoint>
          <Trackpoint>
            <Time>2022-02-06T07:45:46.000Z</Time>
            <Position>
              <LatitudeDegrees>39.12800283171236515045166015625</LatitudeDegrees>
              <LongitudeDegrees>-0.3590480424463748931884765625</LongitudeDegrees>
            </Position>
            <AltitudeMeters>185</AltitudeMeters>
            <DistanceMeters>1207.6603999874</DistanceMeters>
          </Trackpoint>
          <Trackpoint>
            <Time>2022-02-06T07:45:58.000Z</Time>
            <Position>
              <LatitudeDegrees>39.1278651170432567596435546875</LatitudeDegrees>
              <LongitudeDegrees>-0.35892021842300891876220703125</LongitudeDegrees>
            </Position>
            <AltitudeMeters>188.1999969482421875</AltitudeMeters>
            <DistanceMeters>1226.5480202715</DistanceMeters>
          </Trackpoint>
          <Trackpoint>
            <Time>2022-02-06T07:46:01.000Z</Time>
            <Position>
              <LatitudeDegrees>39.12783871404826641082763671875</LatitudeDegrees>
              <LongitudeDegrees>-0.35888669081032276153564453125</LongitudeDegrees>
            </Position>
            <AltitudeMeters>188.600006103515625</AltitudeMeters>
            <DistanceMeters>1230.6726613493</DistanceMeters>
          </Trackpoint>
          <Trackpoint>
            <Time>2022-02-06T07:46:12.000Z</Time>
            <Position>
              <LatitudeDegrees>39.12774399854242801666259765625</LatitudeDegrees>
              <LongitudeDegrees>-0.35872022621333599090576171875</LongitudeDegrees>
            </Position>
            <AltitudeMeters>191</AltitudeMeters>
            <DistanceMeters>1248.496947577</DistanceMeters>
          </Trackpoint>
          <Trackpoint>
            <Time>2022-02-06T07:46:26.000Z</Time>
            <Position>
              <LatitudeDegrees>39.12767191417515277862548828125</LatitudeDegrees>
              <LongitudeDegrees>-0.358496010303497314453125</LongitudeDegrees>
            </Position>
            <AltitudeMeters>195.399993896484375</AltitudeMeters>
            <DistanceMeters>1269.4528698336</DistanceMeters>
          </Trackpoint>
          <Trackpoint>
            <Time>2022-02-06T07:46:42.000Z</Time>
            <Position>
              <LatitudeDegrees>39.12762229330837726593017578125</LatitudeDegrees>
              <LongitudeDegrees>-0.358260311186313629150390625</LongitudeDegrees>
            </Position>
            <AltitudeMeters>199</AltitudeMeters>
            <DistanceMeters>1290.5393812591</DistanceMeters>
          </Trackpoint>
          <Trackpoint>
            <Time>2022-02-06T07:46:58.000Z</Time>
            <Position>
              <LatitudeDegrees>39.12756764329969882965087890625</LatitudeDegrees>
              <LongitudeDegrees>-0.35804112441837787628173828125</LongitudeDegrees>
            </Position>
            <AltitudeMeters>203.1999969482421875</AltitudeMeters>
            <DistanceMeters>1310.4179160439</DistanceMeters>
          </Trackpoint>
          <Trackpoint>
            <Time>2022-02-06T07:47:14.000Z</Time>
            <Position>
              <LatitudeDegrees>39.12749136798083782196044921875</LatitudeDegrees>
              <LongitudeDegrees>-0.3578299842774868011474609375</LongitudeDegrees>
            </Position>
            <AltitudeMeters>207.8000030517578125</AltitudeMeters>
            <DistanceMeters>1330.5281374156</DistanceMeters>
          </Trackpoint>
          <Trackpoint>
            <Time>2022-02-06T07:47:30.000Z</Time>
            <Position>
              <LatitudeDegrees>39.1274034418165683746337890625</LatitudeDegrees>
              <LongitudeDegrees>-0.3576301597058773040771484375</LongitudeDegrees>
            </Position>
            <AltitudeMeters>210.399993896484375</AltitudeMeters>
            <DistanceMeters>1350.3636979254</DistanceMeters>
          </Trackpoint>
          <Trackpoint>
            <Time>2022-02-06T07:47:43.000Z</Time>
            <Position>
              <LatitudeDegrees>39.12727360613644123077392578125</LatitudeDegrees>
              <LongitudeDegrees>-0.35756570287048816680908203125</LongitudeDegrees>
            </Position>
            <AltitudeMeters>209.1999969482421875</AltitudeMeters>
            <DistanceMeters>1365.8492624952</DistanceMeters>
          </Trackpoint>
          <Trackpoint>
            <Time>2022-02-06T07:47:54.000Z</Time>
            <Position>
              <LatitudeDegrees>39.12719733081758022308349609375</LatitudeDegrees>
              <LongitudeDegrees>-0.3574051894247531890869140625</LongitudeDegrees>
            </Position>
            <AltitudeMeters>213</AltitudeMeters>
            <DistanceMeters>1382.1021645812</DistanceMeters>
          </Trackpoint>
          <Trackpoint>
            <Time>2022-02-06T07:48:11.000Z</Time>
            <Position>
              <LatitudeDegrees>39.12716028280556201934814453125</LatitudeDegrees>
              <LongitudeDegrees>-0.3571694903075695037841796875</LongitudeDegrees>
            </Position>
            <AltitudeMeters>216.8000030517578125</AltitudeMeters>
            <DistanceMeters>1402.8665345444</DistanceMeters>
          </Trackpoint>
          <Trackpoint>
            <Time>2022-02-06T07:48:19.000Z</Time>
            <Position>
              <LatitudeDegrees>39.127193056046962738037109375</LatitudeDegrees>
              <LongitudeDegrees>-0.357077457010746002197265625</LongitudeDegrees>
            </Position>
            <AltitudeMeters>218.600006103515625</AltitudeMeters>
            <DistanceMeters>1411.6105414778</DistanceMeters>
          </Trackpoint>
          <Trackpoint>
            <Time>2022-02-06T07:48:31.000Z</Time>
            <Position>
              <LatitudeDegrees>39.12730881012976169586181640625</LatitudeDegrees>
              <LongitudeDegrees>-0.35689808428287506103515625</LongitudeDegrees>
            </Position>
            <AltitudeMeters>223.1999969482421875</AltitudeMeters>
            <DistanceMeters>1431.7562049242</DistanceMeters>
          </Trackpoint>
          <Trackpoint>
            <Time>2022-02-06T07:48:42.000Z</Time>
            <Position>
              <LatitudeDegrees>39.127394892275333404541015625</LatitudeDegrees>
              <LongitudeDegrees>-0.3567628003656864166259765625</LongitudeDegrees>
            </Position>
            <AltitudeMeters>226</AltitudeMeters>
            <DistanceMeters>1446.8639583044</DistanceMeters>
          </Trackpoint>
          <Trackpoint>
            <Time>2022-02-06T07:48:53.000Z</Time>
            <Position>
              <LatitudeDegrees>39.127361364662647247314453125</LatitudeDegrees>
              <LongitudeDegrees>-0.35667805932462215423583984375</LongitudeDegrees>
            </Position>
            <AltitudeMeters>227.8000030517578125</AltitudeMeters>
            <DistanceMeters>1455.0770375708</DistanceMeters>
          </Trackpoint>
          <Trackpoint>
            <Time>2022-02-06T07:49:14.000Z</Time>
            <Position>
              <LatitudeDegrees>39.12718375213444232940673828125</LatitudeDegrees>
              <LongitudeDegrees>-0.35663816146552562713623046875</LongitudeDegrees>
            </Position>
            <AltitudeMeters>231</AltitudeMeters>
            <DistanceMeters>1475.1436558407</DistanceMeters>
          </Trackpoint>
          <Trackpoint>
            <Time>2022-02-06T07:49:15.000Z</Time>
            <Position>
              <LatitudeDegrees>39.12717402912676334381103515625</LatitudeDegrees>
              <LongitudeDegrees>-0.3566327132284641265869140625</LongitudeDegrees>
            </Position>
            <AltitudeMeters>231.1999969482421875</AltitudeMeters>
            <DistanceMeters>1476.3267288938</DistanceMeters>
          </Trackpoint>
          <Trackpoint>
            <Time>2022-02-06T07:49:30.000Z</Time>
            <Position>
              <LatitudeDegrees>39.12704519927501678466796875</LatitudeDegrees>
              <LongitudeDegrees>-0.35645543597638607025146484375</LongitudeDegrees>
            </Position>
            <AltitudeMeters>234.1999969482421875</AltitudeMeters>
            <DistanceMeters>1497.300310941</DistanceMeters>
          </Trackpoint>
          <Trackpoint>
            <Time>2022-02-06T07:49:48.000Z</Time>
            <Position>
              <LatitudeDegrees>39.12700119428336620330810546875</LatitudeDegrees>
              <LongitudeDegrees>-0.3562290407717227935791015625</LongitudeDegrees>
            </Position>
            <AltitudeMeters>237.1999969482421875</AltitudeMeters>
            <DistanceMeters>1517.4520247083</DistanceMeters>
          </Trackpoint>
          <Trackpoint>
            <Time>2022-02-06T07:50:04.000Z</Time>
            <Position>
              <LatitudeDegrees>39.1270601190626621246337890625</LatitudeDegrees>
              <LongitudeDegrees>-0.3560010530054569244384765625</LongitudeDegrees>
            </Position>
            <AltitudeMeters>241</AltitudeMeters>
            <DistanceMeters>1538.2007329685</DistanceMeters>
          </Trackpoint>
          <Trackpoint>
            <Time>2022-02-06T07:50:21.000Z</Time>
            <Position>
              <LatitudeDegrees>39.12717218510806560516357421875</LatitudeDegrees>
              <LongitudeDegrees>-0.3558253683149814605712890625</LongitudeDegrees>
            </Position>
            <AltitudeMeters>242.600006103515625</AltitudeMeters>
            <DistanceMeters>1557.8393318218</DistanceMeters>
          </Trackpoint>
          <Trackpoint>
            <Time>2022-02-06T07:50:36.000Z</Time>
            <Position>
              <LatitudeDegrees>39.127180986106395721435546875</LatitudeDegrees>
              <LongitudeDegrees>-0.355622358620166778564453125</LongitudeDegrees>
            </Position>
            <AltitudeMeters>244.1999969482421875</AltitudeMeters>
            <DistanceMeters>1575.3948582745</DistanceMeters>
          </Trackpoint>
          <Trackpoint>
            <Time>2022-02-06T07:50:39.000Z</Time>
            <Position>
              <LatitudeDegrees>39.1271710954606533050537109375</LatitudeDegrees>
              <LongitudeDegrees>-0.35556946881115436553955078125</LongitudeDegrees>
            </Position>
            <AltitudeMeters>244.600006103515625</AltitudeMeters>
            <DistanceMeters>1580.0926776441</DistanceMeters>
          </Trackpoint>
          <Trackpoint>
            <Time>2022-02-06T07:50:41.000Z</Time>
            <Position>
              <LatitudeDegrees>39.12715709768235683441162109375</LatitudeDegrees>
              <LongitudeDegrees>-0.35554449073970317840576171875</LongitudeDegrees>
            </Position>
            <AltitudeMeters>244.8000030517578125</AltitudeMeters>
            <DistanceMeters>1582.7534256465</DistanceMeters>
          </Trackpoint>
          <Trackpoint>
            <Time>2022-02-06T07:51:01.000Z</Time>
            <Position>
              <LatitudeDegrees>39.1270212270319461822509765625</LatitudeDegrees>
              <LongitudeDegrees>-0.35536059178411960601806640625</LongitudeDegrees>
            </Position>
            <AltitudeMeters>249</AltitudeMeters>
            <DistanceMeters>1604.6809300721</DistanceMeters>
          </Trackpoint>
          <Trackpoint>
            <Time>2022-02-06T07:51:16.000Z</Time>
            <Position>
              <LatitudeDegrees>39.1268646530807018280029296875</LatitudeDegrees>
              <LongitudeDegrees>-0.3552523814141750335693359375</LongitudeDegrees>
            </Position>
            <AltitudeMeters>253.399993896484375</AltitudeMeters>
            <DistanceMeters>1624.4542517422</DistanceMeters>
          </Trackpoint>
          <Trackpoint>
            <Time>2022-02-06T07:51:24.000Z</Time>
            <Position>
              <LatitudeDegrees>39.1268562711775302886962890625</LatitudeDegrees>
              <LongitudeDegrees>-0.35516462288796901702880859375</LongitudeDegrees>
            </Position>
            <AltitudeMeters>255</AltitudeMeters>
            <DistanceMeters>1632.088393041</DistanceMeters>
          </Trackpoint>
          <Trackpoint>
            <Time>2022-02-06T07:51:37.000Z</Time>
            <Position>
              <LatitudeDegrees>39.1269682534039020538330078125</LatitudeDegrees>
              <LongitudeDegrees>-0.3550978191196918487548828125</LongitudeDegrees>
            </Position>
            <AltitudeMeters>255</AltitudeMeters>
            <DistanceMeters>1645.8219725702</DistanceMeters>
          </Trackpoint>
          <Trackpoint>
            <Time>2022-02-06T07:51:56.000Z</Time>
            <Position>
              <LatitudeDegrees>39.127154834568500518798828125</LatitudeDegrees>
              <LongitudeDegrees>-0.3550599329173564910888671875</LongitudeDegrees>
            </Position>
            <AltitudeMeters>253.399993896484375</AltitudeMeters>
            <DistanceMeters>1666.8450090177</DistanceMeters>
          </Trackpoint>
          <Trackpoint>
            <Time>2022-02-06T07:52:09.000Z</Time>
            <Position>
              <LatitudeDegrees>39.12723454646766185760498046875</LatitudeDegrees>
              <LongitudeDegrees>-0.35497183911502361297607421875</LongitudeDegrees>
            </Position>
            <AltitudeMeters>255.600006103515625</AltitudeMeters>
            <DistanceMeters>1678.5309769306</DistanceMeters>
          </Trackpoint>
          <Trackpoint>
            <Time>2022-02-06T07:52:26.000Z</Time>
            <Position>
              <LatitudeDegrees>39.127364046871662139892578125</LatitudeDegrees>
              <LongitudeDegrees>-0.35479581914842128753662109375</LongitudeDegrees>
            </Position>
            <AltitudeMeters>261.399993896484375</AltitudeMeters>
            <DistanceMeters>1699.4769859563</DistanceMeters>
          </Trackpoint>
          <Trackpoint>
            <Time>2022-02-06T07:52:37.000Z</Time>
            <Position>
              <LatitudeDegrees>39.12745155394077301025390625</LatitudeDegrees>
              <LongitudeDegrees>-0.354708395898342132568359375</LongitudeDegrees>
            </Position>
            <AltitudeMeters>264.600006103515625</AltitudeMeters>
            <DistanceMeters>1711.7993532372</DistanceMeters>
          </Trackpoint>
          <Trackpoint>
            <Time>2022-02-06T07:52:48.000Z</Time>
            <Position>
              <LatitudeDegrees>39.1275526396930217742919921875</LatitudeDegrees>
              <LongitudeDegrees>-0.35461409948766231536865234375</LongitudeDegrees>
            </Position>
            <AltitudeMeters>267.399993896484375</AltitudeMeters>
            <DistanceMeters>1725.6869150351</DistanceMeters>
          </Trackpoint>
          <Trackpoint>
            <Time>2022-02-06T07:53:00.000Z</Time>
            <Position>
              <LatitudeDegrees>39.12773243151605129241943359375</LatitudeDegrees>
              <LongitudeDegrees>-0.35456665791571140289306640625</LongitudeDegrees>
            </Position>
            <AltitudeMeters>269.399993896484375</AltitudeMeters>
            <DistanceMeters>1746.1130172579</DistanceMeters>
          </Trackpoint>
          <Trackpoint>
            <Time>2022-02-06T07:53:16.000Z</Time>
            <Position>
              <LatitudeDegrees>39.127917923033237457275390625</LatitudeDegrees>
              <LongitudeDegrees>-0.354576967656612396240234375</LongitudeDegrees>
            </Position>
            <AltitudeMeters>270.20001220703125</AltitudeMeters>
            <DistanceMeters>1766.77777748</DistanceMeters>
          </Trackpoint>
          <Trackpoint>
            <Time>2022-02-06T07:53:32.000Z</Time>
            <Position>
              <LatitudeDegrees>39.1281024925410747528076171875</LatitudeDegrees>
              <LongitudeDegrees>-0.3545902110636234283447265625</LongitudeDegrees>
            </Position>
            <AltitudeMeters>269.600006103515625</AltitudeMeters>
            <DistanceMeters>1787.3527618954</DistanceMeters>
          </Trackpoint>
          <Trackpoint>
            <Time>2022-02-06T07:53:49.000Z</Time>
            <Position>
              <LatitudeDegrees>39.12827004678547382354736328125</LatitudeDegrees>
              <LongitudeDegrees>-0.3544852696359157562255859375</LongitudeDegrees>
            </Position>
            <AltitudeMeters>271.600006103515625</AltitudeMeters>
            <DistanceMeters>1808.0864499221</DistanceMeters>
          </Trackpoint>
          <Trackpoint>
            <Time>2022-02-06T07:53:55.000Z</Time>
            <Position>
              <LatitudeDegrees>39.12833425216376781463623046875</LatitudeDegrees>
              <LongitudeDegrees>-0.3544245846569538116455078125</LongitudeDegrees>
            </Position>
            <AltitudeMeters>272.600006103515625</AltitudeMeters>
            <DistanceMeters>1816.9479139522</DistanceMeters>
          </Trackpoint>
          <Trackpoint>
            <Time>2022-02-06T07:54:10.000Z</Time>
            <Position>
              <LatitudeDegrees>39.1284894011914730072021484375</LatitudeDegrees>
              <LongitudeDegrees>-0.35429273732006549835205078125</LongitudeDegrees>
            </Position>
            <AltitudeMeters>274.20001220703125</AltitudeMeters>
            <DistanceMeters>1837.6308008731</DistanceMeters>
          </Trackpoint>
          <Trackpoint>
            <Time>2022-02-06T07:54:24.000Z</Time>
            <Position>
              <LatitudeDegrees>39.12864287383854389190673828125</LatitudeDegrees>
              <LongitudeDegrees>-0.35417052917182445526123046875</LongitudeDegrees>
            </Position>
            <AltitudeMeters>274.600006103515625</AltitudeMeters>
            <DistanceMeters>1857.7084412358</DistanceMeters>
          </Trackpoint>
          <Trackpoint>
            <Time>2022-02-06T07:54:37.000Z</Time>
            <Position>
              <LatitudeDegrees>39.12878670729696750640869140625</LatitudeDegrees>
              <LongitudeDegrees>-0.35402250476181507110595703125</LongitudeDegrees>
            </Position>
            <AltitudeMeters>277.399993896484375</AltitudeMeters>
            <DistanceMeters>1878.1930359907</DistanceMeters>
          </Trackpoint>
          <Trackpoint>
            <Time>2022-02-06T07:54:51.000Z</Time>
            <Position>
              <LatitudeDegrees>39.1289497353136539459228515625</LatitudeDegrees>
              <LongitudeDegrees>-0.35388940013945102691650390625</LongitudeDegrees>
            </Position>
            <AltitudeMeters>279.79998779296875</AltitudeMeters>
            <DistanceMeters>1899.6715961233</DistanceMeters>
          </Trackpoint>
          <Trackpoint>
            <Time>2022-02-06T07:55:00.000Z</Time>
            <Position>
              <LatitudeDegrees>39.12904369644820690155029296875</LatitudeDegrees>
              <LongitudeDegrees>-0.3538190759718418121337890625</LongitudeDegrees>
            </Position>
            <AltitudeMeters>281.79998779296875</AltitudeMeters>
            <DistanceMeters>1911.7646556208</DistanceMeters>
          </Trackpoint>
          <Trackpoint>
            <Time>2022-02-06T07:55:15.000Z</Time>
            <Position>
              <LatitudeDegrees>39.12921376526355743408203125</LatitudeDegrees>
              <LongitudeDegrees>-0.35372209735214710235595703125</LongitudeDegrees>
            </Position>
            <AltitudeMeters>284.20001220703125</AltitudeMeters>
            <DistanceMeters>1932.4628177791</DistanceMeters>
          </Trackpoint>
          <Trackpoint>
            <Time>2022-02-06T07:55:28.000Z</Time>
            <Position>
              <LatitudeDegrees>39.129382073879241943359375</LatitudeDegrees>
              <LongitudeDegrees>-0.3536135517060756683349609375</LongitudeDegrees>
            </Position>
            <AltitudeMeters>287.399993896484375</AltitudeMeters>
            <DistanceMeters>1953.4092579124</DistanceMeters>
          </Trackpoint>
          <Trackpoint>
            <Time>2022-02-06T07:55:35.000Z</Time>
            <Position>
              <LatitudeDegrees>39.12942306138575077056884765625</LatitudeDegrees>
              <LongitudeDegrees>-0.35352948121726512908935546875</LongitudeDegrees>
            </Position>
            <AltitudeMeters>290.399993896484375</AltitudeMeters>
            <DistanceMeters>1961.9827532471</DistanceMeters>
          </Trackpoint>
          <Trackpoint>
            <Time>2022-02-06T07:55:52.000Z</Time>
            <Position>
              <LatitudeDegrees>39.12950755096971988677978515625</LatitudeDegrees>
              <LongitudeDegrees>-0.353325717151165008544921875</LongitudeDegrees>
            </Position>
            <AltitudeMeters>297.600006103515625</AltitudeMeters>
            <DistanceMeters>1981.9313481552</DistanceMeters>
          </Trackpoint>
          <Trackpoint>
            <Time>2022-02-06T07:56:16.000Z</Time>
            <Position>
              <LatitudeDegrees>39.12964970804750919342041015625</LatitudeDegrees>
              <LongitudeDegrees>-0.35320107825100421905517578125</LongitudeDegrees>
            </Position>
            <AltitudeMeters>301.79998779296875</AltitudeMeters>
            <DistanceMeters>2001.0664347673</DistanceMeters>
          </Trackpoint>
          <Trackpoint>
            <Time>2022-02-06T07:56:23.000Z</Time>
            <Position>
              <LatitudeDegrees>39.12970729172229766845703125</LatitudeDegrees>
              <LongitudeDegrees>-0.3532028384506702423095703125</LongitudeDegrees>
            </Position>
            <AltitudeMeters>302.399993896484375</AltitudeMeters>
            <DistanceMeters>2007.4777457075</DistanceMeters>
          </Trackpoint>
          <Trackpoint>
            <Time>2022-02-06T07:57:11.000Z</Time>
            <Position>
              <LatitudeDegrees>39.1301845572888851165771484375</LatitudeDegrees>
              <LongitudeDegrees>-0.35328372381627559661865234375</LongitudeDegrees>
            </Position>
            <AltitudeMeters>319.20001220703125</AltitudeMeters>
            <DistanceMeters>2061.0554556323</DistanceMeters>
          </Trackpoint>
          <Trackpoint>
            <Time>2022-02-06T07:57:28.000Z</Time>
            <Position>
              <LatitudeDegrees>39.130346663296222686767578125</LatitudeDegrees>
              <LongitudeDegrees>-0.35339319147169589996337890625</LongitudeDegrees>
            </Position>
            <AltitudeMeters>330.399993896484375</AltitudeMeters>
            <DistanceMeters>2081.4235623678</DistanceMeters>
          </Trackpoint>
          <Trackpoint>
            <Time>2022-02-06T07:57:44.000Z</Time>
            <Position>
              <LatitudeDegrees>39.13047842681407928466796875</LatitudeDegrees>
              <LongitudeDegrees>-0.35347759723663330078125</LongitudeDegrees>
            </Position>
            <AltitudeMeters>336</AltitudeMeters>
            <DistanceMeters>2097.7998940788</DistanceMeters>
          </Trackpoint>
          <Trackpoint>
            <Time>2022-02-06T07:58:02.000Z</Time>
            <Position>
              <LatitudeDegrees>39.130406342446804046630859375</LatitudeDegrees>
              <LongitudeDegrees>-0.35325807519257068634033203125</LongitudeDegrees>
            </Position>
            <AltitudeMeters>340.79998779296875</AltitudeMeters>
            <DistanceMeters>2118.3812413601</DistanceMeters>
          </Trackpoint>
          <Trackpoint>
            <Time>2022-02-06T07:58:23.000Z</Time>
            <Position>
              <LatitudeDegrees>39.130341298878192901611328125</LatitudeDegrees>
              <LongitudeDegrees>-0.35304374992847442626953125</LongitudeDegrees>
            </Position>
            <AltitudeMeters>342.600006103515625</AltitudeMeters>
            <DistanceMeters>2138.2515977342</DistanceMeters>
          </Trackpoint>
          <Trackpoint>
            <Time>2022-02-06T07:58:41.000Z</Time>
            <Position>
              <LatitudeDegrees>39.130191095173358917236328125</LatitudeDegrees>
              <LongitudeDegrees>-0.35292061977088451385498046875</LongitudeDegrees>
            </Position>
            <AltitudeMeters>335.79998779296875</AltitudeMeters>
            <DistanceMeters>2158.0632433679</DistanceMeters>
          </Trackpoint>
          <Trackpoint>
            <Time>2022-02-06T07:59:01.000Z</Time>
            <Position>
              <LatitudeDegrees>39.130090177059173583984375</LatitudeDegrees>
              <LongitudeDegrees>-0.35275884903967380523681640625</LongitudeDegrees>
            </Position>
            <AltitudeMeters>337.600006103515625</AltitudeMeters>
            <DistanceMeters>2175.9865513631</DistanceMeters>
          </Trackpoint>
          <Trackpoint>
            <Time>2022-02-06T07:59:07.000Z</Time>
            <Position>
              <LatitudeDegrees>39.13015748374164104461669921875</LatitudeDegrees>
              <LongitudeDegrees>-0.3527552448213100433349609375</LongitudeDegrees>
            </Position>
            <AltitudeMeters>342</AltitudeMeters>
            <DistanceMeters>2183.4840326645</DistanceMeters>
          </Trackpoint>
          <Trackpoint>
            <Time>2022-02-06T07:59:28.000Z</Time>
            <Position>
              <LatitudeDegrees>39.130175672471523284912109375</LatitudeDegrees>
              <LongitudeDegrees>-0.3527069650590419769287109375</LongitudeDegrees>
            </Position>
            <AltitudeMeters>345</AltitudeMeters>
            <DistanceMeters>2188.1170113723</DistanceMeters>
          </Trackpoint>
          <Trackpoint>
            <Time>2022-02-06T07:59:48.000Z</Time>
            <Position>
              <LatitudeDegrees>39.13004390895366668701171875</LatitudeDegrees>
              <LongitudeDegrees>-0.35253086127340793609619140625</LongitudeDegrees>
            </Position>
            <AltitudeMeters>343.20001220703125</AltitudeMeters>
            <DistanceMeters>2209.241815461</DistanceMeters>
          </Trackpoint>
          <Trackpoint>
            <Time>2022-02-06T08:00:04.000Z</Time>
            <Position>
              <LatitudeDegrees>39.12994944490492343902587890625</LatitudeDegrees>
              <LongitudeDegrees>-0.35233338363468647003173828125</LongitudeDegrees>
            </Position>
            <AltitudeMeters>347</AltitudeMeters>
            <DistanceMeters>2229.2728517974</DistanceMeters>
          </Trackpoint>
          <Trackpoint>
            <Time>2022-02-06T08:00:19.000Z</Time>
            <Position>
              <LatitudeDegrees>39.12975330837070941925048828125</LatitudeDegrees>
              <LongitudeDegrees>-0.35229566507041454315185546875</LongitudeDegrees>
            </Position>
            <AltitudeMeters>343.20001220703125</AltitudeMeters>
            <DistanceMeters>2251.3448391151</DistanceMeters>
          </Trackpoint>
          <Trackpoint>
            <Time>2022-02-06T08:00:25.000Z</Time>
            <Position>
              <LatitudeDegrees>39.129585921764373779296875</LatitudeDegrees>
              <LongitudeDegrees>-0.35222374834120273590087890625</LongitudeDegrees>
            </Position>
            <AltitudeMeters>343.399993896484375</AltitudeMeters>
            <DistanceMeters>2270.9825183215</DistanceMeters>
          </Trackpoint>
          <Trackpoint>
            <Time>2022-02-06T08:00:32.000Z</Time>
            <Position>
              <LatitudeDegrees>39.12941501475870609283447265625</LatitudeDegrees>
              <LongitudeDegrees>-0.35210430622100830078125</LongitudeDegrees>
            </Position>
            <AltitudeMeters>342</AltitudeMeters>
            <DistanceMeters>2292.6202493363</DistanceMeters>
          </Trackpoint>
          <Trackpoint>
            <Time>2022-02-06T08:00:46.000Z</Time>
            <Position>
              <LatitudeDegrees>39.12924461066722869873046875</LatitudeDegrees>
              <LongitudeDegrees>-0.352022163569927215576171875</LongitudeDegrees>
            </Position>
            <AltitudeMeters>341.20001220703125</AltitudeMeters>
            <DistanceMeters>2312.869191309</DistanceMeters>
          </Trackpoint>
          <Trackpoint>
            <Time>2022-02-06T08:01:05.000Z</Time>
            <Position>
              <LatitudeDegrees>39.129082672297954559326171875</LatitudeDegrees>
              <LongitudeDegrees>-0.351913869380950927734375</LongitudeDegrees>
            </Position>
            <AltitudeMeters>344.600006103515625</AltitudeMeters>
            <DistanceMeters>2333.1742456127</DistanceMeters>
          </Trackpoint>
          <Trackpoint>
            <Time>2022-02-06T08:01:32.000Z</Time>
            <Position>
              <LatitudeDegrees>39.12900212220847606658935546875</LatitudeDegrees>
              <LongitudeDegrees>-0.3517135418951511383056640625</LongitudeDegrees>
            </Position>
            <AltitudeMeters>352</AltitudeMeters>
            <DistanceMeters>2352.6558808865</DistanceMeters>
          </Trackpoint>
          <Trackpoint>
            <Time>2022-02-06T08:01:56.000Z</Time>
            <Position>
              <LatitudeDegrees>39.12891805171966552734375</LatitudeDegrees>
              <LongitudeDegrees>-0.35151354968547821044921875</LongitudeDegrees>
            </Position>
            <AltitudeMeters>357.600006103515625</AltitudeMeters>
            <DistanceMeters>2372.2956292378</DistanceMeters>
          </Trackpoint>
          <Trackpoint>
            <Time>2022-02-06T08:02:17.000Z</Time>
            <Position>
              <LatitudeDegrees>39.1288095898926258087158203125</LatitudeDegrees>
              <LongitudeDegrees>-0.35132554359734058380126953125</LongitudeDegrees>
            </Position>
            <AltitudeMeters>361.79998779296875</AltitudeMeters>
            <DistanceMeters>2392.5249397621</DistanceMeters>
          </Trackpoint>
          <Trackpoint>
            <Time>2022-02-06T08:02:43.000Z</Time>
            <Position>
              <LatitudeDegrees>39.12882308475673198699951171875</LatitudeDegrees>
              <LongitudeDegrees>-0.35116075538098812103271484375</LongitudeDegrees>
            </Position>
            <AltitudeMeters>364.79998779296875</AltitudeMeters>
            <DistanceMeters>2406.831747329</DistanceMeters>
          </Trackpoint>
          <Trackpoint>
            <Time>2022-02-06T08:03:11.000Z</Time>
            <Position>
              <LatitudeDegrees>39.12895401008427143096923828125</LatitudeDegrees>
              <LongitudeDegrees>-0.35119704902172088623046875</LongitudeDegrees>
            </Position>
            <AltitudeMeters>366</AltitudeMeters>
            <DistanceMeters>2421.7367109544</DistanceMeters>
          </Trackpoint>
          <Trackpoint>
            <Time>2022-02-06T08:03:42.000Z</Time>
            <Position>
              <LatitudeDegrees>39.12890070118010044097900390625</LatitudeDegrees>
              <LongitudeDegrees>-0.35099722445011138916015625</LongitudeDegrees>
            </Position>
            <AltitudeMeters>369.79998779296875</AltitudeMeters>
            <DistanceMeters>2439.9813451759</DistanceMeters>
          </Trackpoint>
          <Trackpoint>
            <Time>2022-02-06T08:04:17.000Z</Time>
            <Position>
              <LatitudeDegrees>39.12884035147726535797119140625</LatitudeDegrees>
              <LongitudeDegrees>-0.35082598216831684112548828125</LongitudeDegrees>
            </Position>
            <AltitudeMeters>371</AltitudeMeters>
            <DistanceMeters>2456.2209074405</DistanceMeters>
          </Trackpoint>
          <Trackpoint>
            <Time>2022-02-06T08:04:47.000Z</Time>
            <Position>
              <LatitudeDegrees>39.12897077389061450958251953125</LatitudeDegrees>
              <LongitudeDegrees>-0.3507492877542972564697265625</LongitudeDegrees>
            </Position>
            <AltitudeMeters>376.600006103515625</AltitudeMeters>
            <DistanceMeters>2472.1763427247</DistanceMeters>
          </Trackpoint>
          <Trackpoint>
            <Time>2022-02-06T08:05:18.000Z</Time>
            <Position>
              <LatitudeDegrees>39.12890053354203701019287109375</LatitudeDegrees>
              <LongitudeDegrees>-0.3505454398691654205322265625</LongitudeDegrees>
            </Position>
            <AltitudeMeters>381.79998779296875</AltitudeMeters>
            <DistanceMeters>2491.434673382</DistanceMeters>
          </Trackpoint>
          <Trackpoint>
            <Time>2022-02-06T08:05:47.000Z</Time>
            <Position>
              <LatitudeDegrees>39.12880397401750087738037109375</LatitudeDegrees>
              <LongitudeDegrees>-0.35036078654229640960693359375</LongitudeDegrees>
            </Position>
            <AltitudeMeters>388.600006103515625</AltitudeMeters>
            <DistanceMeters>2510.6617974399</DistanceMeters>
          </Trackpoint>
          <Trackpoint>
            <Time>2022-02-06T08:06:18.000Z</Time>
            <Position>
              <LatitudeDegrees>39.12882727570831775665283203125</LatitudeDegrees>
              <LongitudeDegrees>-0.35020404495298862457275390625</LongitudeDegrees>
            </Position>
            <AltitudeMeters>396.399993896484375</AltitudeMeters>
            <DistanceMeters>2524.440998698</DistanceMeters>
          </Trackpoint>
          <Trackpoint>
            <Time>2022-02-06T08:06:42.000Z</Time>
            <Position>
              <LatitudeDegrees>39.1289949975907802581787109375</LatitudeDegrees>
              <LongitudeDegrees>-0.35028836689889430999755859375</LongitudeDegrees>
            </Position>
            <AltitudeMeters>396</AltitudeMeters>
            <DistanceMeters>2544.4781199677</DistanceMeters>
          </Trackpoint>
          <Trackpoint>
            <Time>2022-02-06T08:07:03.000Z</Time>
            <Position>
              <LatitudeDegrees>39.12913522683084011077880859375</LatitudeDegrees>
              <LongitudeDegrees>-0.35036061890423297882080078125</LongitudeDegrees>
            </Position>
            <AltitudeMeters>397.600006103515625</AltitudeMeters>
            <DistanceMeters>2561.2865702741</DistanceMeters>
          </Trackpoint>
          <Trackpoint>
            <Time>2022-02-06T08:07:30.000Z</Time>
            <Position>
              <LatitudeDegrees>39.12907906807959079742431640625</LatitudeDegrees>
              <LongitudeDegrees>-0.35016180016100406646728515625</LongitudeDegrees>
            </Position>
            <AltitudeMeters>404.399993896484375</AltitudeMeters>
            <DistanceMeters>2579.5549463709</DistanceMeters>
          </Trackpoint>
          <Trackpoint>
            <Time>2022-02-06T08:07:58.000Z</Time>
            <Position>
              <LatitudeDegrees>39.1289889626204967498779296875</LatitudeDegrees>
              <LongitudeDegrees>-0.34995929338037967681884765625</LongitudeDegrees>
            </Position>
            <AltitudeMeters>410.79998779296875</AltitudeMeters>
            <DistanceMeters>2599.7113646878</DistanceMeters>
          </Trackpoint>
          <Trackpoint>
            <Time>2022-02-06T08:08:29.000Z</Time>
            <Position>
              <LatitudeDegrees>39.12889190018177032470703125</LatitudeDegrees>
              <LongitudeDegrees>-0.34977279603481292724609375</LongitudeDegrees>
            </Position>
            <AltitudeMeters>415.399993896484375</AltitudeMeters>
            <DistanceMeters>2619.1019377318</DistanceMeters>
          </Trackpoint>
          <Trackpoint>
            <Time>2022-02-06T08:09:03.000Z</Time>
            <Position>
              <LatitudeDegrees>39.128801040351390838623046875</LatitudeDegrees>
              <LongitudeDegrees>-0.34958244301378726959228515625</LongitudeDegrees>
            </Position>
            <AltitudeMeters>420.399993896484375</AltitudeMeters>
            <DistanceMeters>2638.3991471776</DistanceMeters>
          </Trackpoint>
          <Trackpoint>
            <Time>2022-02-06T08:09:45.000Z</Time>
            <Position>
              <LatitudeDegrees>39.12877849303185939788818359375</LatitudeDegrees>
              <LongitudeDegrees>-0.34934875555336475372314453125</LongitudeDegrees>
            </Position>
            <AltitudeMeters>431</AltitudeMeters>
            <DistanceMeters>2658.7310892769</DistanceMeters>
          </Trackpoint>
          <Trackpoint>
            <Time>2022-02-06T08:10:21.000Z</Time>
            <Position>
              <LatitudeDegrees>39.128700457513332366943359375</LatitudeDegrees>
              <LongitudeDegrees>-0.3491399623453617095947265625</LongitudeDegrees>
            </Position>
            <AltitudeMeters>438</AltitudeMeters>
            <DistanceMeters>2678.741603507</DistanceMeters>
          </Trackpoint>
          <Trackpoint>
            <Time>2022-02-06T08:10:58.000Z</Time>
            <Position>
              <LatitudeDegrees>39.12859844975173473358154296875</LatitudeDegrees>
              <LongitudeDegrees>-0.34897190518677234649658203125</LongitudeDegrees>
            </Position>
            <AltitudeMeters>441.20001220703125</AltitudeMeters>
            <DistanceMeters>2697.1657616589</DistanceMeters>
          </Trackpoint>
          <Trackpoint>
            <Time>2022-02-06T08:11:36.000Z</Time>
            <Position>
              <LatitudeDegrees>39.1284411214292049407958984375</LatitudeDegrees>
              <LongitudeDegrees>-0.34887853078544139862060546875</LongitudeDegrees>
            </Position>
            <AltitudeMeters>434.20001220703125</AltitudeMeters>
            <DistanceMeters>2716.4435415116</DistanceMeters>
          </Trackpoint>
          <Trackpoint>
            <Time>2022-02-06T08:12:11.000Z</Time>
            <Position>
              <LatitudeDegrees>39.12835051305592060089111328125</LatitudeDegrees>
              <LongitudeDegrees>-0.348697565495967864990234375</LongitudeDegrees>
            </Position>
            <AltitudeMeters>445.399993896484375</AltitudeMeters>
            <DistanceMeters>2735.040150548</DistanceMeters>
          </Trackpoint>
          <Trackpoint>
            <Time>2022-02-06T08:12:51.000Z</Time>
            <Position>
              <LatitudeDegrees>39.12826166488230228424072265625</LatitudeDegrees>
              <LongitudeDegrees>-0.348539650440216064453125</LongitudeDegrees>
            </Position>
            <AltitudeMeters>452.20001220703125</AltitudeMeters>
            <DistanceMeters>2751.8832168236</DistanceMeters>
          </Trackpoint>
          <Trackpoint>
            <Time>2022-02-06T08:13:53.000Z</Time>
            <Position>
              <LatitudeDegrees>39.1281651891767978668212890625</LatitudeDegrees>
              <LongitudeDegrees>-0.3484036959707736968994140625</LongitudeDegrees>
            </Position>
            <AltitudeMeters>454</AltitudeMeters>
            <DistanceMeters>2767.7918922082</DistanceMeters>
          </Trackpoint>
          <Trackpoint>
            <Time>2022-02-06T08:14:43.000Z</Time>
            <Position>
              <LatitudeDegrees>39.128020517528057098388671875</LatitudeDegrees>
              <LongitudeDegrees>-0.34834275953471660614013671875</LongitudeDegrees>
            </Position>
            <AltitudeMeters>459.20001220703125</AltitudeMeters>
            <DistanceMeters>2784.7317201069</DistanceMeters>
          </Trackpoint>
          <Trackpoint>
            <Time>2022-02-06T08:15:36.000Z</Time>
            <Position>
              <LatitudeDegrees>39.1278652846813201904296875</LatitudeDegrees>
              <LongitudeDegrees>-0.348303951323032379150390625</LongitudeDegrees>
            </Position>
            <AltitudeMeters>462.20001220703125</AltitudeMeters>
            <DistanceMeters>2802.3311704422</DistanceMeters>
          </Trackpoint>
          <Trackpoint>
            <Time>2022-02-06T08:16:52.000Z</Time>
            <Position>
              <LatitudeDegrees>39.1277799569070339202880859375</LatitudeDegrees>
              <LongitudeDegrees>-0.3482712619006633758544921875</LongitudeDegrees>
            </Position>
            <AltitudeMeters>463.79998779296875</AltitudeMeters>
            <DistanceMeters>2812.2385884179</DistanceMeters>
          </Trackpoint>
          <Trackpoint>
            <Time>2022-02-06T08:17:43.000Z</Time>
            <Position>
              <LatitudeDegrees>39.12777551449835300445556640625</LatitudeDegrees>
              <LongitudeDegrees>-0.34809239208698272705078125</LongitudeDegrees>
            </Position>
            <AltitudeMeters>473</AltitudeMeters>
            <DistanceMeters>2827.6902945107</DistanceMeters>
          </Trackpoint>
          <Trackpoint>
            <Time>2022-02-06T08:19:31.000Z</Time>
            <Position>
              <LatitudeDegrees>39.12771633826196193695068359375</LatitudeDegrees>
              <LongitudeDegrees>-0.348011590540409088134765625</LongitudeDegrees>
            </Position>
            <AltitudeMeters>479.79998779296875</AltitudeMeters>
            <DistanceMeters>2837.2851696712</DistanceMeters>
          </Trackpoint>
          <Trackpoint>
            <Time>2022-02-06T08:20:14.000Z</Time>
            <Position>
              <LatitudeDegrees>39.127563871443271636962890625</LatitudeDegrees>
              <LongitudeDegrees>-0.3479276038706302642822265625</LongitudeDegrees>
            </Position>
            <AltitudeMeters>487.79998779296875</AltitudeMeters>
            <DistanceMeters>2855.73944568</DistanceMeters>
          </Trackpoint>
          <Trackpoint>
            <Time>2022-02-06T08:20:37.000Z</Time>
            <Position>
              <LatitudeDegrees>39.1274024359881877899169921875</LatitudeDegrees>
              <LongitudeDegrees>-0.3478186391294002532958984375</LongitudeDegrees>
            </Position>
            <AltitudeMeters>495.399993896484375</AltitudeMeters>
            <DistanceMeters>2876.0218065505</DistanceMeters>
          </Trackpoint>
          <Trackpoint>
            <Time>2022-02-06T08:21:27.000Z</Time>
            <Position>
              <LatitudeDegrees>39.12728969939053058624267578125</LatitudeDegrees>
              <LongitudeDegrees>-0.347725935280323028564453125</LongitudeDegrees>
            </Position>
            <AltitudeMeters>496.600006103515625</AltitudeMeters>
            <DistanceMeters>2890.9052471892</DistanceMeters>
          </Trackpoint>
          <Trackpoint>
            <Time>2022-02-06T08:22:10.000Z</Time>
            <Position>
              <LatitudeDegrees>39.1271690838038921356201171875</LatitudeDegrees>
              <LongitudeDegrees>-0.34757866524159908294677734375</LongitudeDegrees>
            </Position>
            <AltitudeMeters>492.399993896484375</AltitudeMeters>
            <DistanceMeters>2909.3959417245</DistanceMeters>
          </Trackpoint>
          <Trackpoint>
            <Time>2022-02-06T08:22:41.000Z</Time>
            <Position>
              <LatitudeDegrees>39.12700471468269824981689453125</LatitudeDegrees>
              <LongitudeDegrees>-0.347548238933086395263671875</LongitudeDegrees>
            </Position>
            <AltitudeMeters>490.79998779296875</AltitudeMeters>
            <DistanceMeters>2927.878088021</DistanceMeters>
          </Trackpoint>
          <Trackpoint>
            <Time>2022-02-06T08:23:24.000Z</Time>
            <Position>
              <LatitudeDegrees>39.1268475539982318878173828125</LatitudeDegrees>
              <LongitudeDegrees>-0.34761236049234867095947265625</LongitudeDegrees>
            </Position>
            <AltitudeMeters>490.79998779296875</AltitudeMeters>
            <DistanceMeters>2946.2256279039</DistanceMeters>
          </Trackpoint>
          <Trackpoint>
            <Time>2022-02-06T08:23:59.000Z</Time>
            <Position>
              <LatitudeDegrees>39.12670514546334743499755859375</LatitudeDegrees>
              <LongitudeDegrees>-0.3474994562566280364990234375</LongitudeDegrees>
            </Position>
            <AltitudeMeters>496</AltitudeMeters>
            <DistanceMeters>2964.8336444893</DistanceMeters>
          </Trackpoint>
          <Trackpoint>
            <Time>2022-02-06T08:24:32.000Z</Time>
            <Position>
              <LatitudeDegrees>39.12659970112144947052001953125</LatitudeDegrees>
              <LongitudeDegrees>-0.3476719558238983154296875</LongitudeDegrees>
            </Position>
            <AltitudeMeters>496</AltitudeMeters>
            <DistanceMeters>2983.7959390214</DistanceMeters>
          </Trackpoint>
          <Trackpoint>
            <Time>2022-02-06T08:25:18.000Z</Time>
            <Position>
              <LatitudeDegrees>39.1264764033257961273193359375</LatitudeDegrees>
              <LongitudeDegrees>-0.34777346067130565643310546875</LongitudeDegrees>
            </Position>
            <AltitudeMeters>498.20001220703125</AltitudeMeters>
            <DistanceMeters>3000.0793703128</DistanceMeters>
          </Trackpoint>
          <Trackpoint>
            <Time>2022-02-06T08:25:21.000Z</Time>
            <Position>
              <LatitudeDegrees>39.126448072493076324462890625</LatitudeDegrees>
              <LongitudeDegrees>-0.34778687171638011932373046875</LongitudeDegrees>
            </Position>
            <AltitudeMeters>498.79998779296875</AltitudeMeters>
            <DistanceMeters>3003.4390720191</DistanceMeters>
          </Trackpoint>
          <Trackpoint>
            <Time>2022-02-06T08:26:03.000Z</Time>
            <Position>
              <LatitudeDegrees>39.12633298896253108978271484375</LatitudeDegrees>
              <LongitudeDegrees>-0.347726605832576751708984375</LongitudeDegrees>
            </Position>
            <AltitudeMeters>508.600006103515625</AltitudeMeters>
            <DistanceMeters>3017.2647241978</DistanceMeters>
          </Trackpoint>
          <Trackpoint>
            <Time>2022-02-06T08:27:15.000Z</Time>
            <Position>
              <LatitudeDegrees>39.1263634152710437774658203125</LatitudeDegrees>
              <LongitudeDegrees>-0.3475527651607990264892578125</LongitudeDegrees>
            </Position>
            <AltitudeMeters>510.79998779296875</AltitudeMeters>
            <DistanceMeters>3032.6520112998</DistanceMeters>
          </Trackpoint>
          <Trackpoint>
            <Time>2022-02-06T08:28:35.000Z</Time>
            <Position>
              <LatitudeDegrees>39.12638596259057521820068359375</LatitudeDegrees>
              <LongitudeDegrees>-0.34748177044093608856201171875</LongitudeDegrees>
            </Position>
            <AltitudeMeters>511</AltitudeMeters>
            <DistanceMeters>3039.2753119396</DistanceMeters>
          </Trackpoint>
          <Trackpoint>
            <Time>2022-02-06T08:30:16.000Z</Time>
            <Position>
              <LatitudeDegrees>39.12636333145201206207275390625</LatitudeDegrees>
              <LongitudeDegrees>-0.347595512866973876953125</LongitudeDegrees>
            </Position>
            <AltitudeMeters>509.79998779296875</AltitudeMeters>
            <DistanceMeters>3049.4138207136</DistanceMeters>
          </Trackpoint>
          <Trackpoint>
            <Time>2022-02-06T08:31:28.000Z</Time>
            <Position>
              <LatitudeDegrees>39.1263000480830669403076171875</LatitudeDegrees>
              <LongitudeDegrees>-0.3477670066058635711669921875</LongitudeDegrees>
            </Position>
            <AltitudeMeters>508.20001220703125</AltitudeMeters>
            <DistanceMeters>3065.8110926245</DistanceMeters>
          </Trackpoint>
          <Trackpoint>
            <Time>2022-02-06T08:32:06.000Z</Time>
            <Position>
              <LatitudeDegrees>39.12643407471477985382080078125</LatitudeDegrees>
              <LongitudeDegrees>-0.3478357382118701934814453125</LongitudeDegrees>
            </Position>
            <AltitudeMeters>496.399993896484375</AltitudeMeters>
            <DistanceMeters>3081.8658271915</DistanceMeters>
          </Trackpoint>
          <Trackpoint>
            <Time>2022-02-06T08:32:07.000Z</Time>
            <Position>
              <LatitudeDegrees>39.12644497118890285491943359375</LatitudeDegrees>
              <LongitudeDegrees>-0.347828529775142669677734375</LongitudeDegrees>
            </Position>
            <AltitudeMeters>496.399993896484375</AltitudeMeters>
            <DistanceMeters>3083.2297171238</DistanceMeters>
          </Trackpoint>
          <Trackpoint>
            <Time>2022-02-06T08:32:09.000Z</Time>
            <Position>
              <LatitudeDegrees>39.12648151628673076629638671875</LatitudeDegrees>
              <LongitudeDegrees>-0.34780933521687984466552734375</LongitudeDegrees>
            </Position>
            <AltitudeMeters>495.600006103515625</AltitudeMeters>
            <DistanceMeters>3087.6215553818</DistanceMeters>
          </Trackpoint>
          <Trackpoint>
            <Time>2022-02-06T08:32:52.000Z</Time>
            <Position>
              <LatitudeDegrees>39.12661738693714141845703125</LatitudeDegrees>
              <LongitudeDegrees>-0.34768226556479930877685546875</LongitudeDegrees>
            </Position>
            <AltitudeMeters>495.20001220703125</AltitudeMeters>
            <DistanceMeters>3106.3048804343</DistanceMeters>
          </Trackpoint>
          <Trackpoint>
            <Time>2022-02-06T08:32:55.000Z</Time>
            <Position>
              <LatitudeDegrees>39.12662786431610584259033203125</LatitudeDegrees>
              <LongitudeDegrees>-0.3476483188569545745849609375</LongitudeDegrees>
            </Position>
            <AltitudeMeters>495.600006103515625</AltitudeMeters>
            <DistanceMeters>3109.4594238626</DistanceMeters>
          </Trackpoint>
          <Trackpoint>
            <Time>2022-02-06T08:33:33.000Z</Time>
            <Position>
              <LatitudeDegrees>39.12672928534448146820068359375</LatitudeDegrees>
              <LongitudeDegrees>-0.3475091792643070220947265625</LongitudeDegrees>
            </Position>
            <AltitudeMeters>495</AltitudeMeters>
            <DistanceMeters>3125.9442993703</DistanceMeters>
          </Trackpoint>
          <Trackpoint>
            <Time>2022-02-06T08:34:12.000Z</Time>
            <Position>
              <LatitudeDegrees>39.12687756121158599853515625</LatitudeDegrees>
              <LongitudeDegrees>-0.34758553840219974517822265625</LongitudeDegrees>
            </Position>
            <AltitudeMeters>491</AltitudeMeters>
            <DistanceMeters>3143.7158193849</DistanceMeters>
          </Trackpoint>
          <Trackpoint>
            <Time>2022-02-06T08:35:08.000Z</Time>
            <Position>
              <LatitudeDegrees>39.12702064029872417449951171875</LatitudeDegrees>
              <LongitudeDegrees>-0.3475537709891796112060546875</LongitudeDegrees>
            </Position>
            <AltitudeMeters>490.600006103515625</AltitudeMeters>
            <DistanceMeters>3159.875111465</DistanceMeters>
          </Trackpoint>
          <Trackpoint>
            <Time>2022-02-06T08:35:29.000Z</Time>
            <Position>
              <LatitudeDegrees>39.12718609906733036041259765625</LatitudeDegrees>
              <LongitudeDegrees>-0.34762778319418430328369140625</LongitudeDegrees>
            </Position>
            <AltitudeMeters>493</AltitudeMeters>
            <DistanceMeters>3179.3680996065</DistanceMeters>
          </Trackpoint>
          <Trackpoint>
            <Time>2022-02-06T08:36:15.000Z</Time>
            <Position>
              <LatitudeDegrees>39.1273119114339351654052734375</LatitudeDegrees>
              <LongitudeDegrees>-0.34761722199618816375732421875</LongitudeDegrees>
            </Position>
            <AltitudeMeters>496.79998779296875</AltitudeMeters>
            <DistanceMeters>3193.4012000155</DistanceMeters>
          </Trackpoint>
          <Trackpoint>
            <Time>2022-02-06T08:36:39.000Z</Time>
            <Position>
              <LatitudeDegrees>39.12747561000287532806396484375</LatitudeDegrees>
              <LongitudeDegrees>-0.34767329692840576171875</LongitudeDegrees>
            </Position>
            <AltitudeMeters>501.20001220703125</AltitudeMeters>
            <DistanceMeters>3212.253647569</DistanceMeters>
          </Trackpoint>
          <Trackpoint>
            <Time>2022-02-06T08:36:55.000Z</Time>
            <Position>
              <LatitudeDegrees>39.12760041654109954833984375</LatitudeDegrees>
              <LongitudeDegrees>-0.34770372323691844940185546875</LongitudeDegrees>
            </Position>
            <AltitudeMeters>499.399993896484375</AltitudeMeters>
            <DistanceMeters>3226.3909274324</DistanceMeters>
          </Trackpoint>
          <Trackpoint>
            <Time>2022-02-06T08:37:43.000Z</Time>
            <Position>
              <LatitudeDegrees>39.1277323476970195770263671875</LatitudeDegrees>
              <LongitudeDegrees>-0.34762023948132991790771484375</LongitudeDegrees>
            </Position>
            <AltitudeMeters>498.79998779296875</AltitudeMeters>
            <DistanceMeters>3242.7487764715</DistanceMeters>
          </Trackpoint>
          <Trackpoint>
            <Time>2022-02-06T08:38:26.000Z</Time>
            <Position>
              <LatitudeDegrees>39.1278677992522716522216796875</LatitudeDegrees>
              <LongitudeDegrees>-0.34760230220854282379150390625</LongitudeDegrees>
            </Position>
            <AltitudeMeters>493.399993896484375</AltitudeMeters>
            <DistanceMeters>3257.9039734135</DistanceMeters>
          </Trackpoint>
          <Trackpoint>
            <Time>2022-02-06T08:38:31.000Z</Time>
            <Position>
              <LatitudeDegrees>39.12790677510201930999755859375</LatitudeDegrees>
              <LongitudeDegrees>-0.34763767383992671966552734375</LongitudeDegrees>
            </Position>
            <AltitudeMeters>490.79998779296875</AltitudeMeters>
            <DistanceMeters>3263.2101752899</DistanceMeters>
          </Trackpoint>
          <Trackpoint>
            <Time>2022-02-06T08:38:39.000Z</Time>
            <Position>
              <LatitudeDegrees>39.12797349505126476287841796875</LatitudeDegrees>
              <LongitudeDegrees>-0.3476826846599578857421875</LongitudeDegrees>
            </Position>
            <AltitudeMeters>487.79998779296875</AltitudeMeters>
            <DistanceMeters>3271.5908634824</DistanceMeters>
          </Trackpoint>
          <Trackpoint>
            <Time>2022-02-06T08:38:42.000Z</Time>
            <Position>
              <LatitudeDegrees>39.12799545563757419586181640625</LatitudeDegrees>
              <LongitudeDegrees>-0.34770892001688480377197265625</LongitudeDegrees>
            </Position>
            <AltitudeMeters>487.399993896484375</AltitudeMeters>
            <DistanceMeters>3274.9235791958</DistanceMeters>
          </Trackpoint>
          <Trackpoint>
            <Time>2022-02-06T08:38:47.000Z</Time>
            <Position>
              <LatitudeDegrees>39.1280149854719638824462890625</LatitudeDegrees>
              <LongitudeDegrees>-0.34775787033140659332275390625</LongitudeDegrees>
            </Position>
            <AltitudeMeters>485.79998779296875</AltitudeMeters>
            <DistanceMeters>3279.6768150686</DistanceMeters>
          </Trackpoint>
          <Trackpoint>
            <Time>2022-02-06T08:39:21.000Z</Time>
            <Position>
              <LatitudeDegrees>39.12814767099916934967041015625</LatitudeDegrees>
              <LongitudeDegrees>-0.3478072397410869598388671875</LongitudeDegrees>
            </Position>
            <AltitudeMeters>485.399993896484375</AltitudeMeters>
            <DistanceMeters>3295.0482489716</DistanceMeters>
          </Trackpoint>
          <Trackpoint>
            <Time>2022-02-06T08:39:53.000Z</Time>
            <Position>
              <LatitudeDegrees>39.1283078491687774658203125</LatitudeDegrees>
              <LongitudeDegrees>-0.34791327081620693206787109375</LongitudeDegrees>
            </Position>
            <AltitudeMeters>481.79998779296875</AltitudeMeters>
            <DistanceMeters>3315.089425837</DistanceMeters>
          </Trackpoint>
          <Trackpoint>
            <Time>2022-02-06T08:40:36.000Z</Time>
            <Position>
              <LatitudeDegrees>39.12842662073671817779541015625</LatitudeDegrees>
              <LongitudeDegrees>-0.3480037115514278411865234375</LongitudeDegrees>
            </Position>
            <AltitudeMeters>496.399993896484375</AltitudeMeters>
            <DistanceMeters>3330.4429318069</DistanceMeters>
          </Trackpoint>
          <Trackpoint>
            <Time>2022-02-06T08:41:00.000Z</Time>
            <Position>
              <LatitudeDegrees>39.12857137620449066162109375</LatitudeDegrees>
              <LongitudeDegrees>-0.3481260873377323150634765625</LongitudeDegrees>
            </Position>
            <AltitudeMeters>506.399993896484375</AltitudeMeters>
            <DistanceMeters>3349.7101693518</DistanceMeters>
          </Trackpoint>
          <Trackpoint>
            <Time>2022-02-06T08:41:04.000Z</Time>
            <Position>
              <LatitudeDegrees>39.1285993717610836029052734375</LatitudeDegrees>
              <LongitudeDegrees>-0.3481217287480831146240234375</LongitudeDegrees>
            </Position>
            <AltitudeMeters>509.600006103515625</AltitudeMeters>
            <DistanceMeters>3352.8489292025</DistanceMeters>
          </Trackpoint>
          <Trackpoint>
            <Time>2022-02-06T08:41:47.000Z</Time>
            <Position>
              <LatitudeDegrees>39.1286966018378734588623046875</LatitudeDegrees>
              <LongitudeDegrees>-0.34825307317078113555908203125</LongitudeDegrees>
            </Position>
            <AltitudeMeters>516.20001220703125</AltitudeMeters>
            <DistanceMeters>3368.52459315</DistanceMeters>
          </Trackpoint>
          <Trackpoint>
            <Time>2022-02-06T08:42:27.000Z</Time>
            <Position>
              <LatitudeDegrees>39.1288297064602375030517578125</LatitudeDegrees>
              <LongitudeDegrees>-0.3483634628355503082275390625</LongitudeDegrees>
            </Position>
            <AltitudeMeters>521.20001220703125</AltitudeMeters>
            <DistanceMeters>3386.1407109707</DistanceMeters>
          </Trackpoint>
          <Trackpoint>
            <Time>2022-02-06T08:43:30.000Z</Time>
            <Position>
              <LatitudeDegrees>39.12895493209362030029296875</LatitudeDegrees>
              <LongitudeDegrees>-0.34839556552469730377197265625</LongitudeDegrees>
            </Position>
            <AltitudeMeters>520.4000244140625</AltitudeMeters>
            <DistanceMeters>3400.3515740547</DistanceMeters>
          </Trackpoint>
          <Trackpoint>
            <Time>2022-02-06T08:44:32.000Z</Time>
            <Position>
              <LatitudeDegrees>39.12905861623585224151611328125</LatitudeDegrees>
              <LongitudeDegrees>-0.3483185358345508575439453125</LongitudeDegrees>
            </Position>
            <AltitudeMeters>531.4000244140625</AltitudeMeters>
            <DistanceMeters>3413.670916449</DistanceMeters>
          </Trackpoint>
          <Trackpoint>
            <Time>2022-02-06T08:45:35.000Z</Time>
            <Position>
              <LatitudeDegrees>39.1290838457643985748291015625</LatitudeDegrees>
              <LongitudeDegrees>-0.34821443259716033935546875</LongitudeDegrees>
            </Position>
            <AltitudeMeters>537.79998779296875</AltitudeMeters>
            <DistanceMeters>3423.0876754817</DistanceMeters>
          </Trackpoint>
          <Trackpoint>
            <Time>2022-02-06T08:46:46.000Z</Time>
            <Position>
              <LatitudeDegrees>39.1291549243032932281494140625</LatitudeDegrees>
              <LongitudeDegrees>-0.348118208348751068115234375</LongitudeDegrees>
            </Position>
            <AltitudeMeters>544.4000244140625</AltitudeMeters>
            <DistanceMeters>3434.5595687036</DistanceMeters>
          </Trackpoint>
          <Trackpoint>
            <Time>2022-02-06T08:46:47.000Z</Time>
            <Position>
              <LatitudeDegrees>39.1291554272174835205078125</LatitudeDegrees>
              <LongitudeDegrees>-0.34811611287295818328857421875</LongitudeDegrees>
            </Position>
            <AltitudeMeters>544.5999755859375</AltitudeMeters>
            <DistanceMeters>3434.7496221324</DistanceMeters>
          </Trackpoint>
          <Trackpoint>
            <Time>2022-02-06T08:47:12.000Z</Time>
            <Position>
              <LatitudeDegrees>39.129161797463893890380859375</LatitudeDegrees>
              <LongitudeDegrees>-0.34802307374775409698486328125</LongitudeDegrees>
            </Position>
            <AltitudeMeters>548.5999755859375</AltitudeMeters>
            <DistanceMeters>3442.8140260502</DistanceMeters>
          </Trackpoint>
          <Trackpoint>
            <Time>2022-02-06T08:47:59.000Z</Time>
            <Position>
              <LatitudeDegrees>39.12920731119811534881591796875</LatitudeDegrees>
              <LongitudeDegrees>-0.3479524143040180206298828125</LongitudeDegrees>
            </Position>
            <AltitudeMeters>549</AltitudeMeters>
            <DistanceMeters>3450.7429220769</DistanceMeters>
          </Trackpoint>
          <Trackpoint>
            <Time>2022-02-06T08:48:00.000Z</Time>
            <Position>
              <LatitudeDegrees>39.1292062215507030487060546875</LatitudeDegrees>
              <LongitudeDegrees>-0.3479482233524322509765625</LongitudeDegrees>
            </Position>
            <AltitudeMeters>548.79998779296875</AltitudeMeters>
            <DistanceMeters>3451.1109589591</DistanceMeters>
          </Trackpoint>
          <Trackpoint>
            <Time>2022-02-06T08:48:01.000Z</Time>
            <Position>
              <LatitudeDegrees>39.129207395017147064208984375</LatitudeDegrees>
              <LongitudeDegrees>-0.34795157611370086669921875</LongitudeDegrees>
            </Position>
            <AltitudeMeters>549</AltitudeMeters>
            <DistanceMeters>3451.4261269157</DistanceMeters>
          </Trackpoint>
          <Trackpoint>
            <Time>2022-02-06T08:48:02.000Z</Time>
            <Position>
              <LatitudeDegrees>39.12920680828392505645751953125</LatitudeDegrees>
              <LongitudeDegrees>-0.347948558628559112548828125</LongitudeDegrees>
            </Position>
            <AltitudeMeters>548.79998779296875</AltitudeMeters>
            <DistanceMeters>3451.6949030522</DistanceMeters>
          </Trackpoint>
          <Trackpoint>
            <Time>2022-02-06T08:48:03.000Z</Time>
            <Position>
              <LatitudeDegrees>39.129206053912639617919921875</LatitudeDegrees>
              <LongitudeDegrees>-0.347956605255603790283203125</LongitudeDegrees>
            </Position>
            <AltitudeMeters>549</AltitudeMeters>
            <DistanceMeters>3452.3932039386</DistanceMeters>
          </Trackpoint>
          <Trackpoint>
            <Time>2022-02-06T08:48:05.000Z</Time>
            <Position>
              <LatitudeDegrees>39.12921200506389141082763671875</LatitudeDegrees>
              <LongitudeDegrees>-0.34796222113072872161865234375</LongitudeDegrees>
            </Position>
            <AltitudeMeters>549.4000244140625</AltitudeMeters>
            <DistanceMeters>3453.2106546447</DistanceMeters>
          </Trackpoint>
          <Trackpoint>
            <Time>2022-02-06T08:48:06.000Z</Time>
            <Position>
              <LatitudeDegrees>39.12921267561614513397216796875</LatitudeDegrees>
              <LongitudeDegrees>-0.347961969673633575439453125</LongitudeDegrees>
            </Position>
            <AltitudeMeters>549.4000244140625</AltitudeMeters>
            <DistanceMeters>3453.2106546447</DistanceMeters>
          </Trackpoint>
          <Trackpoint>
            <Time>2022-02-06T08:48:08.000Z</Time>
            <Position>
              <LatitudeDegrees>39.12921368144452571868896484375</LatitudeDegrees>
              <LongitudeDegrees>-0.347963310778141021728515625</LongitudeDegrees>
            </Position>
            <AltitudeMeters>549.4000244140625</AltitudeMeters>
            <DistanceMeters>3453.345042713</DistanceMeters>
          </Trackpoint>
          <Trackpoint>
            <Time>2022-02-06T08:48:09.000Z</Time>
            <Position>
              <LatitudeDegrees>39.1292152740061283111572265625</LatitudeDegrees>
              <LongitudeDegrees>-0.3479618020355701446533203125</LongitudeDegrees>
            </Position>
            <AltitudeMeters>549.5999755859375</AltitudeMeters>
            <DistanceMeters>3453.5778096751</DistanceMeters>
          </Trackpoint>
          <Trackpoint>
            <Time>2022-02-06T08:48:10.000Z</Time>
            <Position>
              <LatitudeDegrees>39.129214100539684295654296875</LatitudeDegrees>
              <LongitudeDegrees>-0.34795828163623809814453125</LongitudeDegrees>
            </Position>
            <AltitudeMeters>549.4000244140625</AltitudeMeters>
            <DistanceMeters>3453.9069918698</DistanceMeters>
          </Trackpoint>
          <Trackpoint>
            <Time>2022-02-06T08:48:11.000Z</Time>
            <Position>
              <LatitudeDegrees>39.12921376526355743408203125</LatitudeDegrees>
              <LongitudeDegrees>-0.34795534797012805938720703125</LongitudeDegrees>
            </Position>
            <AltitudeMeters>549.20001220703125</AltitudeMeters>
            <DistanceMeters>3454.139758832</DistanceMeters>
          </Trackpoint>
          <Trackpoint>
            <Time>2022-02-06T08:48:12.000Z</Time>
            <Position>
              <LatitudeDegrees>39.1292142681777477264404296875</LatitudeDegrees>
              <LongitudeDegrees>-0.34795233048498630523681640625</LongitudeDegrees>
            </Position>
            <AltitudeMeters>549.20001220703125</AltitudeMeters>
            <DistanceMeters>3454.3725257941</DistanceMeters>
          </Trackpoint>
          <Trackpoint>
            <Time>2022-02-06T08:48:13.000Z</Time>
            <Position>
              <LatitudeDegrees>39.129212759435176849365234375</LatitudeDegrees>
              <LongitudeDegrees>-0.34795216284692287445068359375</LongitudeDegrees>
            </Position>
            <AltitudeMeters>549.20001220703125</AltitudeMeters>
            <DistanceMeters>3454.5069138623</DistanceMeters>
          </Trackpoint>
          <Trackpoint>
            <Time>2022-02-06T08:48:14.000Z</Time>
            <Position>
              <LatitudeDegrees>39.1292125917971134185791015625</LatitudeDegrees>
              <LongitudeDegrees>-0.347951911389827728271484375</LongitudeDegrees>
            </Position>
            <AltitudeMeters>549.20001220703125</AltitudeMeters>
            <DistanceMeters>3454.5069138623</DistanceMeters>
          </Trackpoint>
          <Trackpoint>
            <Time>2022-02-06T08:48:15.000Z</Time>
            <Position>
              <LatitudeDegrees>39.1292125917971134185791015625</LatitudeDegrees>
              <LongitudeDegrees>-0.347951911389827728271484375</LongitudeDegrees>
            </Position>
            <AltitudeMeters>549.20001220703125</AltitudeMeters>
            <DistanceMeters>3454.5069138623</DistanceMeters>
          </Trackpoint>
          <Trackpoint>
            <Time>2022-02-06T08:48:16.000Z</Time>
            <Position>
              <LatitudeDegrees>39.12921250797808170318603515625</LatitudeDegrees>
              <LongitudeDegrees>-0.3479520790278911590576171875</LongitudeDegrees>
            </Position>
            <AltitudeMeters>549.20001220703125</AltitudeMeters>
            <DistanceMeters>3454.5069138623</DistanceMeters>
          </Trackpoint>
          <Trackpoint>
            <Time>2022-02-06T08:48:17.000Z</Time>
            <Position>
              <LatitudeDegrees>39.12921242415904998779296875</LatitudeDegrees>
              <LongitudeDegrees>-0.34795132465660572052001953125</LongitudeDegrees>
            </Position>
            <AltitudeMeters>549.20001220703125</AltitudeMeters>
            <DistanceMeters>3454.6413019306</DistanceMeters>
          </Trackpoint>
          <Trackpoint>
            <Time>2022-02-06T08:48:19.000Z</Time>
            <Position>
              <LatitudeDegrees>39.12921435199677944183349609375</LatitudeDegrees>
              <LongitudeDegrees>-0.34794378094375133514404296875</LongitudeDegrees>
            </Position>
            <AltitudeMeters>549</AltitudeMeters>
            <DistanceMeters>3455.326549313</DistanceMeters>
          </Trackpoint>
          <Trackpoint>
            <Time>2022-02-06T08:48:30.000Z</Time>
            <Position>
              <LatitudeDegrees>39.12922524847090244293212890625</LatitudeDegrees>
              <LongitudeDegrees>-0.3479162044823169708251953125</LongitudeDegrees>
            </Position>
            <AltitudeMeters>548.5999755859375</AltitudeMeters>
            <DistanceMeters>3457.9974593434</DistanceMeters>
          </Trackpoint>
          <Trackpoint>
            <Time>2022-02-06T08:48:48.000Z</Time>
            <Position>
              <LatitudeDegrees>39.12924553267657756805419921875</LatitudeDegrees>
              <LongitudeDegrees>-0.3478816710412502288818359375</LongitudeDegrees>
            </Position>
            <AltitudeMeters>548.4000244140625</AltitudeMeters>
            <DistanceMeters>3461.7362503693</DistanceMeters>
          </Trackpoint>
          <Trackpoint>
            <Time>2022-02-06T08:49:11.000Z</Time>
            <Position>
              <LatitudeDegrees>39.12927000783383846282958984375</LatitudeDegrees>
              <LongitudeDegrees>-0.3478716127574443817138671875</LongitudeDegrees>
            </Position>
            <AltitudeMeters>549</AltitudeMeters>
            <DistanceMeters>3464.5965386867</DistanceMeters>
          </Trackpoint>
          <Trackpoint>
            <Time>2022-02-06T08:49:13.000Z</Time>
            <Position>
              <LatitudeDegrees>39.12927034310996532440185546875</LatitudeDegrees>
              <LongitudeDegrees>-0.3478696011006832122802734375</LongitudeDegrees>
            </Position>
            <AltitudeMeters>549</AltitudeMeters>
            <DistanceMeters>3464.7865921154</DistanceMeters>
          </Trackpoint>
          <Trackpoint>
            <Time>2022-02-06T08:49:18.000Z</Time>
            <Position>
              <LatitudeDegrees>39.12926296703517436981201171875</LatitudeDegrees>
              <LongitudeDegrees>-0.3478514961898326873779296875</LongitudeDegrees>
            </Position>
            <AltitudeMeters>548.20001220703125</AltitudeMeters>
            <DistanceMeters>3466.5516349968</DistanceMeters>
          </Trackpoint>
          <Trackpoint>
            <Time>2022-02-06T08:49:27.000Z</Time>
            <Position>
              <LatitudeDegrees>39.12922457791864871978759765625</LatitudeDegrees>
              <LongitudeDegrees>-0.3478221595287322998046875</LongitudeDegrees>
            </Position>
            <AltitudeMeters>547</AltitudeMeters>
            <DistanceMeters>3471.5185423691</DistanceMeters>
          </Trackpoint>
          <Trackpoint>
            <Time>2022-02-06T08:49:29.000Z</Time>
            <Position>
              <LatitudeDegrees>39.12921200506389141082763671875</LatitudeDegrees>
              <LongitudeDegrees>-0.34781872294843196868896484375</LongitudeDegrees>
            </Position>
            <AltitudeMeters>547</AltitudeMeters>
            <DistanceMeters>3472.9502641831</DistanceMeters>
          </Trackpoint>
          <Trackpoint>
            <Time>2022-02-06T08:49:30.000Z</Time>
            <Position>
              <LatitudeDegrees>39.1292082332074642181396484375</LatitudeDegrees>
              <LongitudeDegrees>-0.34781872294843196868896484375</LongitudeDegrees>
            </Position>
            <AltitudeMeters>547</AltitudeMeters>
            <DistanceMeters>3473.3752365691</DistanceMeters>
          </Trackpoint>
          <Trackpoint>
            <Time>2022-02-06T08:49:31.000Z</Time>
            <Position>
              <LatitudeDegrees>39.1292090713977813720703125</LatitudeDegrees>
              <LongitudeDegrees>-0.3478162921965122222900390625</LongitudeDegrees>
            </Position>
            <AltitudeMeters>547</AltitudeMeters>
            <DistanceMeters>3473.6080035313</DistanceMeters>
          </Trackpoint>
          <Trackpoint>
            <Time>2022-02-06T08:49:49.000Z</Time>
            <Position>
              <LatitudeDegrees>39.1292746178805828094482421875</LatitudeDegrees>
              <LongitudeDegrees>-0.34776893444359302520751953125</LongitudeDegrees>
            </Position>
            <AltitudeMeters>547.5999755859375</AltitudeMeters>
            <DistanceMeters>3481.9714341751</DistanceMeters>
          </Trackpoint>
          <Trackpoint>
            <Time>2022-02-06T08:49:50.000Z</Time>
            <Position>
              <LatitudeDegrees>39.12927470169961452484130859375</LatitudeDegrees>
              <LongitudeDegrees>-0.34776776097714900970458984375</LongitudeDegrees>
            </Position>
            <AltitudeMeters>547.5999755859375</AltitudeMeters>
            <DistanceMeters>3481.9714341751</DistanceMeters>
          </Trackpoint>
          <Trackpoint>
            <Time>2022-02-06T08:50:09.000Z</Time>
            <Position>
              <LatitudeDegrees>39.12928006611764430999755859375</LatitudeDegrees>
              <LongitudeDegrees>-0.347745381295680999755859375</LongitudeDegrees>
            </Position>
            <AltitudeMeters>547.79998779296875</AltitudeMeters>
            <DistanceMeters>3483.9917298349</DistanceMeters>
          </Trackpoint>
          <Trackpoint>
            <Time>2022-02-06T08:50:12.000Z</Time>
            <Position>
              <LatitudeDegrees>39.1292762942612171173095703125</LatitudeDegrees>
              <LongitudeDegrees>-0.34774160943925380706787109375</LongitudeDegrees>
            </Position>
            <AltitudeMeters>547.79998779296875</AltitudeMeters>
            <DistanceMeters>3484.5292821079</DistanceMeters>
          </Trackpoint>
          <Trackpoint>
            <Time>2022-02-06T08:50:17.000Z</Time>
            <Position>
              <LatitudeDegrees>39.12927486933767795562744140625</LatitudeDegrees>
              <LongitudeDegrees>-0.3477428667247295379638671875</LongitudeDegrees>
            </Position>
            <AltitudeMeters>547.79998779296875</AltitudeMeters>
            <DistanceMeters>3484.7193355366</DistanceMeters>
          </Trackpoint>
          <Trackpoint>
            <Time>2022-02-06T08:50:23.000Z</Time>
            <Position>
              <LatitudeDegrees>39.1292712651193141937255859375</LatitudeDegrees>
              <LongitudeDegrees>-0.3477421961724758148193359375</LongitudeDegrees>
            </Position>
            <AltitudeMeters>547.5999755859375</AltitudeMeters>
            <DistanceMeters>3485.1335473815</DistanceMeters>
          </Trackpoint>
          <Trackpoint>
            <Time>2022-02-06T08:50:30.000Z</Time>
            <Position>
              <LatitudeDegrees>39.12927269004285335540771484375</LatitudeDegrees>
              <LongitudeDegrees>-0.34772224724292755126953125</LongitudeDegrees>
            </Position>
            <AltitudeMeters>547</AltitudeMeters>
            <DistanceMeters>3486.8650165205</DistanceMeters>
          </Trackpoint>
          <Trackpoint>
            <Time>2022-02-06T08:50:42.000Z</Time>
            <Position>
              <LatitudeDegrees>39.12927889265120029449462890625</LatitudeDegrees>
              <LongitudeDegrees>-0.3477068245410919189453125</LongitudeDegrees>
            </Position>
            <AltitudeMeters>546</AltitudeMeters>
            <DistanceMeters>3488.3645127808</DistanceMeters>
          </Trackpoint>
          <Trackpoint>
            <Time>2022-02-06T08:50:49.000Z</Time>
            <Position>
              <LatitudeDegrees>39.12926984019577503204345703125</LatitudeDegrees>
              <LongitudeDegrees>-0.34769064746797084808349609375</LongitudeDegrees>
            </Position>
            <AltitudeMeters>545</AltitudeMeters>
            <DistanceMeters>3490.0855197748</DistanceMeters>
          </Trackpoint>
          <Trackpoint>
            <Time>2022-02-06T08:50:50.000Z</Time>
            <Position>
              <LatitudeDegrees>39.129269756376743316650390625</LatitudeDegrees>
              <LongitudeDegrees>-0.34769115038216114044189453125</LongitudeDegrees>
            </Position>
            <AltitudeMeters>545</AltitudeMeters>
            <DistanceMeters>3490.0855197748</DistanceMeters>
          </Trackpoint>
          <Trackpoint>
            <Time>2022-02-06T08:51:06.000Z</Time>
            <Position>
              <LatitudeDegrees>39.129280485212802886962890625</LatitudeDegrees>
              <LongitudeDegrees>-0.34769274294376373291015625</LongitudeDegrees>
            </Position>
            <AltitudeMeters>545.20001220703125</AltitudeMeters>
            <DistanceMeters>3491.2875231987</DistanceMeters>
          </Trackpoint>
          <Trackpoint>
            <Time>2022-02-06T08:51:25.000Z</Time>
            <Position>
              <LatitudeDegrees>39.12928710691630840301513671875</LatitudeDegrees>
              <LongitudeDegrees>-0.3476704470813274383544921875</LongitudeDegrees>
            </Position>
            <AltitudeMeters>543.79998779296875</AltitudeMeters>
            <DistanceMeters>3493.3498437376</DistanceMeters>
          </Trackpoint>
          <Trackpoint>
            <Time>2022-02-06T08:51:26.000Z</Time>
            <Position>
              <LatitudeDegrees>39.12928693927824497222900390625</LatitudeDegrees>
              <LongitudeDegrees>-0.34767086617648601531982421875</LongitudeDegrees>
            </Position>
            <AltitudeMeters>543.79998779296875</AltitudeMeters>
            <DistanceMeters>3493.3498437376</DistanceMeters>
          </Trackpoint>
          <Trackpoint>
            <Time>2022-02-06T08:51:27.000Z</Time>
            <Position>
              <LatitudeDegrees>39.1292876936495304107666015625</LatitudeDegrees>
              <LongitudeDegrees>-0.34767019562423229217529296875</LongitudeDegrees>
            </Position>
            <AltitudeMeters>543.79998779296875</AltitudeMeters>
            <DistanceMeters>3493.4842318058</DistanceMeters>
          </Trackpoint>
          <Trackpoint>
            <Time>2022-02-06T08:51:28.000Z</Time>
            <Position>
              <LatitudeDegrees>39.1292883642017841339111328125</LatitudeDegrees>
              <LongitudeDegrees>-0.34767019562423229217529296875</LongitudeDegrees>
            </Position>
            <AltitudeMeters>543.79998779296875</AltitudeMeters>
            <DistanceMeters>3493.5792585202</DistanceMeters>
          </Trackpoint>
          <Trackpoint>
            <Time>2022-02-06T08:51:29.000Z</Time>
            <Position>
              <LatitudeDegrees>39.129289202392101287841796875</LatitudeDegrees>
              <LongitudeDegrees>-0.347669608891010284423828125</LongitudeDegrees>
            </Position>
            <AltitudeMeters>543.79998779296875</AltitudeMeters>
            <DistanceMeters>3493.5792585202</DistanceMeters>
          </Trackpoint>
          <Trackpoint>
            <Time>2022-02-06T08:51:30.000Z</Time>
            <Position>
              <LatitudeDegrees>39.12929079495370388031005859375</LatitudeDegrees>
              <LongitudeDegrees>-0.3476694412529468536376953125</LongitudeDegrees>
            </Position>
            <AltitudeMeters>543.79998779296875</AltitudeMeters>
            <DistanceMeters>3493.7438496176</DistanceMeters>
          </Trackpoint>
          <Trackpoint>
            <Time>2022-02-06T08:51:31.000Z</Time>
            <Position>
              <LatitudeDegrees>39.12929154932498931884765625</LatitudeDegrees>
              <LongitudeDegrees>-0.34767002798616886138916015625</LongitudeDegrees>
            </Position>
            <AltitudeMeters>543.79998779296875</AltitudeMeters>
            <DistanceMeters>3493.8388763319</DistanceMeters>
          </Trackpoint>
          <Trackpoint>
            <Time>2022-02-06T08:51:32.000Z</Time>
            <Position>
              <LatitudeDegrees>39.1292917169630527496337890625</LatitudeDegrees>
              <LongitudeDegrees>-0.34767128527164459228515625</LongitudeDegrees>
            </Position>
            <AltitudeMeters>543.79998779296875</AltitudeMeters>
            <DistanceMeters>3493.9339030463</DistanceMeters>
          </Trackpoint>
          <Trackpoint>
            <Time>2022-02-06T08:51:33.000Z</Time>
            <Position>
              <LatitudeDegrees>39.12929297424852848052978515625</LatitudeDegrees>
              <LongitudeDegrees>-0.34767388366162776947021484375</LongitudeDegrees>
            </Position>
            <AltitudeMeters>544</AltitudeMeters>
            <DistanceMeters>3494.1853201004</DistanceMeters>
          </Trackpoint>
          <Trackpoint>
            <Time>2022-02-06T08:51:47.000Z</Time>
            <Position>
              <LatitudeDegrees>39.129322730004787445068359375</LatitudeDegrees>
              <LongitudeDegrees>-0.347622334957122802734375</LongitudeDegrees>
            </Position>
            <AltitudeMeters>541</AltitudeMeters>
            <DistanceMeters>3499.7327970514</DistanceMeters>
          </Trackpoint>
          <Trackpoint>
            <Time>2022-02-06T08:51:54.000Z</Time>
            <Position>
              <LatitudeDegrees>39.1293299384415149688720703125</LatitudeDegrees>
              <LongitudeDegrees>-0.34759710542857646942138671875</LongitudeDegrees>
            </Position>
            <AltitudeMeters>539.4000244140625</AltitudeMeters>
            <DistanceMeters>3502.0526947992</DistanceMeters>
          </Trackpoint>
          <Trackpoint>
            <Time>2022-02-06T08:51:56.000Z</Time>
            <Position>
              <LatitudeDegrees>39.1293366439640522003173828125</LatitudeDegrees>
              <LongitudeDegrees>-0.3475968539714813232421875</LongitudeDegrees>
            </Position>
            <AltitudeMeters>539.5999755859375</AltitudeMeters>
            <DistanceMeters>3502.8009358964</DistanceMeters>
          </Trackpoint>
          <Trackpoint>
            <Time>2022-02-06T08:51:57.000Z</Time>
            <Position>
              <LatitudeDegrees>39.129339493811130523681640625</LatitudeDegrees>
              <LongitudeDegrees>-0.3475950099527835845947265625</LongitudeDegrees>
            </Position>
            <AltitudeMeters>539.4000244140625</AltitudeMeters>
            <DistanceMeters>3503.1564933042</DistanceMeters>
          </Trackpoint>
          <Trackpoint>
            <Time>2022-02-06T08:52:02.000Z</Time>
            <Position>
              <LatitudeDegrees>39.1293584369122982025146484375</LatitudeDegrees>
              <LongitudeDegrees>-0.34758654423058032989501953125</LongitudeDegrees>
            </Position>
            <AltitudeMeters>539.20001220703125</AltitudeMeters>
            <DistanceMeters>3505.3850672976</DistanceMeters>
          </Trackpoint>
          <Trackpoint>
            <Time>2022-02-06T08:52:08.000Z</Time>
            <Position>
              <LatitudeDegrees>39.12936371751129627227783203125</LatitudeDegrees>
              <LongitudeDegrees>-0.34759484231472015380859375</LongitudeDegrees>
            </Position>
            <AltitudeMeters>539.79998779296875</AltitudeMeters>
            <DistanceMeters>3506.3112731399</DistanceMeters>
          </Trackpoint>
          <Trackpoint>
            <Time>2022-02-06T08:52:13.000Z</Time>
            <Position>
              <LatitudeDegrees>39.129357598721981048583984375</LatitudeDegrees>
              <LongitudeDegrees>-0.34759459085762500762939453125</LongitudeDegrees>
            </Position>
            <AltitudeMeters>539.5999755859375</AltitudeMeters>
            <DistanceMeters>3506.9965205222</DistanceMeters>
          </Trackpoint>
          <Trackpoint>
            <Time>2022-02-06T08:52:14.000Z</Time>
            <Position>
              <LatitudeDegrees>39.12935919128358364105224609375</LatitudeDegrees>
              <LongitudeDegrees>-0.347603224217891693115234375</LongitudeDegrees>
            </Position>
            <AltitudeMeters>540.20001220703125</AltitudeMeters>
            <DistanceMeters>3507.7567342372</DistanceMeters>
          </Trackpoint>
          <Trackpoint>
            <Time>2022-02-06T08:52:23.000Z</Time>
            <Position>
              <LatitudeDegrees>39.12937746383249759674072265625</LatitudeDegrees>
              <LongitudeDegrees>-0.34759140573441982269287109375</LongitudeDegrees>
            </Position>
            <AltitudeMeters>539.79998779296875</AltitudeMeters>
            <DistanceMeters>3510.0334124927</DistanceMeters>
          </Trackpoint>
          <Trackpoint>
            <Time>2022-02-06T08:52:35.000Z</Time>
            <Position>
              <LatitudeDegrees>39.1293842531740665435791015625</LatitudeDegrees>
              <LongitudeDegrees>-0.34756676293909549713134765625</LongitudeDegrees>
            </Position>
            <AltitudeMeters>538.20001220703125</AltitudeMeters>
            <DistanceMeters>3512.2901719203</DistanceMeters>
          </Trackpoint>
          <Trackpoint>
            <Time>2022-02-06T08:52:38.000Z</Time>
            <Position>
              <LatitudeDegrees>39.12939892150461673736572265625</LatitudeDegrees>
              <LongitudeDegrees>-0.3475658409297466278076171875</LongitudeDegrees>
            </Position>
            <AltitudeMeters>538.4000244140625</AltitudeMeters>
            <DistanceMeters>3513.9250733325</DistanceMeters>
          </Trackpoint>
          <Trackpoint>
            <Time>2022-02-06T08:52:39.000Z</Time>
            <Position>
              <LatitudeDegrees>39.1293953172862529754638671875</LatitudeDegrees>
              <LongitudeDegrees>-0.3475634939968585968017578125</LongitudeDegrees>
            </Position>
            <AltitudeMeters>538.20001220703125</AltitudeMeters>
            <DistanceMeters>3514.3707881312</DistanceMeters>
          </Trackpoint>
          <Trackpoint>
            <Time>2022-02-06T08:52:41.000Z</Time>
            <Position>
              <LatitudeDegrees>39.12938081659376621246337890625</LatitudeDegrees>
              <LongitudeDegrees>-0.347569696605205535888671875</LongitudeDegrees>
            </Position>
            <AltitudeMeters>538.4000244140625</AltitudeMeters>
            <DistanceMeters>3516.0733316808</DistanceMeters>
          </Trackpoint>
          <Trackpoint>
            <Time>2022-02-06T08:52:42.000Z</Time>
            <Position>
              <LatitudeDegrees>39.129375033080577850341796875</LatitudeDegrees>
              <LongitudeDegrees>-0.34757212735712528228759765625</LongitudeDegrees>
            </Position>
            <AltitudeMeters>538.4000244140625</AltitudeMeters>
            <DistanceMeters>3516.7585790632</DistanceMeters>
          </Trackpoint>
          <Trackpoint>
            <Time>2022-02-06T08:52:43.000Z</Time>
            <Position>
              <LatitudeDegrees>39.12937377579510211944580078125</LatitudeDegrees>
              <LongitudeDegrees>-0.34757514484226703643798828125</LongitudeDegrees>
            </Position>
            <AltitudeMeters>538.5999755859375</AltitudeMeters>
            <DistanceMeters>3517.0590799192</DistanceMeters>
          </Trackpoint>
          <Trackpoint>
            <Time>2022-02-06T08:52:47.000Z</Time>
            <Position>
              <LatitudeDegrees>39.12936489097774028778076171875</LatitudeDegrees>
              <LongitudeDegrees>-0.34757715649902820587158203125</LongitudeDegrees>
            </Position>
            <AltitudeMeters>538.5999755859375</AltitudeMeters>
            <DistanceMeters>3518.0647481357</DistanceMeters>
          </Trackpoint>
          <Trackpoint>
            <Time>2022-02-06T08:52:50.000Z</Time>
            <Position>
              <LatitudeDegrees>39.129362963140010833740234375</LatitudeDegrees>
              <LongitudeDegrees>-0.347547233104705810546875</LongitudeDegrees>
            </Position>
            <AltitudeMeters>536.79998779296875</AltitudeMeters>
            <DistanceMeters>3520.656731329</DistanceMeters>
          </Trackpoint>
          <Trackpoint>
            <Time>2022-02-06T08:52:53.000Z</Time>
            <Position>
              <LatitudeDegrees>39.129365645349025726318359375</LatitudeDegrees>
              <LongitudeDegrees>-0.34753893502056598663330078125</LongitudeDegrees>
            </Position>
            <AltitudeMeters>536.4000244140625</AltitudeMeters>
            <DistanceMeters>3521.428732006</DistanceMeters>
          </Trackpoint>
          <Trackpoint>
            <Time>2022-02-06T08:53:02.000Z</Time>
            <Position>
              <LatitudeDegrees>39.12937201559543609619140625</LatitudeDegrees>
              <LongitudeDegrees>-0.3475470654666423797607421875</LongitudeDegrees>
            </Position>
            <AltitudeMeters>537</AltitudeMeters>
            <DistanceMeters>3522.4253805945</DistanceMeters>
          </Trackpoint>
          <Trackpoint>
            <Time>2022-02-06T08:53:07.000Z</Time>
            <Position>
              <LatitudeDegrees>39.12938383407890796661376953125</LatitudeDegrees>
              <LongitudeDegrees>-0.34755050204694271087646484375</LongitudeDegrees>
            </Position>
            <AltitudeMeters>537.20001220703125</AltitudeMeters>
            <DistanceMeters>3523.7759639653</DistanceMeters>
          </Trackpoint>
          <Trackpoint>
            <Time>2022-02-06T08:53:09.000Z</Time>
            <Position>
              <LatitudeDegrees>39.12939121015369892120361328125</LatitudeDegrees>
              <LongitudeDegrees>-0.3475581295788288116455078125</LongitudeDegrees>
            </Position>
            <AltitudeMeters>537.79998779296875</AltitudeMeters>
            <DistanceMeters>3524.8255683318</DistanceMeters>
          </Trackpoint>
          <Trackpoint>
            <Time>2022-02-06T08:53:23.000Z</Time>
            <Position>
              <LatitudeDegrees>39.129398502409458160400390625</LatitudeDegrees>
              <LongitudeDegrees>-0.34752720035612583160400390625</LongitudeDegrees>
            </Position>
            <AltitudeMeters>536</AltitudeMeters>
            <DistanceMeters>3527.61553713</DistanceMeters>
          </Trackpoint>
          <Trackpoint>
            <Time>2022-02-06T08:53:27.000Z</Time>
            <Position>
              <LatitudeDegrees>39.129397831857204437255859375</LatitudeDegrees>
              <LongitudeDegrees>-0.3475185669958591461181640625</LongitudeDegrees>
            </Position>
            <AltitudeMeters>535.5999755859375</AltitudeMeters>
            <DistanceMeters>3528.3637782272</DistanceMeters>
          </Trackpoint>
          <Trackpoint>
            <Time>2022-02-06T08:53:28.000Z</Time>
            <Position>
              <LatitudeDegrees>39.12939758040010929107666015625</LatitudeDegrees>
              <LongitudeDegrees>-0.3475217521190643310546875</LongitudeDegrees>
            </Position>
            <AltitudeMeters>535.79998779296875</AltitudeMeters>
            <DistanceMeters>3528.6151952813</DistanceMeters>
          </Trackpoint>
          <Trackpoint>
            <Time>2022-02-06T08:53:29.000Z</Time>
            <Position>
              <LatitudeDegrees>39.12939758040010929107666015625</LatitudeDegrees>
              <LongitudeDegrees>-0.3475239314138889312744140625</LongitudeDegrees>
            </Position>
            <AltitudeMeters>535.79998779296875</AltitudeMeters>
            <DistanceMeters>3528.80524871</DistanceMeters>
          </Trackpoint>
          <Trackpoint>
            <Time>2022-02-06T08:53:30.000Z</Time>
            <Position>
              <LatitudeDegrees>39.12939690984785556793212890625</LatitudeDegrees>
              <LongitudeDegrees>-0.3475259430706501007080078125</LongitudeDegrees>
            </Position>
            <AltitudeMeters>536</AltitudeMeters>
            <DistanceMeters>3528.9953021388</DistanceMeters>
          </Trackpoint>
          <Trackpoint>
            <Time>2022-02-06T08:53:43.000Z</Time>
            <Position>
              <LatitudeDegrees>39.12939154542982578277587890625</LatitudeDegrees>
              <LongitudeDegrees>-0.34753725863993167877197265625</LongitudeDegrees>
            </Position>
            <AltitudeMeters>536.5999755859375</AltitudeMeters>
            <DistanceMeters>3530.1395753074</DistanceMeters>
          </Trackpoint>
          <Trackpoint>
            <Time>2022-02-06T08:53:44.000Z</Time>
            <Position>
              <LatitudeDegrees>39.129391796886920928955078125</LatitudeDegrees>
              <LongitudeDegrees>-0.34753449261188507080078125</LongitudeDegrees>
            </Position>
            <AltitudeMeters>536.4000244140625</AltitudeMeters>
            <DistanceMeters>3530.3723422695</DistanceMeters>
          </Trackpoint>
          <Trackpoint>
            <Time>2022-02-06T08:53:45.000Z</Time>
            <Position>
              <LatitudeDegrees>39.1293939761817455291748046875</LatitudeDegrees>
              <LongitudeDegrees>-0.34753256477415561676025390625</LongitudeDegrees>
            </Position>
            <AltitudeMeters>536.4000244140625</AltitudeMeters>
            <DistanceMeters>3530.6728431255</DistanceMeters>
          </Trackpoint>
          <Trackpoint>
            <Time>2022-02-06T08:53:46.000Z</Time>
            <Position>
              <LatitudeDegrees>39.12939883768558502197265625</LatitudeDegrees>
              <LongitudeDegrees>-0.34753449261188507080078125</LongitudeDegrees>
            </Position>
            <AltitudeMeters>536.5999755859375</AltitudeMeters>
            <DistanceMeters>3531.2430034117</DistanceMeters>
          </Trackpoint>
          <Trackpoint>
            <Time>2022-02-06T08:53:51.000Z</Time>
            <Position>
              <LatitudeDegrees>39.12939674220979213714599609375</LatitudeDegrees>
              <LongitudeDegrees>-0.34752669744193553924560546875</LongitudeDegrees>
            </Position>
            <AltitudeMeters>536</AltitudeMeters>
            <DistanceMeters>3531.947740387</DistanceMeters>
          </Trackpoint>
          <Trackpoint>
            <Time>2022-02-06T08:53:57.000Z</Time>
            <Position>
              <LatitudeDegrees>39.1294006817042827606201171875</LatitudeDegrees>
              <LongitudeDegrees>-0.34750775434076786041259765625</LongitudeDegrees>
            </Position>
            <AltitudeMeters>535</AltitudeMeters>
            <DistanceMeters>3533.6396429353</DistanceMeters>
          </Trackpoint>
          <Trackpoint>
            <Time>2022-02-06T08:54:12.000Z</Time>
            <Position>
              <LatitudeDegrees>39.129400514066219329833984375</LatitudeDegrees>
              <LongitudeDegrees>-0.34747892059385776519775390625</LongitudeDegrees>
            </Position>
            <AltitudeMeters>533.20001220703125</AltitudeMeters>
            <DistanceMeters>3536.1285447896</DistanceMeters>
          </Trackpoint>
          <Trackpoint>
            <Time>2022-02-06T08:54:13.000Z</Time>
            <Position>
              <LatitudeDegrees>39.1294016875326633453369140625</LatitudeDegrees>
              <LongitudeDegrees>-0.3474823571741580963134765625</LongitudeDegrees>
            </Position>
            <AltitudeMeters>533.4000244140625</AltitudeMeters>
            <DistanceMeters>3536.4577269844</DistanceMeters>
          </Trackpoint>
          <Trackpoint>
            <Time>2022-02-06T08:54:14.000Z</Time>
            <Position>
              <LatitudeDegrees>39.12940143607556819915771484375</LatitudeDegrees>
              <LongitudeDegrees>-0.34748177044093608856201171875</LongitudeDegrees>
            </Position>
            <AltitudeMeters>533.4000244140625</AltitudeMeters>
            <DistanceMeters>3536.4577269844</DistanceMeters>
          </Trackpoint>
          <Trackpoint>
            <Time>2022-02-06T08:54:20.000Z</Time>
            <Position>
              <LatitudeDegrees>39.1294026933610439300537109375</LatitudeDegrees>
              <LongitudeDegrees>-0.34748210571706295013427734375</LongitudeDegrees>
            </Position>
            <AltitudeMeters>533.4000244140625</AltitudeMeters>
            <DistanceMeters>3536.5921150526</DistanceMeters>
          </Trackpoint>
          <Trackpoint>
            <Time>2022-02-06T08:54:21.000Z</Time>
            <Position>
              <LatitudeDegrees>39.12940462119877338409423828125</LatitudeDegrees>
              <LongitudeDegrees>-0.3474766574800014495849609375</LongitudeDegrees>
            </Position>
            <AltitudeMeters>533</AltitudeMeters>
            <DistanceMeters>3537.1125978029</DistanceMeters>
          </Trackpoint>
          <Trackpoint>
            <Time>2022-02-06T08:54:22.000Z</Time>
            <Position>
              <LatitudeDegrees>39.12940562702715396881103515625</LatitudeDegrees>
              <LongitudeDegrees>-0.3474759869277477264404296875</LongitudeDegrees>
            </Position>
            <AltitudeMeters>533</AltitudeMeters>
            <DistanceMeters>3537.2469858711</DistanceMeters>
          </Trackpoint>
          <Trackpoint>
            <Time>2022-02-06T08:54:23.000Z</Time>
            <Position>
              <LatitudeDegrees>39.1294057108461856842041015625</LatitudeDegrees>
              <LongitudeDegrees>-0.3474761545658111572265625</LongitudeDegrees>
            </Position>
            <AltitudeMeters>533</AltitudeMeters>
            <DistanceMeters>3537.2469858711</DistanceMeters>
          </Trackpoint>
          <Trackpoint>
            <Time>2022-02-06T08:54:26.000Z</Time>
            <Position>
              <LatitudeDegrees>39.12940822541713714599609375</LatitudeDegrees>
              <LongitudeDegrees>-0.3474836982786655426025390625</LongitudeDegrees>
            </Position>
            <AltitudeMeters>533.5999755859375</AltitudeMeters>
            <DistanceMeters>3537.9517228465</DistanceMeters>
          </Trackpoint>
          <Trackpoint>
            <Time>2022-02-06T08:54:27.000Z</Time>
            <Position>
              <LatitudeDegrees>39.12940864451229572296142578125</LatitudeDegrees>
              <LongitudeDegrees>-0.34748529084026813507080078125</LongitudeDegrees>
            </Position>
            <AltitudeMeters>533.5999755859375</AltitudeMeters>
            <DistanceMeters>3538.0861109147</DistanceMeters>
          </Trackpoint>
          <Trackpoint>
            <Time>2022-02-06T08:54:29.000Z</Time>
            <Position>
              <LatitudeDegrees>39.1294097341597080230712890625</LatitudeDegrees>
              <LongitudeDegrees>-0.34748545847833156585693359375</LongitudeDegrees>
            </Position>
            <AltitudeMeters>533.5999755859375</AltitudeMeters>
            <DistanceMeters>3538.220498983</DistanceMeters>
          </Trackpoint>
          <Trackpoint>
            <Time>2022-02-06T08:54:41.000Z</Time>
            <Position>
              <LatitudeDegrees>39.12941417656838893890380859375</LatitudeDegrees>
              <LongitudeDegrees>-0.34748445264995098114013671875</LongitudeDegrees>
            </Position>
            <AltitudeMeters>533.5999755859375</AltitudeMeters>
            <DistanceMeters>3538.7233330912</DistanceMeters>
          </Trackpoint>
          <Trackpoint>
            <Time>2022-02-06T08:54:48.000Z</Time>
            <Position>
              <LatitudeDegrees>39.12942054681479930877685546875</LatitudeDegrees>
              <LongitudeDegrees>-0.3474850393831729888916015625</LongitudeDegrees>
            </Position>
            <AltitudeMeters>533.79998779296875</AltitudeMeters>
            <DistanceMeters>3539.4344479068</DistanceMeters>
          </Trackpoint>
          <Trackpoint>
            <Time>2022-02-06T08:54:58.000Z</Time>
            <Position>
              <LatitudeDegrees>39.1294549964368343353271484375</LatitudeDegrees>
              <LongitudeDegrees>-0.34744807519018650054931640625</LongitudeDegrees>
            </Position>
            <AltitudeMeters>531.5999755859375</AltitudeMeters>
            <DistanceMeters>3544.423124152</DistanceMeters>
          </Trackpoint>
          <Trackpoint>
            <Time>2022-02-06T08:55:06.000Z</Time>
            <Position>
              <LatitudeDegrees>39.12946396507322788238525390625</LatitudeDegrees>
              <LongitudeDegrees>-0.34744220785796642303466796875</LongitudeDegrees>
            </Position>
            <AltitudeMeters>531</AltitudeMeters>
            <DistanceMeters>3545.5394352866</DistanceMeters>
          </Trackpoint>
          <Trackpoint>
            <Time>2022-02-06T08:55:15.000Z</Time>
            <Position>
              <LatitudeDegrees>39.12947930395603179931640625</LatitudeDegrees>
              <LongitudeDegrees>-0.3474515117704868316650390625</LongitudeDegrees>
            </Position>
            <AltitudeMeters>532.20001220703125</AltitudeMeters>
            <DistanceMeters>3547.428053881</DistanceMeters>
          </Trackpoint>
          <Trackpoint>
            <Time>2022-02-06T08:55:16.000Z</Time>
            <Position>
              <LatitudeDegrees>39.12948190234601497650146484375</LatitudeDegrees>
              <LongitudeDegrees>-0.347454361617565155029296875</LongitudeDegrees>
            </Position>
            <AltitudeMeters>532.5999755859375</AltitudeMeters>
            <DistanceMeters>3547.8081607385</DistanceMeters>
          </Trackpoint>
          <Trackpoint>
            <Time>2022-02-06T08:55:17.000Z</Time>
            <Position>
              <LatitudeDegrees>39.12948123179376125335693359375</LatitudeDegrees>
              <LongitudeDegrees>-0.34745696000754833221435546875</LongitudeDegrees>
            </Position>
            <AltitudeMeters>533</AltitudeMeters>
            <DistanceMeters>3548.0206469315</DistanceMeters>
          </Trackpoint>
          <Trackpoint>
            <Time>2022-02-06T08:55:18.000Z</Time>
            <Position>
              <LatitudeDegrees>39.12948106415569782257080078125</LatitudeDegrees>
              <LongitudeDegrees>-0.347456373274326324462890625</LongitudeDegrees>
            </Position>
            <AltitudeMeters>532.79998779296875</AltitudeMeters>
            <DistanceMeters>3548.0206469315</DistanceMeters>
          </Trackpoint>
          <Trackpoint>
            <Time>2022-02-06T08:55:22.000Z</Time>
            <Position>
              <LatitudeDegrees>39.1294824890792369842529296875</LatitudeDegrees>
              <LongitudeDegrees>-0.34746433608233928680419921875</LongitudeDegrees>
            </Position>
            <AltitudeMeters>533.4000244140625</AltitudeMeters>
            <DistanceMeters>3548.7317617471</DistanceMeters>
          </Trackpoint>
          <Trackpoint>
            <Time>2022-02-06T08:55:23.000Z</Time>
            <Position>
              <LatitudeDegrees>39.129482991993427276611328125</LatitudeDegrees>
              <LongitudeDegrees>-0.347464419901371002197265625</LongitudeDegrees>
            </Position>
            <AltitudeMeters>533.4000244140625</AltitudeMeters>
            <DistanceMeters>3548.7317617471</DistanceMeters>
          </Trackpoint>
          <Trackpoint>
            <Time>2022-02-06T08:55:28.000Z</Time>
            <Position>
              <LatitudeDegrees>39.12948726676404476165771484375</LatitudeDegrees>
              <LongitudeDegrees>-0.34746919758617877960205078125</LongitudeDegrees>
            </Position>
            <AltitudeMeters>533.79998779296875</AltitudeMeters>
            <DistanceMeters>3549.3548935847</DistanceMeters>
          </Trackpoint>
          <Trackpoint>
            <Time>2022-02-06T08:55:36.000Z</Time>
            <Position>
              <LatitudeDegrees>39.12949196062982082366943359375</LatitudeDegrees>
              <LongitudeDegrees>-0.34748529084026813507080078125</LongitudeDegrees>
            </Position>
            <AltitudeMeters>534.79998779296875</AltitudeMeters>
            <DistanceMeters>3550.8392583149</DistanceMeters>
          </Trackpoint>
          <Trackpoint>
            <Time>2022-02-06T08:55:40.000Z</Time>
            <Position>
              <LatitudeDegrees>39.12948257289826869964599609375</LatitudeDegrees>
              <LongitudeDegrees>-0.3474962711334228515625</LongitudeDegrees>
            </Position>
            <AltitudeMeters>535.4000244140625</AltitudeMeters>
            <DistanceMeters>3552.2487322656</DistanceMeters>
          </Trackpoint>
          <Trackpoint>
            <Time>2022-02-06T08:55:47.000Z</Time>
            <Position>
              <LatitudeDegrees>39.1294613666832447052001953125</LatitudeDegrees>
              <LongitudeDegrees>-0.34750859253108501434326171875</LongitudeDegrees>
            </Position>
            <AltitudeMeters>535.79998779296875</AltitudeMeters>
            <DistanceMeters>3554.8372292661</DistanceMeters>
          </Trackpoint>
          <Trackpoint>
            <Time>2022-02-06T08:55:57.000Z</Time>
            <Position>
              <LatitudeDegrees>39.12945021875202655792236328125</LatitudeDegrees>
              <LongitudeDegrees>-0.3474873863160610198974609375</LongitudeDegrees>
            </Position>
            <AltitudeMeters>534.4000244140625</AltitudeMeters>
            <DistanceMeters>3557.0495360786</DistanceMeters>
          </Trackpoint>
          <Trackpoint>
            <Time>2022-02-06T08:55:58.000Z</Time>
            <Position>
              <LatitudeDegrees>39.1294531524181365966796875</LatitudeDegrees>
              <LongitudeDegrees>-0.3474930860102176666259765625</LongitudeDegrees>
            </Position>
            <AltitudeMeters>534.79998779296875</AltitudeMeters>
            <DistanceMeters>3557.6505377905</DistanceMeters>
          </Trackpoint>
          <Trackpoint>
            <Time>2022-02-06T08:56:01.000Z</Time>
            <Position>
              <LatitudeDegrees>39.12945709191262722015380859375</LatitudeDegrees>
              <LongitudeDegrees>-0.3475189022719860076904296875</LongitudeDegrees>
            </Position>
            <AltitudeMeters>536.4000244140625</AltitudeMeters>
            <DistanceMeters>3559.9232462465</DistanceMeters>
          </Trackpoint>
          <Trackpoint>
            <Time>2022-02-06T08:56:03.000Z</Time>
            <Position>
              <LatitudeDegrees>39.12946882657706737518310546875</LatitudeDegrees>
              <LongitudeDegrees>-0.34753046929836273193359375</LongitudeDegrees>
            </Position>
            <AltitudeMeters>537.20001220703125</AltitudeMeters>
            <DistanceMeters>3561.5691572202</DistanceMeters>
          </Trackpoint>
          <Trackpoint>
            <Time>2022-02-06T08:56:04.000Z</Time>
            <Position>
              <LatitudeDegrees>39.1294744424521923065185546875</LatitudeDegrees>
              <LongitudeDegrees>-0.3475356660783290863037109375</LongitudeDegrees>
            </Position>
            <AltitudeMeters>537.5999755859375</AltitudeMeters>
            <DistanceMeters>3562.3352870844</DistanceMeters>
          </Trackpoint>
          <Trackpoint>
            <Time>2022-02-06T08:56:06.000Z</Time>
            <Position>
              <LatitudeDegrees>39.1294788010418415069580078125</LatitudeDegrees>
              <LongitudeDegrees>-0.34755569882690906524658203125</LongitudeDegrees>
            </Position>
            <AltitudeMeters>539</AltitudeMeters>
            <DistanceMeters>3564.1332768972</DistanceMeters>
          </Trackpoint>
          <Trackpoint>
            <Time>2022-02-06T08:56:07.000Z</Time>
            <Position>
              <LatitudeDegrees>39.129483997821807861328125</LatitudeDegrees>
              <LongitudeDegrees>-0.34756374545395374298095703125</LongitudeDegrees>
            </Position>
            <AltitudeMeters>539.5999755859375</AltitudeMeters>
            <DistanceMeters>3565.0397739774</DistanceMeters>
          </Trackpoint>
          <Trackpoint>
            <Time>2022-02-06T08:56:16.000Z</Time>
            <Position>
              <LatitudeDegrees>39.1295009292662143707275390625</LatitudeDegrees>
              <LongitudeDegrees>-0.34763775765895843505859375</LongitudeDegrees>
            </Position>
            <AltitudeMeters>545.20001220703125</AltitudeMeters>
            <DistanceMeters>3571.7024953282</DistanceMeters>
          </Trackpoint>
          <Trackpoint>
            <Time>2022-02-06T08:56:17.000Z</Time>
            <Position>
              <LatitudeDegrees>39.12950478494167327880859375</LatitudeDegrees>
              <LongitudeDegrees>-0.347645469009876251220703125</LongitudeDegrees>
            </Position>
            <AltitudeMeters>545.79998779296875</AltitudeMeters>
            <DistanceMeters>3572.4975458619</DistanceMeters>
          </Trackpoint>
          <Trackpoint>
            <Time>2022-02-06T08:56:18.000Z</Time>
            <Position>
              <LatitudeDegrees>39.129509143531322479248046875</LatitudeDegrees>
              <LongitudeDegrees>-0.34765183925628662109375</LongitudeDegrees>
            </Position>
            <AltitudeMeters>546.5999755859375</AltitudeMeters>
            <DistanceMeters>3573.2336196263</DistanceMeters>
          </Trackpoint>
          <Trackpoint>
            <Time>2022-02-06T08:56:22.000Z</Time>
            <Position>
              <LatitudeDegrees>39.12950503639876842498779296875</LatitudeDegrees>
              <LongitudeDegrees>-0.347672961652278900146484375</LongitudeDegrees>
            </Position>
            <AltitudeMeters>548</AltitudeMeters>
            <DistanceMeters>3575.1150525818</DistanceMeters>
          </Trackpoint>
          <Trackpoint>
            <Time>2022-02-06T08:56:23.000Z</Time>
            <Position>
              <LatitudeDegrees>39.12950813770294189453125</LatitudeDegrees>
              <LongitudeDegrees>-0.347675979137420654296875</LongitudeDegrees>
            </Position>
            <AltitudeMeters>548.20001220703125</AltitudeMeters>
            <DistanceMeters>3575.5400249678</DistanceMeters>
          </Trackpoint>
          <Trackpoint>
            <Time>2022-02-06T08:56:24.000Z</Time>
            <Position>
              <LatitudeDegrees>39.12951149046421051025390625</LatitudeDegrees>
              <LongitudeDegrees>-0.34767891280353069305419921875</LongitudeDegrees>
            </Position>
            <AltitudeMeters>548.5999755859375</AltitudeMeters>
            <DistanceMeters>3575.9957570801</DistanceMeters>
          </Trackpoint>
          <Trackpoint>
            <Time>2022-02-06T08:56:26.000Z</Time>
            <Position>
              <LatitudeDegrees>39.12952397949993610382080078125</LatitudeDegrees>
              <LongitudeDegrees>-0.3476892225444316864013671875</LongitudeDegrees>
            </Position>
            <AltitudeMeters>549.79998779296875</AltitudeMeters>
            <DistanceMeters>3577.6471453101</DistanceMeters>
          </Trackpoint>
          <Trackpoint>
            <Time>2022-02-06T08:56:27.000Z</Time>
            <Position>
              <LatitudeDegrees>39.12953504361212253570556640625</LatitudeDegrees>
              <LongitudeDegrees>-0.34769475460052490234375</LongitudeDegrees>
            </Position>
            <AltitudeMeters>550.4000244140625</AltitudeMeters>
            <DistanceMeters>3578.963874089</DistanceMeters>
          </Trackpoint>
          <Trackpoint>
            <Time>2022-02-06T08:56:29.000Z</Time>
            <Position>
              <LatitudeDegrees>39.12955013103783130645751953125</LatitudeDegrees>
              <LongitudeDegrees>-0.347705818712711334228515625</LongitudeDegrees>
            </Position>
            <AltitudeMeters>551.79998779296875</AltitudeMeters>
            <DistanceMeters>3580.8950451253</DistanceMeters>
          </Trackpoint>
          <Trackpoint>
            <Time>2022-02-06T08:56:30.000Z</Time>
            <Position>
              <LatitudeDegrees>39.1295549087226390838623046875</LatitudeDegrees>
              <LongitudeDegrees>-0.3477140329778194427490234375</LongitudeDegrees>
            </Position>
            <AltitudeMeters>552.5999755859375</AltitudeMeters>
            <DistanceMeters>3581.7864747226</DistanceMeters>
          </Trackpoint>
          <Trackpoint>
            <Time>2022-02-06T08:56:31.000Z</Time>
            <Position>
              <LatitudeDegrees>39.129559099674224853515625</LatitudeDegrees>
              <LongitudeDegrees>-0.3477204032242298126220703125</LongitudeDegrees>
            </Position>
            <AltitudeMeters>553.20001220703125</AltitudeMeters>
            <DistanceMeters>3582.5101766183</DistanceMeters>
          </Trackpoint>
          <Trackpoint>
            <Time>2022-02-06T08:56:32.000Z</Time>
            <Position>
              <LatitudeDegrees>39.12956236861646175384521484375</LatitudeDegrees>
              <LongitudeDegrees>-0.34772819839417934417724609375</LongitudeDegrees>
            </Position>
            <AltitudeMeters>553.79998779296875</AltitudeMeters>
            <DistanceMeters>3583.2703903332</DistanceMeters>
          </Trackpoint>
          <Trackpoint>
            <Time>2022-02-06T08:56:33.000Z</Time>
            <Position>
              <LatitudeDegrees>39.1295653022825717926025390625</LatitudeDegrees>
              <LongitudeDegrees>-0.34773523919284343719482421875</LongitudeDegrees>
            </Position>
            <AltitudeMeters>554.4000244140625</AltitudeMeters>
            <DistanceMeters>3583.9556377156</DistanceMeters>
          </Trackpoint>
          <Trackpoint>
            <Time>2022-02-06T08:56:45.000Z</Time>
            <Position>
              <LatitudeDegrees>39.1295874305069446563720703125</LatitudeDegrees>
              <LongitudeDegrees>-0.347831882536411285400390625</LongitudeDegrees>
            </Position>
            <AltitudeMeters>557.5999755859375</AltitudeMeters>
            <DistanceMeters>3592.654605505</DistanceMeters>
          </Trackpoint>
          <Trackpoint>
            <Time>2022-02-06T08:56:47.000Z</Time>
            <Position>
              <LatitudeDegrees>39.129588268697261810302734375</LatitudeDegrees>
              <LongitudeDegrees>-0.34784755669534206390380859375</LongitudeDegrees>
            </Position>
            <AltitudeMeters>558</AltitudeMeters>
            <DistanceMeters>3594.0085277768</DistanceMeters>
          </Trackpoint>
          <Trackpoint>
            <Time>2022-02-06T08:56:52.000Z</Time>
            <Position>
              <LatitudeDegrees>39.12960193119943141937255859375</LatitudeDegrees>
              <LongitudeDegrees>-0.34789181314408779144287109375</LongitudeDegrees>
            </Position>
            <AltitudeMeters>559.4000244140625</AltitudeMeters>
            <DistanceMeters>3598.1200120712</DistanceMeters>
          </Trackpoint>
          <Trackpoint>
            <Time>2022-02-06T08:56:53.000Z</Time>
            <Position>
              <LatitudeDegrees>39.12960696034133434295654296875</LatitudeDegrees>
              <LongitudeDegrees>-0.34790203906595706939697265625</LongitudeDegrees>
            </Position>
            <AltitudeMeters>559.79998779296875</AltitudeMeters>
            <DistanceMeters>3599.1609775717</DistanceMeters>
          </Trackpoint>
          <Trackpoint>
            <Time>2022-02-06T08:56:58.000Z</Time>
            <Position>
              <LatitudeDegrees>39.12962724454700946807861328125</LatitudeDegrees>
              <LongitudeDegrees>-0.34793858416378498077392578125</LongitudeDegrees>
            </Position>
            <AltitudeMeters>561.20001220703125</AltitudeMeters>
            <DistanceMeters>3603.0408148663</DistanceMeters>
          </Trackpoint>
          <Trackpoint>
            <Time>2022-02-06T08:57:06.000Z</Time>
            <Position>
              <LatitudeDegrees>39.12963755428791046142578125</LatitudeDegrees>
              <LongitudeDegrees>-0.347989462316036224365234375</LongitudeDegrees>
            </Position>
            <AltitudeMeters>562.4000244140625</AltitudeMeters>
            <DistanceMeters>3607.580267966</DistanceMeters>
          </Trackpoint>
          <Trackpoint>
            <Time>2022-02-06T08:57:07.000Z</Time>
            <Position>
              <LatitudeDegrees>39.1296367160975933074951171875</LatitudeDegrees>
              <LongitudeDegrees>-0.34799323417246341705322265625</LongitudeDegrees>
            </Position>
            <AltitudeMeters>562.4000244140625</AltitudeMeters>
            <DistanceMeters>3607.9094501608</DistanceMeters>
          </Trackpoint>
          <Trackpoint>
            <Time>2022-02-06T08:57:08.000Z</Time>
            <Position>
              <LatitudeDegrees>39.12963688373565673828125</LatitudeDegrees>
              <LongitudeDegrees>-0.348000861704349517822265625</LongitudeDegrees>
            </Position>
            <AltitudeMeters>562.5999755859375</AltitudeMeters>
            <DistanceMeters>3608.5678145502</DistanceMeters>
          </Trackpoint>
          <Trackpoint>
            <Time>2022-02-06T08:57:09.000Z</Time>
            <Position>
              <LatitudeDegrees>39.12963998503983020782470703125</LatitudeDegrees>
              <LongitudeDegrees>-0.3480099141597747802734375</LongitudeDegrees>
            </Position>
            <AltitudeMeters>562.79998779296875</AltitudeMeters>
            <DistanceMeters>3609.4230549796</DistanceMeters>
          </Trackpoint>
          <Trackpoint>
            <Time>2022-02-06T08:57:10.000Z</Time>
            <Position>
              <LatitudeDegrees>39.1296447627246379852294921875</LatitudeDegrees>
              <LongitudeDegrees>-0.34801854752004146575927734375</LongitudeDegrees>
            </Position>
            <AltitudeMeters>562.79998779296875</AltitudeMeters>
            <DistanceMeters>3610.3394594259</DistanceMeters>
          </Trackpoint>
          <Trackpoint>
            <Time>2022-02-06T08:57:11.000Z</Time>
            <Position>
              <LatitudeDegrees>39.12964694201946258544921875</LatitudeDegrees>
              <LongitudeDegrees>-0.3480268456041812896728515625</LongitudeDegrees>
            </Position>
            <AltitudeMeters>562.79998779296875</AltitudeMeters>
            <DistanceMeters>3611.0996731409</DistanceMeters>
          </Trackpoint>
          <Trackpoint>
            <Time>2022-02-06T08:57:13.000Z</Time>
            <Position>
              <LatitudeDegrees>39.129653312265872955322265625</LatitudeDegrees>
              <LongitudeDegrees>-0.34804084338247776031494140625</LongitudeDegrees>
            </Position>
            <AltitudeMeters>562.79998779296875</AltitudeMeters>
            <DistanceMeters>3612.5027257645</DistanceMeters>
          </Trackpoint>
          <Trackpoint>
            <Time>2022-02-06T08:57:14.000Z</Time>
            <Position>
              <LatitudeDegrees>39.12965306080877780914306640625</LatitudeDegrees>
              <LongitudeDegrees>-0.34804503433406352996826171875</LongitudeDegrees>
            </Position>
            <AltitudeMeters>562.79998779296875</AltitudeMeters>
            <DistanceMeters>3612.8582831723</DistanceMeters>
          </Trackpoint>
          <Trackpoint>
            <Time>2022-02-06T08:57:15.000Z</Time>
            <Position>
              <LatitudeDegrees>39.12965423427522182464599609375</LatitudeDegrees>
              <LongitudeDegrees>-0.3480469621717929840087890625</LongitudeDegrees>
            </Position>
            <AltitudeMeters>562.79998779296875</AltitudeMeters>
            <DistanceMeters>3613.048336601</DistanceMeters>
          </Trackpoint>
          <Trackpoint>
            <Time>2022-02-06T08:57:16.000Z</Time>
            <Position>
              <LatitudeDegrees>39.12965507246553897857666015625</LatitudeDegrees>
              <LongitudeDegrees>-0.3480472974479198455810546875</LongitudeDegrees>
            </Position>
            <AltitudeMeters>562.79998779296875</AltitudeMeters>
            <DistanceMeters>3613.1827246693</DistanceMeters>
          </Trackpoint>
          <Trackpoint>
            <Time>2022-02-06T08:57:19.000Z</Time>
            <Position>
              <LatitudeDegrees>39.129655994474887847900390625</LatitudeDegrees>
              <LongitudeDegrees>-0.34804402850568294525146484375</LongitudeDegrees>
            </Position>
            <AltitudeMeters>562.79998779296875</AltitudeMeters>
            <DistanceMeters>3613.4832255253</DistanceMeters>
          </Trackpoint>
          <Trackpoint>
            <Time>2022-02-06T08:57:20.000Z</Time>
            <Position>
              <LatitudeDegrees>39.1296543180942535400390625</LatitudeDegrees>
              <LongitudeDegrees>-0.34804536961019039154052734375</LongitudeDegrees>
            </Position>
            <AltitudeMeters>562.79998779296875</AltitudeMeters>
            <DistanceMeters>3613.7159924874</DistanceMeters>
          </Trackpoint>
          <Trackpoint>
            <Time>2022-02-06T08:57:21.000Z</Time>
            <Position>
              <LatitudeDegrees>39.1296524740755558013916015625</LatitudeDegrees>
              <LongitudeDegrees>-0.34804570488631725311279296875</LongitudeDegrees>
            </Position>
            <AltitudeMeters>562.79998779296875</AltitudeMeters>
            <DistanceMeters>3613.9060459162</DistanceMeters>
          </Trackpoint>
          <Trackpoint>
            <Time>2022-02-06T08:57:24.000Z</Time>
            <Position>
              <LatitudeDegrees>39.1296487860381603240966796875</LatitudeDegrees>
              <LongitudeDegrees>-0.3480462916195392608642578125</LongitudeDegrees>
            </Position>
            <AltitudeMeters>562.79998779296875</AltitudeMeters>
            <DistanceMeters>3614.320257761</DistanceMeters>
          </Trackpoint>
          <Trackpoint>
            <Time>2022-02-06T08:57:27.000Z</Time>
            <Position>
              <LatitudeDegrees>39.12965406663715839385986328125</LatitudeDegrees>
              <LongitudeDegrees>-0.3480583615601062774658203125</LongitudeDegrees>
            </Position>
            <AltitudeMeters>562.79998779296875</AltitudeMeters>
            <DistanceMeters>3615.514725039</DistanceMeters>
          </Trackpoint>
          <Trackpoint>
            <Time>2022-02-06T08:57:28.000Z</Time>
            <Position>
              <LatitudeDegrees>39.129654653370380401611328125</LatitudeDegrees>
              <LongitudeDegrees>-0.3480633907020092010498046875</LongitudeDegrees>
            </Position>
            <AltitudeMeters>562.5999755859375</AltitudeMeters>
            <DistanceMeters>3615.9604398377</DistanceMeters>
          </Trackpoint>
          <Trackpoint>
            <Time>2022-02-06T08:57:29.000Z</Time>
            <Position>
              <LatitudeDegrees>39.12965423427522182464599609375</LatitudeDegrees>
              <LongitudeDegrees>-0.34806733019649982452392578125</LongitudeDegrees>
            </Position>
            <AltitudeMeters>562.5999755859375</AltitudeMeters>
            <DistanceMeters>3616.3159972454</DistanceMeters>
          </Trackpoint>
          <Trackpoint>
            <Time>2022-02-06T08:57:32.000Z</Time>
            <Position>
              <LatitudeDegrees>39.129657335579395294189453125</LatitudeDegrees>
              <LongitudeDegrees>-0.3480858542025089263916015625</LongitudeDegrees>
            </Position>
            <AltitudeMeters>562.5999755859375</AltitudeMeters>
            <DistanceMeters>3617.9508986576</DistanceMeters>
          </Trackpoint>
          <Trackpoint>
            <Time>2022-02-06T08:57:33.000Z</Time>
            <Position>
              <LatitudeDegrees>39.12966026924550533294677734375</LatitudeDegrees>
              <LongitudeDegrees>-0.34809381701052188873291015625</LongitudeDegrees>
            </Position>
            <AltitudeMeters>562.5999755859375</AltitudeMeters>
            <DistanceMeters>3618.7111123725</DistanceMeters>
          </Trackpoint>
          <Trackpoint>
            <Time>2022-02-06T08:57:34.000Z</Time>
            <Position>
              <LatitudeDegrees>39.12966244854032993316650390625</LatitudeDegrees>
              <LongitudeDegrees>-0.34810219891369342803955078125</LongitudeDegrees>
            </Position>
            <AltitudeMeters>562.5999755859375</AltitudeMeters>
            <DistanceMeters>3619.4772422368</DistanceMeters>
          </Trackpoint>
          <Trackpoint>
            <Time>2022-02-06T08:57:35.000Z</Time>
            <Position>
              <LatitudeDegrees>39.1296652145683765411376953125</LatitudeDegrees>
              <LongitudeDegrees>-0.3481091558933258056640625</LongitudeDegrees>
            </Position>
            <AltitudeMeters>562.4000244140625</AltitudeMeters>
            <DistanceMeters>3620.149182578</DistanceMeters>
          </Trackpoint>
          <Trackpoint>
            <Time>2022-02-06T08:57:36.000Z</Time>
            <Position>
              <LatitudeDegrees>39.129672758281230926513671875</LatitudeDegrees>
              <LongitudeDegrees>-0.3481203876435756683349609375</LongitudeDegrees>
            </Position>
            <AltitudeMeters>562.4000244140625</AltitudeMeters>
            <DistanceMeters>3621.4311630431</DistanceMeters>
          </Trackpoint>
          <Trackpoint>
            <Time>2022-02-06T08:57:38.000Z</Time>
            <Position>
              <LatitudeDegrees>39.12967736832797527313232421875</LatitudeDegrees>
              <LongitudeDegrees>-0.34813354723155498504638671875</LongitudeDegrees>
            </Position>
            <AltitudeMeters>562.4000244140625</AltitudeMeters>
            <DistanceMeters>3622.6810443274</DistanceMeters>
          </Trackpoint>
          <Trackpoint>
            <Time>2022-02-06T08:57:39.000Z</Time>
            <Position>
              <LatitudeDegrees>39.1296769492328166961669921875</LatitudeDegrees>
              <LongitudeDegrees>-0.34813941456377506256103515625</LongitudeDegrees>
            </Position>
            <AltitudeMeters>562.4000244140625</AltitudeMeters>
            <DistanceMeters>3623.1838784356</DistanceMeters>
          </Trackpoint>
          <Trackpoint>
            <Time>2022-02-06T08:57:41.000Z</Time>
            <Position>
              <LatitudeDegrees>39.1296749375760555267333984375</LatitudeDegrees>
              <LongitudeDegrees>-0.348159782588481903076171875</LongitudeDegrees>
            </Position>
            <AltitudeMeters>562.20001220703125</AltitudeMeters>
            <DistanceMeters>3624.9565788058</DistanceMeters>
          </Trackpoint>
          <Trackpoint>
            <Time>2022-02-06T08:57:56.000Z</Time>
            <Position>
              <LatitudeDegrees>39.1297294199466705322265625</LatitudeDegrees>
              <LongitudeDegrees>-0.348230190575122833251953125</LongitudeDegrees>
            </Position>
            <AltitudeMeters>562.79998779296875</AltitudeMeters>
            <DistanceMeters>3633.5427038974</DistanceMeters>
          </Trackpoint>
          <Trackpoint>
            <Time>2022-02-06T08:58:01.000Z</Time>
            <Position>
              <LatitudeDegrees>39.1297476924955844879150390625</LatitudeDegrees>
              <LongitudeDegrees>-0.34824200905859470367431640625</LongitudeDegrees>
            </Position>
            <AltitudeMeters>563.4000244140625</AltitudeMeters>
            <DistanceMeters>3635.8193821529</DistanceMeters>
          </Trackpoint>
          <Trackpoint>
            <Time>2022-02-06T08:58:02.000Z</Time>
            <Position>
              <LatitudeDegrees>39.12975112907588481903076171875</LatitudeDegrees>
              <LongitudeDegrees>-0.34824150614440441131591796875</LongitudeDegrees>
            </Position>
            <AltitudeMeters>563.4000244140625</AltitudeMeters>
            <DistanceMeters>3636.2111873335</DistanceMeters>
          </Trackpoint>
          <Trackpoint>
            <Time>2022-02-06T08:58:03.000Z</Time>
            <Position>
              <LatitudeDegrees>39.1297527216374874114990234375</LatitudeDegrees>
              <LongitudeDegrees>-0.34824167378246784210205078125</LongitudeDegrees>
            </Position>
            <AltitudeMeters>563.5999755859375</AltitudeMeters>
            <DistanceMeters>3636.4012407622</DistanceMeters>
          </Trackpoint>
          <Trackpoint>
            <Time>2022-02-06T08:58:08.000Z</Time>
            <Position>
              <LatitudeDegrees>39.12975515238940715789794921875</LatitudeDegrees>
              <LongitudeDegrees>-0.34825005568563938140869140625</LongitudeDegrees>
            </Position>
            <AltitudeMeters>563.79998779296875</AltitudeMeters>
            <DistanceMeters>3637.1732414392</DistanceMeters>
          </Trackpoint>
          <Trackpoint>
            <Time>2022-02-06T08:58:09.000Z</Time>
            <Position>
              <LatitudeDegrees>39.12975045852363109588623046875</LatitudeDegrees>
              <LongitudeDegrees>-0.34825122915208339691162109375</LongitudeDegrees>
            </Position>
            <AltitudeMeters>563.5999755859375</AltitudeMeters>
            <DistanceMeters>3637.7107937122</DistanceMeters>
          </Trackpoint>
          <Trackpoint>
            <Time>2022-02-06T08:58:20.000Z</Time>
            <Position>
              <LatitudeDegrees>39.12974894978106021881103515625</LatitudeDegrees>
              <LongitudeDegrees>-0.348241589963436126708984375</LongitudeDegrees>
            </Position>
            <AltitudeMeters>563.4000244140625</AltitudeMeters>
            <DistanceMeters>3638.5607384842</DistanceMeters>
          </Trackpoint>
          <Trackpoint>
            <Time>2022-02-06T08:58:25.000Z</Time>
            <Position>
              <LatitudeDegrees>39.12974911741912364959716796875</LatitudeDegrees>
              <LongitudeDegrees>-0.348241589963436126708984375</LongitudeDegrees>
            </Position>
            <AltitudeMeters>563.4000244140625</AltitudeMeters>
            <DistanceMeters>3638.5607384842</DistanceMeters>
          </Trackpoint>
          <Trackpoint>
            <Time>2022-02-06T08:58:26.000Z</Time>
            <Position>
              <LatitudeDegrees>39.129749871790409088134765625</LatitudeDegrees>
              <LongitudeDegrees>-0.34824200905859470367431640625</LongitudeDegrees>
            </Position>
            <AltitudeMeters>563.4000244140625</AltitudeMeters>
            <DistanceMeters>3638.5607384842</DistanceMeters>
          </Trackpoint>
          <Trackpoint>
            <Time>2022-02-06T08:58:31.000Z</Time>
            <Position>
              <LatitudeDegrees>39.1297507099807262420654296875</LatitudeDegrees>
              <LongitudeDegrees>-0.3482394106686115264892578125</LongitudeDegrees>
            </Position>
            <AltitudeMeters>563.4000244140625</AltitudeMeters>
            <DistanceMeters>3638.7935054464</DistanceMeters>
          </Trackpoint>
          <Trackpoint>
            <Time>2022-02-06T08:58:38.000Z</Time>
            <Position>
              <LatitudeDegrees>39.1297483630478382110595703125</LatitudeDegrees>
              <LongitudeDegrees>-0.34823278896510601043701171875</LongitudeDegrees>
            </Position>
            <AltitudeMeters>563.20001220703125</AltitudeMeters>
            <DistanceMeters>3639.4238413596</DistanceMeters>
          </Trackpoint>
          <Trackpoint>
            <Time>2022-02-06T08:58:40.000Z</Time>
            <Position>
              <LatitudeDegrees>39.1297495365142822265625</LatitudeDegrees>
              <LongitudeDegrees>-0.34823513589799404144287109375</LongitudeDegrees>
            </Position>
            <AltitudeMeters>563.4000244140625</AltitudeMeters>
            <DistanceMeters>3639.6752584138</DistanceMeters>
          </Trackpoint>
          <Trackpoint>
            <Time>2022-02-06T08:58:44.000Z</Time>
            <Position>
              <LatitudeDegrees>39.12974945269525051116943359375</LatitudeDegrees>
              <LongitudeDegrees>-0.3482343815267086029052734375</LongitudeDegrees>
            </Position>
            <AltitudeMeters>563.4000244140625</AltitudeMeters>
            <DistanceMeters>3639.7702851281</DistanceMeters>
          </Trackpoint>
          <Trackpoint>
            <Time>2022-02-06T09:03:39.000Z</Time>
            <Position>
              <LatitudeDegrees>39.1297604329884052276611328125</LatitudeDegrees>
              <LongitudeDegrees>-0.34822926856577396392822265625</LongitudeDegrees>
            </Position>
            <AltitudeMeters>563.4000244140625</AltitudeMeters>
            <DistanceMeters>3641.0732257912</DistanceMeters>
          </Trackpoint>
          <Trackpoint>
            <Time>2022-02-06T09:03:40.000Z</Time>
            <Position>
              <LatitudeDegrees>39.12976236082613468170166015625</LatitudeDegrees>
              <LongitudeDegrees>-0.3482303582131862640380859375</LongitudeDegrees>
            </Position>
            <AltitudeMeters>563.4000244140625</AltitudeMeters>
            <DistanceMeters>3641.3059927533</DistanceMeters>
          </Trackpoint>
          <Trackpoint>
            <Time>2022-02-06T09:03:47.000Z</Time>
            <Position>
              <LatitudeDegrees>39.129803515970706939697265625</LatitudeDegrees>
              <LongitudeDegrees>-0.3482444398105144500732421875</LongitudeDegrees>
            </Position>
            <AltitudeMeters>564.4000244140625</AltitudeMeters>
            <DistanceMeters>3646.0459115493</DistanceMeters>
          </Trackpoint>
          <Trackpoint>
            <Time>2022-02-06T09:04:01.000Z</Time>
            <Position>
              <LatitudeDegrees>39.1299260593950748443603515625</LatitudeDegrees>
              <LongitudeDegrees>-0.34836907871067523956298828125</LongitudeDegrees>
            </Position>
            <AltitudeMeters>569.20001220703125</AltitudeMeters>
            <DistanceMeters>3663.4194355216</DistanceMeters>
          </Trackpoint>
          <Trackpoint>
            <Time>2022-02-06T09:04:03.000Z</Time>
            <Position>
              <LatitudeDegrees>39.12993888370692729949951171875</LatitudeDegrees>
              <LongitudeDegrees>-0.34838877618312835693359375</LongitudeDegrees>
            </Position>
            <AltitudeMeters>569.5999755859375</AltitudeMeters>
            <DistanceMeters>3665.6419232752</DistanceMeters>
          </Trackpoint>
          <Trackpoint>
            <Time>2022-02-06T09:04:10.000Z</Time>
            <Position>
              <LatitudeDegrees>39.1300249658524990081787109375</LatitudeDegrees>
              <LongitudeDegrees>-0.34842691384255886077880859375</LongitudeDegrees>
            </Position>
            <AltitudeMeters>570.4000244140625</AltitudeMeters>
            <DistanceMeters>3675.7737498141</DistanceMeters>
          </Trackpoint>
          <Trackpoint>
            <Time>2022-02-06T09:04:25.000Z</Time>
            <Position>
              <LatitudeDegrees>39.13011356256902217864990234375</LatitudeDegrees>
              <LongitudeDegrees>-0.34855985082685947418212890625</LongitudeDegrees>
            </Position>
            <AltitudeMeters>575.4000244140625</AltitudeMeters>
            <DistanceMeters>3690.9056911433</DistanceMeters>
          </Trackpoint>
          <Trackpoint>
            <Time>2022-02-06T09:04:39.000Z</Time>
            <Position>
              <LatitudeDegrees>39.13018061779439449310302734375</LatitudeDegrees>
              <LongitudeDegrees>-0.34857678227126598358154296875</LongitudeDegrees>
            </Position>
            <AltitudeMeters>576.20001220703125</AltitudeMeters>
            <DistanceMeters>3698.5102035897</DistanceMeters>
          </Trackpoint>
          <Trackpoint>
            <Time>2022-02-06T09:04:40.000Z</Time>
            <Position>
              <LatitudeDegrees>39.13018338382244110107421875</LatitudeDegrees>
              <LongitudeDegrees>-0.3485726751387119293212890625</LongitudeDegrees>
            </Position>
            <AltitudeMeters>576</AltitudeMeters>
            <DistanceMeters>3698.975737514</DistanceMeters>
          </Trackpoint>
          <Trackpoint>
            <Time>2022-02-06T09:04:43.000Z</Time>
            <Position>
              <LatitudeDegrees>39.13018782623112201690673828125</LatitudeDegrees>
              <LongitudeDegrees>-0.34857158549129962921142578125</LongitudeDegrees>
            </Position>
            <AltitudeMeters>575.79998779296875</AltitudeMeters>
            <DistanceMeters>3699.4785716222</DistanceMeters>
          </Trackpoint>
          <Trackpoint>
            <Time>2022-02-06T09:04:52.000Z</Time>
            <Position>
              <LatitudeDegrees>39.13022990338504314422607421875</LatitudeDegrees>
              <LongitudeDegrees>-0.34860511310398578643798828125</LongitudeDegrees>
            </Position>
            <AltitudeMeters>576.20001220703125</AltitudeMeters>
            <DistanceMeters>3704.9843836988</DistanceMeters>
          </Trackpoint>
          <Trackpoint>
            <Time>2022-02-06T09:04:54.000Z</Time>
            <Position>
              <LatitudeDegrees>39.1302502714097499847412109375</LatitudeDegrees>
              <LongitudeDegrees>-0.3486176021397113800048828125</LongitudeDegrees>
            </Position>
            <AltitudeMeters>576.20001220703125</AltitudeMeters>
            <DistanceMeters>3707.4949599987</DistanceMeters>
          </Trackpoint>
          <Trackpoint>
            <Time>2022-02-06T09:04:55.000Z</Time>
            <Position>
              <LatitudeDegrees>39.1302583180367946624755859375</LatitudeDegrees>
              <LongitudeDegrees>-0.348625481128692626953125</LongitudeDegrees>
            </Position>
            <AltitudeMeters>576.20001220703125</AltitudeMeters>
            <DistanceMeters>3708.6193312462</DistanceMeters>
          </Trackpoint>
          <Trackpoint>
            <Time>2022-02-06T09:05:01.000Z</Time>
            <Position>
              <LatitudeDegrees>39.13028991781175136566162109375</LatitudeDegrees>
              <LongitudeDegrees>-0.34868675284087657928466796875</LongitudeDegrees>
            </Position>
            <AltitudeMeters>577.4000244140625</AltitudeMeters>
            <DistanceMeters>3714.9719221844</DistanceMeters>
          </Trackpoint>
          <Trackpoint>
            <Time>2022-02-06T09:05:16.000Z</Time>
            <Position>
              <LatitudeDegrees>39.13038345985114574432373046875</LatitudeDegrees>
              <LongitudeDegrees>-0.348790101706981658935546875</LongitudeDegrees>
            </Position>
            <AltitudeMeters>575.79998779296875</AltitudeMeters>
            <DistanceMeters>3728.6841157258</DistanceMeters>
          </Trackpoint>
          <Trackpoint>
            <Time>2022-02-06T09:05:17.000Z</Time>
            <Position>
              <LatitudeDegrees>39.1303904168307781219482421875</LatitudeDegrees>
              <LongitudeDegrees>-0.34879404120147228240966796875</LongitudeDegrees>
            </Position>
            <AltitudeMeters>575.5999755859375</AltitudeMeters>
            <DistanceMeters>3729.5340604978</DistanceMeters>
          </Trackpoint>
          <Trackpoint>
            <Time>2022-02-06T09:05:19.000Z</Time>
            <Position>
              <LatitudeDegrees>39.1304098628461360931396484375</LatitudeDegrees>
              <LongitudeDegrees>-0.34880678169429302215576171875</LongitudeDegrees>
            </Position>
            <AltitudeMeters>575.20001220703125</AltitudeMeters>
            <DistanceMeters>3731.9642189277</DistanceMeters>
          </Trackpoint>
          <Trackpoint>
            <Time>2022-02-06T09:05:20.000Z</Time>
            <Position>
              <LatitudeDegrees>39.13041464053094387054443359375</LatitudeDegrees>
              <LongitudeDegrees>-0.3488160856068134307861328125</LongitudeDegrees>
            </Position>
            <AltitudeMeters>575</AltitudeMeters>
            <DistanceMeters>3732.9286347476</DistanceMeters>
          </Trackpoint>
          <Trackpoint>
            <Time>2022-02-06T09:05:21.000Z</Time>
            <Position>
              <LatitudeDegrees>39.13041866384446620941162109375</LatitudeDegrees>
              <LongitudeDegrees>-0.3488224558532238006591796875</LongitudeDegrees>
            </Position>
            <AltitudeMeters>575</AltitudeMeters>
            <DistanceMeters>3733.6397495632</DistanceMeters>
          </Trackpoint>
          <Trackpoint>
            <Time>2022-02-06T09:05:22.000Z</Time>
            <Position>
              <LatitudeDegrees>39.1304209269583225250244140625</LatitudeDegrees>
              <LongitudeDegrees>-0.34883125685155391693115234375</LongitudeDegrees>
            </Position>
            <AltitudeMeters>575</AltitudeMeters>
            <DistanceMeters>3734.4404588909</DistanceMeters>
          </Trackpoint>
          <Trackpoint>
            <Time>2022-02-06T09:05:23.000Z</Time>
            <Position>
              <LatitudeDegrees>39.13042235188186168670654296875</LatitudeDegrees>
              <LongitudeDegrees>-0.34883804619312286376953125</LongitudeDegrees>
            </Position>
            <AltitudeMeters>575</AltitudeMeters>
            <DistanceMeters>3735.0414606028</DistanceMeters>
          </Trackpoint>
          <Trackpoint>
            <Time>2022-02-06T09:05:24.000Z</Time>
            <Position>
              <LatitudeDegrees>39.13042587228119373321533203125</LatitudeDegrees>
              <LongitudeDegrees>-0.34884701482951641082763671875</LongitudeDegrees>
            </Position>
            <AltitudeMeters>574.79998779296875</AltitudeMeters>
            <DistanceMeters>3735.9123948261</DistanceMeters>
          </Trackpoint>
          <Trackpoint>
            <Time>2022-02-06T09:05:25.000Z</Time>
            <Position>
              <LatitudeDegrees>39.13042478263378143310546875</LatitudeDegrees>
              <LongitudeDegrees>-0.3488509543240070343017578125</LongitudeDegrees>
            </Position>
            <AltitudeMeters>574.4000244140625</AltitudeMeters>
            <DistanceMeters>3736.2679522339</DistanceMeters>
          </Trackpoint>
          <Trackpoint>
            <Time>2022-02-06T09:05:36.000Z</Time>
            <Position>
              <LatitudeDegrees>39.13050281815230846405029296875</LatitudeDegrees>
              <LongitudeDegrees>-0.348942317068576812744140625</LongitudeDegrees>
            </Position>
            <AltitudeMeters>567.20001220703125</AltitudeMeters>
            <DistanceMeters>3748.0005770601</DistanceMeters>
          </Trackpoint>
          <Trackpoint>
            <Time>2022-02-06T09:05:43.000Z</Time>
            <Position>
              <LatitudeDegrees>39.1305644251406192779541015625</LatitudeDegrees>
              <LongitudeDegrees>-0.34899889491498470306396484375</LongitudeDegrees>
            </Position>
            <AltitudeMeters>561</AltitudeMeters>
            <DistanceMeters>3756.4199654039</DistanceMeters>
          </Trackpoint>
          <Trackpoint>
            <Time>2022-02-06T09:05:47.000Z</Time>
            <Position>
              <LatitudeDegrees>39.130579344928264617919921875</LatitudeDegrees>
              <LongitudeDegrees>-0.349036864936351776123046875</LongitudeDegrees>
            </Position>
            <AltitudeMeters>560.20001220703125</AltitudeMeters>
            <DistanceMeters>3760.0954237917</DistanceMeters>
          </Trackpoint>
          <Trackpoint>
            <Time>2022-02-06T09:05:50.000Z</Time>
            <Position>
              <LatitudeDegrees>39.1306038200855255126953125</LatitudeDegrees>
              <LongitudeDegrees>-0.34904994070529937744140625</LongitudeDegrees>
            </Position>
            <AltitudeMeters>559.5999755859375</AltitudeMeters>
            <DistanceMeters>3763.0427842276</DistanceMeters>
          </Trackpoint>
          <Trackpoint>
            <Time>2022-02-06T09:05:54.000Z</Time>
            <Position>
              <LatitudeDegrees>39.130630306899547576904296875</LatitudeDegrees>
              <LongitudeDegrees>-0.3490809537470340728759765625</LongitudeDegrees>
            </Position>
            <AltitudeMeters>559.20001220703125</AltitudeMeters>
            <DistanceMeters>3767.0248457836</DistanceMeters>
          </Trackpoint>
          <Trackpoint>
            <Time>2022-02-06T09:05:55.000Z</Time>
            <Position>
              <LatitudeDegrees>39.130637347698211669921875</LatitudeDegrees>
              <LongitudeDegrees>-0.34908346831798553466796875</LongitudeDegrees>
            </Position>
            <AltitudeMeters>559</AltitudeMeters>
            <DistanceMeters>3767.8311741931</DistanceMeters>
          </Trackpoint>
          <Trackpoint>
            <Time>2022-02-06T09:05:59.000Z</Time>
            <Position>
              <LatitudeDegrees>39.13065411150455474853515625</LatitudeDegrees>
              <LongitudeDegrees>-0.34910484217107295989990234375</LongitudeDegrees>
            </Position>
            <AltitudeMeters>558.79998779296875</AltitudeMeters>
            <DistanceMeters>3770.4543246368</DistanceMeters>
          </Trackpoint>
          <Trackpoint>
            <Time>2022-02-06T09:06:00.000Z</Time>
            <Position>
              <LatitudeDegrees>39.1306576319038867950439453125</LatitudeDegrees>
              <LongitudeDegrees>-0.349113307893276214599609375</LongitudeDegrees>
            </Position>
            <AltitudeMeters>558.79998779296875</AltitudeMeters>
            <DistanceMeters>3771.2827483265</DistanceMeters>
          </Trackpoint>
          <Trackpoint>
            <Time>2022-02-06T09:06:01.000Z</Time>
            <Position>
              <LatitudeDegrees>39.13066224195063114166259765625</LatitudeDegrees>
              <LongitudeDegrees>-0.349120013415813446044921875</LongitudeDegrees>
            </Position>
            <AltitudeMeters>558.5999755859375</AltitudeMeters>
            <DistanceMeters>3772.0547490035</DistanceMeters>
          </Trackpoint>
          <Trackpoint>
            <Time>2022-02-06T09:06:02.000Z</Time>
            <Position>
              <LatitudeDegrees>39.13066727109253406524658203125</LatitudeDegrees>
              <LongitudeDegrees>-0.349128730595111846923828125</LongitudeDegrees>
            </Position>
            <AltitudeMeters>558.4000244140625</AltitudeMeters>
            <DistanceMeters>3772.9906536007</DistanceMeters>
          </Trackpoint>
          <Trackpoint>
            <Time>2022-02-06T09:06:03.000Z</Time>
            <Position>
              <LatitudeDegrees>39.13067280314862728118896484375</LatitudeDegrees>
              <LongitudeDegrees>-0.34913317300379276275634765625</LongitudeDegrees>
            </Position>
            <AltitudeMeters>557.79998779296875</AltitudeMeters>
            <DistanceMeters>3773.7080895611</DistanceMeters>
          </Trackpoint>
          <Trackpoint>
            <Time>2022-02-06T09:06:04.000Z</Time>
            <Position>
              <LatitudeDegrees>39.13067649118602275848388671875</LatitudeDegrees>
              <LongitudeDegrees>-0.34913853742182254791259765625</LongitudeDegrees>
            </Position>
            <AltitudeMeters>557.4000244140625</AltitudeMeters>
            <DistanceMeters>3774.3239330564</DistanceMeters>
          </Trackpoint>
          <Trackpoint>
            <Time>2022-02-06T09:06:11.000Z</Time>
            <Position>
              <LatitudeDegrees>39.1307323984801769256591796875</LatitudeDegrees>
              <LongitudeDegrees>-0.34916125237941741943359375</LongitudeDegrees>
            </Position>
            <AltitudeMeters>555.5999755859375</AltitudeMeters>
            <DistanceMeters>3780.8483319066</DistanceMeters>
          </Trackpoint>
          <Trackpoint>
            <Time>2022-02-06T09:06:26.000Z</Time>
            <Position>
              <LatitudeDegrees>39.13084681145846843719482421875</LatitudeDegrees>
              <LongitudeDegrees>-0.34922637976706027984619140625</LongitudeDegrees>
            </Position>
            <AltitudeMeters>551.4000244140625</AltitudeMeters>
            <DistanceMeters>3794.7690158154</DistanceMeters>
          </Trackpoint>
          <Trackpoint>
            <Time>2022-02-06T09:06:32.000Z</Time>
            <Position>
              <LatitudeDegrees>39.1308889724314212799072265625</LatitudeDegrees>
              <LongitudeDegrees>-0.34924951381981372833251953125</LongitudeDegrees>
            </Position>
            <AltitudeMeters>550</AltitudeMeters>
            <DistanceMeters>3799.8686844476</DistanceMeters>
          </Trackpoint>
          <Trackpoint>
            <Time>2022-02-06T09:06:36.000Z</Time>
            <Position>
              <LatitudeDegrees>39.130923338234424591064453125</LatitudeDegrees>
              <LongitudeDegrees>-0.34925471059978008270263671875</LongitudeDegrees>
            </Position>
            <AltitudeMeters>550.5999755859375</AltitudeMeters>
            <DistanceMeters>3803.7204912441</DistanceMeters>
          </Trackpoint>
          <Trackpoint>
            <Time>2022-02-06T09:06:40.000Z</Time>
            <Position>
              <LatitudeDegrees>39.13096667267382144927978515625</LatitudeDegrees>
              <LongitudeDegrees>-0.34927030093967914581298828125</LongitudeDegrees>
            </Position>
            <AltitudeMeters>551.5999755859375</AltitudeMeters>
            <DistanceMeters>3808.7272359159</DistanceMeters>
          </Trackpoint>
          <Trackpoint>
            <Time>2022-02-06T09:06:42.000Z</Time>
            <Position>
              <LatitudeDegrees>39.13099030964076519012451171875</LatitudeDegrees>
              <LongitudeDegrees>-0.34927918575704097747802734375</LongitudeDegrees>
            </Position>
            <AltitudeMeters>552</AltitudeMeters>
            <DistanceMeters>3811.4682254455</DistanceMeters>
          </Trackpoint>
          <Trackpoint>
            <Time>2022-02-06T09:06:43.000Z</Time>
            <Position>
              <LatitudeDegrees>39.131003133952617645263671875</LatitudeDegrees>
              <LongitudeDegrees>-0.34928329288959503173828125</LongitudeDegrees>
            </Position>
            <AltitudeMeters>552.4000244140625</AltitudeMeters>
            <DistanceMeters>3812.9403729743</DistanceMeters>
          </Trackpoint>
          <Trackpoint>
            <Time>2022-02-06T09:06:44.000Z</Time>
            <Position>
              <LatitudeDegrees>39.13101813755929470062255859375</LatitudeDegrees>
              <LongitudeDegrees>-0.34928505308926105499267578125</LongitudeDegrees>
            </Position>
            <AltitudeMeters>552.20001220703125</AltitudeMeters>
            <DistanceMeters>3814.6134909311</DistanceMeters>
          </Trackpoint>
          <Trackpoint>
            <Time>2022-02-06T09:06:50.000Z</Time>
            <Position>
              <LatitudeDegrees>39.1310800798237323760986328125</LatitudeDegrees>
              <LongitudeDegrees>-0.34932327456772327423095703125</LongitudeDegrees>
            </Position>
            <AltitudeMeters>550.4000244140625</AltitudeMeters>
            <DistanceMeters>3822.2570892063</DistanceMeters>
          </Trackpoint>
          <Trackpoint>
            <Time>2022-02-06T09:06:53.000Z</Time>
            <Position>
              <LatitudeDegrees>39.13110882975161075592041015625</LatitudeDegrees>
              <LongitudeDegrees>-0.349339284002780914306640625</LongitudeDegrees>
            </Position>
            <AltitudeMeters>551</AltitudeMeters>
            <DistanceMeters>3825.743417202</DistanceMeters>
          </Trackpoint>
          <Trackpoint>
            <Time>2022-02-06T09:06:56.000Z</Time>
            <Position>
              <LatitudeDegrees>39.1311243362724781036376953125</LatitudeDegrees>
              <LongitudeDegrees>-0.349352695047855377197265625</LongitudeDegrees>
            </Position>
            <AltitudeMeters>551.5999755859375</AltitudeMeters>
            <DistanceMeters>3827.8210063193</DistanceMeters>
          </Trackpoint>
          <Trackpoint>
            <Time>2022-02-06T09:07:01.000Z</Time>
            <Position>
              <LatitudeDegrees>39.1311451233923435211181640625</LatitudeDegrees>
              <LongitudeDegrees>-0.3493746556341648101806640625</LongitudeDegrees>
            </Position>
            <AltitudeMeters>552.5999755859375</AltitudeMeters>
            <DistanceMeters>3830.8109520846</DistanceMeters>
          </Trackpoint>
          <Trackpoint>
            <Time>2022-02-06T09:07:17.000Z</Time>
            <Position>
              <LatitudeDegrees>39.131250567734241485595703125</LatitudeDegrees>
              <LongitudeDegrees>-0.3494101949036121368408203125</LongitudeDegrees>
            </Position>
            <AltitudeMeters>554.4000244140625</AltitudeMeters>
            <DistanceMeters>3842.9416621104</DistanceMeters>
          </Trackpoint>
          <Trackpoint>
            <Time>2022-02-06T09:07:19.000Z</Time>
            <Position>
              <LatitudeDegrees>39.13127906620502471923828125</LatitudeDegrees>
              <LongitudeDegrees>-0.34941145218908786773681640625</LongitudeDegrees>
            </Position>
            <AltitudeMeters>554.5999755859375</AltitudeMeters>
            <DistanceMeters>3846.1147576393</DistanceMeters>
          </Trackpoint>
          <Trackpoint>
            <Time>2022-02-06T09:07:20.000Z</Time>
            <Position>
              <LatitudeDegrees>39.13129256106913089752197265625</LatitudeDegrees>
              <LongitudeDegrees>-0.34941379912197589874267578125</LongitudeDegrees>
            </Position>
            <AltitudeMeters>554.5999755859375</AltitudeMeters>
            <DistanceMeters>3847.6292342541</DistanceMeters>
          </Trackpoint>
          <Trackpoint>
            <Time>2022-02-06T09:07:21.000Z</Time>
            <Position>
              <LatitudeDegrees>39.13130513392388820648193359375</LatitudeDegrees>
              <LongitudeDegrees>-0.34941614605486392974853515625</LongitudeDegrees>
            </Position>
            <AltitudeMeters>554.4000244140625</AltitudeMeters>
            <DistanceMeters>3849.0419079227</DistanceMeters>
          </Trackpoint>
          <Trackpoint>
            <Time>2022-02-06T09:07:24.000Z</Time>
            <Position>
              <LatitudeDegrees>39.1313452832400798797607421875</LatitudeDegrees>
              <LongitudeDegrees>-0.34942033700644969940185546875</LongitudeDegrees>
            </Position>
            <AltitudeMeters>553.20001220703125</AltitudeMeters>
            <DistanceMeters>3853.5253162428</DistanceMeters>
          </Trackpoint>
          <Trackpoint>
            <Time>2022-02-06T09:07:25.000Z</Time>
            <Position>
              <LatitudeDegrees>39.13135458715260028839111328125</LatitudeDegrees>
              <LongitudeDegrees>-0.3494288027286529541015625</LongitudeDegrees>
            </Position>
            <AltitudeMeters>553</AltitudeMeters>
            <DistanceMeters>3854.7895644504</DistanceMeters>
          </Trackpoint>
          <Trackpoint>
            <Time>2022-02-06T09:07:26.000Z</Time>
            <Position>
              <LatitudeDegrees>39.13136347196996212005615234375</LatitudeDegrees>
              <LongitudeDegrees>-0.34943928010761737823486328125</LongitudeDegrees>
            </Position>
            <AltitudeMeters>552.5999755859375</AltitudeMeters>
            <DistanceMeters>3856.1300812211</DistanceMeters>
          </Trackpoint>
          <Trackpoint>
            <Time>2022-02-06T09:07:27.000Z</Time>
            <Position>
              <LatitudeDegrees>39.13137554191052913665771484375</LatitudeDegrees>
              <LongitudeDegrees>-0.349448584020137786865234375</LongitudeDegrees>
            </Position>
            <AltitudeMeters>552</AltitudeMeters>
            <DistanceMeters>3857.6973019435</DistanceMeters>
          </Trackpoint>
          <Trackpoint>
            <Time>2022-02-06T09:07:28.000Z</Time>
            <Position>
              <LatitudeDegrees>39.1313888691365718841552734375</LatitudeDegrees>
              <LongitudeDegrees>-0.3494578041136264801025390625</LongitudeDegrees>
            </Position>
            <AltitudeMeters>551.5999755859375</AltitudeMeters>
            <DistanceMeters>3859.3811796122</DistanceMeters>
          </Trackpoint>
          <Trackpoint>
            <Time>2022-02-06T09:07:32.000Z</Time>
            <Position>
              <LatitudeDegrees>39.1314374841749668121337890625</LatitudeDegrees>
              <LongitudeDegrees>-0.3494936786592006683349609375</LongitudeDegrees>
            </Position>
            <AltitudeMeters>549.79998779296875</AltitudeMeters>
            <DistanceMeters>3865.6168439047</DistanceMeters>
          </Trackpoint>
          <Trackpoint>
            <Time>2022-02-06T09:07:39.000Z</Time>
            <Position>
              <LatitudeDegrees>39.13154083304107189178466796875</LatitudeDegrees>
              <LongitudeDegrees>-0.34957121126353740692138671875</LongitudeDegrees>
            </Position>
            <AltitudeMeters>550.4000244140625</AltitudeMeters>
            <DistanceMeters>3878.9260129067</DistanceMeters>
          </Trackpoint>
          <Trackpoint>
            <Time>2022-02-06T09:07:45.000Z</Time>
            <Position>
              <LatitudeDegrees>39.131583161652088165283203125</LatitudeDegrees>
              <LongitudeDegrees>-0.3496351651847362518310546875</LongitudeDegrees>
            </Position>
            <AltitudeMeters>550.4000244140625</AltitudeMeters>
            <DistanceMeters>3886.1842128195</DistanceMeters>
          </Trackpoint>
          <Trackpoint>
            <Time>2022-02-06T09:07:49.000Z</Time>
            <Position>
              <LatitudeDegrees>39.13159967400133609771728515625</LatitudeDegrees>
              <LongitudeDegrees>-0.3496696986258029937744140625</LongitudeDegrees>
            </Position>
            <AltitudeMeters>550</AltitudeMeters>
            <DistanceMeters>3889.6860471689</DistanceMeters>
          </Trackpoint>
          <Trackpoint>
            <Time>2022-02-06T09:07:50.000Z</Time>
            <Position>
              <LatitudeDegrees>39.1315994225442409515380859375</LatitudeDegrees>
              <LongitudeDegrees>-0.3496733866631984710693359375</LongitudeDegrees>
            </Position>
            <AltitudeMeters>550.20001220703125</AltitudeMeters>
            <DistanceMeters>3890.0152293636</DistanceMeters>
          </Trackpoint>
          <Trackpoint>
            <Time>2022-02-06T09:07:54.000Z</Time>
            <Position>
              <LatitudeDegrees>39.13161409087479114532470703125</LatitudeDegrees>
              <LongitudeDegrees>-0.3496908210217952728271484375</LongitudeDegrees>
            </Position>
            <AltitudeMeters>549.20001220703125</AltitudeMeters>
            <DistanceMeters>3892.2356846634</DistanceMeters>
          </Trackpoint>
          <Trackpoint>
            <Time>2022-02-06T09:07:55.000Z</Time>
            <Position>
              <LatitudeDegrees>39.1316215507686138153076171875</LatitudeDegrees>
              <LongitudeDegrees>-0.34969744272530078887939453125</LongitudeDegrees>
            </Position>
            <AltitudeMeters>548.5999755859375</AltitudeMeters>
            <DistanceMeters>3893.24135288</DistanceMeters>
          </Trackpoint>
          <Trackpoint>
            <Time>2022-02-06T09:07:56.000Z</Time>
            <Position>
              <LatitudeDegrees>39.1316329501569271087646484375</LatitudeDegrees>
              <LongitudeDegrees>-0.34971387125551700592041015625</LongitudeDegrees>
            </Position>
            <AltitudeMeters>547.5999755859375</AltitudeMeters>
            <DistanceMeters>3895.1466325787</DistanceMeters>
          </Trackpoint>
          <Trackpoint>
            <Time>2022-02-06T09:08:11.000Z</Time>
            <Position>
              <LatitudeDegrees>39.1316909529268741607666015625</LatitudeDegrees>
              <LongitudeDegrees>-0.349869020283222198486328125</LongitudeDegrees>
            </Position>
            <AltitudeMeters>541.5999755859375</AltitudeMeters>
            <DistanceMeters>3910.0164157583</DistanceMeters>
          </Trackpoint>
          <Trackpoint>
            <Time>2022-02-06T09:08:14.000Z</Time>
            <Position>
              <LatitudeDegrees>39.13170151412487030029296875</LatitudeDegrees>
              <LongitudeDegrees>-0.34991336055099964141845703125</LongitudeDegrees>
            </Position>
            <AltitudeMeters>542</AltitudeMeters>
            <DistanceMeters>3914.0210899978</DistanceMeters>
          </Trackpoint>
          <Trackpoint>
            <Time>2022-02-06T09:08:17.000Z</Time>
            <Position>
              <LatitudeDegrees>39.1317197866737842559814453125</LatitudeDegrees>
              <LongitudeDegrees>-0.349946133792400360107421875</LongitudeDegrees>
            </Position>
            <AltitudeMeters>542.20001220703125</AltitudeMeters>
            <DistanceMeters>3917.506122683</DistanceMeters>
          </Trackpoint>
          <Trackpoint>
            <Time>2022-02-06T09:08:20.000Z</Time>
            <Position>
              <LatitudeDegrees>39.13173747248947620391845703125</LatitudeDegrees>
              <LongitudeDegrees>-0.34998737275600433349609375</LongitudeDegrees>
            </Position>
            <AltitudeMeters>540.79998779296875</AltitudeMeters>
            <DistanceMeters>3921.5745535994</DistanceMeters>
          </Trackpoint>
          <Trackpoint>
            <Time>2022-02-06T09:08:24.000Z</Time>
            <Position>
              <LatitudeDegrees>39.13175138644874095916748046875</LatitudeDegrees>
              <LongitudeDegrees>-0.35001846961677074432373046875</LongitudeDegrees>
            </Position>
            <AltitudeMeters>539.4000244140625</AltitudeMeters>
            <DistanceMeters>3924.6742312175</DistanceMeters>
          </Trackpoint>
          <Trackpoint>
            <Time>2022-02-06T09:08:29.000Z</Time>
            <Position>
              <LatitudeDegrees>39.13178675808012485504150390625</LatitudeDegrees>
              <LongitudeDegrees>-0.35006088204681873321533203125</LongitudeDegrees>
            </Position>
            <AltitudeMeters>538.5999755859375</AltitudeMeters>
            <DistanceMeters>3930.051433536</DistanceMeters>
          </Trackpoint>
          <Trackpoint>
            <Time>2022-02-06T09:08:33.000Z</Time>
            <Position>
              <LatitudeDegrees>39.13181290961802005767822265625</LatitudeDegrees>
              <LongitudeDegrees>-0.3500805795192718505859375</LongitudeDegrees>
            </Position>
            <AltitudeMeters>538.79998779296875</AltitudeMeters>
            <DistanceMeters>3933.4245472784</DistanceMeters>
          </Trackpoint>
          <Trackpoint>
            <Time>2022-02-06T09:08:39.000Z</Time>
            <Position>
              <LatitudeDegrees>39.1318304277956485748291015625</LatitudeDegrees>
              <LongitudeDegrees>-0.35016917623579502105712890625</LongitudeDegrees>
            </Position>
            <AltitudeMeters>537.79998779296875</AltitudeMeters>
            <DistanceMeters>3941.3180590104</DistanceMeters>
          </Trackpoint>
          <Trackpoint>
            <Time>2022-02-06T09:08:41.000Z</Time>
            <Position>
              <LatitudeDegrees>39.13183964788913726806640625</LatitudeDegrees>
              <LongitudeDegrees>-0.35019566304981708526611328125</LongitudeDegrees>
            </Position>
            <AltitudeMeters>537.5999755859375</AltitudeMeters>
            <DistanceMeters>3943.825035916</DistanceMeters>
          </Trackpoint>
          <Trackpoint>
            <Time>2022-02-06T09:08:45.000Z</Time>
            <Position>
              <LatitudeDegrees>39.13187443278729915618896484375</LatitudeDegrees>
              <LongitudeDegrees>-0.35021058283746242523193359375</LongitudeDegrees>
            </Position>
            <AltitudeMeters>535.5999755859375</AltitudeMeters>
            <DistanceMeters>3947.9056560849</DistanceMeters>
          </Trackpoint>
          <Trackpoint>
            <Time>2022-02-06T09:08:47.000Z</Time>
            <Position>
              <LatitudeDegrees>39.1318870894610881805419921875</LatitudeDegrees>
              <LongitudeDegrees>-0.35022030584514141082763671875</LongitudeDegrees>
            </Position>
            <AltitudeMeters>535.79998779296875</AltitudeMeters>
            <DistanceMeters>3949.5433168262</DistanceMeters>
          </Trackpoint>
          <Trackpoint>
            <Time>2022-02-06T09:08:58.000Z</Time>
            <Position>
              <LatitudeDegrees>39.13199446164071559906005859375</LatitudeDegrees>
              <LongitudeDegrees>-0.35032440908253192901611328125</LongitudeDegrees>
            </Position>
            <AltitudeMeters>533</AltitudeMeters>
            <DistanceMeters>3964.4966693903</DistanceMeters>
          </Trackpoint>
          <Trackpoint>
            <Time>2022-02-06T09:09:02.000Z</Time>
            <Position>
              <LatitudeDegrees>39.13202296011149883270263671875</LatitudeDegrees>
              <LongitudeDegrees>-0.3503734432160854339599609375</LongitudeDegrees>
            </Position>
            <AltitudeMeters>532.5999755859375</AltitudeMeters>
            <DistanceMeters>3969.7858259226</DistanceMeters>
          </Trackpoint>
          <Trackpoint>
            <Time>2022-02-06T09:09:11.000Z</Time>
            <Position>
              <LatitudeDegrees>39.1321140713989734649658203125</LatitudeDegrees>
              <LongitudeDegrees>-0.35049053840339183807373046875</LongitudeDegrees>
            </Position>
            <AltitudeMeters>533.79998779296875</AltitudeMeters>
            <DistanceMeters>3984.1049360813</DistanceMeters>
          </Trackpoint>
          <Trackpoint>
            <Time>2022-02-06T09:09:16.000Z</Time>
            <Position>
              <LatitudeDegrees>39.13216478191316127777099609375</LatitudeDegrees>
              <LongitudeDegrees>-0.350564382970333099365234375</LongitudeDegrees>
            </Position>
            <AltitudeMeters>532.5999755859375</AltitudeMeters>
            <DistanceMeters>3992.6197751149</DistanceMeters>
          </Trackpoint>
          <Trackpoint>
            <Time>2022-02-06T09:09:17.000Z</Time>
            <Position>
              <LatitudeDegrees>39.1321724094450473785400390625</LatitudeDegrees>
              <LongitudeDegrees>-0.350581817328929901123046875</LongitudeDegrees>
            </Position>
            <AltitudeMeters>532.4000244140625</AltitudeMeters>
            <DistanceMeters>3994.351244254</DistanceMeters>
          </Trackpoint>
          <Trackpoint>
            <Time>2022-02-06T09:09:18.000Z</Time>
            <Position>
              <LatitudeDegrees>39.1321774385869503021240234375</LatitudeDegrees>
              <LongitudeDegrees>-0.3506010957062244415283203125</LongitudeDegrees>
            </Position>
            <AltitudeMeters>532.4000244140625</AltitudeMeters>
            <DistanceMeters>3996.1085962801</DistanceMeters>
          </Trackpoint>
          <Trackpoint>
            <Time>2022-02-06T09:09:19.000Z</Time>
            <Position>
              <LatitudeDegrees>39.13218590430915355682373046875</LatitudeDegrees>
              <LongitudeDegrees>-0.35062037408351898193359375</LongitudeDegrees>
            </Position>
            <AltitudeMeters>532.20001220703125</AltitudeMeters>
            <DistanceMeters>3998.0233315193</DistanceMeters>
          </Trackpoint>
          <Trackpoint>
            <Time>2022-02-06T09:09:22.000Z</Time>
            <Position>
              <LatitudeDegrees>39.132216833531856536865234375</LatitudeDegrees>
              <LongitudeDegrees>-0.35067359916865825653076171875</LongitudeDegrees>
            </Position>
            <AltitudeMeters>531.4000244140625</AltitudeMeters>
            <DistanceMeters>4003.7643923116</DistanceMeters>
          </Trackpoint>
          <Trackpoint>
            <Time>2022-02-06T09:09:23.000Z</Time>
            <Position>
              <LatitudeDegrees>39.13222731091082096099853515625</LatitudeDegrees>
              <LongitudeDegrees>-0.350690782070159912109375</LongitudeDegrees>
            </Position>
            <AltitudeMeters>531.20001220703125</AltitudeMeters>
            <DistanceMeters>4005.6530109061</DistanceMeters>
          </Trackpoint>
          <Trackpoint>
            <Time>2022-02-06T09:09:24.000Z</Time>
            <Position>
              <LatitudeDegrees>39.132236279547214508056640625</LatitudeDegrees>
              <LongitudeDegrees>-0.35070947371423244476318359375</LongitudeDegrees>
            </Position>
            <AltitudeMeters>531.79998779296875</AltitudeMeters>
            <DistanceMeters>4007.5487879037</DistanceMeters>
          </Trackpoint>
          <Trackpoint>
            <Time>2022-02-06T09:09:25.000Z</Time>
            <Position>
              <LatitudeDegrees>39.1322431527078151702880859375</LatitudeDegrees>
              <LongitudeDegrees>-0.350733362138271331787109375</LongitudeDegrees>
            </Position>
            <AltitudeMeters>532.5999755859375</AltitudeMeters>
            <DistanceMeters>4009.746762175</DistanceMeters>
          </Trackpoint>
          <Trackpoint>
            <Time>2022-02-06T09:09:26.000Z</Time>
            <Position>
              <LatitudeDegrees>39.13224759511649608612060546875</LatitudeDegrees>
              <LongitudeDegrees>-0.35075775347650051116943359375</LongitudeDegrees>
            </Position>
            <AltitudeMeters>533.4000244140625</AltitudeMeters>
            <DistanceMeters>4011.9116200628</DistanceMeters>
          </Trackpoint>
          <Trackpoint>
            <Time>2022-02-06T09:09:27.000Z</Time>
            <Position>
              <LatitudeDegrees>39.13225580938160419464111328125</LatitudeDegrees>
              <LongitudeDegrees>-0.35078491084277629852294921875</LongitudeDegrees>
            </Position>
            <AltitudeMeters>534.20001220703125</AltitudeMeters>
            <DistanceMeters>4014.4293797145</DistanceMeters>
          </Trackpoint>
          <Trackpoint>
            <Time>2022-02-06T09:09:31.000Z</Time>
            <Position>
              <LatitudeDegrees>39.13231465034186840057373046875</LatitudeDegrees>
              <LongitudeDegrees>-0.3508758544921875</LongitudeDegrees>
            </Position>
            <AltitudeMeters>533.4000244140625</AltitudeMeters>
            <DistanceMeters>4024.653476981</DistanceMeters>
          </Trackpoint>
          <Trackpoint>
            <Time>2022-02-06T09:09:36.000Z</Time>
            <Position>
              <LatitudeDegrees>39.13237634114921092987060546875</LatitudeDegrees>
              <LongitudeDegrees>-0.35095104016363620758056640625</LongitudeDegrees>
            </Position>
            <AltitudeMeters>535</AltitudeMeters>
            <DistanceMeters>4034.1018279337</DistanceMeters>
          </Trackpoint>
          <Trackpoint>
            <Time>2022-02-06T09:09:40.000Z</Time>
            <Position>
              <LatitudeDegrees>39.13239696063101291656494140625</LatitudeDegrees>
              <LongitudeDegrees>-0.35103804431855678558349609375</LongitudeDegrees>
            </Position>
            <AltitudeMeters>536.5999755859375</AltitudeMeters>
            <DistanceMeters>4041.956922608</DistanceMeters>
          </Trackpoint>
          <Trackpoint>
            <Time>2022-02-06T09:09:41.000Z</Time>
            <Position>
              <LatitudeDegrees>39.13240919820964336395263671875</LatitudeDegrees>
              <LongitudeDegrees>-0.35106034018099308013916015625</LongitudeDegrees>
            </Position>
            <AltitudeMeters>536.20001220703125</AltitudeMeters>
            <DistanceMeters>4044.3154236339</DistanceMeters>
          </Trackpoint>
          <Trackpoint>
            <Time>2022-02-06T09:09:48.000Z</Time>
            <Position>
              <LatitudeDegrees>39.132509194314479827880859375</LatitudeDegrees>
              <LongitudeDegrees>-0.351206772029399871826171875</LongitudeDegrees>
            </Position>
            <AltitudeMeters>532.5999755859375</AltitudeMeters>
            <DistanceMeters>4061.1584899095</DistanceMeters>
          </Trackpoint>
          <Trackpoint>
            <Time>2022-02-06T09:09:54.000Z</Time>
            <Position>
              <LatitudeDegrees>39.132589660584926605224609375</LatitudeDegrees>
              <LongitudeDegrees>-0.35134012810885906219482421875</LongitudeDegrees>
            </Position>
            <AltitudeMeters>532.4000244140625</AltitudeMeters>
            <DistanceMeters>4075.7450131818</DistanceMeters>
          </Trackpoint>
          <Trackpoint>
            <Time>2022-02-06T09:10:02.000Z</Time>
            <Position>
              <LatitudeDegrees>39.13268496282398700714111328125</LatitudeDegrees>
              <LongitudeDegrees>-0.3515023179352283477783203125</LongitudeDegrees>
            </Position>
            <AltitudeMeters>531.5999755859375</AltitudeMeters>
            <DistanceMeters>4093.3118521802</DistanceMeters>
          </Trackpoint>
          <Trackpoint>
            <Time>2022-02-06T09:10:08.000Z</Time>
            <Position>
              <LatitudeDegrees>39.13269988261163234710693359375</LatitudeDegrees>
              <LongitudeDegrees>-0.3516501747071743011474609375</LongitudeDegrees>
            </Position>
            <AltitudeMeters>532.79998779296875</AltitudeMeters>
            <DistanceMeters>4106.1843772917</DistanceMeters>
          </Trackpoint>
          <Trackpoint>
            <Time>2022-02-06T09:10:19.000Z</Time>
            <Position>
              <LatitudeDegrees>39.13281999528408050537109375</LatitudeDegrees>
              <LongitudeDegrees>-0.35182862542569637298583984375</LongitudeDegrees>
            </Position>
            <AltitudeMeters>532.20001220703125</AltitudeMeters>
            <DistanceMeters>4126.5826091363</DistanceMeters>
          </Trackpoint>
          <Trackpoint>
            <Time>2022-02-06T09:10:32.000Z</Time>
            <Position>
              <LatitudeDegrees>39.13294916041195392608642578125</LatitudeDegrees>
              <LongitudeDegrees>-0.35200975835323333740234375</LongitudeDegrees>
            </Position>
            <AltitudeMeters>533.79998779296875</AltitudeMeters>
            <DistanceMeters>4147.824852895</DistanceMeters>
          </Trackpoint>
          <Trackpoint>
            <Time>2022-02-06T09:10:33.000Z</Time>
            <Position>
              <LatitudeDegrees>39.1329579614102840423583984375</LatitudeDegrees>
              <LongitudeDegrees>-0.35202610306441783905029296875</LongitudeDegrees>
            </Position>
            <AltitudeMeters>533.5999755859375</AltitudeMeters>
            <DistanceMeters>4149.5406048936</DistanceMeters>
          </Trackpoint>
          <Trackpoint>
            <Time>2022-02-06T09:10:51.000Z</Time>
            <Position>
              <LatitudeDegrees>39.1330977715551853179931640625</LatitudeDegrees>
              <LongitudeDegrees>-0.35217865370213985443115234375</LongitudeDegrees>
            </Position>
            <AltitudeMeters>531.79998779296875</AltitudeMeters>
            <DistanceMeters>4169.9268806265</DistanceMeters>
          </Trackpoint>
          <Trackpoint>
            <Time>2022-02-06T09:11:05.000Z</Time>
            <Position>
              <LatitudeDegrees>39.133205898106098175048828125</LatitudeDegrees>
              <LongitudeDegrees>-0.352374874055385589599609375</LongitudeDegrees>
            </Position>
            <AltitudeMeters>529.5999755859375</AltitudeMeters>
            <DistanceMeters>4190.7071177654</DistanceMeters>
          </Trackpoint>
          <Trackpoint>
            <Time>2022-02-06T09:11:09.000Z</Time>
            <Position>
              <LatitudeDegrees>39.1332342289388179779052734375</LatitudeDegrees>
              <LongitudeDegrees>-0.3524602018296718597412109375</LongitudeDegrees>
            </Position>
            <AltitudeMeters>528.79998779296875</AltitudeMeters>
            <DistanceMeters>4198.7209747438</DistanceMeters>
          </Trackpoint>
          <Trackpoint>
            <Time>2022-02-06T09:11:22.000Z</Time>
            <Position>
              <LatitudeDegrees>39.13334570825099945068359375</LatitudeDegrees>
              <LongitudeDegrees>-0.35260495729744434356689453125</LongitudeDegrees>
            </Position>
            <AltitudeMeters>523.4000244140625</AltitudeMeters>
            <DistanceMeters>4216.3319657875</DistanceMeters>
          </Trackpoint>
          <Trackpoint>
            <Time>2022-02-06T09:11:37.000Z</Time>
            <Position>
              <LatitudeDegrees>39.13349054753780364990234375</LatitudeDegrees>
              <LongitudeDegrees>-0.35274879075586795806884765625</LongitudeDegrees>
            </Position>
            <AltitudeMeters>519.4000244140625</AltitudeMeters>
            <DistanceMeters>4236.6809998043</DistanceMeters>
          </Trackpoint>
          <Trackpoint>
            <Time>2022-02-06T09:11:46.000Z</Time>
            <Position>
              <LatitudeDegrees>39.1335296072065830230712890625</LatitudeDegrees>
              <LongitudeDegrees>-0.35284870304167270660400390625</LongitudeDegrees>
            </Position>
            <AltitudeMeters>519.20001220703125</AltitudeMeters>
            <DistanceMeters>4246.3401276023</DistanceMeters>
          </Trackpoint>
          <Trackpoint>
            <Time>2022-02-06T09:11:53.000Z</Time>
            <Position>
              <LatitudeDegrees>39.13356372155249118804931640625</LatitudeDegrees>
              <LongitudeDegrees>-0.35294425673782825469970703125</LongitudeDegrees>
            </Position>
            <AltitudeMeters>519</AltitudeMeters>
            <DistanceMeters>4255.4220171766</DistanceMeters>
          </Trackpoint>
          <Trackpoint>
            <Time>2022-02-06T09:11:54.000Z</Time>
            <Position>
              <LatitudeDegrees>39.13356606848537921905517578125</LatitudeDegrees>
              <LongitudeDegrees>-0.352958254516124725341796875</LongitudeDegrees>
            </Position>
            <AltitudeMeters>519</AltitudeMeters>
            <DistanceMeters>4256.6610139463</DistanceMeters>
          </Trackpoint>
          <Trackpoint>
            <Time>2022-02-06T09:11:55.000Z</Time>
            <Position>
              <LatitudeDegrees>39.1335684992372989654541015625</LatitudeDegrees>
              <LongitudeDegrees>-0.35297191701829433441162109375</LongitudeDegrees>
            </Position>
            <AltitudeMeters>519.20001220703125</AltitudeMeters>
            <DistanceMeters>4257.8742338194</DistanceMeters>
          </Trackpoint>
          <Trackpoint>
            <Time>2022-02-06T09:11:56.000Z</Time>
            <Position>
              <LatitudeDegrees>39.13356975652277469635009765625</LatitudeDegrees>
              <LongitudeDegrees>-0.3529875911772251129150390625</LongitudeDegrees>
            </Position>
            <AltitudeMeters>519.4000244140625</AltitudeMeters>
            <DistanceMeters>4259.2381237517</DistanceMeters>
          </Trackpoint>
          <Trackpoint>
            <Time>2022-02-06T09:11:57.000Z</Time>
            <Position>
              <LatitudeDegrees>39.133571349084377288818359375</LatitudeDegrees>
              <LongitudeDegrees>-0.3530041873455047607421875</LongitudeDegrees>
            </Position>
            <AltitudeMeters>519.5999755859375</AltitudeMeters>
            <DistanceMeters>4260.6824047696</DistanceMeters>
          </Trackpoint>
          <Trackpoint>
            <Time>2022-02-06T09:11:58.000Z</Time>
            <Position>
              <LatitudeDegrees>39.133576042950153350830078125</LatitudeDegrees>
              <LongitudeDegrees>-0.35302237607538700103759765625</LongitudeDegrees>
            </Position>
            <AltitudeMeters>519.5999755859375</AltitudeMeters>
            <DistanceMeters>4262.3337929995</DistanceMeters>
          </Trackpoint>
          <Trackpoint>
            <Time>2022-02-06T09:11:59.000Z</Time>
            <Position>
              <LatitudeDegrees>39.1335852630436420440673828125</LatitudeDegrees>
              <LongitudeDegrees>-0.35304098390042781829833984375</LongitudeDegrees>
            </Position>
            <AltitudeMeters>519.4000244140625</AltitudeMeters>
            <DistanceMeters>4264.2390726983</DistanceMeters>
          </Trackpoint>
          <Trackpoint>
            <Time>2022-02-06T09:12:07.000Z</Time>
            <Position>
              <LatitudeDegrees>39.13368140347301959991455078125</LatitudeDegrees>
              <LongitudeDegrees>-0.353156067430973052978515625</LongitudeDegrees>
            </Position>
            <AltitudeMeters>518.20001220703125</AltitudeMeters>
            <DistanceMeters>4278.8410645143</DistanceMeters>
          </Trackpoint>
          <Trackpoint>
            <Time>2022-02-06T09:12:12.000Z</Time>
            <Position>
              <LatitudeDegrees>39.13372063077986240386962890625</LatitudeDegrees>
              <LongitudeDegrees>-0.35322605632245540618896484375</LongitudeDegrees>
            </Position>
            <AltitudeMeters>518</AltitudeMeters>
            <DistanceMeters>4286.2956664779</DistanceMeters>
          </Trackpoint>
          <Trackpoint>
            <Time>2022-02-06T09:12:24.000Z</Time>
            <Position>
              <LatitudeDegrees>39.13384350948035717010498046875</LatitudeDegrees>
              <LongitudeDegrees>-0.3533533774316310882568359375</LongitudeDegrees>
            </Position>
            <AltitudeMeters>516.79998779296875</AltitudeMeters>
            <DistanceMeters>4303.8424464228</DistanceMeters>
          </Trackpoint>
          <Trackpoint>
            <Time>2022-02-06T09:12:36.000Z</Time>
            <Position>
              <LatitudeDegrees>39.13397468626499176025390625</LatitudeDegrees>
              <LongitudeDegrees>-0.35345739684998989105224609375</LongitudeDegrees>
            </Position>
            <AltitudeMeters>514.79998779296875</AltitudeMeters>
            <DistanceMeters>4320.9831163974</DistanceMeters>
          </Trackpoint>
          <Trackpoint>
            <Time>2022-02-06T09:12:46.000Z</Time>
            <Position>
              <LatitudeDegrees>39.13408541120588779449462890625</LatitudeDegrees>
              <LongitudeDegrees>-0.35355714149773120880126953125</LongitudeDegrees>
            </Position>
            <AltitudeMeters>513.79998779296875</AltitudeMeters>
            <DistanceMeters>4336.0174718365</DistanceMeters>
          </Trackpoint>
          <Trackpoint>
            <Time>2022-02-06T09:12:50.000Z</Time>
            <Position>
              <LatitudeDegrees>39.134124554693698883056640625</LatitudeDegrees>
              <LongitudeDegrees>-0.3536011464893817901611328125</LongitudeDegrees>
            </Position>
            <AltitudeMeters>513.4000244140625</AltitudeMeters>
            <DistanceMeters>4341.798502274</DistanceMeters>
          </Trackpoint>
          <Trackpoint>
            <Time>2022-02-06T09:12:59.000Z</Time>
            <Position>
              <LatitudeDegrees>39.13417308591306209564208984375</LatitudeDegrees>
              <LongitudeDegrees>-0.3536987118422985076904296875</LongitudeDegrees>
            </Position>
            <AltitudeMeters>512.20001220703125</AltitudeMeters>
            <DistanceMeters>4351.8047746874</DistanceMeters>
          </Trackpoint>
          <Trackpoint>
            <Time>2022-02-06T09:13:05.000Z</Time>
            <Position>
              <LatitudeDegrees>39.1342088766396045684814453125</LatitudeDegrees>
              <LongitudeDegrees>-0.35376928746700286865234375</LongitudeDegrees>
            </Position>
            <AltitudeMeters>512.20001220703125</AltitudeMeters>
            <DistanceMeters>4359.0847141548</DistanceMeters>
          </Trackpoint>
          <Trackpoint>
            <Time>2022-02-06T09:13:06.000Z</Time>
            <Position>
              <LatitudeDegrees>39.13421650417149066925048828125</LatitudeDegrees>
              <LongitudeDegrees>-0.35378010012209415435791015625</LongitudeDegrees>
            </Position>
            <AltitudeMeters>512.20001220703125</AltitudeMeters>
            <DistanceMeters>4360.3489623625</DistanceMeters>
          </Trackpoint>
          <Trackpoint>
            <Time>2022-02-06T09:13:12.000Z</Time>
            <Position>
              <LatitudeDegrees>39.13425363600254058837890625</LatitudeDegrees>
              <LongitudeDegrees>-0.35383122973144054412841796875</LongitudeDegrees>
            </Position>
            <AltitudeMeters>512.5999755859375</AltitudeMeters>
            <DistanceMeters>4366.3964254337</DistanceMeters>
          </Trackpoint>
          <Trackpoint>
            <Time>2022-02-06T09:13:17.000Z</Time>
            <Position>
              <LatitudeDegrees>39.13428171537816524505615234375</LatitudeDegrees>
              <LongitudeDegrees>-0.353901721537113189697265625</LongitudeDegrees>
            </Position>
            <AltitudeMeters>513</AltitudeMeters>
            <DistanceMeters>4373.2383488684</DistanceMeters>
          </Trackpoint>
          <Trackpoint>
            <Time>2022-02-06T09:13:27.000Z</Time>
            <Position>
              <LatitudeDegrees>39.13433267734944820404052734375</LatitudeDegrees>
              <LongitudeDegrees>-0.35399367101490497589111328125</LongitudeDegrees>
            </Position>
            <AltitudeMeters>513.4000244140625</AltitudeMeters>
            <DistanceMeters>4382.9951447498</DistanceMeters>
          </Trackpoint>
          <Trackpoint>
            <Time>2022-02-06T09:13:29.000Z</Time>
            <Position>
              <LatitudeDegrees>39.1343481838703155517578125</LatitudeDegrees>
              <LongitudeDegrees>-0.35402007400989532470703125</LongitudeDegrees>
            </Position>
            <AltitudeMeters>513.5999755859375</AltitudeMeters>
            <DistanceMeters>4385.8522742718</DistanceMeters>
          </Trackpoint>
          <Trackpoint>
            <Time>2022-02-06T09:13:32.000Z</Time>
            <Position>
              <LatitudeDegrees>39.13437073118984699249267578125</LatitudeDegrees>
              <LongitudeDegrees>-0.35405552946031093597412109375</LongitudeDegrees>
            </Position>
            <AltitudeMeters>514</AltitudeMeters>
            <DistanceMeters>4389.8115939996</DistanceMeters>
          </Trackpoint>
          <Trackpoint>
            <Time>2022-02-06T09:13:33.000Z</Time>
            <Position>
              <LatitudeDegrees>39.13437810726463794708251953125</LatitudeDegrees>
              <LongitudeDegrees>-0.35406458191573619842529296875</LongitudeDegrees>
            </Position>
            <AltitudeMeters>514</AltitudeMeters>
            <DistanceMeters>4390.9439679904</DistanceMeters>
          </Trackpoint>
          <Trackpoint>
            <Time>2022-02-06T09:13:44.000Z</Time>
            <Position>
              <LatitudeDegrees>39.13444667123258113861083984375</LatitudeDegrees>
              <LongitudeDegrees>-0.3541910648345947265625</LongitudeDegrees>
            </Position>
            <AltitudeMeters>515</AltitudeMeters>
            <DistanceMeters>4404.2660219772</DistanceMeters>
          </Trackpoint>
          <Trackpoint>
            <Time>2022-02-06T09:13:47.000Z</Time>
            <Position>
              <LatitudeDegrees>39.13447491824626922607421875</LatitudeDegrees>
              <LongitudeDegrees>-0.3541962616145610809326171875</LongitudeDegrees>
            </Position>
            <AltitudeMeters>515.20001220703125</AltitudeMeters>
            <DistanceMeters>4407.4419620566</DistanceMeters>
          </Trackpoint>
          <Trackpoint>
            <Time>2022-02-06T09:13:51.000Z</Time>
            <Position>
              <LatitudeDegrees>39.134510122239589691162109375</LatitudeDegrees>
              <LongitudeDegrees>-0.354229621589183807373046875</LongitudeDegrees>
            </Position>
            <AltitudeMeters>515.5999755859375</AltitudeMeters>
            <DistanceMeters>4412.3059933356</DistanceMeters>
          </Trackpoint>
          <Trackpoint>
            <Time>2022-02-06T09:13:55.000Z</Time>
            <Position>
              <LatitudeDegrees>39.1345461644232273101806640625</LatitudeDegrees>
              <LongitudeDegrees>-0.35426138900220394134521484375</LongitudeDegrees>
            </Position>
            <AltitudeMeters>515.5999755859375</AltitudeMeters>
            <DistanceMeters>4417.165381147</DistanceMeters>
          </Trackpoint>
          <Trackpoint>
            <Time>2022-02-06T09:13:58.000Z</Time>
            <Position>
              <LatitudeDegrees>39.1346028260886669158935546875</LatitudeDegrees>
              <LongitudeDegrees>-0.35426809452474117279052734375</LongitudeDegrees>
            </Position>
            <AltitudeMeters>515.4000244140625</AltitudeMeters>
            <DistanceMeters>4423.4987530423</DistanceMeters>
          </Trackpoint>
          <Trackpoint>
            <Time>2022-02-06T09:14:05.000Z</Time>
            <Position>
              <LatitudeDegrees>39.134703576564788818359375</LatitudeDegrees>
              <LongitudeDegrees>-0.3542975150048732757568359375</LongitudeDegrees>
            </Position>
            <AltitudeMeters>515</AltitudeMeters>
            <DistanceMeters>4434.996592802</DistanceMeters>
          </Trackpoint>
          <Trackpoint>
            <Time>2022-02-06T09:14:11.000Z</Time>
            <Position>
              <LatitudeDegrees>39.13474925793707370758056640625</LatitudeDegrees>
              <LongitudeDegrees>-0.35436448641121387481689453125</LongitudeDegrees>
            </Position>
            <AltitudeMeters>514</AltitudeMeters>
            <DistanceMeters>4442.696102647</DistanceMeters>
          </Trackpoint>
          <Trackpoint>
            <Time>2022-02-06T09:14:23.000Z</Time>
            <Position>
              <LatitudeDegrees>39.1348717175424098968505859375</LatitudeDegrees>
              <LongitudeDegrees>-0.3544282726943492889404296875</LongitudeDegrees>
            </Position>
            <AltitudeMeters>512.20001220703125</AltitudeMeters>
            <DistanceMeters>4457.3960934397</DistanceMeters>
          </Trackpoint>
          <Trackpoint>
            <Time>2022-02-06T09:14:30.000Z</Time>
            <Position>
              <LatitudeDegrees>39.1349421255290508270263671875</LatitudeDegrees>
              <LongitudeDegrees>-0.3544242493808269500732421875</LongitudeDegrees>
            </Position>
            <AltitudeMeters>511</AltitudeMeters>
            <DistanceMeters>4465.2402594813</DistanceMeters>
          </Trackpoint>
          <Trackpoint>
            <Time>2022-02-06T09:14:33.000Z</Time>
            <Position>
              <LatitudeDegrees>39.13497573696076869964599609375</LatitudeDegrees>
              <LongitudeDegrees>-0.35443271510303020477294921875</LongitudeDegrees>
            </Position>
            <AltitudeMeters>510.20001220703125</AltitudeMeters>
            <DistanceMeters>4469.0520035701</DistanceMeters>
          </Trackpoint>
          <Trackpoint>
            <Time>2022-02-06T09:14:40.000Z</Time>
            <Position>
              <LatitudeDegrees>39.1350457258522510528564453125</LatitudeDegrees>
              <LongitudeDegrees>-0.3544242493808269500732421875</LongitudeDegrees>
            </Position>
            <AltitudeMeters>509</AltitudeMeters>
            <DistanceMeters>4476.8754208629</DistanceMeters>
          </Trackpoint>
          <Trackpoint>
            <Time>2022-02-06T09:14:45.000Z</Time>
            <Position>
              <LatitudeDegrees>39.1350755654275417327880859375</LatitudeDegrees>
              <LongitudeDegrees>-0.3544581122696399688720703125</LongitudeDegrees>
            </Position>
            <AltitudeMeters>508</AltitudeMeters>
            <DistanceMeters>4481.2990139335</DistanceMeters>
          </Trackpoint>
          <Trackpoint>
            <Time>2022-02-06T09:14:46.000Z</Time>
            <Position>
              <LatitudeDegrees>39.1350873000919818878173828125</LatitudeDegrees>
              <LongitudeDegrees>-0.35446842201054096221923828125</LongitudeDegrees>
            </Position>
            <AltitudeMeters>507.600006103515625</AltitudeMeters>
            <DistanceMeters>4482.8777162799</DistanceMeters>
          </Trackpoint>
          <Trackpoint>
            <Time>2022-02-06T09:14:53.000Z</Time>
            <Position>
              <LatitudeDegrees>39.13515083491802215576171875</LatitudeDegrees>
              <LongitudeDegrees>-0.35453648306429386138916015625</LongitudeDegrees>
            </Position>
            <AltitudeMeters>505.20001220703125</AltitudeMeters>
            <DistanceMeters>4492.0717657464</DistanceMeters>
          </Trackpoint>
          <Trackpoint>
            <Time>2022-02-06T09:14:55.000Z</Time>
            <Position>
              <LatitudeDegrees>39.13516868837177753448486328125</LatitudeDegrees>
              <LongitudeDegrees>-0.35455140285193920135498046875</LongitudeDegrees>
            </Position>
            <AltitudeMeters>504.600006103515625</AltitudeMeters>
            <DistanceMeters>4494.4417251444</DistanceMeters>
          </Trackpoint>
          <Trackpoint>
            <Time>2022-02-06T09:15:06.000Z</Time>
            <Position>
              <LatitudeDegrees>39.13526751101016998291015625</LatitudeDegrees>
              <LongitudeDegrees>-0.35461686551570892333984375</LongitudeDegrees>
            </Position>
            <AltitudeMeters>502</AltitudeMeters>
            <DistanceMeters>4506.8079834539</DistanceMeters>
          </Trackpoint>
          <Trackpoint>
            <Time>2022-02-06T09:15:10.000Z</Time>
            <Position>
              <LatitudeDegrees>39.13530413992702960968017578125</LatitudeDegrees>
              <LongitudeDegrees>-0.35464561544358730316162109375</LongitudeDegrees>
            </Position>
            <AltitudeMeters>500.600006103515625</AltitudeMeters>
            <DistanceMeters>4511.5811252775</DistanceMeters>
          </Trackpoint>
          <Trackpoint>
            <Time>2022-02-06T09:15:22.000Z</Time>
            <Position>
              <LatitudeDegrees>39.1354296170175075531005859375</LatitudeDegrees>
              <LongitudeDegrees>-0.3546659834682941436767578125</LongitudeDegrees>
            </Position>
            <AltitudeMeters>497.79998779296875</AltitudeMeters>
            <DistanceMeters>4525.6572730933</DistanceMeters>
          </Trackpoint>
          <Trackpoint>
            <Time>2022-02-06T09:15:45.000Z</Time>
            <Position>
              <LatitudeDegrees>39.1355905495584011077880859375</LatitudeDegrees>
              <LongitudeDegrees>-0.35477519966661930084228515625</LongitudeDegrees>
            </Position>
            <AltitudeMeters>491.20001220703125</AltitudeMeters>
            <DistanceMeters>4545.8995246657</DistanceMeters>
          </Trackpoint>
          <Trackpoint>
            <Time>2022-02-06T09:15:49.000Z</Time>
            <Position>
              <LatitudeDegrees>39.1356247477233409881591796875</LatitudeDegrees>
              <LongitudeDegrees>-0.35478006117045879364013671875</LongitudeDegrees>
            </Position>
            <AltitudeMeters>490.20001220703125</AltitudeMeters>
            <DistanceMeters>4549.7289951442</DistanceMeters>
          </Trackpoint>
          <Trackpoint>
            <Time>2022-02-06T09:15:55.000Z</Time>
            <Position>
              <LatitudeDegrees>39.13565299473702907562255859375</LatitudeDegrees>
              <LongitudeDegrees>-0.354784168303012847900390625</LongitudeDegrees>
            </Position>
            <AltitudeMeters>489.399993896484375</AltitudeMeters>
            <DistanceMeters>4552.8921146013</DistanceMeters>
          </Trackpoint>
          <Trackpoint>
            <Time>2022-02-06T09:15:56.000Z</Time>
            <Position>
              <LatitudeDegrees>39.1356569342315196990966796875</LatitudeDegrees>
              <LongitudeDegrees>-0.35478576086461544036865234375</LongitudeDegrees>
            </Position>
            <AltitudeMeters>489.20001220703125</AltitudeMeters>
            <DistanceMeters>4553.3576485255</DistanceMeters>
          </Trackpoint>
          <Trackpoint>
            <Time>2022-02-06T09:16:02.000Z</Time>
            <Position>
              <LatitudeDegrees>39.135685600340366363525390625</LatitudeDegrees>
              <LongitudeDegrees>-0.35478995181620121002197265625</LongitudeDegrees>
            </Position>
            <AltitudeMeters>488.20001220703125</AltitudeMeters>
            <DistanceMeters>4556.5675265953</DistanceMeters>
          </Trackpoint>
          <Trackpoint>
            <Time>2022-02-06T09:16:20.000Z</Time>
            <Position>
              <LatitudeDegrees>39.1357940621674060821533203125</LatitudeDegrees>
              <LongitudeDegrees>-0.354763381183147430419921875</LongitudeDegrees>
            </Position>
            <AltitudeMeters>484.399993896484375</AltitudeMeters>
            <DistanceMeters>4568.8554030684</DistanceMeters>
          </Trackpoint>
          <Trackpoint>
            <Time>2022-02-06T09:16:25.000Z</Time>
            <Position>
              <LatitudeDegrees>39.13582230918109416961669921875</LatitudeDegrees>
              <LongitudeDegrees>-0.3547813184559345245361328125</LongitudeDegrees>
            </Position>
            <AltitudeMeters>482.20001220703125</AltitudeMeters>
            <DistanceMeters>4572.3572374179</DistanceMeters>
          </Trackpoint>
          <Trackpoint>
            <Time>2022-02-06T09:16:41.000Z</Time>
            <Position>
              <LatitudeDegrees>39.13585818372666835784912109375</LatitudeDegrees>
              <LongitudeDegrees>-0.35487075336277484893798828125</LongitudeDegrees>
            </Position>
            <AltitudeMeters>478</AltitudeMeters>
            <DistanceMeters>4581.049455179</DistanceMeters>
          </Trackpoint>
          <Trackpoint>
            <Time>2022-02-06T09:17:16.000Z</Time>
            <Position>
              <LatitudeDegrees>39.13597838021814823150634765625</LatitudeDegrees>
              <LongitudeDegrees>-0.35500788129866123199462890625</LongitudeDegrees>
            </Position>
            <AltitudeMeters>469</AltitudeMeters>
            <DistanceMeters>4598.9134665294</DistanceMeters>
          </Trackpoint>
          <Trackpoint>
            <Time>2022-02-06T09:17:45.000Z</Time>
            <Position>
              <LatitudeDegrees>39.13611902855336666107177734375</LatitudeDegrees>
              <LongitudeDegrees>-0.355121791362762451171875</LongitudeDegrees>
            </Position>
            <AltitudeMeters>461.399993896484375</AltitudeMeters>
            <DistanceMeters>4617.4004980178</DistanceMeters>
          </Trackpoint>
          <Trackpoint>
            <Time>2022-02-06T09:18:32.000Z</Time>
            <Position>
              <LatitudeDegrees>39.1362295858561992645263671875</LatitudeDegrees>
              <LongitudeDegrees>-0.35527174361050128936767578125</LongitudeDegrees>
            </Position>
            <AltitudeMeters>453</AltitudeMeters>
            <DistanceMeters>4635.2614761716</DistanceMeters>
          </Trackpoint>
          <Trackpoint>
            <Time>2022-02-06T09:19:01.000Z</Time>
            <Position>
              <LatitudeDegrees>39.13629588671028614044189453125</LatitudeDegrees>
              <LongitudeDegrees>-0.35532069392502307891845703125</LongitudeDegrees>
            </Position>
            <AltitudeMeters>449.79998779296875</AltitudeMeters>
            <DistanceMeters>4643.765172554</DistanceMeters>
          </Trackpoint>
          <Trackpoint>
            <Time>2022-02-06T09:19:04.000Z</Time>
            <Position>
              <LatitudeDegrees>39.136303178966045379638671875</LatitudeDegrees>
              <LongitudeDegrees>-0.35533628426492214202880859375</LongitudeDegrees>
            </Position>
            <AltitudeMeters>449</AltitudeMeters>
            <DistanceMeters>4645.3352715538</DistanceMeters>
          </Trackpoint>
          <Trackpoint>
            <Time>2022-02-06T09:19:05.000Z</Time>
            <Position>
              <LatitudeDegrees>39.1363035142421722412109375</LatitudeDegrees>
              <LongitudeDegrees>-0.35533963702619075775146484375</LongitudeDegrees>
            </Position>
            <AltitudeMeters>449</AltitudeMeters>
            <DistanceMeters>4645.6040476903</DistanceMeters>
          </Trackpoint>
          <Trackpoint>
            <Time>2022-02-06T09:19:06.000Z</Time>
            <Position>
              <LatitudeDegrees>39.13630376569926738739013671875</LatitudeDegrees>
              <LongitudeDegrees>-0.3553457558155059814453125</LongitudeDegrees>
            </Position>
            <AltitudeMeters>448.79998779296875</AltitudeMeters>
            <DistanceMeters>4646.1245304405</DistanceMeters>
          </Trackpoint>
          <Trackpoint>
            <Time>2022-02-06T09:19:07.000Z</Time>
            <Position>
              <LatitudeDegrees>39.13630493916571140289306640625</LatitudeDegrees>
              <LongitudeDegrees>-0.35535179078578948974609375</LongitudeDegrees>
            </Position>
            <AltitudeMeters>448.600006103515625</AltitudeMeters>
            <DistanceMeters>4646.6620827135</DistanceMeters>
          </Trackpoint>
          <Trackpoint>
            <Time>2022-02-06T09:19:09.000Z</Time>
            <Position>
              <LatitudeDegrees>39.13630711846053600311279296875</LatitudeDegrees>
              <LongitudeDegrees>-0.355364196002483367919921875</LongitudeDegrees>
            </Position>
            <AltitudeMeters>448.20001220703125</AltitudeMeters>
            <DistanceMeters>4647.7620964605</DistanceMeters>
          </Trackpoint>
          <Trackpoint>
            <Time>2022-02-06T09:19:10.000Z</Time>
            <Position>
              <LatitudeDegrees>39.1363130696117877960205078125</LatitudeDegrees>
              <LongitudeDegrees>-0.35536293871700763702392578125</LongitudeDegrees>
            </Position>
            <AltitudeMeters>448</AltitudeMeters>
            <DistanceMeters>4648.4340368017</DistanceMeters>
          </Trackpoint>
          <Trackpoint>
            <Time>2022-02-06T09:19:11.000Z</Time>
            <Position>
              <LatitudeDegrees>39.13631667383015155792236328125</LatitudeDegrees>
              <LongitudeDegrees>-0.355366878211498260498046875</LongitudeDegrees>
            </Position>
            <AltitudeMeters>447.79998779296875</AltitudeMeters>
            <DistanceMeters>4648.954519552</DistanceMeters>
          </Trackpoint>
          <Trackpoint>
            <Time>2022-02-06T09:19:12.000Z</Time>
            <Position>
              <LatitudeDegrees>39.1363177634775638580322265625</LatitudeDegrees>
              <LongitudeDegrees>-0.35537098534405231475830078125</LongitudeDegrees>
            </Position>
            <AltitudeMeters>447.600006103515625</AltitudeMeters>
            <DistanceMeters>4649.3225564342</DistanceMeters>
          </Trackpoint>
          <Trackpoint>
            <Time>2022-02-06T09:19:13.000Z</Time>
            <Position>
              <LatitudeDegrees>39.13632254116237163543701171875</LatitudeDegrees>
              <LongitudeDegrees>-0.35537333227694034576416015625</LongitudeDegrees>
            </Position>
            <AltitudeMeters>447.399993896484375</AltitudeMeters>
            <DistanceMeters>4649.8927167204</DistanceMeters>
          </Trackpoint>
          <Trackpoint>
            <Time>2022-02-06T09:19:14.000Z</Time>
            <Position>
              <LatitudeDegrees>39.136327989399433135986328125</LatitudeDegrees>
              <LongitudeDegrees>-0.3553750924766063690185546875</LongitudeDegrees>
            </Position>
            <AltitudeMeters>447</AltitudeMeters>
            <DistanceMeters>4650.5085602157</DistanceMeters>
          </Trackpoint>
          <Trackpoint>
            <Time>2022-02-06T09:19:17.000Z</Time>
            <Position>
              <LatitudeDegrees>39.13634701631963253021240234375</LatitudeDegrees>
              <LongitudeDegrees>-0.3553814627230167388916015625</LongitudeDegrees>
            </Position>
            <AltitudeMeters>446</AltitudeMeters>
            <DistanceMeters>4652.696239469</DistanceMeters>
          </Trackpoint>
          <Trackpoint>
            <Time>2022-02-06T09:19:26.000Z</Time>
            <Position>
              <LatitudeDegrees>39.13639127276837825775146484375</LatitudeDegrees>
              <LongitudeDegrees>-0.35542194731533527374267578125</LongitudeDegrees>
            </Position>
            <AltitudeMeters>442.79998779296875</AltitudeMeters>
            <DistanceMeters>4658.7362319221</DistanceMeters>
          </Trackpoint>
          <Trackpoint>
            <Time>2022-02-06T09:19:31.000Z</Time>
            <Position>
              <LatitudeDegrees>39.13640703074634075164794921875</LatitudeDegrees>
              <LongitudeDegrees>-0.35543250851333141326904296875</LongitudeDegrees>
            </Position>
            <AltitudeMeters>441.399993896484375</AltitudeMeters>
            <DistanceMeters>4660.7113250905</DistanceMeters>
          </Trackpoint>
          <Trackpoint>
            <Time>2022-02-06T09:19:36.000Z</Time>
            <Position>
              <LatitudeDegrees>39.1364307515323162078857421875</LatitudeDegrees>
              <LongitudeDegrees>-0.355446338653564453125</LongitudeDegrees>
            </Position>
            <AltitudeMeters>439.399993896484375</AltitudeMeters>
            <DistanceMeters>4663.6092503988</DistanceMeters>
          </Trackpoint>
          <Trackpoint>
            <Time>2022-02-06T09:19:44.000Z</Time>
            <Position>
              <LatitudeDegrees>39.13645765744149684906005859375</LatitudeDegrees>
              <LongitudeDegrees>-0.3554870747029781341552734375</LongitudeDegrees>
            </Position>
            <AltitudeMeters>436.600006103515625</AltitudeMeters>
            <DistanceMeters>4668.2275878227</DistanceMeters>
          </Trackpoint>
          <Trackpoint>
            <Time>2022-02-06T09:19:53.000Z</Time>
            <Position>
              <LatitudeDegrees>39.1364944539964199066162109375</LatitudeDegrees>
              <LongitudeDegrees>-0.35553744994103908538818359375</LongitudeDegrees>
            </Position>
            <AltitudeMeters>432.399993896484375</AltitudeMeters>
            <DistanceMeters>4674.2014360051</DistanceMeters>
          </Trackpoint>
          <Trackpoint>
            <Time>2022-02-06T09:20:01.000Z</Time>
            <Position>
              <LatitudeDegrees>39.13651607930660247802734375</LatitudeDegrees>
              <LongitudeDegrees>-0.35558371804654598236083984375</LongitudeDegrees>
            </Position>
            <AltitudeMeters>429.600006103515625</AltitudeMeters>
            <DistanceMeters>4678.8654958411</DistanceMeters>
          </Trackpoint>
          <Trackpoint>
            <Time>2022-02-06T09:20:04.000Z</Time>
            <Position>
              <LatitudeDegrees>39.13653108291327953338623046875</LatitudeDegrees>
              <LongitudeDegrees>-0.3555946983397006988525390625</LongitudeDegrees>
            </Position>
            <AltitudeMeters>428.399993896484375</AltitudeMeters>
            <DistanceMeters>4680.7849413832</DistanceMeters>
          </Trackpoint>
          <Trackpoint>
            <Time>2022-02-06T09:20:05.000Z</Time>
            <Position>
              <LatitudeDegrees>39.1365296579897403717041015625</LatitudeDegrees>
              <LongitudeDegrees>-0.35560115240514278411865234375</LongitudeDegrees>
            </Position>
            <AltitudeMeters>428.399993896484375</AltitudeMeters>
            <DistanceMeters>4681.3551016694</DistanceMeters>
          </Trackpoint>
          <Trackpoint>
            <Time>2022-02-06T09:20:06.000Z</Time>
            <Position>
              <LatitudeDegrees>39.1365276463329792022705078125</LatitudeDegrees>
              <LongitudeDegrees>-0.35560953430831432342529296875</LongitudeDegrees>
            </Position>
            <AltitudeMeters>428.20001220703125</AltitudeMeters>
            <DistanceMeters>4682.1153153844</DistanceMeters>
          </Trackpoint>
          <Trackpoint>
            <Time>2022-02-06T09:20:07.000Z</Time>
            <Position>
              <LatitudeDegrees>39.13653359748423099517822265625</LatitudeDegrees>
              <LongitudeDegrees>-0.3556181676685810089111328125</LongitudeDegrees>
            </Position>
            <AltitudeMeters>427.600006103515625</AltitudeMeters>
            <DistanceMeters>4683.1119639728</DistanceMeters>
          </Trackpoint>
          <Trackpoint>
            <Time>2022-02-06T09:20:08.000Z</Time>
            <Position>
              <LatitudeDegrees>39.1365366987884044647216796875</LatitudeDegrees>
              <LongitudeDegrees>-0.35561908967792987823486328125</LongitudeDegrees>
            </Position>
            <AltitudeMeters>427.399993896484375</AltitudeMeters>
            <DistanceMeters>4683.4675213806</DistanceMeters>
          </Trackpoint>
          <Trackpoint>
            <Time>2022-02-06T09:20:09.000Z</Time>
            <Position>
              <LatitudeDegrees>39.13654130883514881134033203125</LatitudeDegrees>
              <LongitudeDegrees>-0.35562210716307163238525390625</LongitudeDegrees>
            </Position>
            <AltitudeMeters>427.20001220703125</AltitudeMeters>
            <DistanceMeters>4684.0376816668</DistanceMeters>
          </Trackpoint>
          <Trackpoint>
            <Time>2022-02-06T09:20:10.000Z</Time>
            <Position>
              <LatitudeDegrees>39.1365457512438297271728515625</LatitudeDegrees>
              <LongitudeDegrees>-0.3556188382208347320556640625</LongitudeDegrees>
            </Position>
            <AltitudeMeters>427</AltitudeMeters>
            <DistanceMeters>4684.607841953</DistanceMeters>
          </Trackpoint>
          <Trackpoint>
            <Time>2022-02-06T09:20:12.000Z</Time>
            <Position>
              <LatitudeDegrees>39.13655522279441356658935546875</LatitudeDegrees>
              <LongitudeDegrees>-0.35562193952500820159912109375</LongitudeDegrees>
            </Position>
            <AltitudeMeters>426.399993896484375</AltitudeMeters>
            <DistanceMeters>4685.6913131975</DistanceMeters>
          </Trackpoint>
          <Trackpoint>
            <Time>2022-02-06T09:20:13.000Z</Time>
            <Position>
              <LatitudeDegrees>39.1365605033934116363525390625</LatitudeDegrees>
              <LongitudeDegrees>-0.35562562756240367889404296875</LongitudeDegrees>
            </Position>
            <AltitudeMeters>426</AltitudeMeters>
            <DistanceMeters>4686.3565001981</DistanceMeters>
          </Trackpoint>
          <Trackpoint>
            <Time>2022-02-06T09:20:14.000Z</Time>
            <Position>
              <LatitudeDegrees>39.13656209595501422882080078125</LatitudeDegrees>
              <LongitudeDegrees>-0.35562981851398944854736328125</LongitudeDegrees>
            </Position>
            <AltitudeMeters>425.79998779296875</AltitudeMeters>
            <DistanceMeters>4686.7366070556</DistanceMeters>
          </Trackpoint>
          <Trackpoint>
            <Time>2022-02-06T09:20:15.000Z</Time>
            <Position>
              <LatitudeDegrees>39.136562012135982513427734375</LatitudeDegrees>
              <LongitudeDegrees>-0.35563468001782894134521484375</LongitudeDegrees>
            </Position>
            <AltitudeMeters>425.79998779296875</AltitudeMeters>
            <DistanceMeters>4687.1397712603</DistanceMeters>
          </Trackpoint>
          <Trackpoint>
            <Time>2022-02-06T09:20:16.000Z</Time>
            <Position>
              <LatitudeDegrees>39.13655899465084075927734375</LatitudeDegrees>
              <LongitudeDegrees>-0.35564423538744449615478515625</LongitudeDegrees>
            </Position>
            <AltitudeMeters>425.600006103515625</AltitudeMeters>
            <DistanceMeters>4688.0312008577</DistanceMeters>
          </Trackpoint>
          <Trackpoint>
            <Time>2022-02-06T09:20:26.000Z</Time>
            <Position>
              <LatitudeDegrees>39.13655639626085758209228515625</LatitudeDegrees>
              <LongitudeDegrees>-0.35569888539612293243408203125</LongitudeDegrees>
            </Position>
            <AltitudeMeters>424.20001220703125</AltitudeMeters>
            <DistanceMeters>4692.7577650562</DistanceMeters>
          </Trackpoint>
          <Trackpoint>
            <Time>2022-02-06T09:20:28.000Z</Time>
            <Position>
              <LatitudeDegrees>39.136562682688236236572265625</LatitudeDegrees>
              <LongitudeDegrees>-0.35570777021348476409912109375</LongitudeDegrees>
            </Position>
            <AltitudeMeters>423.600006103515625</AltitudeMeters>
            <DistanceMeters>4693.7987305567</DistanceMeters>
          </Trackpoint>
          <Trackpoint>
            <Time>2022-02-06T09:20:31.000Z</Time>
            <Position>
              <LatitudeDegrees>39.136577434837818145751953125</LatitudeDegrees>
              <LongitudeDegrees>-0.35571900196373462677001953125</LongitudeDegrees>
            </Position>
            <AltitudeMeters>422.600006103515625</AltitudeMeters>
            <DistanceMeters>4695.7040102555</DistanceMeters>
          </Trackpoint>
          <Trackpoint>
            <Time>2022-02-06T09:20:35.000Z</Time>
            <Position>
              <LatitudeDegrees>39.13658288307487964630126953125</LatitudeDegrees>
              <LongitudeDegrees>-0.35573400557041168212890625</LongitudeDegrees>
            </Position>
            <AltitudeMeters>421.79998779296875</AltitudeMeters>
            <DistanceMeters>4697.1325750165</DistanceMeters>
          </Trackpoint>
          <Trackpoint>
            <Time>2022-02-06T09:20:36.000Z</Time>
            <Position>
              <LatitudeDegrees>39.1365893371403217315673828125</LatitudeDegrees>
              <LongitudeDegrees>-0.3557365201413631439208984375</LongitudeDegrees>
            </Position>
            <AltitudeMeters>421.399993896484375</AltitudeMeters>
            <DistanceMeters>4697.8808161136</DistanceMeters>
          </Trackpoint>
          <Trackpoint>
            <Time>2022-02-06T09:20:37.000Z</Time>
            <Position>
              <LatitudeDegrees>39.13659780286252498626708984375</LatitudeDegrees>
              <LongitudeDegrees>-0.355740375816822052001953125</LongitudeDegrees>
            </Position>
            <AltitudeMeters>421</AltitudeMeters>
            <DistanceMeters>4698.8774647021</DistanceMeters>
          </Trackpoint>
          <Trackpoint>
            <Time>2022-02-06T09:20:49.000Z</Time>
            <Position>
              <LatitudeDegrees>39.1367211006581783294677734375</LatitudeDegrees>
              <LongitudeDegrees>-0.355759821832180023193359375</LongitudeDegrees>
            </Position>
            <AltitudeMeters>415.79998779296875</AltitudeMeters>
            <DistanceMeters>4712.7024637261</DistanceMeters>
          </Trackpoint>
          <Trackpoint>
            <Time>2022-02-06T09:20:55.000Z</Time>
            <Position>
              <LatitudeDegrees>39.13677533157169818878173828125</LatitudeDegrees>
              <LongitudeDegrees>-0.35577801056206226348876953125</LongitudeDegrees>
            </Position>
            <AltitudeMeters>413.600006103515625</AltitudeMeters>
            <DistanceMeters>4718.9388520433</DistanceMeters>
          </Trackpoint>
          <Trackpoint>
            <Time>2022-02-06T09:21:04.000Z</Time>
            <Position>
              <LatitudeDegrees>39.136839620769023895263671875</LatitudeDegrees>
              <LongitudeDegrees>-0.35587088204920291900634765625</LongitudeDegrees>
            </Position>
            <AltitudeMeters>410.79998779296875</AltitudeMeters>
            <DistanceMeters>4729.6848567691</DistanceMeters>
          </Trackpoint>
          <Trackpoint>
            <Time>2022-02-06T09:21:05.000Z</Time>
            <Position>
              <LatitudeDegrees>39.13685135543346405029296875</LatitudeDegrees>
              <LongitudeDegrees>-0.35587976686656475067138671875</LongitudeDegrees>
            </Position>
            <AltitudeMeters>410.399993896484375</AltitudeMeters>
            <DistanceMeters>4731.1993333839</DistanceMeters>
          </Trackpoint>
          <Trackpoint>
            <Time>2022-02-06T09:21:07.000Z</Time>
            <Position>
              <LatitudeDegrees>39.136870801448822021484375</LatitudeDegrees>
              <LongitudeDegrees>-0.35590088926255702972412109375</LongitudeDegrees>
            </Position>
            <AltitudeMeters>409.79998779296875</AltitudeMeters>
            <DistanceMeters>4734.0294708021</DistanceMeters>
          </Trackpoint>
          <Trackpoint>
            <Time>2022-02-06T09:21:11.000Z</Time>
            <Position>
              <LatitudeDegrees>39.13688211701810359954833984375</LatitudeDegrees>
              <LongitudeDegrees>-0.355951599776744842529296875</LongitudeDegrees>
            </Position>
            <AltitudeMeters>409.20001220703125</AltitudeMeters>
            <DistanceMeters>4738.5867919254</DistanceMeters>
          </Trackpoint>
          <Trackpoint>
            <Time>2022-02-06T09:21:16.000Z</Time>
            <Position>
              <LatitudeDegrees>39.1369165666401386260986328125</LatitudeDegrees>
              <LongitudeDegrees>-0.35599543713033199310302734375</LongitudeDegrees>
            </Position>
            <AltitudeMeters>408</AltitudeMeters>
            <DistanceMeters>4743.974060778</DistanceMeters>
          </Trackpoint>
          <Trackpoint>
            <Time>2022-02-06T09:21:19.000Z</Time>
            <Position>
              <LatitudeDegrees>39.1369293071329593658447265625</LatitudeDegrees>
              <LongitudeDegrees>-0.35601303912699222564697265625</LongitudeDegrees>
            </Position>
            <AltitudeMeters>407.399993896484375</AltitudeMeters>
            <DistanceMeters>4746.0516498953</DistanceMeters>
          </Trackpoint>
          <Trackpoint>
            <Time>2022-02-06T09:21:33.000Z</Time>
            <Position>
              <LatitudeDegrees>39.13705143146216869354248046875</LatitudeDegrees>
              <LongitudeDegrees>-0.35610255785286426544189453125</LongitudeDegrees>
            </Position>
            <AltitudeMeters>403</AltitudeMeters>
            <DistanceMeters>4761.687515386</DistanceMeters>
          </Trackpoint>
          <Trackpoint>
            <Time>2022-02-06T09:21:42.000Z</Time>
            <Position>
              <LatitudeDegrees>39.13707423023879528045654296875</LatitudeDegrees>
              <LongitudeDegrees>-0.3561720438301563262939453125</LongitudeDegrees>
            </Position>
            <AltitudeMeters>401.79998779296875</AltitudeMeters>
            <DistanceMeters>4768.2015256109</DistanceMeters>
          </Trackpoint>
          <Trackpoint>
            <Time>2022-02-06T09:21:46.000Z</Time>
            <Position>
              <LatitudeDegrees>39.1371106915175914764404296875</LatitudeDegrees>
              <LongitudeDegrees>-0.35619576461613178253173828125</LongitudeDegrees>
            </Position>
            <AltitudeMeters>400.79998779296875</AltitudeMeters>
            <DistanceMeters>4772.7469425229</DistanceMeters>
          </Trackpoint>
          <Trackpoint>
            <Time>2022-02-06T09:22:01.000Z</Time>
            <Position>
              <LatitudeDegrees>39.13717380724847316741943359375</LatitudeDegrees>
              <LongitudeDegrees>-0.3563195653259754180908203125</LongitudeDegrees>
            </Position>
            <AltitudeMeters>397.79998779296875</AltitudeMeters>
            <DistanceMeters>4785.5364227589</DistanceMeters>
          </Trackpoint>
          <Trackpoint>
            <Time>2022-02-06T09:22:04.000Z</Time>
            <Position>
              <LatitudeDegrees>39.137202389538288116455078125</LatitudeDegrees>
              <LongitudeDegrees>-0.3563624806702136993408203125</LongitudeDegrees>
            </Position>
            <AltitudeMeters>396</AltitudeMeters>
            <DistanceMeters>4790.4189837479</DistanceMeters>
          </Trackpoint>
          <Trackpoint>
            <Time>2022-02-06T09:22:11.000Z</Time>
            <Position>
              <LatitudeDegrees>39.137270785868167877197265625</LatitudeDegrees>
              <LongitudeDegrees>-0.35643808543682098388671875</LongitudeDegrees>
            </Position>
            <AltitudeMeters>391</AltitudeMeters>
            <DistanceMeters>4800.4468913702</DistanceMeters>
          </Trackpoint>
          <Trackpoint>
            <Time>2022-02-06T09:22:14.000Z</Time>
            <Position>
              <LatitudeDegrees>39.13728914223611354827880859375</LatitudeDegrees>
              <LongitudeDegrees>-0.35648661665618419647216796875</LongitudeDegrees>
            </Position>
            <AltitudeMeters>389.600006103515625</AltitudeMeters>
            <DistanceMeters>4805.1080461546</DistanceMeters>
          </Trackpoint>
          <Trackpoint>
            <Time>2022-02-06T09:22:18.000Z</Time>
            <Position>
              <LatitudeDegrees>39.1373215802013874053955078125</LatitudeDegrees>
              <LongitudeDegrees>-0.35655316896736621856689453125</LongitudeDegrees>
            </Position>
            <AltitudeMeters>388.600006103515625</AltitudeMeters>
            <DistanceMeters>4811.8936455966</DistanceMeters>
          </Trackpoint>
          <Trackpoint>
            <Time>2022-02-06T09:22:24.000Z</Time>
            <Position>
              <LatitudeDegrees>39.13732484914362430572509765625</LatitudeDegrees>
              <LongitudeDegrees>-0.35664059221744537353515625</LongitudeDegrees>
            </Position>
            <AltitudeMeters>387.79998779296875</AltitudeMeters>
            <DistanceMeters>4819.4493152081</DistanceMeters>
          </Trackpoint>
          <Trackpoint>
            <Time>2022-02-06T09:22:36.000Z</Time>
            <Position>
              <LatitudeDegrees>39.137445800006389617919921875</LatitudeDegrees>
              <LongitudeDegrees>-0.35683111287653446197509765625</LongitudeDegrees>
            </Position>
            <AltitudeMeters>383</AltitudeMeters>
            <DistanceMeters>4840.7034584321</DistanceMeters>
          </Trackpoint>
          <Trackpoint>
            <Time>2022-02-06T09:22:51.000Z</Time>
            <Position>
              <LatitudeDegrees>39.13753825239837169647216796875</LatitudeDegrees>
              <LongitudeDegrees>-0.356929600238800048828125</LongitudeDegrees>
            </Position>
            <AltitudeMeters>378.79998779296875</AltitudeMeters>
            <DistanceMeters>4854.0519215793</DistanceMeters>
          </Trackpoint>
          <Trackpoint>
            <Time>2022-02-06T09:23:28.000Z</Time>
            <Position>
              <LatitudeDegrees>39.13761989213526248931884765625</LatitudeDegrees>
              <LongitudeDegrees>-0.35700478591024875640869140625</LongitudeDegrees>
            </Position>
            <AltitudeMeters>374.79998779296875</AltitudeMeters>
            <DistanceMeters>4865.2182681411</DistanceMeters>
          </Trackpoint>
          <Trackpoint>
            <Time>2022-02-06T09:23:29.000Z</Time>
            <Position>
              <LatitudeDegrees>39.1376320458948612213134765625</LatitudeDegrees>
              <LongitudeDegrees>-0.3570078872144222259521484375</LongitudeDegrees>
            </Position>
            <AltitudeMeters>374.600006103515625</AltitudeMeters>
            <DistanceMeters>4866.59533606</DistanceMeters>
          </Trackpoint>
          <Trackpoint>
            <Time>2022-02-06T09:23:30.000Z</Time>
            <Position>
              <LatitudeDegrees>39.13763917051255702972412109375</LatitudeDegrees>
              <LongitudeDegrees>-0.35701274871826171875</LongitudeDegrees>
            </Position>
            <AltitudeMeters>374.399993896484375</AltitudeMeters>
            <DistanceMeters>4867.4968386279</DistanceMeters>
          </Trackpoint>
          <Trackpoint>
            <Time>2022-02-06T09:23:31.000Z</Time>
            <Position>
              <LatitudeDegrees>39.1376419365406036376953125</LatitudeDegrees>
              <LongitudeDegrees>-0.35702272318303585052490234375</LongitudeDegrees>
            </Position>
            <AltitudeMeters>374.20001220703125</AltitudeMeters>
            <DistanceMeters>4868.4132430743</DistanceMeters>
          </Trackpoint>
          <Trackpoint>
            <Time>2022-02-06T09:23:32.000Z</Time>
            <Position>
              <LatitudeDegrees>39.13764855824410915374755859375</LatitudeDegrees>
              <LongitudeDegrees>-0.3570357151329517364501953125</LongitudeDegrees>
            </Position>
            <AltitudeMeters>374</AltitudeMeters>
            <DistanceMeters>4869.7571237568</DistanceMeters>
          </Trackpoint>
          <Trackpoint>
            <Time>2022-02-06T09:23:33.000Z</Time>
            <Position>
              <LatitudeDegrees>39.13764839060604572296142578125</LatitudeDegrees>
              <LongitudeDegrees>-0.35705256275832653045654296875</LongitudeDegrees>
            </Position>
            <AltitudeMeters>373.79998779296875</AltitudeMeters>
            <DistanceMeters>4871.2107529694</DistanceMeters>
          </Trackpoint>
          <Trackpoint>
            <Time>2022-02-06T09:23:35.000Z</Time>
            <Position>
              <LatitudeDegrees>39.137636907398700714111328125</LatitudeDegrees>
              <LongitudeDegrees>-0.35708256997168064117431640625</LongitudeDegrees>
            </Position>
            <AltitudeMeters>373.600006103515625</AltitudeMeters>
            <DistanceMeters>4874.0993150051</DistanceMeters>
          </Trackpoint>
          <Trackpoint>
            <Time>2022-02-06T09:23:36.000Z</Time>
            <Position>
              <LatitudeDegrees>39.137634895741939544677734375</LatitudeDegrees>
              <LongitudeDegrees>-0.35709254443645477294921875</LongitudeDegrees>
            </Position>
            <AltitudeMeters>373.600006103515625</AltitudeMeters>
            <DistanceMeters>4874.9907446025</DistanceMeters>
          </Trackpoint>
          <Trackpoint>
            <Time>2022-02-06T09:23:38.000Z</Time>
            <Position>
              <LatitudeDegrees>39.13763380609452724456787109375</LatitudeDegrees>
              <LongitudeDegrees>-0.35711492411792278289794921875</LongitudeDegrees>
            </Position>
            <AltitudeMeters>373.399993896484375</AltitudeMeters>
            <DistanceMeters>4876.9265859504</DistanceMeters>
          </Trackpoint>
          <Trackpoint>
            <Time>2022-02-06T09:23:39.000Z</Time>
            <Position>
              <LatitudeDegrees>39.13763715885579586029052734375</LatitudeDegrees>
              <LongitudeDegrees>-0.3571252338588237762451171875</LongitudeDegrees>
            </Position>
            <AltitudeMeters>373.20001220703125</AltitudeMeters>
            <DistanceMeters>4877.8910017703</DistanceMeters>
          </Trackpoint>
          <Trackpoint>
            <Time>2022-02-06T09:23:40.000Z</Time>
            <Position>
              <LatitudeDegrees>39.13764017634093761444091796875</LatitudeDegrees>
              <LongitudeDegrees>-0.35713386721909046173095703125</LongitudeDegrees>
            </Position>
            <AltitudeMeters>373</AltitudeMeters>
            <DistanceMeters>4878.6973301798</DistanceMeters>
          </Trackpoint>
          <Trackpoint>
            <Time>2022-02-06T09:23:41.000Z</Time>
            <Position>
              <LatitudeDegrees>39.13764269091188907623291015625</LatitudeDegrees>
              <LongitudeDegrees>-0.35713336430490016937255859375</LongitudeDegrees>
            </Position>
            <AltitudeMeters>373</AltitudeMeters>
            <DistanceMeters>4878.982410323</DistanceMeters>
          </Trackpoint>
          <Trackpoint>
            <Time>2022-02-06T09:23:48.000Z</Time>
            <Position>
              <LatitudeDegrees>39.1376511566340923309326171875</LatitudeDegrees>
              <LongitudeDegrees>-0.3571584261953830718994140625</LongitudeDegrees>
            </Position>
            <AltitudeMeters>372.600006103515625</AltitudeMeters>
            <DistanceMeters>4881.3447369816</DistanceMeters>
          </Trackpoint>
          <Trackpoint>
            <Time>2022-02-06T09:23:49.000Z</Time>
            <Position>
              <LatitudeDegrees>39.13766163401305675506591796875</LatitudeDegrees>
              <LongitudeDegrees>-0.35717032849788665771484375</LongitudeDegrees>
            </Position>
            <AltitudeMeters>372.399993896484375</AltitudeMeters>
            <DistanceMeters>4882.9003913414</DistanceMeters>
          </Trackpoint>
          <Trackpoint>
            <Time>2022-02-06T09:23:50.000Z</Time>
            <Position>
              <LatitudeDegrees>39.13766884244978427886962890625</LatitudeDegrees>
              <LongitudeDegrees>-0.35718013532459735870361328125</LongitudeDegrees>
            </Position>
            <AltitudeMeters>372.20001220703125</AltitudeMeters>
            <DistanceMeters>4884.0642261521</DistanceMeters>
          </Trackpoint>
          <Trackpoint>
            <Time>2022-02-06T09:23:51.000Z</Time>
            <Position>
              <LatitudeDegrees>39.137672446668148040771484375</LatitudeDegrees>
              <LongitudeDegrees>-0.3571865893900394439697265625</LongitudeDegrees>
            </Position>
            <AltitudeMeters>372</AltitudeMeters>
            <DistanceMeters>4884.7494735345</DistanceMeters>
          </Trackpoint>
          <Trackpoint>
            <Time>2022-02-06T09:23:52.000Z</Time>
            <Position>
              <LatitudeDegrees>39.13767504505813121795654296875</LatitudeDegrees>
              <LongitudeDegrees>-0.35718818195164203643798828125</LongitudeDegrees>
            </Position>
            <AltitudeMeters>371.79998779296875</AltitudeMeters>
            <DistanceMeters>4885.0646414911</DistanceMeters>
          </Trackpoint>
          <Trackpoint>
            <Time>2022-02-06T09:23:53.000Z</Time>
            <Position>
              <LatitudeDegrees>39.13767739199101924896240234375</LatitudeDegrees>
              <LongitudeDegrees>-0.35718851722776889801025390625</LongitudeDegrees>
            </Position>
            <AltitudeMeters>371.79998779296875</AltitudeMeters>
            <DistanceMeters>4885.2974084533</DistanceMeters>
          </Trackpoint>
          <Trackpoint>
            <Time>2022-02-06T09:23:54.000Z</Time>
            <Position>
              <LatitudeDegrees>39.13768392987549304962158203125</LatitudeDegrees>
              <LongitudeDegrees>-0.35719715058803558349609375</LongitudeDegrees>
            </Position>
            <AltitudeMeters>371.600006103515625</AltitudeMeters>
            <DistanceMeters>4886.3383739538</DistanceMeters>
          </Trackpoint>
          <Trackpoint>
            <Time>2022-02-06T09:23:55.000Z</Time>
            <Position>
              <LatitudeDegrees>39.137684516608715057373046875</LatitudeDegrees>
              <LongitudeDegrees>-0.35720611922442913055419921875</LongitudeDegrees>
            </Position>
            <AltitudeMeters>371.399993896484375</AltitudeMeters>
            <DistanceMeters>4887.1162011336</DistanceMeters>
          </Trackpoint>
          <Trackpoint>
            <Time>2022-02-06T09:23:56.000Z</Time>
            <Position>
              <LatitudeDegrees>39.13768895901739597320556640625</LatitudeDegrees>
              <LongitudeDegrees>-0.35721617750823497772216796875</LongitudeDegrees>
            </Position>
            <AltitudeMeters>371</AltitudeMeters>
            <DistanceMeters>4888.1128497221</DistanceMeters>
          </Trackpoint>
          <Trackpoint>
            <Time>2022-02-06T09:24:00.000Z</Time>
            <Position>
              <LatitudeDegrees>39.1377037949860095977783203125</LatitudeDegrees>
              <LongitudeDegrees>-0.3572472743690013885498046875</LongitudeDegrees>
            </Position>
            <AltitudeMeters>370</AltitudeMeters>
            <DistanceMeters>4891.2645292883</DistanceMeters>
          </Trackpoint>
          <Trackpoint>
            <Time>2022-02-06T09:24:03.000Z</Time>
            <Position>
              <LatitudeDegrees>39.137721396982669830322265625</LatitudeDegrees>
              <LongitudeDegrees>-0.35727267153561115264892578125</LongitudeDegrees>
            </Position>
            <AltitudeMeters>369</AltitudeMeters>
            <DistanceMeters>4894.2057557729</DistanceMeters>
          </Trackpoint>
          <Trackpoint>
            <Time>2022-02-06T09:24:04.000Z</Time>
            <Position>
              <LatitudeDegrees>39.13773103617131710052490234375</LatitudeDegrees>
              <LongitudeDegrees>-0.35728029906749725341796875</LongitudeDegrees>
            </Position>
            <AltitudeMeters>368.399993896484375</AltitudeMeters>
            <DistanceMeters>4895.4664275994</DistanceMeters>
          </Trackpoint>
          <Trackpoint>
            <Time>2022-02-06T09:24:05.000Z</Time>
            <Position>
              <LatitudeDegrees>39.13773975335061550140380859375</LatitudeDegrees>
              <LongitudeDegrees>-0.3572858311235904693603515625</LongitudeDegrees>
            </Position>
            <AltitudeMeters>368.20001220703125</AltitudeMeters>
            <DistanceMeters>4896.545723602</DistanceMeters>
          </Trackpoint>
          <Trackpoint>
            <Time>2022-02-06T09:24:06.000Z</Time>
            <Position>
              <LatitudeDegrees>39.1377480514347553253173828125</LatitudeDegrees>
              <LongitudeDegrees>-0.35729312337934970855712890625</LongitudeDegrees>
            </Position>
            <AltitudeMeters>367.79998779296875</AltitudeMeters>
            <DistanceMeters>4897.6620347366</DistanceMeters>
          </Trackpoint>
          <Trackpoint>
            <Time>2022-02-06T09:24:07.000Z</Time>
            <Position>
              <LatitudeDegrees>39.1377557627856731414794921875</LatitudeDegrees>
              <LongitudeDegrees>-0.3572972305119037628173828125</LongitudeDegrees>
            </Position>
            <AltitudeMeters>367.399993896484375</AltitudeMeters>
            <DistanceMeters>4898.5931025852</DistanceMeters>
          </Trackpoint>
          <Trackpoint>
            <Time>2022-02-06T09:24:08.000Z</Time>
            <Position>
              <LatitudeDegrees>39.1377617977559566497802734375</LatitudeDegrees>
              <LongitudeDegrees>-0.3573025949299335479736328125</LongitudeDegrees>
            </Position>
            <AltitudeMeters>367</AltitudeMeters>
            <DistanceMeters>4899.4050111886</DistanceMeters>
          </Trackpoint>
          <Trackpoint>
            <Time>2022-02-06T09:24:09.000Z</Time>
            <Position>
              <LatitudeDegrees>39.1377678327262401580810546875</LatitudeDegrees>
              <LongitudeDegrees>-0.357310809195041656494140625</LongitudeDegrees>
            </Position>
            <AltitudeMeters>366.79998779296875</AltitudeMeters>
            <DistanceMeters>4900.3833710933</DistanceMeters>
          </Trackpoint>
          <Trackpoint>
            <Time>2022-02-06T09:24:10.000Z</Time>
            <Position>
              <LatitudeDegrees>39.1377762146294116973876953125</LatitudeDegrees>
              <LongitudeDegrees>-0.35732028074562549591064453125</LongitudeDegrees>
            </Position>
            <AltitudeMeters>366.399993896484375</AltitudeMeters>
            <DistanceMeters>4901.6223678631</DistanceMeters>
          </Trackpoint>
          <Trackpoint>
            <Time>2022-02-06T09:24:11.000Z</Time>
            <Position>
              <LatitudeDegrees>39.1377825848758220672607421875</LatitudeDegrees>
              <LongitudeDegrees>-0.35733084194362163543701171875</LongitudeDegrees>
            </Position>
            <AltitudeMeters>366</AltitudeMeters>
            <DistanceMeters>4902.7745055446</DistanceMeters>
          </Trackpoint>
          <Trackpoint>
            <Time>2022-02-06T09:24:12.000Z</Time>
            <Position>
              <LatitudeDegrees>39.137787111103534698486328125</LatitudeDegrees>
              <LongitudeDegrees>-0.35733888857066631317138671875</LongitudeDegrees>
            </Position>
            <AltitudeMeters>365.600006103515625</AltitudeMeters>
            <DistanceMeters>4903.6350090417</DistanceMeters>
          </Trackpoint>
          <Trackpoint>
            <Time>2022-02-06T09:24:13.000Z</Time>
            <Position>
              <LatitudeDegrees>39.13779146969318389892578125</LatitudeDegrees>
              <LongitudeDegrees>-0.35734559409320354461669921875</LongitudeDegrees>
            </Position>
            <AltitudeMeters>365.399993896484375</AltitudeMeters>
            <DistanceMeters>4904.3952227566</DistanceMeters>
          </Trackpoint>
          <Trackpoint>
            <Time>2022-02-06T09:24:14.000Z</Time>
            <Position>
              <LatitudeDegrees>39.13779549300670623779296875</LatitudeDegrees>
              <LongitudeDegrees>-0.35735028795897960662841796875</LongitudeDegrees>
            </Position>
            <AltitudeMeters>365.20001220703125</AltitudeMeters>
            <DistanceMeters>4904.9962244686</DistanceMeters>
          </Trackpoint>
          <Trackpoint>
            <Time>2022-02-06T09:24:15.000Z</Time>
            <Position>
              <LatitudeDegrees>39.137799851596355438232421875</LatitudeDegrees>
              <LongitudeDegrees>-0.3573555685579776763916015625</LongitudeDegrees>
            </Position>
            <AltitudeMeters>365.20001220703125</AltitudeMeters>
            <DistanceMeters>4905.6681648098</DistanceMeters>
          </Trackpoint>
          <Trackpoint>
            <Time>2022-02-06T09:24:16.000Z</Time>
            <Position>
              <LatitudeDegrees>39.1378055512905120849609375</LatitudeDegrees>
              <LongitudeDegrees>-0.35736068151891231536865234375</LongitudeDegrees>
            </Position>
            <AltitudeMeters>365.20001220703125</AltitudeMeters>
            <DistanceMeters>4906.4459919897</DistanceMeters>
          </Trackpoint>
          <Trackpoint>
            <Time>2022-02-06T09:24:17.000Z</Time>
            <Position>
              <LatitudeDegrees>39.1378090716898441314697265625</LatitudeDegrees>
              <LongitudeDegrees>-0.35736210644245147705078125</LongitudeDegrees>
            </Position>
            <AltitudeMeters>365.20001220703125</AltitudeMeters>
            <DistanceMeters>4906.8602038346</DistanceMeters>
          </Trackpoint>
          <Trackpoint>
            <Time>2022-02-06T09:24:18.000Z</Time>
            <Position>
              <LatitudeDegrees>39.1378154419362545013427734375</LatitudeDegrees>
              <LongitudeDegrees>-0.35735942423343658447265625</LongitudeDegrees>
            </Position>
            <AltitudeMeters>365</AltitudeMeters>
            <DistanceMeters>4907.6084449317</DistanceMeters>
          </Trackpoint>
          <Trackpoint>
            <Time>2022-02-06T09:24:27.000Z</Time>
            <Position>
              <LatitudeDegrees>39.13787922821938991546630859375</LatitudeDegrees>
              <LongitudeDegrees>-0.35728742368519306182861328125</LongitudeDegrees>
            </Position>
            <AltitudeMeters>364</AltitudeMeters>
            <DistanceMeters>4917.0443632091</DistanceMeters>
          </Trackpoint>
          <Trackpoint>
            <Time>2022-02-06T09:24:57.000Z</Time>
            <Position>
              <LatitudeDegrees>39.13796313107013702392578125</LatitudeDegrees>
              <LongitudeDegrees>-0.3571991622447967529296875</LongitudeDegrees>
            </Position>
            <AltitudeMeters>362.79998779296875</AltitudeMeters>
            <DistanceMeters>4929.0974072159</DistanceMeters>
          </Trackpoint>
          <Trackpoint>
            <Time>2022-02-06T09:25:07.000Z</Time>
            <Position>
              <LatitudeDegrees>39.1380072198808193206787109375</LatitudeDegrees>
              <LongitudeDegrees>-0.3571426682174205780029296875</LongitudeDegrees>
            </Position>
            <AltitudeMeters>361.600006103515625</AltitudeMeters>
            <DistanceMeters>4936.0167616154</DistanceMeters>
          </Trackpoint>
          <Trackpoint>
            <Time>2022-02-06T09:25:12.000Z</Time>
            <Position>
              <LatitudeDegrees>39.1380166076123714447021484375</LatitudeDegrees>
              <LongitudeDegrees>-0.357103608548641204833984375</LongitudeDegrees>
            </Position>
            <AltitudeMeters>361.399993896484375</AltitudeMeters>
            <DistanceMeters>4939.5468473782</DistanceMeters>
          </Trackpoint>
          <Trackpoint>
            <Time>2022-02-06T09:25:21.000Z</Time>
            <Position>
              <LatitudeDegrees>39.1380523145198822021484375</LatitudeDegrees>
              <LongitudeDegrees>-0.35702909342944622039794921875</LongitudeDegrees>
            </Position>
            <AltitudeMeters>360.399993896484375</AltitudeMeters>
            <DistanceMeters>4947.1084903243</DistanceMeters>
          </Trackpoint>
          <Trackpoint>
            <Time>2022-02-06T09:25:30.000Z</Time>
            <Position>
              <LatitudeDegrees>39.13810118101537227630615234375</LatitudeDegrees>
              <LongitudeDegrees>-0.3569844178855419158935546875</LongitudeDegrees>
            </Position>
            <AltitudeMeters>359.20001220703125</AltitudeMeters>
            <DistanceMeters>4953.7766307255</DistanceMeters>
          </Trackpoint>
          <Trackpoint>
            <Time>2022-02-06T09:25:45.000Z</Time>
            <Position>
              <LatitudeDegrees>39.13819656707346439361572265625</LatitudeDegrees>
              <LongitudeDegrees>-0.35689598880708217620849609375</LongitudeDegrees>
            </Position>
            <AltitudeMeters>356.79998779296875</AltitudeMeters>
            <DistanceMeters>4966.8530800731</DistanceMeters>
          </Trackpoint>
          <Trackpoint>
            <Time>2022-02-06T09:25:46.000Z</Time>
            <Position>
              <LatitudeDegrees>39.13820092566311359405517578125</LatitudeDegrees>
              <LongitudeDegrees>-0.356888361275196075439453125</LongitudeDegrees>
            </Position>
            <AltitudeMeters>356.600006103515625</AltitudeMeters>
            <DistanceMeters>4967.6649886766</DistanceMeters>
          </Trackpoint>
          <Trackpoint>
            <Time>2022-02-06T09:25:47.000Z</Time>
            <Position>
              <LatitudeDegrees>39.13820528425276279449462890625</LatitudeDegrees>
              <LongitudeDegrees>-0.3568804822862148284912109375</LongitudeDegrees>
            </Position>
            <AltitudeMeters>356.600006103515625</AltitudeMeters>
            <DistanceMeters>4968.4934123664</DistanceMeters>
          </Trackpoint>
          <Trackpoint>
            <Time>2022-02-06T09:25:48.000Z</Time>
            <Position>
              <LatitudeDegrees>39.13820662535727024078369140625</LatitudeDegrees>
              <LongitudeDegrees>-0.35687654279172420501708984375</LongitudeDegrees>
            </Position>
            <AltitudeMeters>356.600006103515625</AltitudeMeters>
            <DistanceMeters>4968.8614492486</DistanceMeters>
          </Trackpoint>
          <Trackpoint>
            <Time>2022-02-06T09:25:53.000Z</Time>
            <Position>
              <LatitudeDegrees>39.13822456263005733489990234375</LatitudeDegrees>
              <LongitudeDegrees>-0.3568630479276180267333984375</LongitudeDegrees>
            </Position>
            <AltitudeMeters>356.20001220703125</AltitudeMeters>
            <DistanceMeters>4971.1735489988</DistanceMeters>
          </Trackpoint>
          <Trackpoint>
            <Time>2022-02-06T09:26:09.000Z</Time>
            <Position>
              <LatitudeDegrees>39.1382992453873157501220703125</LatitudeDegrees>
              <LongitudeDegrees>-0.356815941631793975830078125</LongitudeDegrees>
            </Position>
            <AltitudeMeters>354.399993896484375</AltitudeMeters>
            <DistanceMeters>4980.4278045061</DistanceMeters>
          </Trackpoint>
          <Trackpoint>
            <Time>2022-02-06T09:26:10.000Z</Time>
            <Position>
              <LatitudeDegrees>39.13830117322504520416259765625</LatitudeDegrees>
              <LongitudeDegrees>-0.356817282736301422119140625</LongitudeDegrees>
            </Position>
            <AltitudeMeters>354.20001220703125</AltitudeMeters>
            <DistanceMeters>4980.6605714682</DistanceMeters>
          </Trackpoint>
          <Trackpoint>
            <Time>2022-02-06T09:26:14.000Z</Time>
            <Position>
              <LatitudeDegrees>39.138296730816364288330078125</LatitudeDegrees>
              <LongitudeDegrees>-0.35682692192494869232177734375</LongitudeDegrees>
            </Position>
            <AltitudeMeters>354.399993896484375</AltitudeMeters>
            <DistanceMeters>4981.6202942393</DistanceMeters>
          </Trackpoint>
          <Trackpoint>
            <Time>2022-02-06T09:26:19.000Z</Time>
            <Position>
              <LatitudeDegrees>39.138298742473125457763671875</LatitudeDegrees>
              <LongitudeDegrees>-0.356823317706584930419921875</LongitudeDegrees>
            </Position>
            <AltitudeMeters>354.399993896484375</AltitudeMeters>
            <DistanceMeters>4982.0004010967</DistanceMeters>
          </Trackpoint>
          <Trackpoint>
            <Time>2022-02-06T09:26:31.000Z</Time>
            <Position>
              <LatitudeDegrees>39.13829631172120571136474609375</LatitudeDegrees>
              <LongitudeDegrees>-0.35682625137269496917724609375</LongitudeDegrees>
            </Position>
            <AltitudeMeters>354.399993896484375</AltitudeMeters>
            <DistanceMeters>4982.3684379789</DistanceMeters>
          </Trackpoint>
          <Trackpoint>
            <Time>2022-02-06T09:26:44.000Z</Time>
            <Position>
              <LatitudeDegrees>39.1383398137986660003662109375</LatitudeDegrees>
              <LongitudeDegrees>-0.356809236109256744384765625</LongitudeDegrees>
            </Position>
            <AltitudeMeters>353.399993896484375</AltitudeMeters>
            <DistanceMeters>4987.4290008721</DistanceMeters>
          </Trackpoint>
          <Trackpoint>
            <Time>2022-02-06T09:27:08.000Z</Time>
            <Position>
              <LatitudeDegrees>39.13839764893054962158203125</LatitudeDegrees>
              <LongitudeDegrees>-0.3567242436110973358154296875</LongitudeDegrees>
            </Position>
            <AltitudeMeters>351.79998779296875</AltitudeMeters>
            <DistanceMeters>4997.1899606896</DistanceMeters>
          </Trackpoint>
          <Trackpoint>
            <Time>2022-02-06T09:27:34.000Z</Time>
            <Position>
              <LatitudeDegrees>39.13851700723171234130859375</LatitudeDegrees>
              <LongitudeDegrees>-0.35657965578138828277587890625</LongitudeDegrees>
            </Position>
            <AltitudeMeters>348.79998779296875</AltitudeMeters>
            <DistanceMeters>5015.4187498152</DistanceMeters>
          </Trackpoint>
          <Trackpoint>
            <Time>2022-02-06T09:27:43.000Z</Time>
            <Position>
              <LatitudeDegrees>39.13855631835758686065673828125</LatitudeDegrees>
              <LongitudeDegrees>-0.356491394340991973876953125</LongitudeDegrees>
            </Position>
            <AltitudeMeters>347.79998779296875</AltitudeMeters>
            <DistanceMeters>5024.2044821946</DistanceMeters>
          </Trackpoint>
          <Trackpoint>
            <Time>2022-02-06T09:27:45.000Z</Time>
            <Position>
              <LatitudeDegrees>39.13856218568980693817138671875</LatitudeDegrees>
              <LongitudeDegrees>-0.35647672601044178009033203125</LongitudeDegrees>
            </Position>
            <AltitudeMeters>347.79998779296875</AltitudeMeters>
            <DistanceMeters>5025.6267118257</DistanceMeters>
          </Trackpoint>
          <Trackpoint>
            <Time>2022-02-06T09:27:46.000Z</Time>
            <Position>
              <LatitudeDegrees>39.13856327533721923828125</LatitudeDegrees>
              <LongitudeDegrees>-0.3564704395830631256103515625</LongitudeDegrees>
            </Position>
            <AltitudeMeters>347.600006103515625</AltitudeMeters>
            <DistanceMeters>5026.1808080259</DistanceMeters>
          </Trackpoint>
          <Trackpoint>
            <Time>2022-02-06T09:27:48.000Z</Time>
            <Position>
              <LatitudeDegrees>39.13856352679431438446044921875</LatitudeDegrees>
              <LongitudeDegrees>-0.356453172862529754638671875</LongitudeDegrees>
            </Position>
            <AltitudeMeters>347.600006103515625</AltitudeMeters>
            <DistanceMeters>5027.6712438028</DistanceMeters>
          </Trackpoint>
          <Trackpoint>
            <Time>2022-02-06T09:27:49.000Z</Time>
            <Position>
              <LatitudeDegrees>39.138564281165599822998046875</LatitudeDegrees>
              <LongitudeDegrees>-0.35644370131194591522216796875</LongitudeDegrees>
            </Position>
            <AltitudeMeters>347.600006103515625</AltitudeMeters>
            <DistanceMeters>5028.4941992897</DistanceMeters>
          </Trackpoint>
          <Trackpoint>
            <Time>2022-02-06T09:27:50.000Z</Time>
            <Position>
              <LatitudeDegrees>39.138566963374614715576171875</LatitudeDegrees>
              <LongitudeDegrees>-0.3564369119703769683837890625</LongitudeDegrees>
            </Position>
            <AltitudeMeters>347.600006103515625</AltitudeMeters>
            <DistanceMeters>5029.1525636791</DistanceMeters>
          </Trackpoint>
          <Trackpoint>
            <Time>2022-02-06T09:27:51.000Z</Time>
            <Position>
              <LatitudeDegrees>39.1385711543262004852294921875</LatitudeDegrees>
              <LongitudeDegrees>-0.356429032981395721435546875</LongitudeDegrees>
            </Position>
            <AltitudeMeters>347.399993896484375</AltitudeMeters>
            <DistanceMeters>5029.9809873689</DistanceMeters>
          </Trackpoint>
          <Trackpoint>
            <Time>2022-02-06T09:28:12.000Z</Time>
            <Position>
              <LatitudeDegrees>39.13860375992953777313232421875</LatitudeDegrees>
              <LongitudeDegrees>-0.35630933940410614013671875</LongitudeDegrees>
            </Position>
            <AltitudeMeters>347.20001220703125</AltitudeMeters>
            <DistanceMeters>5040.9325842994</DistanceMeters>
          </Trackpoint>
          <Trackpoint>
            <Time>2022-02-06T09:28:17.000Z</Time>
            <Position>
              <LatitudeDegrees>39.13859856314957141876220703125</LatitudeDegrees>
              <LongitudeDegrees>-0.35625410266220569610595703125</LongitudeDegrees>
            </Position>
            <AltitudeMeters>348.20001220703125</AltitudeMeters>
            <DistanceMeters>5045.7349602986</DistanceMeters>
          </Trackpoint>
          <Trackpoint>
            <Time>2022-02-06T09:28:23.000Z</Time>
            <Position>
              <LatitudeDegrees>39.13862974382936954498291015625</LatitudeDegrees>
              <LongitudeDegrees>-0.3562112711369991302490234375</LongitudeDegrees>
            </Position>
            <AltitudeMeters>347.79998779296875</AltitudeMeters>
            <DistanceMeters>5050.8062182996</DistanceMeters>
          </Trackpoint>
          <Trackpoint>
            <Time>2022-02-06T09:28:33.000Z</Time>
            <Position>
              <LatitudeDegrees>39.138654135167598724365234375</LatitudeDegrees>
              <LongitudeDegrees>-0.35614396445453166961669921875</LongitudeDegrees>
            </Position>
            <AltitudeMeters>347.79998779296875</AltitudeMeters>
            <DistanceMeters>5057.2203455418</DistanceMeters>
          </Trackpoint>
          <Trackpoint>
            <Time>2022-02-06T09:28:34.000Z</Time>
            <Position>
              <LatitudeDegrees>39.13865522481501102447509765625</LatitudeDegrees>
              <LongitudeDegrees>-0.35613725893199443817138671875</LongitudeDegrees>
            </Position>
            <AltitudeMeters>348</AltitudeMeters>
            <DistanceMeters>5057.8213472537</DistanceMeters>
          </Trackpoint>
          <Trackpoint>
            <Time>2022-02-06T09:28:35.000Z</Time>
            <Position>
              <LatitudeDegrees>39.138657152652740478515625</LatitudeDegrees>
              <LongitudeDegrees>-0.3561284579336643218994140625</LongitudeDegrees>
            </Position>
            <AltitudeMeters>348</AltitudeMeters>
            <DistanceMeters>5058.6106984269</DistanceMeters>
          </Trackpoint>
          <Trackpoint>
            <Time>2022-02-06T09:28:40.000Z</Time>
            <Position>
              <LatitudeDegrees>39.138654805719852447509765625</LatitudeDegrees>
              <LongitudeDegrees>-0.3560875542461872100830078125</LongitudeDegrees>
            </Position>
            <AltitudeMeters>348.20001220703125</AltitudeMeters>
            <DistanceMeters>5062.151001536</DistanceMeters>
          </Trackpoint>
          <Trackpoint>
            <Time>2022-02-06T09:28:41.000Z</Time>
            <Position>
              <LatitudeDegrees>39.13865371607244014739990234375</LatitudeDegrees>
              <LongitudeDegrees>-0.3560793399810791015625</LongitudeDegrees>
            </Position>
            <AltitudeMeters>348.399993896484375</AltitudeMeters>
            <DistanceMeters>5062.8747034316</DistanceMeters>
          </Trackpoint>
          <Trackpoint>
            <Time>2022-02-06T09:28:42.000Z</Time>
            <Position>
              <LatitudeDegrees>39.13865086622536182403564453125</LatitudeDegrees>
              <LongitudeDegrees>-0.356072299182415008544921875</LongitudeDegrees>
            </Position>
            <AltitudeMeters>348.399993896484375</AltitudeMeters>
            <DistanceMeters>5063.5533299111</DistanceMeters>
          </Trackpoint>
          <Trackpoint>
            <Time>2022-02-06T09:28:43.000Z</Time>
            <Position>
              <LatitudeDegrees>39.138658158481121063232421875</LatitudeDegrees>
              <LongitudeDegrees>-0.35606601275503635406494140625</LongitudeDegrees>
            </Position>
            <AltitudeMeters>348.399993896484375</AltitudeMeters>
            <DistanceMeters>5064.5270639747</DistanceMeters>
          </Trackpoint>
          <Trackpoint>
            <Time>2022-02-06T09:28:45.000Z</Time>
            <Position>
              <LatitudeDegrees>39.13867517374455928802490234375</LatitudeDegrees>
              <LongitudeDegrees>-0.35605193115770816802978515625</LongitudeDegrees>
            </Position>
            <AltitudeMeters>348.399993896484375</AltitudeMeters>
            <DistanceMeters>5066.7798185023</DistanceMeters>
          </Trackpoint>
          <Trackpoint>
            <Time>2022-02-06T09:28:46.000Z</Time>
            <Position>
              <LatitudeDegrees>39.1386828012764453887939453125</LatitudeDegrees>
              <LongitudeDegrees>-0.35604489035904407501220703125</LongitudeDegrees>
            </Position>
            <AltitudeMeters>348.399993896484375</AltitudeMeters>
            <DistanceMeters>5067.8294228688</DistanceMeters>
          </Trackpoint>
          <Trackpoint>
            <Time>2022-02-06T09:28:47.000Z</Time>
            <Position>
              <LatitudeDegrees>39.13868841715157032012939453125</LatitudeDegrees>
              <LongitudeDegrees>-0.35603650845587253570556640625</LongitudeDegrees>
            </Position>
            <AltitudeMeters>348.399993896484375</AltitudeMeters>
            <DistanceMeters>5068.7891456398</DistanceMeters>
          </Trackpoint>
          <Trackpoint>
            <Time>2022-02-06T09:28:48.000Z</Time>
            <Position>
              <LatitudeDegrees>39.13869378156960010528564453125</LatitudeDegrees>
              <LongitudeDegrees>-0.35602645017206668853759765625</LongitudeDegrees>
            </Position>
            <AltitudeMeters>348.600006103515625</AltitudeMeters>
            <DistanceMeters>5069.8473183474</DistanceMeters>
          </Trackpoint>
          <Trackpoint>
            <Time>2022-02-06T09:28:49.000Z</Time>
            <Position>
              <LatitudeDegrees>39.1386978887021541595458984375</LatitudeDegrees>
              <LongitudeDegrees>-0.356017313897609710693359375</LongitudeDegrees>
            </Position>
            <AltitudeMeters>348.600006103515625</AltitudeMeters>
            <DistanceMeters>5070.7637227937</DistanceMeters>
          </Trackpoint>
          <Trackpoint>
            <Time>2022-02-06T09:28:50.000Z</Time>
            <Position>
              <LatitudeDegrees>39.13870342075824737548828125</LatitudeDegrees>
              <LongitudeDegrees>-0.35600650124251842498779296875</LongitudeDegrees>
            </Position>
            <AltitudeMeters>348.600006103515625</AltitudeMeters>
            <DistanceMeters>5071.8800339284</DistanceMeters>
          </Trackpoint>
          <Trackpoint>
            <Time>2022-02-06T09:28:53.000Z</Time>
            <Position>
              <LatitudeDegrees>39.13871146738529205322265625</LatitudeDegrees>
              <LongitudeDegrees>-0.35597096197307109832763671875</LongitudeDegrees>
            </Position>
            <AltitudeMeters>349.20001220703125</AltitudeMeters>
            <DistanceMeters>5075.0772274687</DistanceMeters>
          </Trackpoint>
          <Trackpoint>
            <Time>2022-02-06T09:28:54.000Z</Time>
            <Position>
              <LatitudeDegrees>39.1387133114039897918701171875</LatitudeDegrees>
              <LongitudeDegrees>-0.3559598140418529510498046875</LongitudeDegrees>
            </Position>
            <AltitudeMeters>349.399993896484375</AltitudeMeters>
            <DistanceMeters>5076.0555873734</DistanceMeters>
          </Trackpoint>
          <Trackpoint>
            <Time>2022-02-06T09:28:55.000Z</Time>
            <Position>
              <LatitudeDegrees>39.13871658034622669219970703125</LatitudeDegrees>
              <LongitudeDegrees>-0.35594648681581020355224609375</LongitudeDegrees>
            </Position>
            <AltitudeMeters>349.600006103515625</AltitudeMeters>
            <DistanceMeters>5077.2650799876</DistanceMeters>
          </Trackpoint>
          <Trackpoint>
            <Time>2022-02-06T09:28:56.000Z</Time>
            <Position>
              <LatitudeDegrees>39.138721190392971038818359375</LatitudeDegrees>
              <LongitudeDegrees>-0.3559350036084651947021484375</LongitudeDegrees>
            </Position>
            <AltitudeMeters>349.600006103515625</AltitudeMeters>
            <DistanceMeters>5078.3813911223</DistanceMeters>
          </Trackpoint>
          <Trackpoint>
            <Time>2022-02-06T09:28:57.000Z</Time>
            <Position>
              <LatitudeDegrees>39.13872647099196910858154296875</LatitudeDegrees>
              <LongitudeDegrees>-0.35592653788626194000244140625</LongitudeDegrees>
            </Position>
            <AltitudeMeters>349.79998779296875</AltitudeMeters>
            <DistanceMeters>5079.3124589708</DistanceMeters>
          </Trackpoint>
          <Trackpoint>
            <Time>2022-02-06T09:28:58.000Z</Time>
            <Position>
              <LatitudeDegrees>39.138729907572269439697265625</LatitudeDegrees>
              <LongitudeDegrees>-0.3559172339737415313720703125</LongitudeDegrees>
            </Position>
            <AltitudeMeters>349.79998779296875</AltitudeMeters>
            <DistanceMeters>5080.1988091559</DistanceMeters>
          </Trackpoint>
          <Trackpoint>
            <Time>2022-02-06T09:28:59.000Z</Time>
            <Position>
              <LatitudeDegrees>39.13873418234288692474365234375</LatitudeDegrees>
              <LongitudeDegrees>-0.35590943880379199981689453125</LongitudeDegrees>
            </Position>
            <AltitudeMeters>349.79998779296875</AltitudeMeters>
            <DistanceMeters>5081.016259862</DistanceMeters>
          </Trackpoint>
          <Trackpoint>
            <Time>2022-02-06T09:29:00.000Z</Time>
            <Position>
              <LatitudeDegrees>39.13873485289514064788818359375</LatitudeDegrees>
              <LongitudeDegrees>-0.3559011407196521759033203125</LongitudeDegrees>
            </Position>
            <AltitudeMeters>350</AltitudeMeters>
            <DistanceMeters>5081.7336958224</DistanceMeters>
          </Trackpoint>
          <Trackpoint>
            <Time>2022-02-06T09:29:01.000Z</Time>
            <Position>
              <LatitudeDegrees>39.13873619399964809417724609375</LatitudeDegrees>
              <LongitudeDegrees>-0.3558929264545440673828125</LongitudeDegrees>
            </Position>
            <AltitudeMeters>350.20001220703125</AltitudeMeters>
            <DistanceMeters>5082.457397718</DistanceMeters>
          </Trackpoint>
          <Trackpoint>
            <Time>2022-02-06T09:29:02.000Z</Time>
            <Position>
              <LatitudeDegrees>39.13872613571584224700927734375</LatitudeDegrees>
              <LongitudeDegrees>-0.3558816947042942047119140625</LongitudeDegrees>
            </Position>
            <AltitudeMeters>350.600006103515625</AltitudeMeters>
            <DistanceMeters>5083.9356664688</DistanceMeters>
          </Trackpoint>
          <Trackpoint>
            <Time>2022-02-06T09:29:03.000Z</Time>
            <Position>
              <LatitudeDegrees>39.13873300887644290924072265625</LatitudeDegrees>
              <LongitudeDegrees>-0.3558783419430255889892578125</LongitudeDegrees>
            </Position>
            <AltitudeMeters>350.399993896484375</AltitudeMeters>
            <DistanceMeters>5084.7531171749</DistanceMeters>
          </Trackpoint>
          <Trackpoint>
            <Time>2022-02-06T09:29:04.000Z</Time>
            <Position>
              <LatitudeDegrees>39.1387371160089969635009765625</LatitudeDegrees>
              <LongitudeDegrees>-0.355875156819820404052734375</LongitudeDegrees>
            </Position>
            <AltitudeMeters>350.399993896484375</AltitudeMeters>
            <DistanceMeters>5085.2906694479</DistanceMeters>
          </Trackpoint>
          <Trackpoint>
            <Time>2022-02-06T09:29:11.000Z</Time>
            <Position>
              <LatitudeDegrees>39.13876452483236789703369140625</LatitudeDegrees>
              <LongitudeDegrees>-0.3558233566582202911376953125</LongitudeDegrees>
            </Position>
            <AltitudeMeters>350.79998779296875</AltitudeMeters>
            <DistanceMeters>5090.7030227238</DistanceMeters>
          </Trackpoint>
          <Trackpoint>
            <Time>2022-02-06T09:29:16.000Z</Time>
            <Position>
              <LatitudeDegrees>39.1387817077338695526123046875</LatitudeDegrees>
              <LongitudeDegrees>-0.35578320734202861785888671875</LongitudeDegrees>
            </Position>
            <AltitudeMeters>351.399993896484375</AltitudeMeters>
            <DistanceMeters>5094.6612019303</DistanceMeters>
          </Trackpoint>
          <Trackpoint>
            <Time>2022-02-06T09:29:22.000Z</Time>
            <Position>
              <LatitudeDegrees>39.138807356357574462890625</LatitudeDegrees>
              <LongitudeDegrees>-0.35575537942349910736083984375</LongitudeDegrees>
            </Position>
            <AltitudeMeters>351.600006103515625</AltitudeMeters>
            <DistanceMeters>5098.3927402024</DistanceMeters>
          </Trackpoint>
          <Trackpoint>
            <Time>2022-02-06T09:29:30.000Z</Time>
            <Position>
              <LatitudeDegrees>39.138863347470760345458984375</LatitudeDegrees>
              <LongitudeDegrees>-0.35567390732467174530029296875</LongitudeDegrees>
            </Position>
            <AltitudeMeters>352.79998779296875</AltitudeMeters>
            <DistanceMeters>5107.7893399848</DistanceMeters>
          </Trackpoint>
          <Trackpoint>
            <Time>2022-02-06T09:29:31.000Z</Time>
            <Position>
              <LatitudeDegrees>39.13886594586074352264404296875</LatitudeDegrees>
              <LongitudeDegrees>-0.35566904582083225250244140625</LongitudeDegrees>
            </Position>
            <AltitudeMeters>353</AltitudeMeters>
            <DistanceMeters>5108.292174093</DistanceMeters>
          </Trackpoint>
          <Trackpoint>
            <Time>2022-02-06T09:29:32.000Z</Time>
            <Position>
              <LatitudeDegrees>39.13887198083102703094482421875</LatitudeDegrees>
              <LongitudeDegrees>-0.35566183738410472869873046875</LongitudeDegrees>
            </Position>
            <AltitudeMeters>353</AltitudeMeters>
            <DistanceMeters>5109.2085785394</DistanceMeters>
          </Trackpoint>
          <Trackpoint>
            <Time>2022-02-06T09:29:33.000Z</Time>
            <Position>
              <LatitudeDegrees>39.13887818343937397003173828125</LatitudeDegrees>
              <LongitudeDegrees>-0.355654545128345489501953125</LongitudeDegrees>
            </Position>
            <AltitudeMeters>353</AltitudeMeters>
            <DistanceMeters>5110.1444831366</DistanceMeters>
          </Trackpoint>
          <Trackpoint>
            <Time>2022-02-06T09:29:34.000Z</Time>
            <Position>
              <LatitudeDegrees>39.13888455368578433990478515625</LatitudeDegrees>
              <LongitudeDegrees>-0.35564842633903026580810546875</LongitudeDegrees>
            </Position>
            <AltitudeMeters>353</AltitudeMeters>
            <DistanceMeters>5111.0257246325</DistanceMeters>
          </Trackpoint>
          <Trackpoint>
            <Time>2022-02-06T09:29:36.000Z</Time>
            <Position>
              <LatitudeDegrees>39.13889293558895587921142578125</LatitudeDegrees>
              <LongitudeDegrees>-0.35563342273235321044921875</LongitudeDegrees>
            </Position>
            <AltitudeMeters>353.399993896484375</AltitudeMeters>
            <DistanceMeters>5112.6214945273</DistanceMeters>
          </Trackpoint>
          <Trackpoint>
            <Time>2022-02-06T09:29:37.000Z</Time>
            <Position>
              <LatitudeDegrees>39.138898216187953948974609375</LatitudeDegrees>
              <LongitudeDegrees>-0.35562529228627681732177734375</LongitudeDegrees>
            </Position>
            <AltitudeMeters>353.399993896484375</AltitudeMeters>
            <DistanceMeters>5113.5428127057</DistanceMeters>
          </Trackpoint>
          <Trackpoint>
            <Time>2022-02-06T09:29:38.000Z</Time>
            <Position>
              <LatitudeDegrees>39.13889930583536624908447265625</LatitudeDegrees>
              <LongitudeDegrees>-0.35562269389629364013671875</LongitudeDegrees>
            </Position>
            <AltitudeMeters>353.600006103515625</AltitudeMeters>
            <DistanceMeters>5113.7755796678</DistanceMeters>
          </Trackpoint>
          <Trackpoint>
            <Time>2022-02-06T09:29:39.000Z</Time>
            <Position>
              <LatitudeDegrees>39.1389020718634128570556640625</LatitudeDegrees>
              <LongitudeDegrees>-0.355609953403472900390625</LongitudeDegrees>
            </Position>
            <AltitudeMeters>353.79998779296875</AltitudeMeters>
            <DistanceMeters>5114.9159002402</DistanceMeters>
          </Trackpoint>
          <Trackpoint>
            <Time>2022-02-06T09:29:45.000Z</Time>
            <Position>
              <LatitudeDegrees>39.1389161534607410430908203125</LatitudeDegrees>
              <LongitudeDegrees>-0.35557902418076992034912109375</LongitudeDegrees>
            </Position>
            <AltitudeMeters>354.399993896484375</AltitudeMeters>
            <DistanceMeters>5118.0097459104</DistanceMeters>
          </Trackpoint>
          <Trackpoint>
            <Time>2022-02-06T09:29:53.000Z</Time>
            <Position>
              <LatitudeDegrees>39.13894138298928737640380859375</LatitudeDegrees>
              <LongitudeDegrees>-0.3555105440318584442138671875</LongitudeDegrees>
            </Position>
            <AltitudeMeters>355.79998779296875</AltitudeMeters>
            <DistanceMeters>5124.5534927344</DistanceMeters>
          </Trackpoint>
          <Trackpoint>
            <Time>2022-02-06T09:29:54.000Z</Time>
            <Position>
              <LatitudeDegrees>39.13894758559763431549072265625</LatitudeDegrees>
              <LongitudeDegrees>-0.35550065338611602783203125</LongitudeDegrees>
            </Position>
            <AltitudeMeters>356</AltitudeMeters>
            <DistanceMeters>5125.6535064814</DistanceMeters>
          </Trackpoint>
          <Trackpoint>
            <Time>2022-02-06T09:29:55.000Z</Time>
            <Position>
              <LatitudeDegrees>39.13895445875823497772216796875</LatitudeDegrees>
              <LongitudeDegrees>-0.35549202002584934234619140625</LongitudeDegrees>
            </Position>
            <AltitudeMeters>356.20001220703125</AltitudeMeters>
            <DistanceMeters>5126.7201787047</DistanceMeters>
          </Trackpoint>
          <Trackpoint>
            <Time>2022-02-06T09:29:56.000Z</Time>
            <Position>
              <LatitudeDegrees>39.13896099664270877838134765625</LatitudeDegrees>
              <LongitudeDegrees>-0.3554843924939632415771484375</LongitudeDegrees>
            </Position>
            <AltitudeMeters>356.20001220703125</AltitudeMeters>
            <DistanceMeters>5127.6985386093</DistanceMeters>
          </Trackpoint>
          <Trackpoint>
            <Time>2022-02-06T09:29:59.000Z</Time>
            <Position>
              <LatitudeDegrees>39.1389828734099864959716796875</LatitudeDegrees>
              <LongitudeDegrees>-0.3554629348218441009521484375</LongitudeDegrees>
            </Position>
            <AltitudeMeters>356.600006103515625</AltitudeMeters>
            <DistanceMeters>5130.757159082</DistanceMeters>
          </Trackpoint>
          <Trackpoint>
            <Time>2022-02-06T09:30:00.000Z</Time>
            <Position>
              <LatitudeDegrees>39.138988070189952850341796875</LatitudeDegrees>
              <LongitudeDegrees>-0.355453379452228546142578125</LongitudeDegrees>
            </Position>
            <AltitudeMeters>356.79998779296875</AltitudeMeters>
            <DistanceMeters>5131.7628272985</DistanceMeters>
          </Trackpoint>
          <Trackpoint>
            <Time>2022-02-06T09:30:01.000Z</Time>
            <Position>
              <LatitudeDegrees>39.1389865614473819732666015625</LatitudeDegrees>
              <LongitudeDegrees>-0.35544793121516704559326171875</LongitudeDegrees>
            </Position>
            <AltitudeMeters>357</AltitudeMeters>
            <DistanceMeters>5132.2656614068</DistanceMeters>
          </Trackpoint>
          <Trackpoint>
            <Time>2022-02-06T09:30:02.000Z</Time>
            <Position>
              <LatitudeDegrees>39.1389875672757625579833984375</LatitudeDegrees>
              <LongitudeDegrees>-0.35544223152101039886474609375</LongitudeDegrees>
            </Position>
            <AltitudeMeters>357</AltitudeMeters>
            <DistanceMeters>5132.7684955151</DistanceMeters>
          </Trackpoint>
          <Trackpoint>
            <Time>2022-02-06T09:30:05.000Z</Time>
            <Position>
              <LatitudeDegrees>39.13899871520698070526123046875</LatitudeDegrees>
              <LongitudeDegrees>-0.3554223664104938507080078125</LongitudeDegrees>
            </Position>
            <AltitudeMeters>357.399993896484375</AltitudeMeters>
            <DistanceMeters>5134.8848409302</DistanceMeters>
          </Trackpoint>
          <Trackpoint>
            <Time>2022-02-06T09:30:07.000Z</Time>
            <Position>
              <LatitudeDegrees>39.13902000524103641510009765625</LatitudeDegrees>
              <LongitudeDegrees>-0.35540987737476825714111328125</LongitudeDegrees>
            </Position>
            <AltitudeMeters>357.399993896484375</AltitudeMeters>
            <DistanceMeters>5137.4907222563</DistanceMeters>
          </Trackpoint>
          <Trackpoint>
            <Time>2022-02-06T09:30:10.000Z</Time>
            <Position>
              <LatitudeDegrees>39.13904062472283840179443359375</LatitudeDegrees>
              <LongitudeDegrees>-0.35538774915039539337158203125</LongitudeDegrees>
            </Position>
            <AltitudeMeters>357.600006103515625</AltitudeMeters>
            <DistanceMeters>5140.4776463475</DistanceMeters>
          </Trackpoint>
          <Trackpoint>
            <Time>2022-02-06T09:30:13.000Z</Time>
            <Position>
              <LatitudeDegrees>39.139064513146877288818359375</LatitudeDegrees>
              <LongitudeDegrees>-0.3553543053567409515380859375</LongitudeDegrees>
            </Position>
            <AltitudeMeters>358.20001220703125</AltitudeMeters>
            <DistanceMeters>5144.4026062726</DistanceMeters>
          </Trackpoint>
          <Trackpoint>
            <Time>2022-02-06T09:30:16.000Z</Time>
            <Position>
              <LatitudeDegrees>39.13908069021999835968017578125</LatitudeDegrees>
              <LongitudeDegrees>-0.3553241305053234100341796875</LongitudeDegrees>
            </Position>
            <AltitudeMeters>359</AltitudeMeters>
            <DistanceMeters>5147.5685792436</DistanceMeters>
          </Trackpoint>
          <Trackpoint>
            <Time>2022-02-06T09:30:19.000Z</Time>
            <Position>
              <LatitudeDegrees>39.13909175433218479156494140625</LatitudeDegrees>
              <LongitudeDegrees>-0.35529588349163532257080078125</LongitudeDegrees>
            </Position>
            <AltitudeMeters>359.600006103515625</AltitudeMeters>
            <DistanceMeters>5150.2996675143</DistanceMeters>
          </Trackpoint>
          <Trackpoint>
            <Time>2022-02-06T09:30:23.000Z</Time>
            <Position>
              <LatitudeDegrees>39.13910483010113239288330078125</LatitudeDegrees>
              <LongitudeDegrees>-0.35524986684322357177734375</LongitudeDegrees>
            </Position>
            <AltitudeMeters>361</AltitudeMeters>
            <DistanceMeters>5154.530224394</DistanceMeters>
          </Trackpoint>
          <Trackpoint>
            <Time>2022-02-06T09:30:26.000Z</Time>
            <Position>
              <LatitudeDegrees>39.13912595249712467193603515625</LatitudeDegrees>
              <LongitudeDegrees>-0.35521122626960277557373046875</LongitudeDegrees>
            </Position>
            <AltitudeMeters>361.20001220703125</AltitudeMeters>
            <DistanceMeters>5158.6108445629</DistanceMeters>
          </Trackpoint>
          <Trackpoint>
            <Time>2022-02-06T09:30:27.000Z</Time>
            <Position>
              <LatitudeDegrees>39.13913047872483730316162109375</LatitudeDegrees>
              <LongitudeDegrees>-0.3552009165287017822265625</LongitudeDegrees>
            </Position>
            <AltitudeMeters>361.20001220703125</AltitudeMeters>
            <DistanceMeters>5159.6343135988</DistanceMeters>
          </Trackpoint>
          <Trackpoint>
            <Time>2022-02-06T09:30:28.000Z</Time>
            <Position>
              <LatitudeDegrees>39.13913927972316741943359375</LatitudeDegrees>
              <LongitudeDegrees>-0.35518742166459560394287109375</LongitudeDegrees>
            </Position>
            <AltitudeMeters>361.20001220703125</AltitudeMeters>
            <DistanceMeters>5161.1577077192</DistanceMeters>
          </Trackpoint>
          <Trackpoint>
            <Time>2022-02-06T09:30:29.000Z</Time>
            <Position>
              <LatitudeDegrees>39.1391466557979583740234375</LatitudeDegrees>
              <LongitudeDegrees>-0.355178453028202056884765625</LongitudeDegrees>
            </Position>
            <AltitudeMeters>361.20001220703125</AltitudeMeters>
            <DistanceMeters>5162.29008171</DistanceMeters>
          </Trackpoint>
          <Trackpoint>
            <Time>2022-02-06T09:30:51.000Z</Time>
            <Position>
              <LatitudeDegrees>39.1392598114907741546630859375</LatitudeDegrees>
              <LongitudeDegrees>-0.35499505698680877685546875</LongitudeDegrees>
            </Position>
            <AltitudeMeters>361.399993896484375</AltitudeMeters>
            <DistanceMeters>5182.5207313473</DistanceMeters>
          </Trackpoint>
          <Trackpoint>
            <Time>2022-02-06T09:30:57.000Z</Time>
            <Position>
              <LatitudeDegrees>39.1392772458493709564208984375</LatitudeDegrees>
              <LongitudeDegrees>-0.3549439273774623870849609375</LongitudeDegrees>
            </Position>
            <AltitudeMeters>361.600006103515625</AltitudeMeters>
            <DistanceMeters>5187.3418740299</DistanceMeters>
          </Trackpoint>
          <Trackpoint>
            <Time>2022-02-06T09:31:04.000Z</Time>
            <Position>
              <LatitudeDegrees>39.139318652451038360595703125</LatitudeDegrees>
              <LongitudeDegrees>-0.3548755310475826263427734375</LongitudeDegrees>
            </Position>
            <AltitudeMeters>361.20001220703125</AltitudeMeters>
            <DistanceMeters>5194.8321253572</DistanceMeters>
          </Trackpoint>
          <Trackpoint>
            <Time>2022-02-06T09:31:07.000Z</Time>
            <Position>
              <LatitudeDegrees>39.13934153504669666290283203125</LatitudeDegrees>
              <LongitudeDegrees>-0.35483839921653270721435546875</LongitudeDegrees>
            </Position>
            <AltitudeMeters>361</AltitudeMeters>
            <DistanceMeters>5198.926001501</DistanceMeters>
          </Trackpoint>
          <Trackpoint>
            <Time>2022-02-06T09:31:09.000Z</Time>
            <Position>
              <LatitudeDegrees>39.13935209624469280242919921875</LatitudeDegrees>
              <LongitudeDegrees>-0.35481543280184268951416015625</LongitudeDegrees>
            </Position>
            <AltitudeMeters>361</AltitudeMeters>
            <DistanceMeters>5201.2322354495</DistanceMeters>
          </Trackpoint>
          <Trackpoint>
            <Time>2022-02-06T09:31:14.000Z</Time>
            <Position>
              <LatitudeDegrees>39.13936131633818149566650390625</LatitudeDegrees>
              <LongitudeDegrees>-0.3547551669180393218994140625</LongitudeDegrees>
            </Position>
            <AltitudeMeters>361.399993896484375</AltitudeMeters>
            <DistanceMeters>5206.5367352562</DistanceMeters>
          </Trackpoint>
          <Trackpoint>
            <Time>2022-02-06T09:31:22.000Z</Time>
            <Position>
              <LatitudeDegrees>39.13937305100262165069580078125</LatitudeDegrees>
              <LongitudeDegrees>-0.35464980639517307281494140625</LongitudeDegrees>
            </Position>
            <AltitudeMeters>362</AltitudeMeters>
            <DistanceMeters>5215.7253812256</DistanceMeters>
          </Trackpoint>
          <Trackpoint>
            <Time>2022-02-06T09:31:24.000Z</Time>
            <Position>
              <LatitudeDegrees>39.13937489502131938934326171875</LatitudeDegrees>
              <LongitudeDegrees>-0.35462549887597560882568359375</LongitudeDegrees>
            </Position>
            <AltitudeMeters>362</AltitudeMeters>
            <DistanceMeters>5217.8331757152</DistanceMeters>
          </Trackpoint>
          <Trackpoint>
            <Time>2022-02-06T09:31:26.000Z</Time>
            <Position>
              <LatitudeDegrees>39.1393835283815860748291015625</LatitudeDegrees>
              <LongitudeDegrees>-0.354601442813873291015625</LongitudeDegrees>
            </Position>
            <AltitudeMeters>362.20001220703125</AltitudeMeters>
            <DistanceMeters>5220.1217220524</DistanceMeters>
          </Trackpoint>
          <Trackpoint>
            <Time>2022-02-06T09:31:33.000Z</Time>
            <Position>
              <LatitudeDegrees>39.1393746435642242431640625</LatitudeDegrees>
              <LongitudeDegrees>-0.35453195683658123016357421875</LongitudeDegrees>
            </Position>
            <AltitudeMeters>362.399993896484375</AltitudeMeters>
            <DistanceMeters>5226.2004614619</DistanceMeters>
          </Trackpoint>
          <Trackpoint>
            <Time>2022-02-06T09:31:34.000Z</Time>
            <Position>
              <LatitudeDegrees>39.13937103934586048126220703125</LatitudeDegrees>
              <LongitudeDegrees>-0.3545161150395870208740234375</LongitudeDegrees>
            </Position>
            <AltitudeMeters>362.600006103515625</AltitudeMeters>
            <DistanceMeters>5227.622691093</DistanceMeters>
          </Trackpoint>
          <Trackpoint>
            <Time>2022-02-06T09:31:35.000Z</Time>
            <Position>
              <LatitudeDegrees>39.13936651311814785003662109375</LatitudeDegrees>
              <LongitudeDegrees>-0.35450178198516368865966796875</LongitudeDegrees>
            </Position>
            <AltitudeMeters>362.600006103515625</AltitudeMeters>
            <DistanceMeters>5228.959835489</DistanceMeters>
          </Trackpoint>
          <Trackpoint>
            <Time>2022-02-06T09:31:36.000Z</Time>
            <Position>
              <LatitudeDegrees>39.13935913704335689544677734375</LatitudeDegrees>
              <LongitudeDegrees>-0.35448904149234294891357421875</LongitudeDegrees>
            </Position>
            <AltitudeMeters>362.600006103515625</AltitudeMeters>
            <DistanceMeters>5230.3336207622</DistanceMeters>
          </Trackpoint>
          <Trackpoint>
            <Time>2022-02-06T09:31:37.000Z</Time>
            <Position>
              <LatitudeDegrees>39.13935117423534393310546875</LatitudeDegrees>
              <LongitudeDegrees>-0.35447797738015651702880859375</LongitudeDegrees>
            </Position>
            <AltitudeMeters>362.79998779296875</AltitudeMeters>
            <DistanceMeters>5231.6365614253</DistanceMeters>
          </Trackpoint>
          <Trackpoint>
            <Time>2022-02-06T09:31:38.000Z</Time>
            <Position>
              <LatitudeDegrees>39.13934371434152126312255859375</LatitudeDegrees>
              <LongitudeDegrees>-0.3544681705534458160400390625</LongitudeDegrees>
            </Position>
            <AltitudeMeters>362.79998779296875</AltitudeMeters>
            <DistanceMeters>5232.8234447073</DistanceMeters>
          </Trackpoint>
          <Trackpoint>
            <Time>2022-02-06T09:31:39.000Z</Time>
            <Position>
              <LatitudeDegrees>39.1393369249999523162841796875</LatitudeDegrees>
              <LongitudeDegrees>-0.35445802845060825347900390625</LongitudeDegrees>
            </Position>
            <AltitudeMeters>363</AltitudeMeters>
            <DistanceMeters>5233.9794945824</DistanceMeters>
          </Trackpoint>
          <Trackpoint>
            <Time>2022-02-06T09:31:40.000Z</Time>
            <Position>
              <LatitudeDegrees>39.1393312253057956695556640625</LatitudeDegrees>
              <LongitudeDegrees>-0.35444797016680240631103515625</LongitudeDegrees>
            </Position>
            <AltitudeMeters>363.20001220703125</AltitudeMeters>
            <DistanceMeters>5235.0587905851</DistanceMeters>
          </Trackpoint>
          <Trackpoint>
            <Time>2022-02-06T09:31:41.000Z</Time>
            <Position>
              <LatitudeDegrees>39.13932695053517818450927734375</LatitudeDegrees>
              <LongitudeDegrees>-0.3544346429407596588134765625</LongitudeDegrees>
            </Position>
            <AltitudeMeters>363.20001220703125</AltitudeMeters>
            <DistanceMeters>5236.3050542604</DistanceMeters>
          </Trackpoint>
          <Trackpoint>
            <Time>2022-02-06T09:31:42.000Z</Time>
            <Position>
              <LatitudeDegrees>39.139322675764560699462890625</LatitudeDegrees>
              <LongitudeDegrees>-0.3544202260673046112060546875</LongitudeDegrees>
            </Position>
            <AltitudeMeters>363.399993896484375</AltitudeMeters>
            <DistanceMeters>5237.6354282615</DistanceMeters>
          </Trackpoint>
          <Trackpoint>
            <Time>2022-02-06T09:31:43.000Z</Time>
            <Position>
              <LatitudeDegrees>39.1393204964697360992431640625</LatitudeDegrees>
              <LongitudeDegrees>-0.3544069826602935791015625</LongitudeDegrees>
            </Position>
            <AltitudeMeters>363.600006103515625</AltitudeMeters>
            <DistanceMeters>5238.806996279</DistanceMeters>
          </Trackpoint>
          <Trackpoint>
            <Time>2022-02-06T09:31:48.000Z</Time>
            <Position>
              <LatitudeDegrees>39.13931437768042087554931640625</LatitudeDegrees>
              <LongitudeDegrees>-0.3543444536626338958740234375</LongitudeDegrees>
            </Position>
            <AltitudeMeters>364</AltitudeMeters>
            <DistanceMeters>5244.2476387579</DistanceMeters>
          </Trackpoint>
          <Trackpoint>
            <Time>2022-02-06T09:31:55.000Z</Time>
            <Position>
              <LatitudeDegrees>39.1393196582794189453125</LatitudeDegrees>
              <LongitudeDegrees>-0.35424697212874889373779296875</LongitudeDegrees>
            </Position>
            <AltitudeMeters>364.20001220703125</AltitudeMeters>
            <DistanceMeters>5252.6830997636</DistanceMeters>
          </Trackpoint>
          <Trackpoint>
            <Time>2022-02-06T09:31:56.000Z</Time>
            <Position>
              <LatitudeDegrees>39.13932141847908496856689453125</LatitudeDegrees>
              <LongitudeDegrees>-0.35423993133008480072021484375</LongitudeDegrees>
            </Position>
            <AltitudeMeters>364.20001220703125</AltitudeMeters>
            <DistanceMeters>5253.3205583426</DistanceMeters>
          </Trackpoint>
          <Trackpoint>
            <Time>2022-02-06T09:31:57.000Z</Time>
            <Position>
              <LatitudeDegrees>39.1393235139548778533935546875</LatitudeDegrees>
              <LongitudeDegrees>-0.3542314656078815460205078125</LongitudeDegrees>
            </Position>
            <AltitudeMeters>364.20001220703125</AltitudeMeters>
            <DistanceMeters>5254.0866882068</DistanceMeters>
          </Trackpoint>
          <Trackpoint>
            <Time>2022-02-06T09:31:58.000Z</Time>
            <Position>
              <LatitudeDegrees>39.13932560943067073822021484375</LatitudeDegrees>
              <LongitudeDegrees>-0.35421989858150482177734375</LongitudeDegrees>
            </Position>
            <AltitudeMeters>364.20001220703125</AltitudeMeters>
            <DistanceMeters>5255.1145592804</DistanceMeters>
          </Trackpoint>
          <Trackpoint>
            <Time>2022-02-06T09:31:59.000Z</Time>
            <Position>
              <LatitudeDegrees>39.1393255256116390228271484375</LatitudeDegrees>
              <LongitudeDegrees>-0.3541977703571319580078125</LongitudeDegrees>
            </Position>
            <AltitudeMeters>364.20001220703125</AltitudeMeters>
            <DistanceMeters>5257.0245726006</DistanceMeters>
          </Trackpoint>
          <Trackpoint>
            <Time>2022-02-06T09:32:00.000Z</Time>
            <Position>
              <LatitudeDegrees>39.13932493887841701507568359375</LatitudeDegrees>
              <LongitudeDegrees>-0.3541825152933597564697265625</LongitudeDegrees>
            </Position>
            <AltitudeMeters>364.399993896484375</AltitudeMeters>
            <DistanceMeters>5258.3447259075</DistanceMeters>
          </Trackpoint>
          <Trackpoint>
            <Time>2022-02-06T09:32:01.000Z</Time>
            <Position>
              <LatitudeDegrees>39.139325357973575592041015625</LatitudeDegrees>
              <LongitudeDegrees>-0.3541664220392704010009765625</LongitudeDegrees>
            </Position>
            <AltitudeMeters>364.399993896484375</AltitudeMeters>
            <DistanceMeters>5259.7348468947</DistanceMeters>
          </Trackpoint>
          <Trackpoint>
            <Time>2022-02-06T09:32:02.000Z</Time>
            <Position>
              <LatitudeDegrees>39.1393295489251613616943359375</LatitudeDegrees>
              <LongitudeDegrees>-0.35414873622357845306396484375</LongitudeDegrees>
            </Position>
            <AltitudeMeters>364.399993896484375</AltitudeMeters>
            <DistanceMeters>5261.3306167895</DistanceMeters>
          </Trackpoint>
          <Trackpoint>
            <Time>2022-02-06T09:32:05.000Z</Time>
            <Position>
              <LatitudeDegrees>39.13934153504669666290283203125</LatitudeDegrees>
              <LongitudeDegrees>-0.3541090898215770721435546875</LongitudeDegrees>
            </Position>
            <AltitudeMeters>364</AltitudeMeters>
            <DistanceMeters>5265.0036174984</DistanceMeters>
          </Trackpoint>
          <Trackpoint>
            <Time>2022-02-06T09:32:10.000Z</Time>
            <Position>
              <LatitudeDegrees>39.139353521168231964111328125</LatitudeDegrees>
              <LongitudeDegrees>-0.3540470637381076812744140625</LongitudeDegrees>
            </Position>
            <AltitudeMeters>364</AltitudeMeters>
            <DistanceMeters>5270.5217166067</DistanceMeters>
          </Trackpoint>
          <Trackpoint>
            <Time>2022-02-06T09:32:18.000Z</Time>
            <Position>
              <LatitudeDegrees>39.139341451227664947509765625</LatitudeDegrees>
              <LongitudeDegrees>-0.3539391048252582550048828125</LongitudeDegrees>
            </Position>
            <AltitudeMeters>364</AltitudeMeters>
            <DistanceMeters>5279.9379961588</DistanceMeters>
          </Trackpoint>
          <Trackpoint>
            <Time>2022-02-06T09:32:21.000Z</Time>
            <Position>
              <LatitudeDegrees>39.1393530182540416717529296875</LatitudeDegrees>
              <LongitudeDegrees>-0.35390264354646205902099609375</LongitudeDegrees>
            </Position>
            <AltitudeMeters>364</AltitudeMeters>
            <DistanceMeters>5283.3377752469</DistanceMeters>
          </Trackpoint>
          <Trackpoint>
            <Time>2022-02-06T09:32:26.000Z</Time>
            <Position>
              <LatitudeDegrees>39.13934036158025264739990234375</LatitudeDegrees>
              <LongitudeDegrees>-0.35381086170673370361328125</LongitudeDegrees>
            </Position>
            <AltitudeMeters>364</AltitudeMeters>
            <DistanceMeters>5291.3853654611</DistanceMeters>
          </Trackpoint>
          <Trackpoint>
            <Time>2022-02-06T09:32:37.000Z</Time>
            <Position>
              <LatitudeDegrees>39.13937154226005077362060546875</LatitudeDegrees>
              <LongitudeDegrees>-0.35367046482861042022705078125</LongitudeDegrees>
            </Position>
            <AltitudeMeters>363.20001220703125</AltitudeMeters>
            <DistanceMeters>5303.9920837262</DistanceMeters>
          </Trackpoint>
          <Trackpoint>
            <Time>2022-02-06T09:32:41.000Z</Time>
            <Position>
              <LatitudeDegrees>39.13935930468142032623291015625</LatitudeDegrees>
              <LongitudeDegrees>-0.3536189161241054534912109375</LongitudeDegrees>
            </Position>
            <AltitudeMeters>363.20001220703125</AltitudeMeters>
            <DistanceMeters>5308.64548284</DistanceMeters>
          </Trackpoint>
          <Trackpoint>
            <Time>2022-02-06T09:32:43.000Z</Time>
            <Position>
              <LatitudeDegrees>39.13934757001698017120361328125</LatitudeDegrees>
              <LongitudeDegrees>-0.35360408015549182891845703125</LongitudeDegrees>
            </Position>
            <AltitudeMeters>363.20001220703125</AltitudeMeters>
            <DistanceMeters>5310.4758266221</DistanceMeters>
          </Trackpoint>
          <Trackpoint>
            <Time>2022-02-06T09:32:44.000Z</Time>
            <Position>
              <LatitudeDegrees>39.13933801464736461639404296875</LatitudeDegrees>
              <LongitudeDegrees>-0.3535994701087474822998046875</LongitudeDegrees>
            </Position>
            <AltitudeMeters>363.20001220703125</AltitudeMeters>
            <DistanceMeters>5311.6082006129</DistanceMeters>
          </Trackpoint>
          <Trackpoint>
            <Time>2022-02-06T09:32:45.000Z</Time>
            <Position>
              <LatitudeDegrees>39.13933114148676395416259765625</LatitudeDegrees>
              <LongitudeDegrees>-0.35358480177819728851318359375</LongitudeDegrees>
            </Position>
            <AltitudeMeters>363.399993896484375</AltitudeMeters>
            <DistanceMeters>5313.0864693636</DistanceMeters>
          </Trackpoint>
          <Trackpoint>
            <Time>2022-02-06T09:32:46.000Z</Time>
            <Position>
              <LatitudeDegrees>39.13932393305003643035888671875</LatitudeDegrees>
              <LongitudeDegrees>-0.353571474552154541015625</LongitudeDegrees>
            </Position>
            <AltitudeMeters>363.399993896484375</AltitudeMeters>
            <DistanceMeters>5314.4895219873</DistanceMeters>
          </Trackpoint>
          <Trackpoint>
            <Time>2022-02-06T09:32:48.000Z</Time>
            <Position>
              <LatitudeDegrees>39.1393077559769153594970703125</LatitudeDegrees>
              <LongitudeDegrees>-0.35354859195649623870849609375</LongitudeDegrees>
            </Position>
            <AltitudeMeters>363.20001220703125</AltitudeMeters>
            <DistanceMeters>5317.1604320178</DistanceMeters>
          </Trackpoint>
          <Trackpoint>
            <Time>2022-02-06T09:32:49.000Z</Time>
            <Position>
              <LatitudeDegrees>39.13930079899728298187255859375</LatitudeDegrees>
              <LongitudeDegrees>-0.35353568382561206817626953125</LongitudeDegrees>
            </Position>
            <AltitudeMeters>363.20001220703125</AltitudeMeters>
            <DistanceMeters>5318.5176849767</DistanceMeters>
          </Trackpoint>
          <Trackpoint>
            <Time>2022-02-06T09:32:51.000Z</Time>
            <Position>
              <LatitudeDegrees>39.1392832808196544647216796875</LatitudeDegrees>
              <LongitudeDegrees>-0.3535139746963977813720703125</LongitudeDegrees>
            </Position>
            <AltitudeMeters>363</AltitudeMeters>
            <DistanceMeters>5321.2221926804</DistanceMeters>
          </Trackpoint>
          <Trackpoint>
            <Time>2022-02-06T09:32:52.000Z</Time>
            <Position>
              <LatitudeDegrees>39.13927196525037288665771484375</LatitudeDegrees>
              <LongitudeDegrees>-0.353502072393894195556640625</LongitudeDegrees>
            </Position>
            <AltitudeMeters>363</AltitudeMeters>
            <DistanceMeters>5322.8515614154</DistanceMeters>
          </Trackpoint>
          <Trackpoint>
            <Time>2022-02-06T09:32:53.000Z</Time>
            <Position>
              <LatitudeDegrees>39.1392604820430278778076171875</LatitudeDegrees>
              <LongitudeDegrees>-0.35349109210073947906494140625</LongitudeDegrees>
            </Position>
            <AltitudeMeters>363</AltitudeMeters>
            <DistanceMeters>5324.4416624827</DistanceMeters>
          </Trackpoint>
          <Trackpoint>
            <Time>2022-02-06T09:32:59.000Z</Time>
            <Position>
              <LatitudeDegrees>39.13922720588743686676025390625</LatitudeDegrees>
              <LongitudeDegrees>-0.353464186191558837890625</LongitudeDegrees>
            </Position>
            <AltitudeMeters>363.20001220703125</AltitudeMeters>
            <DistanceMeters>5328.8128913438</DistanceMeters>
          </Trackpoint>
          <Trackpoint>
            <Time>2022-02-06T09:33:07.000Z</Time>
            <Position>
              <LatitudeDegrees>39.13915495388209819793701171875</LatitudeDegrees>
              <LongitudeDegrees>-0.3533681295812129974365234375</LongitudeDegrees>
            </Position>
            <AltitudeMeters>361.600006103515625</AltitudeMeters>
            <DistanceMeters>5340.3640129142</DistanceMeters>
          </Trackpoint>
          <Trackpoint>
            <Time>2022-02-06T09:33:10.000Z</Time>
            <Position>
              <LatitudeDegrees>39.1391364298760890960693359375</LatitudeDegrees>
              <LongitudeDegrees>-0.35333150066435337066650390625</LongitudeDegrees>
            </Position>
            <AltitudeMeters>360.79998779296875</AltitudeMeters>
            <DistanceMeters>5344.1400545858</DistanceMeters>
          </Trackpoint>
          <Trackpoint>
            <Time>2022-02-06T09:33:13.000Z</Time>
            <Position>
              <LatitudeDegrees>39.13911321200430393218994140625</LatitudeDegrees>
              <LongitudeDegrees>-0.35328825004398822784423828125</LongitudeDegrees>
            </Position>
            <AltitudeMeters>359.79998779296875</AltitudeMeters>
            <DistanceMeters>5348.6814964931</DistanceMeters>
          </Trackpoint>
          <Trackpoint>
            <Time>2022-02-06T09:33:14.000Z</Time>
            <Position>
              <LatitudeDegrees>39.13910449482500553131103515625</LatitudeDegrees>
              <LongitudeDegrees>-0.3532776050269603729248046875</LongitudeDegrees>
            </Position>
            <AltitudeMeters>359.600006103515625</AltitudeMeters>
            <DistanceMeters>5350.0186408892</DistanceMeters>
          </Trackpoint>
          <Trackpoint>
            <Time>2022-02-06T09:33:18.000Z</Time>
            <Position>
              <LatitudeDegrees>39.1390784271061420440673828125</LatitudeDegrees>
              <LongitudeDegrees>-0.35324600525200366973876953125</LongitudeDegrees>
            </Position>
            <AltitudeMeters>358.79998779296875</AltitudeMeters>
            <DistanceMeters>5354.0007024451</DistanceMeters>
          </Trackpoint>
          <Trackpoint>
            <Time>2022-02-06T09:33:20.000Z</Time>
            <Position>
              <LatitudeDegrees>39.1390569694340229034423828125</LatitudeDegrees>
              <LongitudeDegrees>-0.3532323427498340606689453125</LongitudeDegrees>
            </Position>
            <AltitudeMeters>358.20001220703125</AltitudeMeters>
            <DistanceMeters>5356.6648420971</DistanceMeters>
          </Trackpoint>
          <Trackpoint>
            <Time>2022-02-06T09:33:26.000Z</Time>
            <Position>
              <LatitudeDegrees>39.1390098631381988525390625</LatitudeDegrees>
              <LongitudeDegrees>-0.35322437994182109832763671875</LongitudeDegrees>
            </Position>
            <AltitudeMeters>357.79998779296875</AltitudeMeters>
            <DistanceMeters>5361.9522910728</DistanceMeters>
          </Trackpoint>
          <Trackpoint>
            <Time>2022-02-06T09:33:34.000Z</Time>
            <Position>
              <LatitudeDegrees>39.13895194418728351593017578125</LatitudeDegrees>
              <LongitudeDegrees>-0.3531964682042598724365234375</LongitudeDegrees>
            </Position>
            <AltitudeMeters>356.79998779296875</AltitudeMeters>
            <DistanceMeters>5368.8350071809</DistanceMeters>
          </Trackpoint>
          <Trackpoint>
            <Time>2022-02-06T09:33:40.000Z</Time>
            <Position>
              <LatitudeDegrees>39.13890701718628406524658203125</LatitudeDegrees>
              <LongitudeDegrees>-0.35317744128406047821044921875</LongitudeDegrees>
            </Position>
            <AltitudeMeters>356.20001220703125</AltitudeMeters>
            <DistanceMeters>5374.0993499325</DistanceMeters>
          </Trackpoint>
          <Trackpoint>
            <Time>2022-02-06T09:33:54.000Z</Time>
            <Position>
              <LatitudeDegrees>39.1388128884136676788330078125</LatitudeDegrees>
              <LongitudeDegrees>-0.3531274013221263885498046875</LongitudeDegrees>
            </Position>
            <AltitudeMeters>354.79998779296875</AltitudeMeters>
            <DistanceMeters>5385.4318583568</DistanceMeters>
          </Trackpoint>
          <Trackpoint>
            <Time>2022-02-06T09:34:01.000Z</Time>
            <Position>
              <LatitudeDegrees>39.13877575658261775970458984375</LatitudeDegrees>
              <LongitudeDegrees>-0.3530888445675373077392578125</LongitudeDegrees>
            </Position>
            <AltitudeMeters>354</AltitudeMeters>
            <DistanceMeters>5390.7380602331</DistanceMeters>
          </Trackpoint>
          <Trackpoint>
            <Time>2022-02-06T09:34:04.000Z</Time>
            <Position>
              <LatitudeDegrees>39.138764105737209320068359375</LatitudeDegrees>
              <LongitudeDegrees>-0.3530885092914104461669921875</LongitudeDegrees>
            </Position>
            <AltitudeMeters>354</AltitudeMeters>
            <DistanceMeters>5392.0305632861</DistanceMeters>
          </Trackpoint>
          <Trackpoint>
            <Time>2022-02-06T09:34:05.000Z</Time>
            <Position>
              <LatitudeDegrees>39.13876133970916271209716796875</LatitudeDegrees>
              <LongitudeDegrees>-0.35309110768139362335205078125</LongitudeDegrees>
            </Position>
            <AltitudeMeters>354.20001220703125</AltitudeMeters>
            <DistanceMeters>5392.4106701436</DistanceMeters>
          </Trackpoint>
          <Trackpoint>
            <Time>2022-02-06T09:34:06.000Z</Time>
            <Position>
              <LatitudeDegrees>39.1387585736811161041259765625</LatitudeDegrees>
              <LongitudeDegrees>-0.353090353310108184814453125</LongitudeDegrees>
            </Position>
            <AltitudeMeters>354.20001220703125</AltitudeMeters>
            <DistanceMeters>5392.7398523383</DistanceMeters>
          </Trackpoint>
          <Trackpoint>
            <Time>2022-02-06T09:34:09.000Z</Time>
            <Position>
              <LatitudeDegrees>39.13874859921634197235107421875</LatitudeDegrees>
              <LongitudeDegrees>-0.353072583675384521484375</LongitudeDegrees>
            </Position>
            <AltitudeMeters>353.79998779296875</AltitudeMeters>
            <DistanceMeters>5394.6308600781</DistanceMeters>
          </Trackpoint>
          <Trackpoint>
            <Time>2022-02-06T09:34:10.000Z</Time>
            <Position>
              <LatitudeDegrees>39.13874424062669277191162109375</LatitudeDegrees>
              <LongitudeDegrees>-0.35307199694216251373291015625</LongitudeDegrees>
            </Position>
            <AltitudeMeters>353.79998779296875</AltitudeMeters>
            <DistanceMeters>5395.115403149</DistanceMeters>
          </Trackpoint>
          <Trackpoint>
            <Time>2022-02-06T09:34:11.000Z</Time>
            <Position>
              <LatitudeDegrees>39.13874491117894649505615234375</LatitudeDegrees>
              <LongitudeDegrees>-0.35308063030242919921875</LongitudeDegrees>
            </Position>
            <AltitudeMeters>354</AltitudeMeters>
            <DistanceMeters>5395.8575855141</DistanceMeters>
          </Trackpoint>
          <Trackpoint>
            <Time>2022-02-06T09:34:12.000Z</Time>
            <Position>
              <LatitudeDegrees>39.13874365389347076416015625</LatitudeDegrees>
              <LongitudeDegrees>-0.3530801273882389068603515625</LongitudeDegrees>
            </Position>
            <AltitudeMeters>354</AltitudeMeters>
            <DistanceMeters>5395.9919735823</DistanceMeters>
          </Trackpoint>
          <Trackpoint>
            <Time>2022-02-06T09:34:13.000Z</Time>
            <Position>
              <LatitudeDegrees>39.13874675519764423370361328125</LatitudeDegrees>
              <LongitudeDegrees>-0.35307987593114376068115234375</LongitudeDegrees>
            </Position>
            <AltitudeMeters>354</AltitudeMeters>
            <DistanceMeters>5396.3211557771</DistanceMeters>
          </Trackpoint>
          <Trackpoint>
            <Time>2022-02-06T09:34:25.000Z</Time>
            <Position>
              <LatitudeDegrees>39.13871121592819690704345703125</LatitudeDegrees>
              <LongitudeDegrees>-0.35308574326336383819580078125</LongitudeDegrees>
            </Position>
            <AltitudeMeters>354.20001220703125</AltitudeMeters>
            <DistanceMeters>5400.3077501308</DistanceMeters>
          </Trackpoint>
          <Trackpoint>
            <Time>2022-02-06T09:34:27.000Z</Time>
            <Position>
              <LatitudeDegrees>39.13870534859597682952880859375</LatitudeDegrees>
              <LongitudeDegrees>-0.35309395752847194671630859375</LongitudeDegrees>
            </Position>
            <AltitudeMeters>354.600006103515625</AltitudeMeters>
            <DistanceMeters>5401.2721659507</DistanceMeters>
          </Trackpoint>
          <Trackpoint>
            <Time>2022-02-06T09:34:28.000Z</Time>
            <Position>
              <LatitudeDegrees>39.13870585151016712188720703125</LatitudeDegrees>
              <LongitudeDegrees>-0.35309563390910625457763671875</LongitudeDegrees>
            </Position>
            <AltitudeMeters>354.600006103515625</AltitudeMeters>
            <DistanceMeters>5401.406554019</DistanceMeters>
          </Trackpoint>
          <Trackpoint>
            <Time>2022-02-06T09:34:31.000Z</Time>
            <Position>
              <LatitudeDegrees>39.13869679905474185943603515625</LatitudeDegrees>
              <LongitudeDegrees>-0.353101082146167755126953125</LongitudeDegrees>
            </Position>
            <AltitudeMeters>354.79998779296875</AltitudeMeters>
            <DistanceMeters>5402.5228651536</DistanceMeters>
          </Trackpoint>
          <Trackpoint>
            <Time>2022-02-06T09:34:32.000Z</Time>
            <Position>
              <LatitudeDegrees>39.13869076408445835113525390625</LatitudeDegrees>
              <LongitudeDegrees>-0.3531019203364849090576171875</LongitudeDegrees>
            </Position>
            <AltitudeMeters>354.79998779296875</AltitudeMeters>
            <DistanceMeters>5403.1948054949</DistanceMeters>
          </Trackpoint>
          <Trackpoint>
            <Time>2022-02-06T09:34:33.000Z</Time>
            <Position>
              <LatitudeDegrees>39.138686992228031158447265625</LatitudeDegrees>
              <LongitudeDegrees>-0.35310250706970691680908203125</LongitudeDegrees>
            </Position>
            <AltitudeMeters>354.79998779296875</AltitudeMeters>
            <DistanceMeters>5403.6197778809</DistanceMeters>
          </Trackpoint>
          <Trackpoint>
            <Time>2022-02-06T09:34:34.000Z</Time>
            <Position>
              <LatitudeDegrees>39.1386801190674304962158203125</LatitudeDegrees>
              <LongitudeDegrees>-0.353101752698421478271484375</LongitudeDegrees>
            </Position>
            <AltitudeMeters>354.79998779296875</AltitudeMeters>
            <DistanceMeters>5404.3917785579</DistanceMeters>
          </Trackpoint>
          <Trackpoint>
            <Time>2022-02-06T09:34:37.000Z</Time>
            <Position>
              <LatitudeDegrees>39.138646423816680908203125</LatitudeDegrees>
              <LongitudeDegrees>-0.353113822638988494873046875</LongitudeDegrees>
            </Position>
            <AltitudeMeters>355.20001220703125</AltitudeMeters>
            <DistanceMeters>5408.2843957074</DistanceMeters>
          </Trackpoint>
          <Trackpoint>
            <Time>2022-02-06T09:34:38.000Z</Time>
            <Position>
              <LatitudeDegrees>39.13863846100866794586181640625</LatitudeDegrees>
              <LongitudeDegrees>-0.3531196899712085723876953125</LongitudeDegrees>
            </Position>
            <AltitudeMeters>355.399993896484375</AltitudeMeters>
            <DistanceMeters>5409.2990033728</DistanceMeters>
          </Trackpoint>
          <Trackpoint>
            <Time>2022-02-06T09:34:41.000Z</Time>
            <Position>
              <LatitudeDegrees>39.1386075317859649658203125</LatitudeDegrees>
              <LongitudeDegrees>-0.353129915893077850341796875</LongitudeDegrees>
            </Position>
            <AltitudeMeters>355.79998779296875</AltitudeMeters>
            <DistanceMeters>5412.852036847</DistanceMeters>
          </Trackpoint>
          <Trackpoint>
            <Time>2022-02-06T09:34:45.000Z</Time>
            <Position>
              <LatitudeDegrees>39.13857542909681797027587890625</LatitudeDegrees>
              <LongitudeDegrees>-0.35314072854816913604736328125</LongitudeDegrees>
            </Position>
            <AltitudeMeters>356</AltitudeMeters>
            <DistanceMeters>5416.5446531864</DistanceMeters>
          </Trackpoint>
          <Trackpoint>
            <Time>2022-02-06T09:34:49.000Z</Time>
            <Position>
              <LatitudeDegrees>39.1385753452777862548828125</LatitudeDegrees>
              <LongitudeDegrees>-0.353164784610271453857421875</LongitudeDegrees>
            </Position>
            <AltitudeMeters>356.79998779296875</AltitudeMeters>
            <DistanceMeters>5418.6222423037</DistanceMeters>
          </Trackpoint>
          <Trackpoint>
            <Time>2022-02-06T09:34:54.000Z</Time>
            <Position>
              <LatitudeDegrees>39.13854106329381465911865234375</LatitudeDegrees>
              <LongitudeDegrees>-0.3531463444232940673828125</LongitudeDegrees>
            </Position>
            <AltitudeMeters>356.20001220703125</AltitudeMeters>
            <DistanceMeters>5422.7567234934</DistanceMeters>
          </Trackpoint>
          <Trackpoint>
            <Time>2022-02-06T09:35:01.000Z</Time>
            <Position>
              <LatitudeDegrees>39.13852144964039325714111328125</LatitudeDegrees>
              <LongitudeDegrees>-0.35310166887938976287841796875</LongitudeDegrees>
            </Position>
            <AltitudeMeters>354.79998779296875</AltitudeMeters>
            <DistanceMeters>5427.1884744189</DistanceMeters>
          </Trackpoint>
          <Trackpoint>
            <Time>2022-02-06T09:35:13.000Z</Time>
            <Position>
              <LatitudeDegrees>39.13850384764373302459716796875</LatitudeDegrees>
              <LongitudeDegrees>-0.35305305384099483489990234375</LongitudeDegrees>
            </Position>
            <AltitudeMeters>353.399993896484375</AltitudeMeters>
            <DistanceMeters>5431.8195036301</DistanceMeters>
          </Trackpoint>
          <Trackpoint>
            <Time>2022-02-06T09:35:49.000Z</Time>
            <Position>
              <LatitudeDegrees>39.13846244104206562042236328125</LatitudeDegrees>
              <LongitudeDegrees>-0.35300997085869312286376953125</LongitudeDegrees>
            </Position>
            <AltitudeMeters>353.79998779296875</AltitudeMeters>
            <DistanceMeters>5437.7424967066</DistanceMeters>
          </Trackpoint>
          <Trackpoint>
            <Time>2022-02-06T09:36:00.000Z</Time>
            <Position>
              <LatitudeDegrees>39.13844265975058078765869140625</LatitudeDegrees>
              <LongitudeDegrees>-0.3529959730803966522216796875</LongitudeDegrees>
            </Position>
            <AltitudeMeters>354.20001220703125</AltitudeMeters>
            <DistanceMeters>5440.25487077</DistanceMeters>
          </Trackpoint>
          <Trackpoint>
            <Time>2022-02-06T09:36:01.000Z</Time>
            <Position>
              <LatitudeDegrees>39.13843997754156589508056640625</LatitudeDegrees>
              <LongitudeDegrees>-0.35298935137689113616943359375</LongitudeDegrees>
            </Position>
            <AltitudeMeters>354.20001220703125</AltitudeMeters>
            <DistanceMeters>5440.892329349</DistanceMeters>
          </Trackpoint>
          <Trackpoint>
            <Time>2022-02-06T09:36:03.000Z</Time>
            <Position>
              <LatitudeDegrees>39.13843830116093158721923828125</LatitudeDegrees>
              <LongitudeDegrees>-0.35297795198857784271240234375</LongitudeDegrees>
            </Position>
            <AltitudeMeters>354</AltitudeMeters>
            <DistanceMeters>5441.8934979089</DistanceMeters>
          </Trackpoint>
          <Trackpoint>
            <Time>2022-02-06T09:36:04.000Z</Time>
            <Position>
              <LatitudeDegrees>39.1384398937225341796875</LatitudeDegrees>
              <LongitudeDegrees>-0.35297334194183349609375</LongitudeDegrees>
            </Position>
            <AltitudeMeters>354</AltitudeMeters>
            <DistanceMeters>5442.3289650205</DistanceMeters>
          </Trackpoint>
          <Trackpoint>
            <Time>2022-02-06T09:36:06.000Z</Time>
            <Position>
              <LatitudeDegrees>39.13843813352286815643310546875</LatitudeDegrees>
              <LongitudeDegrees>-0.35296261310577392578125</LongitudeDegrees>
            </Position>
            <AltitudeMeters>353.79998779296875</AltitudeMeters>
            <DistanceMeters>5443.2696814983</DistanceMeters>
          </Trackpoint>
          <Trackpoint>
            <Time>2022-02-06T09:36:07.000Z</Time>
            <Position>
              <LatitudeDegrees>39.1384331881999969482421875</LatitudeDegrees>
              <LongitudeDegrees>-0.35295817069709300994873046875</LongitudeDegrees>
            </Position>
            <AltitudeMeters>353.79998779296875</AltitudeMeters>
            <DistanceMeters>5443.9416218395</DistanceMeters>
          </Trackpoint>
          <Trackpoint>
            <Time>2022-02-06T09:36:08.000Z</Time>
            <Position>
              <LatitudeDegrees>39.13842857815325260162353515625</LatitudeDegrees>
              <LongitudeDegrees>-0.3529530577361583709716796875</LongitudeDegrees>
            </Position>
            <AltitudeMeters>354</AltitudeMeters>
            <DistanceMeters>5444.620248319</DistanceMeters>
          </Trackpoint>
          <Trackpoint>
            <Time>2022-02-06T09:36:18.000Z</Time>
            <Position>
              <LatitudeDegrees>39.13839722983539104461669921875</LatitudeDegrees>
              <LongitudeDegrees>-0.35291190259158611297607421875</LongitudeDegrees>
            </Position>
            <AltitudeMeters>354.20001220703125</AltitudeMeters>
            <DistanceMeters>5449.5998657657</DistanceMeters>
          </Trackpoint>
          <Trackpoint>
            <Time>2022-02-06T09:36:23.000Z</Time>
            <Position>
              <LatitudeDegrees>39.1383877582848072052001953125</LatitudeDegrees>
              <LongitudeDegrees>-0.3528729267418384552001953125</LongitudeDegrees>
            </Position>
            <AltitudeMeters>353.79998779296875</AltitudeMeters>
            <DistanceMeters>5453.1273925678</DistanceMeters>
          </Trackpoint>
          <Trackpoint>
            <Time>2022-02-06T09:36:24.000Z</Time>
            <Position>
              <LatitudeDegrees>39.13838985376060009002685546875</LatitudeDegrees>
              <LongitudeDegrees>-0.3528672270476818084716796875</LongitudeDegrees>
            </Position>
            <AltitudeMeters>353.600006103515625</AltitudeMeters>
            <DistanceMeters>5453.681488768</DistanceMeters>
          </Trackpoint>
          <Trackpoint>
            <Time>2022-02-06T09:36:25.000Z</Time>
            <Position>
              <LatitudeDegrees>39.13839488290250301361083984375</LatitudeDegrees>
              <LongitudeDegrees>-0.3528561629354953765869140625</LongitudeDegrees>
            </Position>
            <AltitudeMeters>353.20001220703125</AltitudeMeters>
            <DistanceMeters>5454.7896811685</DistanceMeters>
          </Trackpoint>
          <Trackpoint>
            <Time>2022-02-06T09:36:26.000Z</Time>
            <Position>
              <LatitudeDegrees>39.1383983194828033447265625</LatitudeDegrees>
              <LongitudeDegrees>-0.35284199751913547515869140625</LongitudeDegrees>
            </Position>
            <AltitudeMeters>352.79998779296875</AltitudeMeters>
            <DistanceMeters>5456.068134858</DistanceMeters>
          </Trackpoint>
          <Trackpoint>
            <Time>2022-02-06T09:36:27.000Z</Time>
            <Position>
              <LatitudeDegrees>39.138396643102169036865234375</LatitudeDegrees>
              <LongitudeDegrees>-0.35282917320728302001953125</LongitudeDegrees>
            </Position>
            <AltitudeMeters>352.600006103515625</AltitudeMeters>
            <DistanceMeters>5457.1925061055</DistanceMeters>
          </Trackpoint>
          <Trackpoint>
            <Time>2022-02-06T09:36:28.000Z</Time>
            <Position>
              <LatitudeDegrees>39.1383847407996654510498046875</LatitudeDegrees>
              <LongitudeDegrees>-0.3528142534196376800537109375</LongitudeDegrees>
            </Position>
            <AltitudeMeters>352.600006103515625</AltitudeMeters>
            <DistanceMeters>5459.0400365913</DistanceMeters>
          </Trackpoint>
          <Trackpoint>
            <Time>2022-02-06T09:36:36.000Z</Time>
            <Position>
              <LatitudeDegrees>39.1383602656424045562744140625</LatitudeDegrees>
              <LongitudeDegrees>-0.35272247157990932464599609375</LongitudeDegrees>
            </Position>
            <AltitudeMeters>351.600006103515625</AltitudeMeters>
            <DistanceMeters>5467.4196472283</DistanceMeters>
          </Trackpoint>
          <Trackpoint>
            <Time>2022-02-06T09:36:51.000Z</Time>
            <Position>
              <LatitudeDegrees>39.138344340026378631591796875</LatitudeDegrees>
              <LongitudeDegrees>-0.35265843383967876434326171875</LongitudeDegrees>
            </Position>
            <AltitudeMeters>350.399993896484375</AltitudeMeters>
            <DistanceMeters>5473.2263937736</DistanceMeters>
          </Trackpoint>
          <Trackpoint>
            <Time>2022-02-06T09:37:13.000Z</Time>
            <Position>
              <LatitudeDegrees>39.1382717527449131011962890625</LatitudeDegrees>
              <LongitudeDegrees>-0.352501608431339263916015625</LongitudeDegrees>
            </Position>
            <AltitudeMeters>350.20001220703125</AltitudeMeters>
            <DistanceMeters>5488.9925256478</DistanceMeters>
          </Trackpoint>
          <Trackpoint>
            <Time>2022-02-06T09:37:21.000Z</Time>
            <Position>
              <LatitudeDegrees>39.13826010189950466156005859375</LatitudeDegrees>
              <LongitudeDegrees>-0.35240932367742061614990234375</LongitudeDegrees>
            </Position>
            <AltitudeMeters>348.399993896484375</AltitudeMeters>
            <DistanceMeters>5497.0647639755</DistanceMeters>
          </Trackpoint>
          <Trackpoint>
            <Time>2022-02-06T09:37:29.000Z</Time>
            <Position>
              <LatitudeDegrees>39.13823965005576610565185546875</LatitudeDegrees>
              <LongitudeDegrees>-0.3523309528827667236328125</LongitudeDegrees>
            </Position>
            <AltitudeMeters>348.20001220703125</AltitudeMeters>
            <DistanceMeters>5504.2025291227</DistanceMeters>
          </Trackpoint>
          <Trackpoint>
            <Time>2022-02-06T09:37:59.000Z</Time>
            <Position>
              <LatitudeDegrees>39.13814845494925975799560546875</LatitudeDegrees>
              <LongitudeDegrees>-0.35214479081332683563232421875</LongitudeDegrees>
            </Position>
            <AltitudeMeters>352.600006103515625</AltitudeMeters>
            <DistanceMeters>5523.2107225844</DistanceMeters>
          </Trackpoint>
          <Trackpoint>
            <Time>2022-02-06T09:38:00.000Z</Time>
            <Position>
              <LatitudeDegrees>39.13813889957964420318603515625</LatitudeDegrees>
              <LongitudeDegrees>-0.35213959403336048126220703125</LongitudeDegrees>
            </Position>
            <AltitudeMeters>353.20001220703125</AltitudeMeters>
            <DistanceMeters>5524.3628602659</DistanceMeters>
          </Trackpoint>
          <Trackpoint>
            <Time>2022-02-06T09:38:01.000Z</Time>
            <Position>
              <LatitudeDegrees>39.13813437335193157196044921875</LatitudeDegrees>
              <LongitudeDegrees>-0.35213691182434558868408203125</LongitudeDegrees>
            </Position>
            <AltitudeMeters>353.600006103515625</AltitudeMeters>
            <DistanceMeters>5524.9169564661</DistanceMeters>
          </Trackpoint>
          <Trackpoint>
            <Time>2022-02-06T09:38:02.000Z</Time>
            <Position>
              <LatitudeDegrees>39.13813135586678981781005859375</LatitudeDegrees>
              <LongitudeDegrees>-0.3521323017776012420654296875</LongitudeDegrees>
            </Position>
            <AltitudeMeters>353.79998779296875</AltitudeMeters>
            <DistanceMeters>5525.4286909841</DistanceMeters>
          </Trackpoint>
          <Trackpoint>
            <Time>2022-02-06T09:38:03.000Z</Time>
            <Position>
              <LatitudeDegrees>39.13812942802906036376953125</LatitudeDegrees>
              <LongitudeDegrees>-0.35212718881666660308837890625</LongitudeDegrees>
            </Position>
            <AltitudeMeters>353.79998779296875</AltitudeMeters>
            <DistanceMeters>5525.9315250924</DistanceMeters>
          </Trackpoint>
          <Trackpoint>
            <Time>2022-02-06T09:38:05.000Z</Time>
            <Position>
              <LatitudeDegrees>39.13812414743006229400634765625</LatitudeDegrees>
              <LongitudeDegrees>-0.35210975445806980133056640625</LongitudeDegrees>
            </Position>
            <AltitudeMeters>353.79998779296875</AltitudeMeters>
            <DistanceMeters>5527.5497717264</DistanceMeters>
          </Trackpoint>
          <Trackpoint>
            <Time>2022-02-06T09:38:06.000Z</Time>
            <Position>
              <LatitudeDegrees>39.13812548853456974029541015625</LatitudeDegrees>
              <LongitudeDegrees>-0.35209693014621734619140625</LongitudeDegrees>
            </Position>
            <AltitudeMeters>353.399993896484375</AltitudeMeters>
            <DistanceMeters>5528.6701201659</DistanceMeters>
          </Trackpoint>
          <Trackpoint>
            <Time>2022-02-06T09:38:07.000Z</Time>
            <Position>
              <LatitudeDegrees>39.1381212137639522552490234375</LatitudeDegrees>
              <LongitudeDegrees>-0.3520860336720943450927734375</LongitudeDegrees>
            </Position>
            <AltitudeMeters>353.600006103515625</AltitudeMeters>
            <DistanceMeters>5529.7282928734</DistanceMeters>
          </Trackpoint>
          <Trackpoint>
            <Time>2022-02-06T09:38:08.000Z</Time>
            <Position>
              <LatitudeDegrees>39.1381185315549373626708984375</LatitudeDegrees>
              <LongitudeDegrees>-0.352077148854732513427734375</LongitudeDegrees>
            </Position>
            <AltitudeMeters>353.600006103515625</AltitudeMeters>
            <DistanceMeters>5530.5512483603</DistanceMeters>
          </Trackpoint>
          <Trackpoint>
            <Time>2022-02-06T09:38:09.000Z</Time>
            <Position>
              <LatitudeDegrees>39.1381165198981761932373046875</LatitudeDegrees>
              <LongitudeDegrees>-0.35206717438995838165283203125</LongitudeDegrees>
            </Position>
            <AltitudeMeters>353.600006103515625</AltitudeMeters>
            <DistanceMeters>5531.4324898562</DistanceMeters>
          </Trackpoint>
          <Trackpoint>
            <Time>2022-02-06T09:38:10.000Z</Time>
            <Position>
              <LatitudeDegrees>39.13811643607914447784423828125</LatitudeDegrees>
              <LongitudeDegrees>-0.35205937922000885009765625</LongitudeDegrees>
            </Position>
            <AltitudeMeters>353.399993896484375</AltitudeMeters>
            <DistanceMeters>5532.1044301975</DistanceMeters>
          </Trackpoint>
          <Trackpoint>
            <Time>2022-02-06T09:38:16.000Z</Time>
            <Position>
              <LatitudeDegrees>39.1380964033305644989013671875</LatitudeDegrees>
              <LongitudeDegrees>-0.35200816579163074493408203125</LongitudeDegrees>
            </Position>
            <AltitudeMeters>353.600006103515625</AltitudeMeters>
            <DistanceMeters>5537.055860046</DistanceMeters>
          </Trackpoint>
          <Trackpoint>
            <Time>2022-02-06T09:38:20.000Z</Time>
            <Position>
              <LatitudeDegrees>39.13808173500001430511474609375</LatitudeDegrees>
              <LongitudeDegrees>-0.35197145305573940277099609375</LongitudeDegrees>
            </Position>
            <AltitudeMeters>353.399993896484375</AltitudeMeters>
            <DistanceMeters>5540.6190450651</DistanceMeters>
          </Trackpoint>
          <Trackpoint>
            <Time>2022-02-06T09:38:23.000Z</Time>
            <Position>
              <LatitudeDegrees>39.138068743050098419189453125</LatitudeDegrees>
              <LongitudeDegrees>-0.3519500792026519775390625</LongitudeDegrees>
            </Position>
            <AltitudeMeters>353.399993896484375</AltitudeMeters>
            <DistanceMeters>5542.9621811</DistanceMeters>
          </Trackpoint>
          <Trackpoint>
            <Time>2022-02-06T09:38:24.000Z</Time>
            <Position>
              <LatitudeDegrees>39.1380682401359081268310546875</LatitudeDegrees>
              <LongitudeDegrees>-0.351940691471099853515625</LongitudeDegrees>
            </Position>
            <AltitudeMeters>353.20001220703125</AltitudeMeters>
            <DistanceMeters>5543.7796318061</DistanceMeters>
          </Trackpoint>
          <Trackpoint>
            <Time>2022-02-06T09:38:25.000Z</Time>
            <Position>
              <LatitudeDegrees>39.1380603611469268798828125</LatitudeDegrees>
              <LongitudeDegrees>-0.35193826071918010711669921875</LongitudeDegrees>
            </Position>
            <AltitudeMeters>353.600006103515625</AltitudeMeters>
            <DistanceMeters>5544.681134374</DistanceMeters>
          </Trackpoint>
          <Trackpoint>
            <Time>2022-02-06T09:38:26.000Z</Time>
            <Position>
              <LatitudeDegrees>39.138059355318546295166015625</LatitudeDegrees>
              <LongitudeDegrees>-0.3519388474524021148681640625</LongitudeDegrees>
            </Position>
            <AltitudeMeters>353.79998779296875</AltitudeMeters>
            <DistanceMeters>5544.7761610883</DistanceMeters>
          </Trackpoint>
          <Trackpoint>
            <Time>2022-02-06T09:38:28.000Z</Time>
            <Position>
              <LatitudeDegrees>39.13805759511888027191162109375</LatitudeDegrees>
              <LongitudeDegrees>-0.35193976946175098419189453125</LongitudeDegrees>
            </Position>
            <AltitudeMeters>354</AltitudeMeters>
            <DistanceMeters>5544.9886472813</DistanceMeters>
          </Trackpoint>
          <Trackpoint>
            <Time>2022-02-06T09:38:29.000Z</Time>
            <Position>
              <LatitudeDegrees>39.13805776275694370269775390625</LatitudeDegrees>
              <LongitudeDegrees>-0.35193876363337039947509765625</LongitudeDegrees>
            </Position>
            <AltitudeMeters>353.79998779296875</AltitudeMeters>
            <DistanceMeters>5545.1230353496</DistanceMeters>
          </Trackpoint>
          <Trackpoint>
            <Time>2022-02-06T09:38:30.000Z</Time>
            <Position>
              <LatitudeDegrees>39.13805759511888027191162109375</LatitudeDegrees>
              <LongitudeDegrees>-0.35193926654756069183349609375</LongitudeDegrees>
            </Position>
            <AltitudeMeters>354</AltitudeMeters>
            <DistanceMeters>5545.218062064</DistanceMeters>
          </Trackpoint>
          <Trackpoint>
            <Time>2022-02-06T09:38:31.000Z</Time>
            <Position>
              <LatitudeDegrees>39.13805994205176830291748046875</LatitudeDegrees>
              <LongitudeDegrees>-0.35193708725273609161376953125</LongitudeDegrees>
            </Position>
            <AltitudeMeters>353.600006103515625</AltitudeMeters>
            <DistanceMeters>5545.5472442587</DistanceMeters>
          </Trackpoint>
          <Trackpoint>
            <Time>2022-02-06T09:38:32.000Z</Time>
            <Position>
              <LatitudeDegrees>39.13805591873824596405029296875</LatitudeDegrees>
              <LongitudeDegrees>-0.35193909890949726104736328125</LongitudeDegrees>
            </Position>
            <AltitudeMeters>354</AltitudeMeters>
            <DistanceMeters>5546.0317873296</DistanceMeters>
          </Trackpoint>
          <Trackpoint>
            <Time>2022-02-06T09:38:33.000Z</Time>
            <Position>
              <LatitudeDegrees>39.13805323652923107147216796875</LatitudeDegrees>
              <LongitudeDegrees>-0.35193775780498981475830078125</LongitudeDegrees>
            </Position>
            <AltitudeMeters>354.20001220703125</AltitudeMeters>
            <DistanceMeters>5546.3469552862</DistanceMeters>
          </Trackpoint>
          <Trackpoint>
            <Time>2022-02-06T09:38:36.000Z</Time>
            <Position>
              <LatitudeDegrees>39.13804217241704463958740234375</LatitudeDegrees>
              <LongitudeDegrees>-0.351915545761585235595703125</LongitudeDegrees>
            </Position>
            <AltitudeMeters>354.20001220703125</AltitudeMeters>
            <DistanceMeters>5548.6256158479</DistanceMeters>
          </Trackpoint>
          <Trackpoint>
            <Time>2022-02-06T09:38:39.000Z</Time>
            <Position>
              <LatitudeDegrees>39.1380353830754756927490234375</LatitudeDegrees>
              <LongitudeDegrees>-0.35190540365874767303466796875</LongitudeDegrees>
            </Position>
            <AltitudeMeters>354.20001220703125</AltitudeMeters>
            <DistanceMeters>5549.781665723</DistanceMeters>
          </Trackpoint>
          <Trackpoint>
            <Time>2022-02-06T09:38:42.000Z</Time>
            <Position>
              <LatitudeDegrees>39.13801367394626140594482421875</LatitudeDegrees>
              <LongitudeDegrees>-0.35187824629247188568115234375</LongitudeDegrees>
            </Position>
            <AltitudeMeters>355</AltitudeMeters>
            <DistanceMeters>5553.1494210605</DistanceMeters>
          </Trackpoint>
          <Trackpoint>
            <Time>2022-02-06T09:38:45.000Z</Time>
            <Position>
              <LatitudeDegrees>39.1379951499402523040771484375</LatitudeDegrees>
              <LongitudeDegrees>-0.35185930319130420684814453125</LongitudeDegrees>
            </Position>
            <AltitudeMeters>355.600006103515625</AltitudeMeters>
            <DistanceMeters>5555.7811635693</DistanceMeters>
          </Trackpoint>
          <Trackpoint>
            <Time>2022-02-06T09:38:49.000Z</Time>
            <Position>
              <LatitudeDegrees>39.13798333145678043365478515625</LatitudeDegrees>
              <LongitudeDegrees>-0.3518426232039928436279296875</LongitudeDegrees>
            </Position>
            <AltitudeMeters>355.79998779296875</AltitudeMeters>
            <DistanceMeters>5557.7332630184</DistanceMeters>
          </Trackpoint>
          <Trackpoint>
            <Time>2022-02-06T09:38:53.000Z</Time>
            <Position>
              <LatitudeDegrees>39.13799338974058628082275390625</LatitudeDegrees>
              <LongitudeDegrees>-0.35181705839931964874267578125</LongitudeDegrees>
            </Position>
            <AltitudeMeters>354</AltitudeMeters>
            <DistanceMeters>5560.2094338335</DistanceMeters>
          </Trackpoint>
          <Trackpoint>
            <Time>2022-02-06T09:38:57.000Z</Time>
            <Position>
              <LatitudeDegrees>39.13799774833023548126220703125</LatitudeDegrees>
              <LongitudeDegrees>-0.35177716054022312164306640625</LongitudeDegrees>
            </Position>
            <AltitudeMeters>352.20001220703125</AltitudeMeters>
            <DistanceMeters>5563.6879827314</DistanceMeters>
          </Trackpoint>
          <Trackpoint>
            <Time>2022-02-06T09:39:03.000Z</Time>
            <Position>
              <LatitudeDegrees>39.13796673528850078582763671875</LatitudeDegrees>
              <LongitudeDegrees>-0.35173558630049228668212890625</LongitudeDegrees>
            </Position>
            <AltitudeMeters>352.600006103515625</AltitudeMeters>
            <DistanceMeters>5568.6657864401</DistanceMeters>
          </Trackpoint>
          <Trackpoint>
            <Time>2022-02-06T09:39:15.000Z</Time>
            <Position>
              <LatitudeDegrees>39.1378955729305744171142578125</LatitudeDegrees>
              <LongitudeDegrees>-0.3516783379018306732177734375</LongitudeDegrees>
            </Position>
            <AltitudeMeters>358.600006103515625</AltitudeMeters>
            <DistanceMeters>5578.0011636558</DistanceMeters>
          </Trackpoint>
          <Trackpoint>
            <Time>2022-02-06T09:39:27.000Z</Time>
            <Position>
              <LatitudeDegrees>39.13785844109952449798583984375</LatitudeDegrees>
              <LongitudeDegrees>-0.3515559621155261993408203125</LongitudeDegrees>
            </Position>
            <AltitudeMeters>360.20001220703125</AltitudeMeters>
            <DistanceMeters>5589.3456182253</DistanceMeters>
          </Trackpoint>
          <Trackpoint>
            <Time>2022-02-06T09:39:50.000Z</Time>
            <Position>
              <LatitudeDegrees>39.13781586103141307830810546875</LatitudeDegrees>
              <LongitudeDegrees>-0.3514055907726287841796875</LongitudeDegrees>
            </Position>
            <AltitudeMeters>361.399993896484375</AltitudeMeters>
            <DistanceMeters>5603.1653909004</DistanceMeters>
          </Trackpoint>
          <Trackpoint>
            <Time>2022-02-06T09:40:00.000Z</Time>
            <Position>
              <LatitudeDegrees>39.137844108045101165771484375</LatitudeDegrees>
              <LongitudeDegrees>-0.35131984390318393707275390625</LongitudeDegrees>
            </Position>
            <AltitudeMeters>355.79998779296875</AltitudeMeters>
            <DistanceMeters>5611.2073687349</DistanceMeters>
          </Trackpoint>
          <Trackpoint>
            <Time>2022-02-06T09:40:07.000Z</Time>
            <Position>
              <LatitudeDegrees>39.1378328762948513031005859375</LatitudeDegrees>
              <LongitudeDegrees>-0.35124876536428928375244140625</LongitudeDegrees>
            </Position>
            <AltitudeMeters>356.399993896484375</AltitudeMeters>
            <DistanceMeters>5617.4690451814</DistanceMeters>
          </Trackpoint>
          <Trackpoint>
            <Time>2022-02-06T09:40:18.000Z</Time>
            <Position>
              <LatitudeDegrees>39.137807898223400115966796875</LatitudeDegrees>
              <LongitudeDegrees>-0.35112655721604824066162109375</LongitudeDegrees>
            </Position>
            <AltitudeMeters>358</AltitudeMeters>
            <DistanceMeters>5628.3793370053</DistanceMeters>
          </Trackpoint>
          <Trackpoint>
            <Time>2022-02-06T09:40:24.000Z</Time>
            <Position>
              <LatitudeDegrees>39.13779054768383502960205078125</LatitudeDegrees>
              <LongitudeDegrees>-0.351059921085834503173828125</LongitudeDegrees>
            </Position>
            <AltitudeMeters>359.20001220703125</AltitudeMeters>
            <DistanceMeters>5634.4476688798</DistanceMeters>
          </Trackpoint>
          <Trackpoint>
            <Time>2022-02-06T09:40:28.000Z</Time>
            <Position>
              <LatitudeDegrees>39.13777403533458709716796875</LatitudeDegrees>
              <LongitudeDegrees>-0.351032428443431854248046875</LongitudeDegrees>
            </Position>
            <AltitudeMeters>360.79998779296875</AltitudeMeters>
            <DistanceMeters>5637.4496709269</DistanceMeters>
          </Trackpoint>
          <Trackpoint>
            <Time>2022-02-06T09:40:29.000Z</Time>
            <Position>
              <LatitudeDegrees>39.13776573725044727325439453125</LatitudeDegrees>
              <LongitudeDegrees>-0.35102262161672115325927734375</LongitudeDegrees>
            </Position>
            <AltitudeMeters>361.600006103515625</AltitudeMeters>
            <DistanceMeters>5638.6995522112</DistanceMeters>
          </Trackpoint>
          <Trackpoint>
            <Time>2022-02-06T09:40:30.000Z</Time>
            <Position>
              <LatitudeDegrees>39.137760289013385772705078125</LatitudeDegrees>
              <LongitudeDegrees>-0.3510151617228984832763671875</LongitudeDegrees>
            </Position>
            <AltitudeMeters>362.20001220703125</AltitudeMeters>
            <DistanceMeters>5639.5807937072</DistanceMeters>
          </Trackpoint>
          <Trackpoint>
            <Time>2022-02-06T09:40:59.000Z</Time>
            <Position>
              <LatitudeDegrees>39.13764922879636287689208984375</LatitudeDegrees>
              <LongitudeDegrees>-0.3508436679840087890625</LongitudeDegrees>
            </Position>
            <AltitudeMeters>371.600006103515625</AltitudeMeters>
            <DistanceMeters>5658.8677055655</DistanceMeters>
          </Trackpoint>
          <Trackpoint>
            <Time>2022-02-06T09:41:18.000Z</Time>
            <Position>
              <LatitudeDegrees>39.13763665594160556793212890625</LatitudeDegrees>
              <LongitudeDegrees>-0.3507543168962001800537109375</LongitudeDegrees>
            </Position>
            <AltitudeMeters>371.399993896484375</AltitudeMeters>
            <DistanceMeters>5666.7072655199</DistanceMeters>
          </Trackpoint>
          <Trackpoint>
            <Time>2022-02-06T09:41:32.000Z</Time>
            <Position>
              <LatitudeDegrees>39.13765727542340755462646484375</LatitudeDegrees>
              <LongitudeDegrees>-0.3507375530898571014404296875</LongitudeDegrees>
            </Position>
            <AltitudeMeters>369</AltitudeMeters>
            <DistanceMeters>5669.4201076276</DistanceMeters>
          </Trackpoint>
          <Trackpoint>
            <Time>2022-02-06T09:41:38.000Z</Time>
            <Position>
              <LatitudeDegrees>39.1376605443656444549560546875</LatitudeDegrees>
              <LongitudeDegrees>-0.35074803046882152557373046875</LongitudeDegrees>
            </Position>
            <AltitudeMeters>368.79998779296875</AltitudeMeters>
            <DistanceMeters>5670.3984675323</DistanceMeters>
          </Trackpoint>
          <Trackpoint>
            <Time>2022-02-06T09:41:39.000Z</Time>
            <Position>
              <LatitudeDegrees>39.13766247220337390899658203125</LatitudeDegrees>
              <LongitudeDegrees>-0.35074937157332897186279296875</LongitudeDegrees>
            </Position>
            <AltitudeMeters>368.79998779296875</AltitudeMeters>
            <DistanceMeters>5670.6312344945</DistanceMeters>
          </Trackpoint>
          <Trackpoint>
            <Time>2022-02-06T09:41:40.000Z</Time>
            <Position>
              <LatitudeDegrees>39.1376632265746593475341796875</LatitudeDegrees>
              <LongitudeDegrees>-0.35074953921139240264892578125</LongitudeDegrees>
            </Position>
            <AltitudeMeters>368.600006103515625</AltitudeMeters>
            <DistanceMeters>5670.7262612088</DistanceMeters>
          </Trackpoint>
          <Trackpoint>
            <Time>2022-02-06T09:41:42.000Z</Time>
            <Position>
              <LatitudeDegrees>39.1376652382314205169677734375</LatitudeDegrees>
              <LongitudeDegrees>-0.35074618645012378692626953125</LongitudeDegrees>
            </Position>
            <AltitudeMeters>368.399993896484375</AltitudeMeters>
            <DistanceMeters>5671.0818186166</DistanceMeters>
          </Trackpoint>
          <Trackpoint>
            <Time>2022-02-06T09:41:43.000Z</Time>
            <Position>
              <LatitudeDegrees>39.13766540586948394775390625</LatitudeDegrees>
              <LongitudeDegrees>-0.35074719227850437164306640625</LongitudeDegrees>
            </Position>
            <AltitudeMeters>368.399993896484375</AltitudeMeters>
            <DistanceMeters>5671.2162066848</DistanceMeters>
          </Trackpoint>
          <Trackpoint>
            <Time>2022-02-06T09:41:44.000Z</Time>
            <Position>
              <LatitudeDegrees>39.1376652382314205169677734375</LatitudeDegrees>
              <LongitudeDegrees>-0.350746773183345794677734375</LongitudeDegrees>
            </Position>
            <AltitudeMeters>368.399993896484375</AltitudeMeters>
            <DistanceMeters>5671.2162066848</DistanceMeters>
          </Trackpoint>
          <Trackpoint>
            <Time>2022-02-06T09:41:45.000Z</Time>
            <Position>
              <LatitudeDegrees>39.1376665793359279632568359375</LatitudeDegrees>
              <LongitudeDegrees>-0.35074803046882152557373046875</LongitudeDegrees>
            </Position>
            <AltitudeMeters>368.20001220703125</AltitudeMeters>
            <DistanceMeters>5671.4062601136</DistanceMeters>
          </Trackpoint>
          <Trackpoint>
            <Time>2022-02-06T09:41:46.000Z</Time>
            <Position>
              <LatitudeDegrees>39.1376679204404354095458984375</LatitudeDegrees>
              <LongitudeDegrees>-0.3507476113736629486083984375</LongitudeDegrees>
            </Position>
            <AltitudeMeters>368.20001220703125</AltitudeMeters>
            <DistanceMeters>5671.5406481818</DistanceMeters>
          </Trackpoint>
          <Trackpoint>
            <Time>2022-02-06T09:41:47.000Z</Time>
            <Position>
              <LatitudeDegrees>39.137670435011386871337890625</LatitudeDegrees>
              <LongitudeDegrees>-0.35074652172625064849853515625</LongitudeDegrees>
            </Position>
            <AltitudeMeters>367.79998779296875</AltitudeMeters>
            <DistanceMeters>5671.8411490378</DistanceMeters>
          </Trackpoint>
          <Trackpoint>
            <Time>2022-02-06T09:41:48.000Z</Time>
            <Position>
              <LatitudeDegrees>39.137673117220401763916015625</LatitudeDegrees>
              <LongitudeDegrees>-0.35074635408818721771240234375</LongitudeDegrees>
            </Position>
            <AltitudeMeters>367.600006103515625</AltitudeMeters>
            <DistanceMeters>5672.1416498938</DistanceMeters>
          </Trackpoint>
          <Trackpoint>
            <Time>2022-02-06T09:41:49.000Z</Time>
            <Position>
              <LatitudeDegrees>39.1376768052577972412109375</LatitudeDegrees>
              <LongitudeDegrees>-0.35074702464044094085693359375</LongitudeDegrees>
            </Position>
            <AltitudeMeters>367.20001220703125</AltitudeMeters>
            <DistanceMeters>5672.5558617386</DistanceMeters>
          </Trackpoint>
          <Trackpoint>
            <Time>2022-02-06T09:41:50.000Z</Time>
            <Position>
              <LatitudeDegrees>39.13767823018133640289306640625</LatitudeDegrees>
              <LongitudeDegrees>-0.35074509680271148681640625</LongitudeDegrees>
            </Position>
            <AltitudeMeters>367</AltitudeMeters>
            <DistanceMeters>5672.7886287008</DistanceMeters>
          </Trackpoint>
          <Trackpoint>
            <Time>2022-02-06T09:42:02.000Z</Time>
            <Position>
              <LatitudeDegrees>39.13766113109886646270751953125</LatitudeDegrees>
              <LongitudeDegrees>-0.3507305122911930084228515625</LongitudeDegrees>
            </Position>
            <AltitudeMeters>368.600006103515625</AltitudeMeters>
            <DistanceMeters>5675.0712487104</DistanceMeters>
          </Trackpoint>
          <Trackpoint>
            <Time>2022-02-06T09:42:03.000Z</Time>
            <Position>
              <LatitudeDegrees>39.13766196928918361663818359375</LatitudeDegrees>
              <LongitudeDegrees>-0.3507318533957004547119140625</LongitudeDegrees>
            </Position>
            <AltitudeMeters>368.399993896484375</AltitudeMeters>
            <DistanceMeters>5675.2056367786</DistanceMeters>
          </Trackpoint>
          <Trackpoint>
            <Time>2022-02-06T09:42:04.000Z</Time>
            <Position>
              <LatitudeDegrees>39.13766079582273960113525390625</LatitudeDegrees>
              <LongitudeDegrees>-0.350734703242778778076171875</LongitudeDegrees>
            </Position>
            <AltitudeMeters>368.600006103515625</AltitudeMeters>
            <DistanceMeters>5675.4744129151</DistanceMeters>
          </Trackpoint>
          <Trackpoint>
            <Time>2022-02-06T09:42:06.000Z</Time>
            <Position>
              <LatitudeDegrees>39.13765911944210529327392578125</LatitudeDegrees>
              <LongitudeDegrees>-0.3507368825376033782958984375</LongitudeDegrees>
            </Position>
            <AltitudeMeters>368.79998779296875</AltitudeMeters>
            <DistanceMeters>5675.7431890516</DistanceMeters>
          </Trackpoint>
          <Trackpoint>
            <Time>2022-02-06T09:42:07.000Z</Time>
            <Position>
              <LatitudeDegrees>39.13765928708016872406005859375</LatitudeDegrees>
              <LongitudeDegrees>-0.35073260776698589324951171875</LongitudeDegrees>
            </Position>
            <AltitudeMeters>368.79998779296875</AltitudeMeters>
            <DistanceMeters>5676.1232959091</DistanceMeters>
          </Trackpoint>
          <Trackpoint>
            <Time>2022-02-06T09:42:09.000Z</Time>
            <Position>
              <LatitudeDegrees>39.13766113109886646270751953125</LatitudeDegrees>
              <LongitudeDegrees>-0.3507298417389392852783203125</LongitudeDegrees>
            </Position>
            <AltitudeMeters>368.399993896484375</AltitudeMeters>
            <DistanceMeters>5676.4237967651</DistanceMeters>
          </Trackpoint>
          <Trackpoint>
            <Time>2022-02-06T09:42:17.000Z</Time>
            <Position>
              <LatitudeDegrees>39.137657694518566131591796875</LatitudeDegrees>
              <LongitudeDegrees>-0.35071752034127712249755859375</LongitudeDegrees>
            </Position>
            <AltitudeMeters>368.600006103515625</AltitudeMeters>
            <DistanceMeters>5677.5521764789</DistanceMeters>
          </Trackpoint>
          <Trackpoint>
            <Time>2022-02-06T09:42:26.000Z</Time>
            <Position>
              <LatitudeDegrees>39.13763682357966899871826171875</LatitudeDegrees>
              <LongitudeDegrees>-0.35072774626314640045166015625</LongitudeDegrees>
            </Position>
            <AltitudeMeters>371</AltitudeMeters>
            <DistanceMeters>5680.0374475482</DistanceMeters>
          </Trackpoint>
          <Trackpoint>
            <Time>2022-02-06T09:42:27.000Z</Time>
            <Position>
              <LatitudeDegrees>39.1376370750367641448974609375</LatitudeDegrees>
              <LongitudeDegrees>-0.35072858445346355438232421875</LongitudeDegrees>
            </Position>
            <AltitudeMeters>371</AltitudeMeters>
            <DistanceMeters>5680.1718356164</DistanceMeters>
          </Trackpoint>
          <Trackpoint>
            <Time>2022-02-06T09:42:28.000Z</Time>
            <Position>
              <LatitudeDegrees>39.1376343928277492523193359375</LatitudeDegrees>
              <LongitudeDegrees>-0.3507296741008758544921875</LongitudeDegrees>
            </Position>
            <AltitudeMeters>371.20001220703125</AltitudeMeters>
            <DistanceMeters>5680.5010178111</DistanceMeters>
          </Trackpoint>
          <Trackpoint>
            <Time>2022-02-06T09:42:49.000Z</Time>
            <Position>
              <LatitudeDegrees>39.1376028768718242645263671875</LatitudeDegrees>
              <LongitudeDegrees>-0.350642167031764984130859375</LongitudeDegrees>
            </Position>
            <AltitudeMeters>372.79998779296875</AltitudeMeters>
            <DistanceMeters>5688.8303681651</DistanceMeters>
          </Trackpoint>
          <Trackpoint>
            <Time>2022-02-06T09:42:50.000Z</Time>
            <Position>
              <LatitudeDegrees>39.1375981830060482025146484375</LatitudeDegrees>
              <LongitudeDegrees>-0.35063303075730800628662109375</LongitudeDegrees>
            </Position>
            <AltitudeMeters>373</AltitudeMeters>
            <DistanceMeters>5689.7806353088</DistanceMeters>
          </Trackpoint>
          <Trackpoint>
            <Time>2022-02-06T09:42:53.000Z</Time>
            <Position>
              <LatitudeDegrees>39.13759390823543071746826171875</LatitudeDegrees>
              <LongitudeDegrees>-0.35060805268585681915283203125</LongitudeDegrees>
            </Position>
            <AltitudeMeters>373</AltitudeMeters>
            <DistanceMeters>5691.988856602</DistanceMeters>
          </Trackpoint>
          <Trackpoint>
            <Time>2022-02-06T09:42:55.000Z</Time>
            <Position>
              <LatitudeDegrees>39.13759742863476276397705078125</LatitudeDegrees>
              <LongitudeDegrees>-0.3505860082805156707763671875</LongitudeDegrees>
            </Position>
            <AltitudeMeters>372.20001220703125</AltitudeMeters>
            <DistanceMeters>5693.9316823671</DistanceMeters>
          </Trackpoint>
          <Trackpoint>
            <Time>2022-02-06T09:42:58.000Z</Time>
            <Position>
              <LatitudeDegrees>39.1375938244163990020751953125</LatitudeDegrees>
              <LongitudeDegrees>-0.35055063664913177490234375</LongitudeDegrees>
            </Position>
            <AltitudeMeters>370.79998779296875</AltitudeMeters>
            <DistanceMeters>5697.0108998434</DistanceMeters>
          </Trackpoint>
          <Trackpoint>
            <Time>2022-02-06T09:43:09.000Z</Time>
            <Position>
              <LatitudeDegrees>39.1375767253339290618896484375</LatitudeDegrees>
              <LongitudeDegrees>-0.35045181401073932647705078125</LongitudeDegrees>
            </Position>
            <AltitudeMeters>369.20001220703125</AltitudeMeters>
            <DistanceMeters>5705.7518080795</DistanceMeters>
          </Trackpoint>
          <Trackpoint>
            <Time>2022-02-06T09:43:12.000Z</Time>
            <Position>
              <LatitudeDegrees>39.13757429458200931549072265625</LatitudeDegrees>
              <LongitudeDegrees>-0.35041929222643375396728515625</LongitudeDegrees>
            </Position>
            <AltitudeMeters>368.79998779296875</AltitudeMeters>
            <DistanceMeters>5708.5739575127</DistanceMeters>
          </Trackpoint>
          <Trackpoint>
            <Time>2022-02-06T09:43:15.000Z</Time>
            <Position>
              <LatitudeDegrees>39.13756490685045719146728515625</LatitudeDegrees>
              <LongitudeDegrees>-0.35038677044212818145751953125</LongitudeDegrees>
            </Position>
            <AltitudeMeters>368.79998779296875</AltitudeMeters>
            <DistanceMeters>5711.5714441368</DistanceMeters>
          </Trackpoint>
          <Trackpoint>
            <Time>2022-02-06T09:43:20.000Z</Time>
            <Position>
              <LatitudeDegrees>39.1375552676618099212646484375</LatitudeDegrees>
              <LongitudeDegrees>-0.3503328748047351837158203125</LongitudeDegrees>
            </Position>
            <AltitudeMeters>367.79998779296875</AltitudeMeters>
            <DistanceMeters>5716.3474228949</DistanceMeters>
          </Trackpoint>
          <Trackpoint>
            <Time>2022-02-06T09:43:24.000Z</Time>
            <Position>
              <LatitudeDegrees>39.1375592909753322601318359375</LatitudeDegrees>
              <LongitudeDegrees>-0.35028685815632343292236328125</LongitudeDegrees>
            </Position>
            <AltitudeMeters>365.79998779296875</AltitudeMeters>
            <DistanceMeters>5720.3453267589</DistanceMeters>
          </Trackpoint>
          <Trackpoint>
            <Time>2022-02-06T09:43:27.000Z</Time>
            <Position>
              <LatitudeDegrees>39.1375549323856830596923828125</LatitudeDegrees>
              <LongitudeDegrees>-0.3502628020942211151123046875</LongitudeDegrees>
            </Position>
            <AltitudeMeters>365</AltitudeMeters>
            <DistanceMeters>5722.4786712055</DistanceMeters>
          </Trackpoint>
          <Trackpoint>
            <Time>2022-02-06T09:43:32.000Z</Time>
            <Position>
              <LatitudeDegrees>39.13753791712224483489990234375</LatitudeDegrees>
              <LongitudeDegrees>-0.3502088226377964019775390625</LongitudeDegrees>
            </Position>
            <AltitudeMeters>364.600006103515625</AltitudeMeters>
            <DistanceMeters>5727.5088078036</DistanceMeters>
          </Trackpoint>
          <Trackpoint>
            <Time>2022-02-06T09:43:36.000Z</Time>
            <Position>
              <LatitudeDegrees>39.1375266015529632568359375</LatitudeDegrees>
              <LongitudeDegrees>-0.35017621703445911407470703125</LongitudeDegrees>
            </Position>
            <AltitudeMeters>364.600006103515625</AltitudeMeters>
            <DistanceMeters>5730.5909564728</DistanceMeters>
          </Trackpoint>
          <Trackpoint>
            <Time>2022-02-06T09:43:42.000Z</Time>
            <Position>
              <LatitudeDegrees>39.13752333261072635650634765625</LatitudeDegrees>
              <LongitudeDegrees>-0.3501122631132602691650390625</LongitudeDegrees>
            </Position>
            <AltitudeMeters>363.600006103515625</AltitudeMeters>
            <DistanceMeters>5736.1237640011</DistanceMeters>
          </Trackpoint>
          <Trackpoint>
            <Time>2022-02-06T09:43:57.000Z</Time>
            <Position>
              <LatitudeDegrees>39.13749734871089458465576171875</LatitudeDegrees>
              <LongitudeDegrees>-0.3499384224414825439453125</LongitudeDegrees>
            </Position>
            <AltitudeMeters>359</AltitudeMeters>
            <DistanceMeters>5751.4071205492</DistanceMeters>
          </Trackpoint>
          <Trackpoint>
            <Time>2022-02-06T09:44:02.000Z</Time>
            <Position>
              <LatitudeDegrees>39.137484692037105560302734375</LatitudeDegrees>
              <LongitudeDegrees>-0.34988410770893096923828125</LongitudeDegrees>
            </Position>
            <AltitudeMeters>357.399993896484375</AltitudeMeters>
            <DistanceMeters>5756.3026106046</DistanceMeters>
          </Trackpoint>
          <Trackpoint>
            <Time>2022-02-06T09:44:16.000Z</Time>
            <Position>
              <LatitudeDegrees>39.13739592768251895904541015625</LatitudeDegrees>
              <LongitudeDegrees>-0.34979291260242462158203125</LongitudeDegrees>
            </Position>
            <AltitudeMeters>358.600006103515625</AltitudeMeters>
            <DistanceMeters>5768.9354464301</DistanceMeters>
          </Trackpoint>
          <Trackpoint>
            <Time>2022-02-06T09:44:20.000Z</Time>
            <Position>
              <LatitudeDegrees>39.13739508949220180511474609375</LatitudeDegrees>
              <LongitudeDegrees>-0.34979182295501232147216796875</LongitudeDegrees>
            </Position>
            <AltitudeMeters>358.600006103515625</AltitudeMeters>
            <DistanceMeters>5769.0698344983</DistanceMeters>
          </Trackpoint>
          <Trackpoint>
            <Time>2022-02-06T09:44:21.000Z</Time>
            <Position>
              <LatitudeDegrees>39.1373946703970432281494140625</LatitudeDegrees>
              <LongitudeDegrees>-0.34979316405951976776123046875</LongitudeDegrees>
            </Position>
            <AltitudeMeters>358.600006103515625</AltitudeMeters>
            <DistanceMeters>5769.2042225666</DistanceMeters>
          </Trackpoint>
          <Trackpoint>
            <Time>2022-02-06T09:44:23.000Z</Time>
            <Position>
              <LatitudeDegrees>39.13739291019737720489501953125</LatitudeDegrees>
              <LongitudeDegrees>-0.34979115240275859832763671875</LongitudeDegrees>
            </Position>
            <AltitudeMeters>358.600006103515625</AltitudeMeters>
            <DistanceMeters>5769.4893027097</DistanceMeters>
          </Trackpoint>
          <Trackpoint>
            <Time>2022-02-06T09:44:24.000Z</Time>
            <Position>
              <LatitudeDegrees>39.1373939998447895050048828125</LatitudeDegrees>
              <LongitudeDegrees>-0.34979165531694889068603515625</LongitudeDegrees>
            </Position>
            <AltitudeMeters>358.600006103515625</AltitudeMeters>
            <DistanceMeters>5769.6236907779</DistanceMeters>
          </Trackpoint>
          <Trackpoint>
            <Time>2022-02-06T09:44:25.000Z</Time>
            <Position>
              <LatitudeDegrees>39.1373983584344387054443359375</LatitudeDegrees>
              <LongitudeDegrees>-0.34979014657437801361083984375</LongitudeDegrees>
            </Position>
            <AltitudeMeters>358.600006103515625</AltitudeMeters>
            <DistanceMeters>5770.1265248862</DistanceMeters>
          </Trackpoint>
          <Trackpoint>
            <Time>2022-02-06T09:44:26.000Z</Time>
            <Position>
              <LatitudeDegrees>39.1373978555202484130859375</LatitudeDegrees>
              <LongitudeDegrees>-0.34979115240275859832763671875</LongitudeDegrees>
            </Position>
            <AltitudeMeters>358.600006103515625</AltitudeMeters>
            <DistanceMeters>5770.2609129544</DistanceMeters>
          </Trackpoint>
          <Trackpoint>
            <Time>2022-02-06T09:44:27.000Z</Time>
            <Position>
              <LatitudeDegrees>39.13739425130188465118408203125</LatitudeDegrees>
              <LongitudeDegrees>-0.3497917391359806060791015625</LongitudeDegrees>
            </Position>
            <AltitudeMeters>358.600006103515625</AltitudeMeters>
            <DistanceMeters>5770.6640771592</DistanceMeters>
          </Trackpoint>
          <Trackpoint>
            <Time>2022-02-06T09:44:28.000Z</Time>
            <Position>
              <LatitudeDegrees>39.1373883001506328582763671875</LatitudeDegrees>
              <LongitudeDegrees>-0.3497934155166149139404296875</LongitudeDegrees>
            </Position>
            <AltitudeMeters>358.600006103515625</AltitudeMeters>
            <DistanceMeters>5771.3427036387</DistanceMeters>
          </Trackpoint>
          <Trackpoint>
            <Time>2022-02-06T09:44:29.000Z</Time>
            <Position>
              <LatitudeDegrees>39.13738268427550792694091796875</LatitudeDegrees>
              <LongitudeDegrees>-0.3497960977256298065185546875</LongitudeDegrees>
            </Position>
            <AltitudeMeters>358.600006103515625</AltitudeMeters>
            <DistanceMeters>5772.0010680281</DistanceMeters>
          </Trackpoint>
          <Trackpoint>
            <Time>2022-02-06T09:44:30.000Z</Time>
            <Position>
              <LatitudeDegrees>39.13737765513360500335693359375</LatitudeDegrees>
              <LongitudeDegrees>-0.34979836083948612213134765625</LongitudeDegrees>
            </Position>
            <AltitudeMeters>358.79998779296875</AltitudeMeters>
            <DistanceMeters>5772.5868520368</DistanceMeters>
          </Trackpoint>
          <Trackpoint>
            <Time>2022-02-06T09:44:35.000Z</Time>
            <Position>
              <LatitudeDegrees>39.1373547725379467010498046875</LatitudeDegrees>
              <LongitudeDegrees>-0.3498021326959133148193359375</LongitudeDegrees>
            </Position>
            <AltitudeMeters>358.79998779296875</AltitudeMeters>
            <DistanceMeters>5775.1543324757</DistanceMeters>
          </Trackpoint>
          <Trackpoint>
            <Time>2022-02-06T09:44:39.000Z</Time>
            <Position>
              <LatitudeDegrees>39.1373356617987155914306640625</LatitudeDegrees>
              <LongitudeDegrees>-0.34981428645551204681396484375</LongitudeDegrees>
            </Position>
            <AltitudeMeters>359.20001220703125</AltitudeMeters>
            <DistanceMeters>5777.5261962207</DistanceMeters>
          </Trackpoint>
          <Trackpoint>
            <Time>2022-02-06T09:44:40.000Z</Time>
            <Position>
              <LatitudeDegrees>39.13733155466616153717041015625</LatitudeDegrees>
              <LongitudeDegrees>-0.34981797449290752410888671875</LongitudeDegrees>
            </Position>
            <AltitudeMeters>359.20001220703125</AltitudeMeters>
            <DistanceMeters>5778.0802924209</DistanceMeters>
          </Trackpoint>
          <Trackpoint>
            <Time>2022-02-06T09:44:41.000Z</Time>
            <Position>
              <LatitudeDegrees>39.13732920773327350616455078125</LatitudeDegrees>
              <LongitudeDegrees>-0.349822081625461578369140625</LongitudeDegrees>
            </Position>
            <AltitudeMeters>359.399993896484375</AltitudeMeters>
            <DistanceMeters>5778.5052648069</DistanceMeters>
          </Trackpoint>
          <Trackpoint>
            <Time>2022-02-06T09:44:42.000Z</Time>
            <Position>
              <LatitudeDegrees>39.13732283748686313629150390625</LatitudeDegrees>
              <LongitudeDegrees>-0.34982719458639621734619140625</LongitudeDegrees>
            </Position>
            <AltitudeMeters>359.399993896484375</AltitudeMeters>
            <DistanceMeters>5779.3445180241</DistanceMeters>
          </Trackpoint>
          <Trackpoint>
            <Time>2022-02-06T09:44:43.000Z</Time>
            <Position>
              <LatitudeDegrees>39.13731764070689678192138671875</LatitudeDegrees>
              <LongitudeDegrees>-0.34983180463314056396484375</LongitudeDegrees>
            </Position>
            <AltitudeMeters>359.600006103515625</AltitudeMeters>
            <DistanceMeters>5780.0492549995</DistanceMeters>
          </Trackpoint>
          <Trackpoint>
            <Time>2022-02-06T09:44:44.000Z</Time>
            <Position>
              <LatitudeDegrees>39.1373115219175815582275390625</LatitudeDegrees>
              <LongitudeDegrees>-0.34983716905117034912109375</LongitudeDegrees>
            </Position>
            <AltitudeMeters>359.79998779296875</AltitudeMeters>
            <DistanceMeters>5780.8776786892</DistanceMeters>
          </Trackpoint>
          <Trackpoint>
            <Time>2022-02-06T09:44:55.000Z</Time>
            <Position>
              <LatitudeDegrees>39.13726181723177433013916015625</LatitudeDegrees>
              <LongitudeDegrees>-0.34990028478205204010009765625</LongitudeDegrees>
            </Position>
            <AltitudeMeters>361.600006103515625</AltitudeMeters>
            <DistanceMeters>5788.6431696906</DistanceMeters>
          </Trackpoint>
          <Trackpoint>
            <Time>2022-02-06T09:44:56.000Z</Time>
            <Position>
              <LatitudeDegrees>39.1372595541179180145263671875</LatitudeDegrees>
              <LongitudeDegrees>-0.349905900657176971435546875</LongitudeDegrees>
            </Position>
            <AltitudeMeters>361.79998779296875</AltitudeMeters>
            <DistanceMeters>5789.1807219636</DistanceMeters>
          </Trackpoint>
          <Trackpoint>
            <Time>2022-02-06T09:44:57.000Z</Time>
            <Position>
              <LatitudeDegrees>39.1372558660805225372314453125</LatitudeDegrees>
              <LongitudeDegrees>-0.349911265075206756591796875</LongitudeDegrees>
            </Position>
            <AltitudeMeters>362</AltitudeMeters>
            <DistanceMeters>5789.7965654589</DistanceMeters>
          </Trackpoint>
          <Trackpoint>
            <Time>2022-02-06T09:44:58.000Z</Time>
            <Position>
              <LatitudeDegrees>39.13725209422409534454345703125</LatitudeDegrees>
              <LongitudeDegrees>-0.34991470165550708770751953125</LongitudeDegrees>
            </Position>
            <AltitudeMeters>362</AltitudeMeters>
            <DistanceMeters>5790.3170482091</DistanceMeters>
          </Trackpoint>
          <Trackpoint>
            <Time>2022-02-06T09:45:05.000Z</Time>
            <Position>
              <LatitudeDegrees>39.137209095060825347900390625</LatitudeDegrees>
              <LongitudeDegrees>-0.34994982182979583740234375</LongitudeDegrees>
            </Position>
            <AltitudeMeters>363</AltitudeMeters>
            <DistanceMeters>5795.9829039925</DistanceMeters>
          </Trackpoint>
          <Trackpoint>
            <Time>2022-02-06T09:45:07.000Z</Time>
            <Position>
              <LatitudeDegrees>39.13718922995030879974365234375</LatitudeDegrees>
              <LongitudeDegrees>-0.34995250403881072998046875</LongitudeDegrees>
            </Position>
            <AltitudeMeters>363</AltitudeMeters>
            <DistanceMeters>5798.2074223429</DistanceMeters>
          </Trackpoint>
          <Trackpoint>
            <Time>2022-02-06T09:45:11.000Z</Time>
            <Position>
              <LatitudeDegrees>39.13714773952960968017578125</LatitudeDegrees>
              <LongitudeDegrees>-0.34993817098438739776611328125</LongitudeDegrees>
            </Position>
            <AltitudeMeters>362.399993896484375</AltitudeMeters>
            <DistanceMeters>5802.9890699205</DistanceMeters>
          </Trackpoint>
          <Trackpoint>
            <Time>2022-02-06T09:45:13.000Z</Time>
            <Position>
              <LatitudeDegrees>39.13712720386683940887451171875</LatitudeDegrees>
              <LongitudeDegrees>-0.3499402664601802825927734375</LongitudeDegrees>
            </Position>
            <AltitudeMeters>362.79998779296875</AltitudeMeters>
            <DistanceMeters>5805.2835272783</DistanceMeters>
          </Trackpoint>
          <Trackpoint>
            <Time>2022-02-06T09:45:16.000Z</Time>
            <Position>
              <LatitudeDegrees>39.13709820248186588287353515625</LatitudeDegrees>
              <LongitudeDegrees>-0.3499248437583446502685546875</LongitudeDegrees>
            </Position>
            <AltitudeMeters>363.600006103515625</AltitudeMeters>
            <DistanceMeters>5808.7750317104</DistanceMeters>
          </Trackpoint>
          <Trackpoint>
            <Time>2022-02-06T09:45:30.000Z</Time>
            <Position>
              <LatitudeDegrees>39.13702310062944889068603515625</LatitudeDegrees>
              <LongitudeDegrees>-0.34997253678739070892333984375</LongitudeDegrees>
            </Position>
            <AltitudeMeters>366.600006103515625</AltitudeMeters>
            <DistanceMeters>5818.0934658646</DistanceMeters>
          </Trackpoint>
          <Trackpoint>
            <Time>2022-02-06T09:45:33.000Z</Time>
            <Position>
              <LatitudeDegrees>39.13701371289789676666259765625</LatitudeDegrees>
              <LongitudeDegrees>-0.34998544491827487945556640625</LongitudeDegrees>
            </Position>
            <AltitudeMeters>367.399993896484375</AltitudeMeters>
            <DistanceMeters>5819.625725593</DistanceMeters>
          </Trackpoint>
          <Trackpoint>
            <Time>2022-02-06T09:45:36.000Z</Time>
            <Position>
              <LatitudeDegrees>39.13698454387485980987548828125</LatitudeDegrees>
              <LongitudeDegrees>-0.3499939106404781341552734375</LongitudeDegrees>
            </Position>
            <AltitudeMeters>368.79998779296875</AltitudeMeters>
            <DistanceMeters>5822.9530178435</DistanceMeters>
          </Trackpoint>
          <Trackpoint>
            <Time>2022-02-06T09:45:39.000Z</Time>
            <Position>
              <LatitudeDegrees>39.1369524411857128143310546875</LatitudeDegrees>
              <LongitudeDegrees>-0.35000438801944255828857421875</LongitudeDegrees>
            </Position>
            <AltitudeMeters>370.20001220703125</AltitudeMeters>
            <DistanceMeters>5826.6407400571</DistanceMeters>
          </Trackpoint>
          <Trackpoint>
            <Time>2022-02-06T09:45:42.000Z</Time>
            <Position>
              <LatitudeDegrees>39.13692352361977100372314453125</LatitudeDegrees>
              <LongitudeDegrees>-0.34999919123947620391845703125</LongitudeDegrees>
            </Position>
            <AltitudeMeters>370.79998779296875</AltitudeMeters>
            <DistanceMeters>5829.8911537907</DistanceMeters>
          </Trackpoint>
          <Trackpoint>
            <Time>2022-02-06T09:45:45.000Z</Time>
            <Position>
              <LatitudeDegrees>39.13688865490257740020751953125</LatitudeDegrees>
              <LongitudeDegrees>-0.35000078380107879638671875</LongitudeDegrees>
            </Position>
            <AltitudeMeters>372</AltitudeMeters>
            <DistanceMeters>5833.7744806713</DistanceMeters>
          </Trackpoint>
          <Trackpoint>
            <Time>2022-02-06T09:45:48.000Z</Time>
            <Position>
              <LatitudeDegrees>39.13685244508087635040283203125</LatitudeDegrees>
              <LongitudeDegrees>-0.34999969415366649627685546875</LongitudeDegrees>
            </Position>
            <AltitudeMeters>373.20001220703125</AltitudeMeters>
            <DistanceMeters>5837.8061227188</DistanceMeters>
          </Trackpoint>
          <Trackpoint>
            <Time>2022-02-06T09:45:58.000Z</Time>
            <Position>
              <LatitudeDegrees>39.1367192566394805908203125</LatitudeDegrees>
              <LongitudeDegrees>-0.3499660827219486236572265625</LongitudeDegrees>
            </Position>
            <AltitudeMeters>377.399993896484375</AltitudeMeters>
            <DistanceMeters>5852.9114850642</DistanceMeters>
          </Trackpoint>
          <Trackpoint>
            <Time>2022-02-06T09:46:00.000Z</Time>
            <Position>
              <LatitudeDegrees>39.1366993077099323272705078125</LatitudeDegrees>
              <LongitudeDegrees>-0.34995929338037967681884765625</LongitudeDegrees>
            </Position>
            <AltitudeMeters>377.79998779296875</AltitudeMeters>
            <DistanceMeters>5855.2079093811</DistanceMeters>
          </Trackpoint>
          <Trackpoint>
            <Time>2022-02-06T09:46:04.000Z</Time>
            <Position>
              <LatitudeDegrees>39.1366587392985820770263671875</LatitudeDegrees>
              <LongitudeDegrees>-0.34995677880942821502685546875</LongitudeDegrees>
            </Position>
            <AltitudeMeters>379.20001220703125</AltitudeMeters>
            <DistanceMeters>5859.7274262708</DistanceMeters>
          </Trackpoint>
          <Trackpoint>
            <Time>2022-02-06T09:46:05.000Z</Time>
            <Position>
              <LatitudeDegrees>39.136645831167697906494140625</LatitudeDegrees>
              <LongitudeDegrees>-0.34995711408555507659912109375</LongitudeDegrees>
            </Position>
            <AltitudeMeters>379.79998779296875</AltitudeMeters>
            <DistanceMeters>5861.1622981916</DistanceMeters>
          </Trackpoint>
          <Trackpoint>
            <Time>2022-02-06T09:46:06.000Z</Time>
            <Position>
              <LatitudeDegrees>39.13663166575133800506591796875</LatitudeDegrees>
              <LongitudeDegrees>-0.349953509867191314697265625</LongitudeDegrees>
            </Position>
            <AltitudeMeters>380.20001220703125</AltitudeMeters>
            <DistanceMeters>5862.7693457525</DistanceMeters>
          </Trackpoint>
          <Trackpoint>
            <Time>2022-02-06T09:46:09.000Z</Time>
            <Position>
              <LatitudeDegrees>39.13659864105284214019775390625</LatitudeDegrees>
              <LongitudeDegrees>-0.3499526716768741607666015625</LongitudeDegrees>
            </Position>
            <AltitudeMeters>381.399993896484375</AltitudeMeters>
            <DistanceMeters>5866.4448041403</DistanceMeters>
          </Trackpoint>
          <Trackpoint>
            <Time>2022-02-06T09:46:10.000Z</Time>
            <Position>
              <LatitudeDegrees>39.13658640347421169281005859375</LatitudeDegrees>
              <LongitudeDegrees>-0.3499545156955718994140625</LongitudeDegrees>
            </Position>
            <AltitudeMeters>382</AltitudeMeters>
            <DistanceMeters>5867.8152989051</DistanceMeters>
          </Trackpoint>
          <Trackpoint>
            <Time>2022-02-06T09:46:11.000Z</Time>
            <Position>
              <LatitudeDegrees>39.1365744173526763916015625</LatitudeDegrees>
              <LongitudeDegrees>-0.3499597124755382537841796875</LongitudeDegrees>
            </Position>
            <AltitudeMeters>382.79998779296875</AltitudeMeters>
            <DistanceMeters>5869.2183515287</DistanceMeters>
          </Trackpoint>
          <Trackpoint>
            <Time>2022-02-06T09:46:13.000Z</Time>
            <Position>
              <LatitudeDegrees>39.136555306613445281982421875</LatitudeDegrees>
              <LongitudeDegrees>-0.34996096976101398468017578125</LongitudeDegrees>
            </Position>
            <AltitudeMeters>383.600006103515625</AltitudeMeters>
            <DistanceMeters>5871.3474589414</DistanceMeters>
          </Trackpoint>
          <Trackpoint>
            <Time>2022-02-06T09:46:14.000Z</Time>
            <Position>
              <LatitudeDegrees>39.13654558360576629638671875</LatitudeDegrees>
              <LongitudeDegrees>-0.34995786845684051513671875</LongitudeDegrees>
            </Position>
            <AltitudeMeters>383.79998779296875</AltitudeMeters>
            <DistanceMeters>5872.4556513419</DistanceMeters>
          </Trackpoint>
          <Trackpoint>
            <Time>2022-02-06T09:46:17.000Z</Time>
            <Position>
              <LatitudeDegrees>39.13650593720376491546630859375</LatitudeDegrees>
              <LongitudeDegrees>-0.349934734404087066650390625</LongitudeDegrees>
            </Position>
            <AltitudeMeters>384</AltitudeMeters>
            <DistanceMeters>5877.299218065</DistanceMeters>
          </Trackpoint>
          <Trackpoint>
            <Time>2022-02-06T09:46:21.000Z</Time>
            <Position>
              <LatitudeDegrees>39.1364605911076068878173828125</LatitudeDegrees>
              <LongitudeDegrees>-0.3499362431466579437255859375</LongitudeDegrees>
            </Position>
            <AltitudeMeters>385.79998779296875</AltitudeMeters>
            <DistanceMeters>5882.349063199</DistanceMeters>
          </Trackpoint>
          <Trackpoint>
            <Time>2022-02-06T09:46:24.000Z</Time>
            <Position>
              <LatitudeDegrees>39.13642480038106441497802734375</LatitudeDegrees>
              <LongitudeDegrees>-0.3499382548034191131591796875</LongitudeDegrees>
            </Position>
            <AltitudeMeters>387.399993896484375</AltitudeMeters>
            <DistanceMeters>5886.3379220201</DistanceMeters>
          </Trackpoint>
          <Trackpoint>
            <Time>2022-02-06T09:46:26.000Z</Time>
            <Position>
              <LatitudeDegrees>39.13639680482447147369384765625</LatitudeDegrees>
              <LongitudeDegrees>-0.3499349020421504974365234375</LongitudeDegrees>
            </Position>
            <AltitudeMeters>388.20001220703125</AltitudeMeters>
            <DistanceMeters>5889.4665963184</DistanceMeters>
          </Trackpoint>
          <Trackpoint>
            <Time>2022-02-06T09:46:27.000Z</Time>
            <Position>
              <LatitudeDegrees>39.13638289086520671844482421875</LatitudeDegrees>
              <LongitudeDegrees>-0.34993565641343593597412109375</LongitudeDegrees>
            </Position>
            <AltitudeMeters>388.79998779296875</AltitudeMeters>
            <DistanceMeters>5891.0164351275</DistanceMeters>
          </Trackpoint>
          <Trackpoint>
            <Time>2022-02-06T09:46:28.000Z</Time>
            <Position>
              <LatitudeDegrees>39.136371575295925140380859375</LatitudeDegrees>
              <LongitudeDegrees>-0.3499379195272922515869140625</LongitudeDegrees>
            </Position>
            <AltitudeMeters>389.399993896484375</AltitudeMeters>
            <DistanceMeters>5892.2913522856</DistanceMeters>
          </Trackpoint>
          <Trackpoint>
            <Time>2022-02-06T09:46:29.000Z</Time>
            <Position>
              <LatitudeDegrees>39.136363528668880462646484375</LatitudeDegrees>
              <LongitudeDegrees>-0.3499452956020832061767578125</LongitudeDegrees>
            </Position>
            <AltitudeMeters>390.20001220703125</AltitudeMeters>
            <DistanceMeters>5893.3913660325</DistanceMeters>
          </Trackpoint>
          <Trackpoint>
            <Time>2022-02-06T09:46:30.000Z</Time>
            <Position>
              <LatitudeDegrees>39.13635908626019954681396484375</LatitudeDegrees>
              <LongitudeDegrees>-0.34995543770492076873779296875</LongitudeDegrees>
            </Position>
            <AltitudeMeters>391</AltitudeMeters>
            <DistanceMeters>5894.397034249</DistanceMeters>
          </Trackpoint>
          <Trackpoint>
            <Time>2022-02-06T09:46:39.000Z</Time>
            <Position>
              <LatitudeDegrees>39.1362832300364971160888671875</LatitudeDegrees>
              <LongitudeDegrees>-0.34998561255633831024169921875</LongitudeDegrees>
            </Position>
            <AltitudeMeters>396.20001220703125</AltitudeMeters>
            <DistanceMeters>5903.2319638346</DistanceMeters>
          </Trackpoint>
          <Trackpoint>
            <Time>2022-02-06T09:46:43.000Z</Time>
            <Position>
              <LatitudeDegrees>39.1362445056438446044921875</LatitudeDegrees>
              <LongitudeDegrees>-0.35000422038137912750244140625</LongitudeDegrees>
            </Position>
            <AltitudeMeters>397.79998779296875</AltitudeMeters>
            <DistanceMeters>5907.8316887294</DistanceMeters>
          </Trackpoint>
          <Trackpoint>
            <Time>2022-02-06T09:46:45.000Z</Time>
            <Position>
              <LatitudeDegrees>39.13622480817139148712158203125</LatitudeDegrees>
              <LongitudeDegrees>-0.3500116802752017974853515625</LongitudeDegrees>
            </Position>
            <AltitudeMeters>398.399993896484375</AltitudeMeters>
            <DistanceMeters>5910.1162858897</DistanceMeters>
          </Trackpoint>
          <Trackpoint>
            <Time>2022-02-06T09:46:51.000Z</Time>
            <Position>
              <LatitudeDegrees>39.13618423976004123687744140625</LatitudeDegrees>
              <LongitudeDegrees>-0.35003271885216236114501953125</LongitudeDegrees>
            </Position>
            <AltitudeMeters>400.20001220703125</AltitudeMeters>
            <DistanceMeters>5914.9831011227</DistanceMeters>
          </Trackpoint>
          <Trackpoint>
            <Time>2022-02-06T09:46:56.000Z</Time>
            <Position>
              <LatitudeDegrees>39.13612808100879192352294921875</LatitudeDegrees>
              <LongitudeDegrees>-0.3500485606491565704345703125</LongitudeDegrees>
            </Position>
            <AltitudeMeters>401.399993896484375</AltitudeMeters>
            <DistanceMeters>5921.3817233648</DistanceMeters>
          </Trackpoint>
          <Trackpoint>
            <Time>2022-02-06T09:46:57.000Z</Time>
            <Position>
              <LatitudeDegrees>39.1361238062381744384765625</LatitudeDegrees>
              <LongitudeDegrees>-0.350050739943981170654296875</LongitudeDegrees>
            </Position>
            <AltitudeMeters>401.600006103515625</AltitudeMeters>
            <DistanceMeters>5921.9022061151</DistanceMeters>
          </Trackpoint>
          <Trackpoint>
            <Time>2022-02-06T09:47:00.000Z</Time>
            <Position>
              <LatitudeDegrees>39.13610192947089672088623046875</LatitudeDegrees>
              <LongitudeDegrees>-0.35005819983780384063720703125</LongitudeDegrees>
            </Position>
            <AltitudeMeters>402.20001220703125</AltitudeMeters>
            <DistanceMeters>5924.4199657667</DistanceMeters>
          </Trackpoint>
          <Trackpoint>
            <Time>2022-02-06T09:47:02.000Z</Time>
            <Position>
              <LatitudeDegrees>39.1360827349126338958740234375</LatitudeDegrees>
              <LongitudeDegrees>-0.3500559367239475250244140625</LongitudeDegrees>
            </Position>
            <AltitudeMeters>402</AltitudeMeters>
            <DistanceMeters>5926.5659711224</DistanceMeters>
          </Trackpoint>
          <Trackpoint>
            <Time>2022-02-06T09:47:03.000Z</Time>
            <Position>
              <LatitudeDegrees>39.1360755264759063720703125</LatitudeDegrees>
              <LongitudeDegrees>-0.35005970858037471771240234375</LongitudeDegrees>
            </Position>
            <AltitudeMeters>402.399993896484375</AltitudeMeters>
            <DistanceMeters>5927.4369053457</DistanceMeters>
          </Trackpoint>
          <Trackpoint>
            <Time>2022-02-06T09:47:04.000Z</Time>
            <Position>
              <LatitudeDegrees>39.1360647976398468017578125</LatitudeDegrees>
              <LongitudeDegrees>-0.35006113350391387939453125</LongitudeDegrees>
            </Position>
            <AltitudeMeters>402.600006103515625</AltitudeMeters>
            <DistanceMeters>5928.6426591794</DistanceMeters>
          </Trackpoint>
          <Trackpoint>
            <Time>2022-02-06T09:47:14.000Z</Time>
            <Position>
              <LatitudeDegrees>39.135977290570735931396484375</LatitudeDegrees>
              <LongitudeDegrees>-0.35006842575967311859130859375</LongitudeDegrees>
            </Position>
            <AltitudeMeters>400.79998779296875</AltitudeMeters>
            <DistanceMeters>5938.4031564251</DistanceMeters>
          </Trackpoint>
          <Trackpoint>
            <Time>2022-02-06T09:47:35.000Z</Time>
            <Position>
              <LatitudeDegrees>39.13580663502216339111328125</LatitudeDegrees>
              <LongitudeDegrees>-0.35009373910725116729736328125</LongitudeDegrees>
            </Position>
            <AltitudeMeters>393</AltitudeMeters>
            <DistanceMeters>5957.5228997466</DistanceMeters>
          </Trackpoint>
          <Trackpoint>
            <Time>2022-02-06T09:47:48.000Z</Time>
            <Position>
              <LatitudeDegrees>39.13570999167859554290771484375</LatitudeDegrees>
              <LongitudeDegrees>-0.3500966727733612060546875</LongitudeDegrees>
            </Position>
            <AltitudeMeters>389.399993896484375</AltitudeMeters>
            <DistanceMeters>5968.2827608093</DistanceMeters>
          </Trackpoint>
          <Trackpoint>
            <Time>2022-02-06T09:47:51.000Z</Time>
            <Position>
              <LatitudeDegrees>39.1356881149113178253173828125</LatitudeDegrees>
              <LongitudeDegrees>-0.350089967250823974609375</LongitudeDegrees>
            </Position>
            <AltitudeMeters>388.399993896484375</AltitudeMeters>
            <DistanceMeters>5970.7861331452</DistanceMeters>
          </Trackpoint>
          <Trackpoint>
            <Time>2022-02-06T09:47:55.000Z</Time>
            <Position>
              <LatitudeDegrees>39.135642014443874359130859375</LatitudeDegrees>
              <LongitudeDegrees>-0.3500938229262828826904296875</LongitudeDegrees>
            </Position>
            <AltitudeMeters>387.600006103515625</AltitudeMeters>
            <DistanceMeters>5975.9281234046</DistanceMeters>
          </Trackpoint>
          <Trackpoint>
            <Time>2022-02-06T09:48:03.000Z</Time>
            <Position>
              <LatitudeDegrees>39.13553229533135890960693359375</LatitudeDegrees>
              <LongitudeDegrees>-0.350170768797397613525390625</LongitudeDegrees>
            </Position>
            <AltitudeMeters>389.20001220703125</AltitudeMeters>
            <DistanceMeters>5989.8299828505</DistanceMeters>
          </Trackpoint>
          <Trackpoint>
            <Time>2022-02-06T09:48:05.000Z</Time>
            <Position>
              <LatitudeDegrees>39.13551159203052520751953125</LatitudeDegrees>
              <LongitudeDegrees>-0.35019482485949993133544921875</LongitudeDegrees>
            </Position>
            <AltitudeMeters>390</AltitudeMeters>
            <DistanceMeters>5992.9325723317</DistanceMeters>
          </Trackpoint>
          <Trackpoint>
            <Time>2022-02-06T09:48:06.000Z</Time>
            <Position>
              <LatitudeDegrees>39.13549893535673618316650390625</LatitudeDegrees>
              <LongitudeDegrees>-0.3502027876675128936767578125</LongitudeDegrees>
            </Position>
            <AltitudeMeters>390.20001220703125</AltitudeMeters>
            <DistanceMeters>5994.4997930542</DistanceMeters>
          </Trackpoint>
          <Trackpoint>
            <Time>2022-02-06T09:48:07.000Z</Time>
            <Position>
              <LatitudeDegrees>39.135485105216503143310546875</LatitudeDegrees>
              <LongitudeDegrees>-0.350213348865509033203125</LongitudeDegrees>
            </Position>
            <AltitudeMeters>390.399993896484375</AltitudeMeters>
            <DistanceMeters>5996.2902335412</DistanceMeters>
          </Trackpoint>
          <Trackpoint>
            <Time>2022-02-06T09:48:08.000Z</Time>
            <Position>
              <LatitudeDegrees>39.13547093980014324188232421875</LatitudeDegrees>
              <LongitudeDegrees>-0.35022206604480743408203125</LongitudeDegrees>
            </Position>
            <AltitudeMeters>390.600006103515625</AltitudeMeters>
            <DistanceMeters>5998.0372784284</DistanceMeters>
          </Trackpoint>
          <Trackpoint>
            <Time>2022-02-06T09:48:11.000Z</Time>
            <Position>
              <LatitudeDegrees>39.13542785681784152984619140625</LatitudeDegrees>
              <LongitudeDegrees>-0.35023455508053302764892578125</LongitudeDegrees>
            </Position>
            <AltitudeMeters>390.79998779296875</AltitudeMeters>
            <DistanceMeters>6002.952098312</DistanceMeters>
          </Trackpoint>
          <Trackpoint>
            <Time>2022-02-06T09:48:16.000Z</Time>
            <Position>
              <LatitudeDegrees>39.1353773139417171478271484375</LatitudeDegrees>
              <LongitudeDegrees>-0.35025961697101593017578125</LongitudeDegrees>
            </Position>
            <AltitudeMeters>391.79998779296875</AltitudeMeters>
            <DistanceMeters>6008.9801185185</DistanceMeters>
          </Trackpoint>
          <Trackpoint>
            <Time>2022-02-06T09:48:19.000Z</Time>
            <Position>
              <LatitudeDegrees>39.1353628970682621002197265625</LatitudeDegrees>
              <LongitudeDegrees>-0.3502621315419673919677734375</LongitudeDegrees>
            </Position>
            <AltitudeMeters>391.79998779296875</AltitudeMeters>
            <DistanceMeters>6010.5983651526</DistanceMeters>
          </Trackpoint>
          <Trackpoint>
            <Time>2022-02-06T09:48:20.000Z</Time>
            <Position>
              <LatitudeDegrees>39.13535962812602519989013671875</LatitudeDegrees>
              <LongitudeDegrees>-0.3502602875232696533203125</LongitudeDegrees>
            </Position>
            <AltitudeMeters>391.79998779296875</AltitudeMeters>
            <DistanceMeters>6011.0015293573</DistanceMeters>
          </Trackpoint>
          <Trackpoint>
            <Time>2022-02-06T09:48:21.000Z</Time>
            <Position>
              <LatitudeDegrees>39.13535376079380512237548828125</LatitudeDegrees>
              <LongitudeDegrees>-0.35025768913328647613525390625</LongitudeDegrees>
            </Position>
            <AltitudeMeters>391.600006103515625</AltitudeMeters>
            <DistanceMeters>6011.6933342804</DistanceMeters>
          </Trackpoint>
          <Trackpoint>
            <Time>2022-02-06T09:48:22.000Z</Time>
            <Position>
              <LatitudeDegrees>39.135347642004489898681640625</LatitudeDegrees>
              <LongitudeDegrees>-0.3502567671239376068115234375</LongitudeDegrees>
            </Position>
            <AltitudeMeters>391.399993896484375</AltitudeMeters>
            <DistanceMeters>6012.3851392034</DistanceMeters>
          </Trackpoint>
          <Trackpoint>
            <Time>2022-02-06T09:48:25.000Z</Time>
            <Position>
              <LatitudeDegrees>39.13531604222953319549560546875</LatitudeDegrees>
              <LongitudeDegrees>-0.350253917276859283447265625</LongitudeDegrees>
            </Position>
            <AltitudeMeters>391</AltitudeMeters>
            <DistanceMeters>6015.9126660055</DistanceMeters>
          </Trackpoint>
          <Trackpoint>
            <Time>2022-02-06T09:48:26.000Z</Time>
            <Position>
              <LatitudeDegrees>39.13530237972736358642578125</LatitudeDegrees>
              <LongitudeDegrees>-0.35025467164814472198486328125</LongitudeDegrees>
            </Position>
            <AltitudeMeters>391</AltitudeMeters>
            <DistanceMeters>6017.4390210503</DistanceMeters>
          </Trackpoint>
          <Trackpoint>
            <Time>2022-02-06T09:48:27.000Z</Time>
            <Position>
              <LatitudeDegrees>39.1352884657680988311767578125</LatitudeDegrees>
              <LongitudeDegrees>-0.35025299526751041412353515625</LongitudeDegrees>
            </Position>
            <AltitudeMeters>390.79998779296875</AltitudeMeters>
            <DistanceMeters>6018.99467541</DistanceMeters>
          </Trackpoint>
          <Trackpoint>
            <Time>2022-02-06T09:48:28.000Z</Time>
            <Position>
              <LatitudeDegrees>39.1352767311036586761474609375</LatitudeDegrees>
              <LongitudeDegrees>-0.3502517379820346832275390625</LongitudeDegrees>
            </Position>
            <AltitudeMeters>390.600006103515625</AltitudeMeters>
            <DistanceMeters>6020.3045282736</DistanceMeters>
          </Trackpoint>
          <Trackpoint>
            <Time>2022-02-06T09:48:31.000Z</Time>
            <Position>
              <LatitudeDegrees>39.1352354921400547027587890625</LatitudeDegrees>
              <LongitudeDegrees>-0.35025425255298614501953125</LongitudeDegrees>
            </Position>
            <AltitudeMeters>390.399993896484375</AltitudeMeters>
            <DistanceMeters>6024.8993426035</DistanceMeters>
          </Trackpoint>
          <Trackpoint>
            <Time>2022-02-06T09:48:34.000Z</Time>
            <Position>
              <LatitudeDegrees>39.135200791060924530029296875</LatitudeDegrees>
              <LongitudeDegrees>-0.35027780570089817047119140625</LongitudeDegrees>
            </Position>
            <AltitudeMeters>391.600006103515625</AltitudeMeters>
            <DistanceMeters>6029.2643696706</DistanceMeters>
          </Trackpoint>
          <Trackpoint>
            <Time>2022-02-06T09:48:39.000Z</Time>
            <Position>
              <LatitudeDegrees>39.1351608932018280029296875</LatitudeDegrees>
              <LongitudeDegrees>-0.35032994113862514495849609375</LongitudeDegrees>
            </Position>
            <AltitudeMeters>394.79998779296875</AltitudeMeters>
            <DistanceMeters>6035.5877531394</DistanceMeters>
          </Trackpoint>
          <Trackpoint>
            <Time>2022-02-06T09:48:43.000Z</Time>
            <Position>
              <LatitudeDegrees>39.13516550324857234954833984375</LatitudeDegrees>
              <LongitudeDegrees>-0.350356511771678924560546875</LongitudeDegrees>
            </Position>
            <AltitudeMeters>396.20001220703125</AltitudeMeters>
            <DistanceMeters>6037.9385842231</DistanceMeters>
          </Trackpoint>
          <Trackpoint>
            <Time>2022-02-06T09:48:46.000Z</Time>
            <Position>
              <LatitudeDegrees>39.13515217602252960205078125</LatitudeDegrees>
              <LongitudeDegrees>-0.35038542933762073516845703125</LongitudeDegrees>
            </Position>
            <AltitudeMeters>398.20001220703125</AltitudeMeters>
            <DistanceMeters>6040.8411798412</DistanceMeters>
          </Trackpoint>
          <Trackpoint>
            <Time>2022-02-06T09:48:49.000Z</Time>
            <Position>
              <LatitudeDegrees>39.13513884879648685455322265625</LatitudeDegrees>
              <LongitudeDegrees>-0.35040286369621753692626953125</LongitudeDegrees>
            </Position>
            <AltitudeMeters>399.399993896484375</AltitudeMeters>
            <DistanceMeters>6042.9532541209</DistanceMeters>
          </Trackpoint>
          <Trackpoint>
            <Time>2022-02-06T09:48:53.000Z</Time>
            <Position>
              <LatitudeDegrees>39.13511705584824085235595703125</LatitudeDegrees>
              <LongitudeDegrees>-0.35042817704379558563232421875</LongitudeDegrees>
            </Position>
            <AltitudeMeters>401.399993896484375</AltitudeMeters>
            <DistanceMeters>6046.2175289568</DistanceMeters>
          </Trackpoint>
          <Trackpoint>
            <Time>2022-02-06T09:48:57.000Z</Time>
            <Position>
              <LatitudeDegrees>39.13510096259415149688720703125</LatitudeDegrees>
              <LongitudeDegrees>-0.35040588118135929107666015625</LongitudeDegrees>
            </Position>
            <AltitudeMeters>400.399993896484375</AltitudeMeters>
            <DistanceMeters>6048.8458380101</DistanceMeters>
          </Trackpoint>
          <Trackpoint>
            <Time>2022-02-06T09:49:03.000Z</Time>
            <Position>
              <LatitudeDegrees>39.1350390203297138214111328125</LatitudeDegrees>
              <LongitudeDegrees>-0.35035491921007633209228515625</LongitudeDegrees>
            </Position>
            <AltitudeMeters>398.399993896484375</AltitudeMeters>
            <DistanceMeters>6057.0247625296</DistanceMeters>
          </Trackpoint>
          <Trackpoint>
            <Time>2022-02-06T09:49:06.000Z</Time>
            <Position>
              <LatitudeDegrees>39.13501027040183544158935546875</LatitudeDegrees>
              <LongitudeDegrees>-0.3503385744988918304443359375</LongitudeDegrees>
            </Position>
            <AltitudeMeters>396.79998779296875</AltitudeMeters>
            <DistanceMeters>6060.521435735</DistanceMeters>
          </Trackpoint>
          <Trackpoint>
            <Time>2022-02-06T09:49:11.000Z</Time>
            <Position>
              <LatitudeDegrees>39.1349568776786327362060546875</LatitudeDegrees>
              <LongitudeDegrees>-0.35028803162276744842529296875</LongitudeDegrees>
            </Position>
            <AltitudeMeters>392.600006103515625</AltitudeMeters>
            <DistanceMeters>6067.8944310688</DistanceMeters>
          </Trackpoint>
          <Trackpoint>
            <Time>2022-02-06T09:49:14.000Z</Time>
            <Position>
              <LatitudeDegrees>39.134928546845912933349609375</LatitudeDegrees>
              <LongitudeDegrees>-0.35029758699238300323486328125</LongitudeDegrees>
            </Position>
            <AltitudeMeters>393.20001220703125</AltitudeMeters>
            <DistanceMeters>6071.1517827265</DistanceMeters>
          </Trackpoint>
          <Trackpoint>
            <Time>2022-02-06T09:49:19.000Z</Time>
            <Position>
              <LatitudeDegrees>39.1348779201507568359375</LatitudeDegrees>
              <LongitudeDegrees>-0.35028082318603992462158203125</LongitudeDegrees>
            </Position>
            <AltitudeMeters>391.20001220703125</AltitudeMeters>
            <DistanceMeters>6076.9694047933</DistanceMeters>
          </Trackpoint>
          <Trackpoint>
            <Time>2022-02-06T09:49:25.000Z</Time>
            <Position>
              <LatitudeDegrees>39.1348174028098583221435546875</LatitudeDegrees>
              <LongitudeDegrees>-0.35025048069655895233154296875</LongitudeDegrees>
            </Position>
            <AltitudeMeters>388.20001220703125</AltitudeMeters>
            <DistanceMeters>6084.1964347608</DistanceMeters>
          </Trackpoint>
          <Trackpoint>
            <Time>2022-02-06T09:49:29.000Z</Time>
            <Position>
              <LatitudeDegrees>39.134783707559108734130859375</LatitudeDegrees>
              <LongitudeDegrees>-0.35024377517402172088623046875</LongitudeDegrees>
            </Position>
            <AltitudeMeters>387.399993896484375</AltitudeMeters>
            <DistanceMeters>6087.9903696379</DistanceMeters>
          </Trackpoint>
          <Trackpoint>
            <Time>2022-02-06T09:49:35.000Z</Time>
            <Position>
              <LatitudeDegrees>39.1347634233534336090087890625</LatitudeDegrees>
              <LongitudeDegrees>-0.35023019649088382720947265625</LongitudeDegrees>
            </Position>
            <AltitudeMeters>386</AltitudeMeters>
            <DistanceMeters>6090.5331112162</DistanceMeters>
          </Trackpoint>
          <Trackpoint>
            <Time>2022-02-06T09:50:01.000Z</Time>
            <Position>
              <LatitudeDegrees>39.1346212662756443023681640625</LatitudeDegrees>
              <LongitudeDegrees>-0.35014964640140533447265625</LongitudeDegrees>
            </Position>
            <AltitudeMeters>377.79998779296875</AltitudeMeters>
            <DistanceMeters>6107.8159601889</DistanceMeters>
          </Trackpoint>
          <Trackpoint>
            <Time>2022-02-06T09:50:06.000Z</Time>
            <Position>
              <LatitudeDegrees>39.13457273505628108978271484375</LatitudeDegrees>
              <LongitudeDegrees>-0.35015023313462734222412109375</LongitudeDegrees>
            </Position>
            <AltitudeMeters>379.79998779296875</AltitudeMeters>
            <DistanceMeters>6113.2174578507</DistanceMeters>
          </Trackpoint>
          <Trackpoint>
            <Time>2022-02-06T09:50:18.000Z</Time>
            <Position>
              <LatitudeDegrees>39.13447231985628604888916015625</LatitudeDegrees>
              <LongitudeDegrees>-0.35010446794331073760986328125</LongitudeDegrees>
            </Position>
            <AltitudeMeters>380</AltitudeMeters>
            <DistanceMeters>6125.0718262278</DistanceMeters>
          </Trackpoint>
          <Trackpoint>
            <Time>2022-02-06T09:50:39.000Z</Time>
            <Position>
              <LatitudeDegrees>39.134328402578830718994140625</LatitudeDegrees>
              <LongitudeDegrees>-0.34996801055967807769775390625</LongitudeDegrees>
            </Position>
            <AltitudeMeters>367</AltitudeMeters>
            <DistanceMeters>6144.9558114175</DistanceMeters>
          </Trackpoint>
          <Trackpoint>
            <Time>2022-02-06T09:50:46.000Z</Time>
            <Position>
              <LatitudeDegrees>39.1342730820178985595703125</LatitudeDegrees>
              <LongitudeDegrees>-0.34989844076335430145263671875</LongitudeDegrees>
            </Position>
            <AltitudeMeters>364.399993896484375</AltitudeMeters>
            <DistanceMeters>6153.5576976282</DistanceMeters>
          </Trackpoint>
          <Trackpoint>
            <Time>2022-02-06T09:50:48.000Z</Time>
            <Position>
              <LatitudeDegrees>39.13424550555646419525146484375</LatitudeDegrees>
              <LongitudeDegrees>-0.3498849458992481231689453125</LongitudeDegrees>
            </Position>
            <AltitudeMeters>364.399993896484375</AltitudeMeters>
            <DistanceMeters>6156.8385284866</DistanceMeters>
          </Trackpoint>
          <Trackpoint>
            <Time>2022-02-06T09:50:50.000Z</Time>
            <Position>
              <LatitudeDegrees>39.134221784770488739013671875</LatitudeDegrees>
              <LongitudeDegrees>-0.34987027756869792938232421875</LongitudeDegrees>
            </Position>
            <AltitudeMeters>364.20001220703125</AltitudeMeters>
            <DistanceMeters>6159.7659065874</DistanceMeters>
          </Trackpoint>
          <Trackpoint>
            <Time>2022-02-06T09:50:58.000Z</Time>
            <Position>
              <LatitudeDegrees>39.13412866182625293731689453125</LatitudeDegrees>
              <LongitudeDegrees>-0.34979425370693206787109375</LongitudeDegrees>
            </Position>
            <AltitudeMeters>363.399993896484375</AltitudeMeters>
            <DistanceMeters>6172.0342933668</DistanceMeters>
          </Trackpoint>
          <Trackpoint>
            <Time>2022-02-06T09:51:09.000Z</Time>
            <Position>
              <LatitudeDegrees>39.1340559907257556915283203125</LatitudeDegrees>
              <LongitudeDegrees>-0.3498527593910694122314453125</LongitudeDegrees>
            </Position>
            <AltitudeMeters>368.600006103515625</AltitudeMeters>
            <DistanceMeters>6181.5701661527</DistanceMeters>
          </Trackpoint>
          <Trackpoint>
            <Time>2022-02-06T09:51:16.000Z</Time>
            <Position>
              <LatitudeDegrees>39.133986420929431915283203125</LatitudeDegrees>
              <LongitudeDegrees>-0.34990112297236919403076171875</LongitudeDegrees>
            </Position>
            <AltitudeMeters>376.20001220703125</AltitudeMeters>
            <DistanceMeters>6190.3671971931</DistanceMeters>
          </Trackpoint>
          <Trackpoint>
            <Time>2022-02-06T09:51:23.000Z</Time>
            <Position>
              <LatitudeDegrees>39.13394828327000141143798828125</LatitudeDegrees>
              <LongitudeDegrees>-0.34993079490959644317626953125</LongitudeDegrees>
            </Position>
            <AltitudeMeters>380.600006103515625</AltitudeMeters>
            <DistanceMeters>6195.3250059914</DistanceMeters>
          </Trackpoint>
          <Trackpoint>
            <Time>2022-02-06T09:51:41.000Z</Time>
            <Position>
              <LatitudeDegrees>39.13377025164663791656494140625</LatitudeDegrees>
              <LongitudeDegrees>-0.34995007328689098358154296875</LongitudeDegrees>
            </Position>
            <AltitudeMeters>396</AltitudeMeters>
            <DistanceMeters>6215.210126494</DistanceMeters>
          </Trackpoint>
          <Trackpoint>
            <Time>2022-02-06T09:51:43.000Z</Time>
            <Position>
              <LatitudeDegrees>39.13374024443328380584716796875</LatitudeDegrees>
              <LongitudeDegrees>-0.34994135610759258270263671875</LongitudeDegrees>
            </Position>
            <AltitudeMeters>397.79998779296875</AltitudeMeters>
            <DistanceMeters>6218.6337268247</DistanceMeters>
          </Trackpoint>
          <Trackpoint>
            <Time>2022-02-06T09:51:46.000Z</Time>
            <Position>
              <LatitudeDegrees>39.1337178647518157958984375</LatitudeDegrees>
              <LongitudeDegrees>-0.34991604276001453399658203125</LongitudeDegrees>
            </Position>
            <AltitudeMeters>398.399993896484375</AltitudeMeters>
            <DistanceMeters>6221.9474215837</DistanceMeters>
          </Trackpoint>
          <Trackpoint>
            <Time>2022-02-06T09:51:47.000Z</Time>
            <Position>
              <LatitudeDegrees>39.1337071359157562255859375</LatitudeDegrees>
              <LongitudeDegrees>-0.34990866668522357940673828125</LongitudeDegrees>
            </Position>
            <AltitudeMeters>399</AltitudeMeters>
            <DistanceMeters>6223.3013438555</DistanceMeters>
          </Trackpoint>
          <Trackpoint>
            <Time>2022-02-06T09:51:48.000Z</Time>
            <Position>
              <LatitudeDegrees>39.13369967602193355560302734375</LatitudeDegrees>
              <LongitudeDegrees>-0.34990011714398860931396484375</LongitudeDegrees>
            </Position>
            <AltitudeMeters>399.20001220703125</AltitudeMeters>
            <DistanceMeters>6224.409536256</DistanceMeters>
          </Trackpoint>
          <Trackpoint>
            <Time>2022-02-06T09:51:53.000Z</Time>
            <Position>
              <LatitudeDegrees>39.1336707584559917449951171875</LatitudeDegrees>
              <LongitudeDegrees>-0.34987027756869792938232421875</LongitudeDegrees>
            </Position>
            <AltitudeMeters>400.20001220703125</AltitudeMeters>
            <DistanceMeters>6228.5319874525</DistanceMeters>
          </Trackpoint>
          <Trackpoint>
            <Time>2022-02-06T09:52:09.000Z</Time>
            <Position>
              <LatitudeDegrees>39.13361803628504276275634765625</LatitudeDegrees>
              <LongitudeDegrees>-0.34979618154466152191162109375</LongitudeDegrees>
            </Position>
            <AltitudeMeters>401</AltitudeMeters>
            <DistanceMeters>6237.2127701317</DistanceMeters>
          </Trackpoint>
          <Trackpoint>
            <Time>2022-02-06T09:52:14.000Z</Time>
            <Position>
              <LatitudeDegrees>39.1335755400359630584716796875</LatitudeDegrees>
              <LongitudeDegrees>-0.349727533757686614990234375</LongitudeDegrees>
            </Position>
            <AltitudeMeters>400.79998779296875</AltitudeMeters>
            <DistanceMeters>6244.794687214</DistanceMeters>
          </Trackpoint>
          <Trackpoint>
            <Time>2022-02-06T09:52:26.000Z</Time>
            <Position>
              <LatitudeDegrees>39.13354410789906978607177734375</LatitudeDegrees>
              <LongitudeDegrees>-0.34961228258907794952392578125</LongitudeDegrees>
            </Position>
            <AltitudeMeters>396.20001220703125</AltitudeMeters>
            <DistanceMeters>6255.3417963778</DistanceMeters>
          </Trackpoint>
          <Trackpoint>
            <Time>2022-02-06T09:52:36.000Z</Time>
            <Position>
              <LatitudeDegrees>39.13351829163730144500732421875</LatitudeDegrees>
              <LongitudeDegrees>-0.349514968693256378173828125</LongitudeDegrees>
            </Position>
            <AltitudeMeters>388.399993896484375</AltitudeMeters>
            <DistanceMeters>6264.2210754832</DistanceMeters>
          </Trackpoint>
          <Trackpoint>
            <Time>2022-02-06T09:53:00.000Z</Time>
            <Position>
              <LatitudeDegrees>39.13342961110174655914306640625</LatitudeDegrees>
              <LongitudeDegrees>-0.34931338392198085784912109375</LongitudeDegrees>
            </Position>
            <AltitudeMeters>376.79998779296875</AltitudeMeters>
            <DistanceMeters>6284.2286562655</DistanceMeters>
          </Trackpoint>
          <Trackpoint>
            <Time>2022-02-06T09:53:21.000Z</Time>
            <Position>
              <LatitudeDegrees>39.1332855261862277984619140625</LatitudeDegrees>
              <LongitudeDegrees>-0.3491926006972789764404296875</LongitudeDegrees>
            </Position>
            <AltitudeMeters>377.79998779296875</AltitudeMeters>
            <DistanceMeters>6303.3580790957</DistanceMeters>
          </Trackpoint>
          <Trackpoint>
            <Time>2022-02-06T09:53:30.000Z</Time>
            <Position>
              <LatitudeDegrees>39.13322308100759983062744140625</LatitudeDegrees>
              <LongitudeDegrees>-0.3491091169416904449462890625</LongitudeDegrees>
            </Position>
            <AltitudeMeters>375.600006103515625</AltitudeMeters>
            <DistanceMeters>6313.3715684393</DistanceMeters>
          </Trackpoint>
          <Trackpoint>
            <Time>2022-02-06T09:53:39.000Z</Time>
            <Position>
              <LatitudeDegrees>39.13315468467772006988525390625</LatitudeDegrees>
              <LongitudeDegrees>-0.34905932843685150146484375</LongitudeDegrees>
            </Position>
            <AltitudeMeters>378.20001220703125</AltitudeMeters>
            <DistanceMeters>6322.1140261613</DistanceMeters>
          </Trackpoint>
          <Trackpoint>
            <Time>2022-02-06T09:53:56.000Z</Time>
            <Position>
              <LatitudeDegrees>39.13297011516988277435302734375</LatitudeDegrees>
              <LongitudeDegrees>-0.348993279039859771728515625</LongitudeDegrees>
            </Position>
            <AltitudeMeters>393</AltitudeMeters>
            <DistanceMeters>6343.4334977244</DistanceMeters>
          </Trackpoint>
          <Trackpoint>
            <Time>2022-02-06T09:54:03.000Z</Time>
            <Position>
              <LatitudeDegrees>39.13292854093015193939208984375</LatitudeDegrees>
              <LongitudeDegrees>-0.34897894598543643951416015625</LongitudeDegrees>
            </Position>
            <AltitudeMeters>397.20001220703125</AltitudeMeters>
            <DistanceMeters>6348.2245784293</DistanceMeters>
          </Trackpoint>
          <Trackpoint>
            <Time>2022-02-06T09:54:13.000Z</Time>
            <Position>
              <LatitudeDegrees>39.13284790702164173126220703125</LatitudeDegrees>
              <LongitudeDegrees>-0.34895849414169788360595703125</LongitudeDegrees>
            </Position>
            <AltitudeMeters>406</AltitudeMeters>
            <DistanceMeters>6357.3708688345</DistanceMeters>
          </Trackpoint>
          <Trackpoint>
            <Time>2022-02-06T09:54:14.000Z</Time>
            <Position>
              <LatitudeDegrees>39.13284338079392910003662109375</LatitudeDegrees>
              <LongitudeDegrees>-0.34895027987658977508544921875</LongitudeDegrees>
            </Position>
            <AltitudeMeters>406</AltitudeMeters>
            <DistanceMeters>6358.2418030578</DistanceMeters>
          </Trackpoint>
          <Trackpoint>
            <Time>2022-02-06T09:54:15.000Z</Time>
            <Position>
              <LatitudeDegrees>39.13283784873783588409423828125</LatitudeDegrees>
              <LongitudeDegrees>-0.34894826821982860565185546875</LongitudeDegrees>
            </Position>
            <AltitudeMeters>406.399993896484375</AltitudeMeters>
            <DistanceMeters>6358.8863055919</DistanceMeters>
          </Trackpoint>
          <Trackpoint>
            <Time>2022-02-06T09:54:22.000Z</Time>
            <Position>
              <LatitudeDegrees>39.1328265331685543060302734375</LatitudeDegrees>
              <LongitudeDegrees>-0.3488965518772602081298828125</LongitudeDegrees>
            </Position>
            <AltitudeMeters>404.20001220703125</AltitudeMeters>
            <DistanceMeters>6363.5261010876</DistanceMeters>
          </Trackpoint>
          <Trackpoint>
            <Time>2022-02-06T09:54:53.000Z</Time>
            <Position>
              <LatitudeDegrees>39.13273424841463565826416015625</LatitudeDegrees>
              <LongitudeDegrees>-0.34870284609496593475341796875</LongitudeDegrees>
            </Position>
            <AltitudeMeters>403.79998779296875</AltitudeMeters>
            <DistanceMeters>6383.1522810724</DistanceMeters>
          </Trackpoint>
          <Trackpoint>
            <Time>2022-02-06T09:55:24.000Z</Time>
            <Position>
              <LatitudeDegrees>39.132637940347194671630859375</LatitudeDegrees>
              <LongitudeDegrees>-0.34853939898312091827392578125</LongitudeDegrees>
            </Position>
            <AltitudeMeters>398</AltitudeMeters>
            <DistanceMeters>6400.8734257445</DistanceMeters>
          </Trackpoint>
          <Trackpoint>
            <Time>2022-02-06T09:56:00.000Z</Time>
            <Position>
              <LatitudeDegrees>39.13254599086940288543701171875</LatitudeDegrees>
              <LongitudeDegrees>-0.3483845852315425872802734375</LongitudeDegrees>
            </Position>
            <AltitudeMeters>394.79998779296875</AltitudeMeters>
            <DistanceMeters>6417.7073753394</DistanceMeters>
          </Trackpoint>
          <Trackpoint>
            <Time>2022-02-06T09:56:01.000Z</Time>
            <Position>
              <LatitudeDegrees>39.1325462423264980316162109375</LatitudeDegrees>
              <LongitudeDegrees>-0.34837863408029079437255859375</LongitudeDegrees>
            </Position>
            <AltitudeMeters>394.79998779296875</AltitudeMeters>
            <DistanceMeters>6418.2191098574</DistanceMeters>
          </Trackpoint>
          <Trackpoint>
            <Time>2022-02-06T09:56:02.000Z</Time>
            <Position>
              <LatitudeDegrees>39.1325462423264980316162109375</LatitudeDegrees>
              <LongitudeDegrees>-0.34837863408029079437255859375</LongitudeDegrees>
            </Position>
            <AltitudeMeters>394.79998779296875</AltitudeMeters>
            <DistanceMeters>6418.3141365718</DistanceMeters>
          </Trackpoint>
          <Trackpoint>
            <Time>2022-02-06T09:56:03.000Z</Time>
            <Position>
              <LatitudeDegrees>39.1325475834310054779052734375</LatitudeDegrees>
              <LongitudeDegrees>-0.34837293438613414764404296875</LongitudeDegrees>
            </Position>
            <AltitudeMeters>394.600006103515625</AltitudeMeters>
            <DistanceMeters>6418.834619322</DistanceMeters>
          </Trackpoint>
          <Trackpoint>
            <Time>2022-02-06T09:56:08.000Z</Time>
            <Position>
              <LatitudeDegrees>39.1325207613408565521240234375</LatitudeDegrees>
              <LongitudeDegrees>-0.348336137831211090087890625</LongitudeDegrees>
            </Position>
            <AltitudeMeters>395.600006103515625</AltitudeMeters>
            <DistanceMeters>6423.1934357713</DistanceMeters>
          </Trackpoint>
          <Trackpoint>
            <Time>2022-02-06T09:56:18.000Z</Time>
            <Position>
              <LatitudeDegrees>39.1324731521308422088623046875</LatitudeDegrees>
              <LongitudeDegrees>-0.3482969105243682861328125</LongitudeDegrees>
            </Position>
            <AltitudeMeters>398</AltitudeMeters>
            <DistanceMeters>6429.4824527711</DistanceMeters>
          </Trackpoint>
          <Trackpoint>
            <Time>2022-02-06T09:56:21.000Z</Time>
            <Position>
              <LatitudeDegrees>39.13246317766606807708740234375</LatitudeDegrees>
              <LongitudeDegrees>-0.34826430492103099822998046875</LongitudeDegrees>
            </Position>
            <AltitudeMeters>397.399993896484375</AltitudeMeters>
            <DistanceMeters>6432.5084232789</DistanceMeters>
          </Trackpoint>
          <Trackpoint>
            <Time>2022-02-06T09:56:31.000Z</Time>
            <Position>
              <LatitudeDegrees>39.13243903778493404388427734375</LatitudeDegrees>
              <LongitudeDegrees>-0.34815852530300617218017578125</LongitudeDegrees>
            </Position>
            <AltitudeMeters>396.20001220703125</AltitudeMeters>
            <DistanceMeters>6442.0272355493</DistanceMeters>
          </Trackpoint>
          <Trackpoint>
            <Time>2022-02-06T09:56:39.000Z</Time>
            <Position>
              <LatitudeDegrees>39.13242763839662075042724609375</LatitudeDegrees>
              <LongitudeDegrees>-0.34809415228664875030517578125</LongitudeDegrees>
            </Position>
            <AltitudeMeters>395.399993896484375</AltitudeMeters>
            <DistanceMeters>6447.7288384115</DistanceMeters>
          </Trackpoint>
          <Trackpoint>
            <Time>2022-02-06T09:56:50.000Z</Time>
            <Position>
              <LatitudeDegrees>39.13238991983234882354736328125</LatitudeDegrees>
              <LongitudeDegrees>-0.347982756793498992919921875</LongitudeDegrees>
            </Position>
            <AltitudeMeters>394.600006103515625</AltitudeMeters>
            <DistanceMeters>6458.2231612725</DistanceMeters>
          </Trackpoint>
          <Trackpoint>
            <Time>2022-02-06T09:56:58.000Z</Time>
            <Position>
              <LatitudeDegrees>39.1323459148406982421875</LatitudeDegrees>
              <LongitudeDegrees>-0.3478954173624515533447265625</LongitudeDegrees>
            </Position>
            <AltitudeMeters>392</AltitudeMeters>
            <DistanceMeters>6467.2151190393</DistanceMeters>
          </Trackpoint>
          <Trackpoint>
            <Time>2022-02-06T09:56:59.000Z</Time>
            <Position>
              <LatitudeDegrees>39.13233426399528980255126953125</LatitudeDegrees>
              <LongitudeDegrees>-0.34788594581186771392822265625</LongitudeDegrees>
            </Position>
            <AltitudeMeters>392</AltitudeMeters>
            <DistanceMeters>6468.7473787677</DistanceMeters>
          </Trackpoint>
          <Trackpoint>
            <Time>2022-02-06T09:57:00.000Z</Time>
            <Position>
              <LatitudeDegrees>39.13232672028243541717529296875</LatitudeDegrees>
              <LongitudeDegrees>-0.34787974320352077484130859375</LongitudeDegrees>
            </Position>
            <AltitudeMeters>392.20001220703125</AltitudeMeters>
            <DistanceMeters>6469.7485473276</DistanceMeters>
          </Trackpoint>
          <Trackpoint>
            <Time>2022-02-06T09:57:01.000Z</Time>
            <Position>
              <LatitudeDegrees>39.1323204338550567626953125</LatitudeDegrees>
              <LongitudeDegrees>-0.34787287004292011260986328125</LongitudeDegrees>
            </Position>
            <AltitudeMeters>392</AltitudeMeters>
            <DistanceMeters>6470.6649517739</DistanceMeters>
          </Trackpoint>
          <Trackpoint>
            <Time>2022-02-06T09:57:05.000Z</Time>
            <Position>
              <LatitudeDegrees>39.13227994926273822784423828125</LatitudeDegrees>
              <LongitudeDegrees>-0.347858704626560211181640625</LongitudeDegrees>
            </Position>
            <AltitudeMeters>393.399993896484375</AltitudeMeters>
            <DistanceMeters>6475.3328821996</DistanceMeters>
          </Trackpoint>
          <Trackpoint>
            <Time>2022-02-06T09:57:19.000Z</Time>
            <Position>
              <LatitudeDegrees>39.13210443221032619476318359375</LatitudeDegrees>
              <LongitudeDegrees>-0.34781184978783130645751953125</LongitudeDegrees>
            </Position>
            <AltitudeMeters>404.600006103515625</AltitudeMeters>
            <DistanceMeters>6495.2826087439</DistanceMeters>
          </Trackpoint>
          <Trackpoint>
            <Time>2022-02-06T09:57:27.000Z</Time>
            <Position>
              <LatitudeDegrees>39.13202815689146518707275390625</LatitudeDegrees>
              <LongitudeDegrees>-0.3477867878973484039306640625</LongitudeDegrees>
            </Position>
            <AltitudeMeters>411.399993896484375</AltitudeMeters>
            <DistanceMeters>6504.0436389216</DistanceMeters>
          </Trackpoint>
          <Trackpoint>
            <Time>2022-02-06T09:57:47.000Z</Time>
            <Position>
              <LatitudeDegrees>39.13192237727344036102294921875</LatitudeDegrees>
              <LongitudeDegrees>-0.34770573489367961883544921875</LongitudeDegrees>
            </Position>
            <AltitudeMeters>418.79998779296875</AltitudeMeters>
            <DistanceMeters>6517.7400182988</DistanceMeters>
          </Trackpoint>
          <Trackpoint>
            <Time>2022-02-06T09:58:07.000Z</Time>
            <Position>
              <LatitudeDegrees>39.1317499615252017974853515625</LatitudeDegrees>
              <LongitudeDegrees>-0.347658880054950714111328125</LongitudeDegrees>
            </Position>
            <AltitudeMeters>433.399993896484375</AltitudeMeters>
            <DistanceMeters>6537.3519298848</DistanceMeters>
          </Trackpoint>
          <Trackpoint>
            <Time>2022-02-06T09:58:21.000Z</Time>
            <Position>
              <LatitudeDegrees>39.13168081082403659820556640625</LatitudeDegrees>
              <LongitudeDegrees>-0.34760230220854282379150390625</LongitudeDegrees>
            </Position>
            <AltitudeMeters>436.79998779296875</AltitudeMeters>
            <DistanceMeters>6546.4675627996</DistanceMeters>
          </Trackpoint>
          <Trackpoint>
            <Time>2022-02-06T09:59:15.000Z</Time>
            <Position>
              <LatitudeDegrees>39.13166874088346958160400390625</LatitudeDegrees>
              <LongitudeDegrees>-0.34750004298985004425048828125</LongitudeDegrees>
            </Position>
            <AltitudeMeters>428</AltitudeMeters>
            <DistanceMeters>6555.3980518765</DistanceMeters>
          </Trackpoint>
          <Trackpoint>
            <Time>2022-02-06T09:59:56.000Z</Time>
            <Position>
              <LatitudeDegrees>39.13157955743372440338134765625</LatitudeDegrees>
              <LongitudeDegrees>-0.34734514541923999786376953125</LongitudeDegrees>
            </Position>
            <AltitudeMeters>420.20001220703125</AltitudeMeters>
            <DistanceMeters>6572.0529577065</DistanceMeters>
          </Trackpoint>
          <Trackpoint>
            <Time>2022-02-06T10:00:07.000Z</Time>
            <Position>
              <LatitudeDegrees>39.1315756179392337799072265625</LatitudeDegrees>
              <LongitudeDegrees>-0.3473267890512943267822265625</LongitudeDegrees>
            </Position>
            <AltitudeMeters>419</AltitudeMeters>
            <DistanceMeters>6573.6988686801</DistanceMeters>
          </Trackpoint>
          <Trackpoint>
            <Time>2022-02-06T10:00:17.000Z</Time>
            <Position>
              <LatitudeDegrees>39.13154284469783306121826171875</LatitudeDegrees>
              <LongitudeDegrees>-0.3472610749304294586181640625</LongitudeDegrees>
            </Position>
            <AltitudeMeters>416</AltitudeMeters>
            <DistanceMeters>6580.443757495</DistanceMeters>
          </Trackpoint>
          <Trackpoint>
            <Time>2022-02-06T10:00:49.000Z</Time>
            <Position>
              <LatitudeDegrees>39.1314445249736309051513671875</LatitudeDegrees>
              <LongitudeDegrees>-0.34706510603427886962890625</LongitudeDegrees>
            </Position>
            <AltitudeMeters>411</AltitudeMeters>
            <DistanceMeters>6600.5934546905</DistanceMeters>
          </Trackpoint>
          <Trackpoint>
            <Time>2022-02-06T10:01:18.000Z</Time>
            <Position>
              <LatitudeDegrees>39.1313908807933330535888671875</LatitudeDegrees>
              <LongitudeDegrees>-0.34693770110607147216796875</LongitudeDegrees>
            </Position>
            <AltitudeMeters>407.399993896484375</AltitudeMeters>
            <DistanceMeters>6613.1095949163</DistanceMeters>
          </Trackpoint>
          <Trackpoint>
            <Time>2022-02-06T10:01:47.000Z</Time>
            <Position>
              <LatitudeDegrees>39.13132189773023128509521484375</LatitudeDegrees>
              <LongitudeDegrees>-0.3467427380383014678955078125</LongitudeDegrees>
            </Position>
            <AltitudeMeters>407.79998779296875</AltitudeMeters>
            <DistanceMeters>6631.6107861667</DistanceMeters>
          </Trackpoint>
          <Trackpoint>
            <Time>2022-02-06T10:01:48.000Z</Time>
            <Position>
              <LatitudeDegrees>39.13130781613290309906005859375</LatitudeDegrees>
              <LongitudeDegrees>-0.346733517944812774658203125</LongitudeDegrees>
            </Position>
            <AltitudeMeters>408.79998779296875</AltitudeMeters>
            <DistanceMeters>6633.3681381928</DistanceMeters>
          </Trackpoint>
          <Trackpoint>
            <Time>2022-02-06T10:02:21.000Z</Time>
            <Position>
              <LatitudeDegrees>39.13117446005344390869140625</LatitudeDegrees>
              <LongitudeDegrees>-0.3465858288109302520751953125</LongitudeDegrees>
            </Position>
            <AltitudeMeters>412.399993896484375</AltitudeMeters>
            <DistanceMeters>6652.9360285097</DistanceMeters>
          </Trackpoint>
          <Trackpoint>
            <Time>2022-02-06T10:02:34.000Z</Time>
            <Position>
              <LatitudeDegrees>39.131154008209705352783203125</LatitudeDegrees>
              <LongitudeDegrees>-0.3465201146900653839111328125</LongitudeDegrees>
            </Position>
            <AltitudeMeters>413.20001220703125</AltitudeMeters>
            <DistanceMeters>6659.0503164059</DistanceMeters>
          </Trackpoint>
          <Trackpoint>
            <Time>2022-02-06T10:02:35.000Z</Time>
            <Position>
              <LatitudeDegrees>39.1311545111238956451416015625</LatitudeDegrees>
              <LongitudeDegrees>-0.34651164896786212921142578125</LongitudeDegrees>
            </Position>
            <AltitudeMeters>413.20001220703125</AltitudeMeters>
            <DistanceMeters>6659.7863901703</DistanceMeters>
          </Trackpoint>
          <Trackpoint>
            <Time>2022-02-06T10:02:37.000Z</Time>
            <Position>
              <LatitudeDegrees>39.13115945644676685333251953125</LatitudeDegrees>
              <LongitudeDegrees>-0.34648708999156951904296875</LongitudeDegrees>
            </Position>
            <AltitudeMeters>413</AltitudeMeters>
            <DistanceMeters>6661.9781932336</DistanceMeters>
          </Trackpoint>
          <Trackpoint>
            <Time>2022-02-06T10:02:38.000Z</Time>
            <Position>
              <LatitudeDegrees>39.131158702075481414794921875</LatitudeDegrees>
              <LongitudeDegrees>-0.346476696431636810302734375</LongitudeDegrees>
            </Position>
            <AltitudeMeters>413</AltitudeMeters>
            <DistanceMeters>6662.8796958015</DistanceMeters>
          </Trackpoint>
          <Trackpoint>
            <Time>2022-02-06T10:02:39.000Z</Time>
            <Position>
              <LatitudeDegrees>39.1311558522284030914306640625</LatitudeDegrees>
              <LongitudeDegrees>-0.34646504558622837066650390625</LongitudeDegrees>
            </Position>
            <AltitudeMeters>413</AltitudeMeters>
            <DistanceMeters>6663.9335930463</DistanceMeters>
          </Trackpoint>
          <Trackpoint>
            <Time>2022-02-06T10:02:40.000Z</Time>
            <Position>
              <LatitudeDegrees>39.1311558522284030914306640625</LatitudeDegrees>
              <LongitudeDegrees>-0.3464554063975811004638671875</LongitudeDegrees>
            </Position>
            <AltitudeMeters>412.79998779296875</AltitudeMeters>
            <DistanceMeters>6664.7620167361</DistanceMeters>
          </Trackpoint>
          <Trackpoint>
            <Time>2022-02-06T10:02:42.000Z</Time>
            <Position>
              <LatitudeDegrees>39.131155349314212799072265625</LatitudeDegrees>
              <LongitudeDegrees>-0.34643822349607944488525390625</LongitudeDegrees>
            </Position>
            <AltitudeMeters>412.600006103515625</AltitudeMeters>
            <DistanceMeters>6666.2494200872</DistanceMeters>
          </Trackpoint>
          <Trackpoint>
            <Time>2022-02-06T10:02:43.000Z</Time>
            <Position>
              <LatitudeDegrees>39.13115912117063999176025390625</LatitudeDegrees>
              <LongitudeDegrees>-0.346429087221622467041015625</LongitudeDegrees>
            </Position>
            <AltitudeMeters>412.399993896484375</AltitudeMeters>
            <DistanceMeters>6667.1509226551</DistanceMeters>
          </Trackpoint>
          <Trackpoint>
            <Time>2022-02-06T10:02:44.000Z</Time>
            <Position>
              <LatitudeDegrees>39.13116163574159145355224609375</LatitudeDegrees>
              <LongitudeDegrees>-0.34642213024199008941650390625</LongitudeDegrees>
            </Position>
            <AltitudeMeters>412.20001220703125</AltitudeMeters>
            <DistanceMeters>6667.8161096557</DistanceMeters>
          </Trackpoint>
          <Trackpoint>
            <Time>2022-02-06T10:02:54.000Z</Time>
            <Position>
              <LatitudeDegrees>39.13120455108582973480224609375</LatitudeDegrees>
              <LongitudeDegrees>-0.34633529372513294219970703125</LongitudeDegrees>
            </Position>
            <AltitudeMeters>410</AltitudeMeters>
            <DistanceMeters>6676.70606067</DistanceMeters>
          </Trackpoint>
          <Trackpoint>
            <Time>2022-02-06T10:02:56.000Z</Time>
            <Position>
              <LatitudeDegrees>39.131206981837749481201171875</LatitudeDegrees>
              <LongitudeDegrees>-0.3463122434914112091064453125</LongitudeDegrees>
            </Position>
            <AltitudeMeters>410</AltitudeMeters>
            <DistanceMeters>6678.7173971031</DistanceMeters>
          </Trackpoint>
          <Trackpoint>
            <Time>2022-02-06T10:02:57.000Z</Time>
            <Position>
              <LatitudeDegrees>39.13120941258966922760009765625</LatitudeDegrees>
              <LongitudeDegrees>-0.346300341188907623291015625</LongitudeDegrees>
            </Position>
            <AltitudeMeters>410</AltitudeMeters>
            <DistanceMeters>6679.7798280681</DistanceMeters>
          </Trackpoint>
          <Trackpoint>
            <Time>2022-02-06T10:02:58.000Z</Time>
            <Position>
              <LatitudeDegrees>39.1312128491699695587158203125</LatitudeDegrees>
              <LongitudeDegrees>-0.34628936089575290679931640625</LongitudeDegrees>
            </Position>
            <AltitudeMeters>409.79998779296875</AltitudeMeters>
            <DistanceMeters>6680.7988760508</DistanceMeters>
          </Trackpoint>
          <Trackpoint>
            <Time>2022-02-06T10:02:59.000Z</Time>
            <Position>
              <LatitudeDegrees>39.1312135197222232818603515625</LatitudeDegrees>
              <LongitudeDegrees>-0.3462760336697101593017578125</LongitudeDegrees>
            </Position>
            <AltitudeMeters>409.79998779296875</AltitudeMeters>
            <DistanceMeters>6681.9510137324</DistanceMeters>
          </Trackpoint>
          <Trackpoint>
            <Time>2022-02-06T10:03:02.000Z</Time>
            <Position>
              <LatitudeDegrees>39.13120790384709835052490234375</LatitudeDegrees>
              <LongitudeDegrees>-0.3462557494640350341796875</LongitudeDegrees>
            </Position>
            <AltitudeMeters>410</AltitudeMeters>
            <DistanceMeters>6683.8082937871</DistanceMeters>
          </Trackpoint>
          <Trackpoint>
            <Time>2022-02-06T10:03:03.000Z</Time>
            <Position>
              <LatitudeDegrees>39.13120773620903491973876953125</LatitudeDegrees>
              <LongitudeDegrees>-0.3462517261505126953125</LongitudeDegrees>
            </Position>
            <AltitudeMeters>410</AltitudeMeters>
            <DistanceMeters>6684.1638511948</DistanceMeters>
          </Trackpoint>
          <Trackpoint>
            <Time>2022-02-06T10:03:06.000Z</Time>
            <Position>
              <LatitudeDegrees>39.13119616918265819549560546875</LatitudeDegrees>
              <LongitudeDegrees>-0.346227586269378662109375</LongitudeDegrees>
            </Position>
            <AltitudeMeters>410.20001220703125</AltitudeMeters>
            <DistanceMeters>6686.6143615162</DistanceMeters>
          </Trackpoint>
          <Trackpoint>
            <Time>2022-02-06T10:03:10.000Z</Time>
            <Position>
              <LatitudeDegrees>39.13119633682072162628173828125</LatitudeDegrees>
              <LongitudeDegrees>-0.34619741141796112060546875</LongitudeDegrees>
            </Position>
            <AltitudeMeters>410.20001220703125</AltitudeMeters>
            <DistanceMeters>6689.2202428423</DistanceMeters>
          </Trackpoint>
          <Trackpoint>
            <Time>2022-02-06T10:03:14.000Z</Time>
            <Position>
              <LatitudeDegrees>39.1312044672667980194091796875</LatitudeDegrees>
              <LongitudeDegrees>-0.34614703617990016937255859375</LongitudeDegrees>
            </Position>
            <AltitudeMeters>410</AltitudeMeters>
            <DistanceMeters>6693.6631863606</DistanceMeters>
          </Trackpoint>
          <Trackpoint>
            <Time>2022-02-06T10:03:19.000Z</Time>
            <Position>
              <LatitudeDegrees>39.1311907209455966949462890625</LatitudeDegrees>
              <LongitudeDegrees>-0.346110574901103973388671875</LongitudeDegrees>
            </Position>
            <AltitudeMeters>410.79998779296875</AltitudeMeters>
            <DistanceMeters>6697.16502071</DistanceMeters>
          </Trackpoint>
          <Trackpoint>
            <Time>2022-02-06T10:03:25.000Z</Time>
            <Position>
              <LatitudeDegrees>39.13117722608149051666259765625</LatitudeDegrees>
              <LongitudeDegrees>-0.3460815735161304473876953125</LongitudeDegrees>
            </Position>
            <AltitudeMeters>411.399993896484375</AltitudeMeters>
            <DistanceMeters>6700.0846768821</DistanceMeters>
          </Trackpoint>
          <Trackpoint>
            <Time>2022-02-06T10:03:28.000Z</Time>
            <Position>
              <LatitudeDegrees>39.13117990829050540924072265625</LatitudeDegrees>
              <LongitudeDegrees>-0.34605416469275951385498046875</LongitudeDegrees>
            </Position>
            <AltitudeMeters>411.399993896484375</AltitudeMeters>
            <DistanceMeters>6702.4698284831</DistanceMeters>
          </Trackpoint>
          <Trackpoint>
            <Time>2022-02-06T10:03:32.000Z</Time>
            <Position>
              <LatitudeDegrees>39.13118678145110607147216796875</LatitudeDegrees>
              <LongitudeDegrees>-0.34600705839693546295166015625</LongitudeDegrees>
            </Position>
            <AltitudeMeters>411.20001220703125</AltitudeMeters>
            <DistanceMeters>6706.6097662955</DistanceMeters>
          </Trackpoint>
          <Trackpoint>
            <Time>2022-02-06T10:03:46.000Z</Time>
            <Position>
              <LatitudeDegrees>39.13120404817163944244384765625</LatitudeDegrees>
              <LongitudeDegrees>-0.34592759795486927032470703125</LongitudeDegrees>
            </Position>
            <AltitudeMeters>410.600006103515625</AltitudeMeters>
            <DistanceMeters>6713.7342353769</DistanceMeters>
          </Trackpoint>
          <Trackpoint>
            <Time>2022-02-06T10:03:47.000Z</Time>
            <Position>
              <LatitudeDegrees>39.13120706565678119659423828125</LatitudeDegrees>
              <LongitudeDegrees>-0.345919467508792877197265625</LongitudeDegrees>
            </Position>
            <AltitudeMeters>410.600006103515625</AltitudeMeters>
            <DistanceMeters>6714.5120625568</DistanceMeters>
          </Trackpoint>
          <Trackpoint>
            <Time>2022-02-06T10:03:48.000Z</Time>
            <Position>
              <LatitudeDegrees>39.13121041841804981231689453125</LatitudeDegrees>
              <LongitudeDegrees>-0.34590949304401874542236328125</LongitudeDegrees>
            </Position>
            <AltitudeMeters>410.399993896484375</AltitudeMeters>
            <DistanceMeters>6715.447967154</DistanceMeters>
          </Trackpoint>
          <Trackpoint>
            <Time>2022-02-06T10:03:50.000Z</Time>
            <Position>
              <LatitudeDegrees>39.1312198899686336517333984375</LatitudeDegrees>
              <LongitudeDegrees>-0.345885939896106719970703125</LongitudeDegrees>
            </Position>
            <AltitudeMeters>410.20001220703125</AltitudeMeters>
            <DistanceMeters>6717.7384855263</DistanceMeters>
          </Trackpoint>
          <Trackpoint>
            <Time>2022-02-06T10:03:51.000Z</Time>
            <Position>
              <LatitudeDegrees>39.131220392882823944091796875</LatitudeDegrees>
              <LongitudeDegrees>-0.34587420523166656494140625</LongitudeDegrees>
            </Position>
            <AltitudeMeters>410.20001220703125</AltitudeMeters>
            <DistanceMeters>6718.7530931916</DistanceMeters>
          </Trackpoint>
          <Trackpoint>
            <Time>2022-02-06T10:03:53.000Z</Time>
            <Position>
              <LatitudeDegrees>39.131213016808032989501953125</LatitudeDegrees>
              <LongitudeDegrees>-0.34586020745337009429931640625</LongitudeDegrees>
            </Position>
            <AltitudeMeters>410.399993896484375</AltitudeMeters>
            <DistanceMeters>6720.2160108644</DistanceMeters>
          </Trackpoint>
          <Trackpoint>
            <Time>2022-02-06T10:03:54.000Z</Time>
            <Position>
              <LatitudeDegrees>39.13121243007481098175048828125</LatitudeDegrees>
              <LongitudeDegrees>-0.345855094492435455322265625</LongitudeDegrees>
            </Position>
            <AltitudeMeters>410.399993896484375</AltitudeMeters>
            <DistanceMeters>6720.6617256631</DistanceMeters>
          </Trackpoint>
          <Trackpoint>
            <Time>2022-02-06T10:03:55.000Z</Time>
            <Position>
              <LatitudeDegrees>39.1312125138938426971435546875</LatitudeDegrees>
              <LongitudeDegrees>-0.34584880806505680084228515625</LongitudeDegrees>
            </Position>
            <AltitudeMeters>410.600006103515625</AltitudeMeters>
            <DistanceMeters>6721.1992779361</DistanceMeters>
          </Trackpoint>
          <Trackpoint>
            <Time>2022-02-06T10:03:58.000Z</Time>
            <Position>
              <LatitudeDegrees>39.1312126815319061279296875</LatitudeDegrees>
              <LongitudeDegrees>-0.3458264283835887908935546875</LongitudeDegrees>
            </Position>
            <AltitudeMeters>410.600006103515625</AltitudeMeters>
            <DistanceMeters>6723.1281095759</DistanceMeters>
          </Trackpoint>
          <Trackpoint>
            <Time>2022-02-06T10:03:59.000Z</Time>
            <Position>
              <LatitudeDegrees>39.131213687360286712646484375</LatitudeDegrees>
              <LongitudeDegrees>-0.34582299180328845977783203125</LongitudeDegrees>
            </Position>
            <AltitudeMeters>410.600006103515625</AltitudeMeters>
            <DistanceMeters>6723.4286104319</DistanceMeters>
          </Trackpoint>
          <Trackpoint>
            <Time>2022-02-06T10:04:01.000Z</Time>
            <Position>
              <LatitudeDegrees>39.13121427409350872039794921875</LatitudeDegrees>
              <LongitudeDegrees>-0.34580974839627742767333984375</LongitudeDegrees>
            </Position>
            <AltitudeMeters>410.79998779296875</AltitudeMeters>
            <DistanceMeters>6724.5728836005</DistanceMeters>
          </Trackpoint>
          <Trackpoint>
            <Time>2022-02-06T10:04:03.000Z</Time>
            <Position>
              <LatitudeDegrees>39.1312074847519397735595703125</LatitudeDegrees>
              <LongitudeDegrees>-0.34580036066472530364990234375</LongitudeDegrees>
            </Position>
            <AltitudeMeters>411</AltitudeMeters>
            <DistanceMeters>6725.6810760009</DistanceMeters>
          </Trackpoint>
          <Trackpoint>
            <Time>2022-02-06T10:04:09.000Z</Time>
            <Position>
              <LatitudeDegrees>39.131206311285495758056640625</LatitudeDegrees>
              <LongitudeDegrees>-0.34580203704535961151123046875</LongitudeDegrees>
            </Position>
            <AltitudeMeters>411</AltitudeMeters>
            <DistanceMeters>6725.8711294297</DistanceMeters>
          </Trackpoint>
          <Trackpoint>
            <Time>2022-02-06T10:04:26.000Z</Time>
            <Position>
              <LatitudeDegrees>39.1312044672667980194091796875</LatitudeDegrees>
              <LongitudeDegrees>-0.34566993825137615203857421875</LongitudeDegrees>
            </Position>
            <AltitudeMeters>407.399993896484375</AltitudeMeters>
            <DistanceMeters>6737.2778980992</DistanceMeters>
          </Trackpoint>
          <Trackpoint>
            <Time>2022-02-06T10:04:29.000Z</Time>
            <Position>
              <LatitudeDegrees>39.13118376396596431732177734375</LatitudeDegrees>
              <LongitudeDegrees>-0.3456319682300090789794921875</LongitudeDegrees>
            </Position>
            <AltitudeMeters>407</AltitudeMeters>
            <DistanceMeters>6741.2848265884</DistanceMeters>
          </Trackpoint>
          <Trackpoint>
            <Time>2022-02-06T10:04:30.000Z</Time>
            <Position>
              <LatitudeDegrees>39.13117538206279277801513671875</LatitudeDegrees>
              <LongitudeDegrees>-0.3456215746700763702392578125</LongitudeDegrees>
            </Position>
            <AltitudeMeters>407</AltitudeMeters>
            <DistanceMeters>6742.5773296414</DistanceMeters>
          </Trackpoint>
          <Trackpoint>
            <Time>2022-02-06T10:04:31.000Z</Time>
            <Position>
              <LatitudeDegrees>39.1311670839786529541015625</LatitudeDegrees>
              <LongitudeDegrees>-0.34561243839561939239501953125</LongitudeDegrees>
            </Position>
            <AltitudeMeters>407.20001220703125</AltitudeMeters>
            <DistanceMeters>6743.7905495145</DistanceMeters>
          </Trackpoint>
          <Trackpoint>
            <Time>2022-02-06T10:04:34.000Z</Time>
            <Position>
              <LatitudeDegrees>39.13114369846880435943603515625</LatitudeDegrees>
              <LongitudeDegrees>-0.34558997489511966705322265625</LongitudeDegrees>
            </Position>
            <AltitudeMeters>408.20001220703125</AltitudeMeters>
            <DistanceMeters>6747.0354022282</DistanceMeters>
          </Trackpoint>
          <Trackpoint>
            <Time>2022-02-06T10:04:37.000Z</Time>
            <Position>
              <LatitudeDegrees>39.13112224079668521881103515625</LatitudeDegrees>
              <LongitudeDegrees>-0.3455743007361888885498046875</LongitudeDegrees>
            </Position>
            <AltitudeMeters>409</AltitudeMeters>
            <DistanceMeters>6749.7796842389</DistanceMeters>
          </Trackpoint>
          <Trackpoint>
            <Time>2022-02-06T10:04:39.000Z</Time>
            <Position>
              <LatitudeDegrees>39.13110564462840557098388671875</LatitudeDegrees>
              <LongitudeDegrees>-0.34556843340396881103515625</LongitudeDegrees>
            </Position>
            <AltitudeMeters>409.79998779296875</AltitudeMeters>
            <DistanceMeters>6751.6944194781</DistanceMeters>
          </Trackpoint>
          <Trackpoint>
            <Time>2022-02-06T10:04:42.000Z</Time>
            <Position>
              <LatitudeDegrees>39.13108267821371555328369140625</LatitudeDegrees>
              <LongitudeDegrees>-0.34555912949144840240478515625</LongitudeDegrees>
            </Position>
            <AltitudeMeters>410.79998779296875</AltitudeMeters>
            <DistanceMeters>6754.3754530194</DistanceMeters>
          </Trackpoint>
          <Trackpoint>
            <Time>2022-02-06T10:04:45.000Z</Time>
            <Position>
              <LatitudeDegrees>39.1310666687786579132080078125</LatitudeDegrees>
              <LongitudeDegrees>-0.3455610573291778564453125</LongitudeDegrees>
            </Position>
            <AltitudeMeters>411.79998779296875</AltitudeMeters>
            <DistanceMeters>6756.1658935064</DistanceMeters>
          </Trackpoint>
          <Trackpoint>
            <Time>2022-02-06T10:04:48.000Z</Time>
            <Position>
              <LatitudeDegrees>39.131045043468475341796875</LatitudeDegrees>
              <LongitudeDegrees>-0.34555829130113124847412109375</LongitudeDegrees>
            </Position>
            <AltitudeMeters>412.79998779296875</AltitudeMeters>
            <DistanceMeters>6758.5848787349</DistanceMeters>
          </Trackpoint>
          <Trackpoint>
            <Time>2022-02-06T10:04:51.000Z</Time>
            <Position>
              <LatitudeDegrees>39.1310264356434345245361328125</LatitudeDegrees>
              <LongitudeDegrees>-0.34556197933852672576904296875</LongitudeDegrees>
            </Position>
            <AltitudeMeters>414</AltitudeMeters>
            <DistanceMeters>6760.6776250347</DistanceMeters>
          </Trackpoint>
          <Trackpoint>
            <Time>2022-02-06T10:04:56.000Z</Time>
            <Position>
              <LatitudeDegrees>39.131005145609378814697265625</LatitudeDegrees>
              <LongitudeDegrees>-0.34554538317024707794189453125</LongitudeDegrees>
            </Position>
            <AltitudeMeters>414.79998779296875</AltitudeMeters>
            <DistanceMeters>6763.4448447268</DistanceMeters>
          </Trackpoint>
          <Trackpoint>
            <Time>2022-02-06T10:05:04.000Z</Time>
            <Position>
              <LatitudeDegrees>39.1309543512761592864990234375</LatitudeDegrees>
              <LongitudeDegrees>-0.34547916613519191741943359375</LongitudeDegrees>
            </Position>
            <AltitudeMeters>415.600006103515625</AltitudeMeters>
            <DistanceMeters>6771.4845765125</DistanceMeters>
          </Trackpoint>
          <Trackpoint>
            <Time>2022-02-06T10:05:16.000Z</Time>
            <Position>
              <LatitudeDegrees>39.1308859549462795257568359375</LatitudeDegrees>
              <LongitudeDegrees>-0.3453778289258480072021484375</LongitudeDegrees>
            </Position>
            <AltitudeMeters>416.399993896484375</AltitudeMeters>
            <DistanceMeters>6783.0817295492</DistanceMeters>
          </Trackpoint>
          <Trackpoint>
            <Time>2022-02-06T10:05:24.000Z</Time>
            <Position>
              <LatitudeDegrees>39.1308467276394367218017578125</LatitudeDegrees>
              <LongitudeDegrees>-0.3453411161899566650390625</LongitudeDegrees>
            </Position>
            <AltitudeMeters>417.600006103515625</AltitudeMeters>
            <DistanceMeters>6788.4765359756</DistanceMeters>
          </Trackpoint>
          <Trackpoint>
            <Time>2022-02-06T10:05:44.000Z</Time>
            <Position>
              <LatitudeDegrees>39.1307679377496242523193359375</LatitudeDegrees>
              <LongitudeDegrees>-0.34527950920164585113525390625</LongitudeDegrees>
            </Position>
            <AltitudeMeters>420</AltitudeMeters>
            <DistanceMeters>6798.7323796961</DistanceMeters>
          </Trackpoint>
          <Trackpoint>
            <Time>2022-02-06T10:05:46.000Z</Time>
            <Position>
              <LatitudeDegrees>39.130757711827754974365234375</LatitudeDegrees>
              <LongitudeDegrees>-0.34528277814388275146484375</LongitudeDegrees>
            </Position>
            <AltitudeMeters>420.600006103515625</AltitudeMeters>
            <DistanceMeters>6799.9039477136</DistanceMeters>
          </Trackpoint>
          <Trackpoint>
            <Time>2022-02-06T10:05:47.000Z</Time>
            <Position>
              <LatitudeDegrees>39.13075343705713748931884765625</LatitudeDegrees>
              <LongitudeDegrees>-0.3452856279909610748291015625</LongitudeDegrees>
            </Position>
            <AltitudeMeters>420.79998779296875</AltitudeMeters>
            <DistanceMeters>6800.4414999866</DistanceMeters>
          </Trackpoint>
          <Trackpoint>
            <Time>2022-02-06T10:05:48.000Z</Time>
            <Position>
              <LatitudeDegrees>39.1307454742491245269775390625</LatitudeDegrees>
              <LongitudeDegrees>-0.345288813114166259765625</LongitudeDegrees>
            </Position>
            <AltitudeMeters>421.20001220703125</AltitudeMeters>
            <DistanceMeters>6801.3725678351</DistanceMeters>
          </Trackpoint>
          <Trackpoint>
            <Time>2022-02-06T10:05:50.000Z</Time>
            <Position>
              <LatitudeDegrees>39.1307414509356021881103515625</LatitudeDegrees>
              <LongitudeDegrees>-0.3452953509986400604248046875</LongitudeDegrees>
            </Position>
            <AltitudeMeters>421.399993896484375</AltitudeMeters>
            <DistanceMeters>6802.0962697308</DistanceMeters>
          </Trackpoint>
          <Trackpoint>
            <Time>2022-02-06T10:05:51.000Z</Time>
            <Position>
              <LatitudeDegrees>39.1307407803833484649658203125</LatitudeDegrees>
              <LongitudeDegrees>-0.345297865569591522216796875</LongitudeDegrees>
            </Position>
            <AltitudeMeters>421.399993896484375</AltitudeMeters>
            <DistanceMeters>6802.3290366929</DistanceMeters>
          </Trackpoint>
          <Trackpoint>
            <Time>2022-02-06T10:05:53.000Z</Time>
            <Position>
              <LatitudeDegrees>39.13073600269854068756103515625</LatitudeDegrees>
              <LongitudeDegrees>-0.3453040681779384613037109375</LongitudeDegrees>
            </Position>
            <AltitudeMeters>421.79998779296875</AltitudeMeters>
            <DistanceMeters>6803.0832878553</DistanceMeters>
          </Trackpoint>
          <Trackpoint>
            <Time>2022-02-06T10:05:54.000Z</Time>
            <Position>
              <LatitudeDegrees>39.13073432631790637969970703125</LatitudeDegrees>
              <LongitudeDegrees>-0.345307253301143646240234375</LongitudeDegrees>
            </Position>
            <AltitudeMeters>421.79998779296875</AltitudeMeters>
            <DistanceMeters>6803.4259115465</DistanceMeters>
          </Trackpoint>
          <Trackpoint>
            <Time>2022-02-06T10:05:55.000Z</Time>
            <Position>
              <LatitudeDegrees>39.1307374276220798492431640625</LatitudeDegrees>
              <LongitudeDegrees>-0.34530901350080966949462890625</LongitudeDegrees>
            </Position>
            <AltitudeMeters>421.79998779296875</AltitudeMeters>
            <DistanceMeters>6803.806018404</DistanceMeters>
          </Trackpoint>
          <Trackpoint>
            <Time>2022-02-06T10:05:56.000Z</Time>
            <Position>
              <LatitudeDegrees>39.130735583603382110595703125</LatitudeDegrees>
              <LongitudeDegrees>-0.345311947166919708251953125</LongitudeDegrees>
            </Position>
            <AltitudeMeters>422</AltitudeMeters>
            <DistanceMeters>6804.1352005987</DistanceMeters>
          </Trackpoint>
          <Trackpoint>
            <Time>2022-02-06T10:06:00.000Z</Time>
            <Position>
              <LatitudeDegrees>39.1307263635098934173583984375</LatitudeDegrees>
              <LongitudeDegrees>-0.34532795660197734832763671875</LongitudeDegrees>
            </Position>
            <AltitudeMeters>422.399993896484375</AltitudeMeters>
            <DistanceMeters>6805.8588290825</DistanceMeters>
          </Trackpoint>
          <Trackpoint>
            <Time>2022-02-06T10:06:17.000Z</Time>
            <Position>
              <LatitudeDegrees>39.13068956695497035980224609375</LatitudeDegrees>
              <LongitudeDegrees>-0.34541412256658077239990234375</LongitudeDegrees>
            </Position>
            <AltitudeMeters>424.600006103515625</AltitudeMeters>
            <DistanceMeters>6814.3508365296</DistanceMeters>
          </Trackpoint>
          <Trackpoint>
            <Time>2022-02-06T10:06:31.000Z</Time>
            <Position>
              <LatitudeDegrees>39.13063273765146732330322265625</LatitudeDegrees>
              <LongitudeDegrees>-0.34543968737125396728515625</LongitudeDegrees>
            </Position>
            <AltitudeMeters>426.399993896484375</AltitudeMeters>
            <DistanceMeters>6821.0507253348</DistanceMeters>
          </Trackpoint>
          <Trackpoint>
            <Time>2022-02-06T10:06:32.000Z</Time>
            <Position>
              <LatitudeDegrees>39.13063106127083301544189453125</LatitudeDegrees>
              <LongitudeDegrees>-0.34543893299996852874755859375</LongitudeDegrees>
            </Position>
            <AltitudeMeters>426.399993896484375</AltitudeMeters>
            <DistanceMeters>6821.283492297</DistanceMeters>
          </Trackpoint>
          <Trackpoint>
            <Time>2022-02-06T10:06:33.000Z</Time>
            <Position>
              <LatitudeDegrees>39.130635000765323638916015625</LatitudeDegrees>
              <LongitudeDegrees>-0.3454475663602352142333984375</LongitudeDegrees>
            </Position>
            <AltitudeMeters>426.399993896484375</AltitudeMeters>
            <DistanceMeters>6822.143995794</DistanceMeters>
          </Trackpoint>
          <Trackpoint>
            <Time>2022-02-06T10:06:34.000Z</Time>
            <Position>
              <LatitudeDegrees>39.13063592277467250823974609375</LatitudeDegrees>
              <LongitudeDegrees>-0.34544932655990123748779296875</LongitudeDegrees>
            </Position>
            <AltitudeMeters>426.399993896484375</AltitudeMeters>
            <DistanceMeters>6822.3340492227</DistanceMeters>
          </Trackpoint>
          <Trackpoint>
            <Time>2022-02-06T10:06:35.000Z</Time>
            <Position>
              <LatitudeDegrees>39.1306360065937042236328125</LatitudeDegrees>
              <LongitudeDegrees>-0.34544999711215496063232421875</LongitudeDegrees>
            </Position>
            <AltitudeMeters>426.399993896484375</AltitudeMeters>
            <DistanceMeters>6822.468437291</DistanceMeters>
          </Trackpoint>
          <Trackpoint>
            <Time>2022-02-06T10:06:36.000Z</Time>
            <Position>
              <LatitudeDegrees>39.13063592277467250823974609375</LatitudeDegrees>
              <LongitudeDegrees>-0.34544982947409152984619140625</LongitudeDegrees>
            </Position>
            <AltitudeMeters>426.399993896484375</AltitudeMeters>
            <DistanceMeters>6822.468437291</DistanceMeters>
          </Trackpoint>
          <Trackpoint>
            <Time>2022-02-06T10:06:37.000Z</Time>
            <Position>
              <LatitudeDegrees>39.13063642568886280059814453125</LatitudeDegrees>
              <LongitudeDegrees>-0.3454489074647426605224609375</LongitudeDegrees>
            </Position>
            <AltitudeMeters>426.399993896484375</AltitudeMeters>
            <DistanceMeters>6822.6028253592</DistanceMeters>
          </Trackpoint>
          <Trackpoint>
            <Time>2022-02-06T10:06:47.000Z</Time>
            <Position>
              <LatitudeDegrees>39.13060742430388927459716796875</LatitudeDegrees>
              <LongitudeDegrees>-0.34543507732450962066650390625</LongitudeDegrees>
            </Position>
            <AltitudeMeters>427</AltitudeMeters>
            <DistanceMeters>6826.0435273542</DistanceMeters>
          </Trackpoint>
          <Trackpoint>
            <Time>2022-02-06T10:06:49.000Z</Time>
            <Position>
              <LatitudeDegrees>39.13059786893427371978759765625</LatitudeDegrees>
              <LongitudeDegrees>-0.34543893299996852874755859375</LongitudeDegrees>
            </Position>
            <AltitudeMeters>427.20001220703125</AltitudeMeters>
            <DistanceMeters>6827.1517197546</DistanceMeters>
          </Trackpoint>
          <Trackpoint>
            <Time>2022-02-06T10:06:52.000Z</Time>
            <Position>
              <LatitudeDegrees>39.13059887476265430450439453125</LatitudeDegrees>
              <LongitudeDegrees>-0.34544077701866626739501953125</LongitudeDegrees>
            </Position>
            <AltitudeMeters>427.20001220703125</AltitudeMeters>
            <DistanceMeters>6827.3417731834</DistanceMeters>
          </Trackpoint>
          <Trackpoint>
            <Time>2022-02-06T10:06:53.000Z</Time>
            <Position>
              <LatitudeDegrees>39.130599461495876312255859375</LatitudeDegrees>
              <LongitudeDegrees>-0.345441363751888275146484375</LongitudeDegrees>
            </Position>
            <AltitudeMeters>427.20001220703125</AltitudeMeters>
            <DistanceMeters>6827.3417731834</DistanceMeters>
          </Trackpoint>
          <Trackpoint>
            <Time>2022-02-06T10:06:54.000Z</Time>
            <Position>
              <LatitudeDegrees>39.13059954531490802764892578125</LatitudeDegrees>
              <LongitudeDegrees>-0.34544077701866626739501953125</LongitudeDegrees>
            </Position>
            <AltitudeMeters>427.20001220703125</AltitudeMeters>
            <DistanceMeters>6827.3417731834</DistanceMeters>
          </Trackpoint>
          <Trackpoint>
            <Time>2022-02-06T10:07:00.000Z</Time>
            <Position>
              <LatitudeDegrees>39.13056769408285617828369140625</LatitudeDegrees>
              <LongitudeDegrees>-0.34541881643235683441162109375</LongitudeDegrees>
            </Position>
            <AltitudeMeters>427.79998779296875</AltitudeMeters>
            <DistanceMeters>6831.3610774463</DistanceMeters>
          </Trackpoint>
          <Trackpoint>
            <Time>2022-02-06T10:07:01.000Z</Time>
            <Position>
              <LatitudeDegrees>39.13056450895965099334716796875</LatitudeDegrees>
              <LongitudeDegrees>-0.34541663713753223419189453125</LongitudeDegrees>
            </Position>
            <AltitudeMeters>427.79998779296875</AltitudeMeters>
            <DistanceMeters>6831.7642416511</DistanceMeters>
          </Trackpoint>
          <Trackpoint>
            <Time>2022-02-06T10:07:03.000Z</Time>
            <Position>
              <LatitudeDegrees>39.130555875599384307861328125</LatitudeDegrees>
              <LongitudeDegrees>-0.34541018307209014892578125</LongitudeDegrees>
            </Position>
            <AltitudeMeters>428</AltitudeMeters>
            <DistanceMeters>6832.8724340515</DistanceMeters>
          </Trackpoint>
          <Trackpoint>
            <Time>2022-02-06T10:07:04.000Z</Time>
            <Position>
              <LatitudeDegrees>39.13055394776165485382080078125</LatitudeDegrees>
              <LongitudeDegrees>-0.3454033099114894866943359375</LongitudeDegrees>
            </Position>
            <AltitudeMeters>427.79998779296875</AltitudeMeters>
            <DistanceMeters>6833.5027699648</DistanceMeters>
          </Trackpoint>
          <Trackpoint>
            <Time>2022-02-06T10:07:06.000Z</Time>
            <Position>
              <LatitudeDegrees>39.130540788173675537109375</LatitudeDegrees>
              <LongitudeDegrees>-0.3453855402767658233642578125</LongitudeDegrees>
            </Position>
            <AltitudeMeters>427.600006103515625</AltitudeMeters>
            <DistanceMeters>6835.6233779128</DistanceMeters>
          </Trackpoint>
          <Trackpoint>
            <Time>2022-02-06T10:07:08.000Z</Time>
            <Position>
              <LatitudeDegrees>39.13052360527217388153076171875</LatitudeDegrees>
              <LongitudeDegrees>-0.3453721292316913604736328125</LongitudeDegrees>
            </Position>
            <AltitudeMeters>427.399993896484375</AltitudeMeters>
            <DistanceMeters>6837.8600411306</DistanceMeters>
          </Trackpoint>
          <Trackpoint>
            <Time>2022-02-06T10:07:11.000Z</Time>
            <Position>
              <LatitudeDegrees>39.130498878657817840576171875</LatitudeDegrees>
              <LongitudeDegrees>-0.34536198712885379791259765625</LongitudeDegrees>
            </Position>
            <AltitudeMeters>427.600006103515625</AltitudeMeters>
            <DistanceMeters>6840.7486031663</DistanceMeters>
          </Trackpoint>
          <Trackpoint>
            <Time>2022-02-06T10:07:12.000Z</Time>
            <Position>
              <LatitudeDegrees>39.130490161478519439697265625</LatitudeDegrees>
              <LongitudeDegrees>-0.34536249004304409027099609375</LongitudeDegrees>
            </Position>
            <AltitudeMeters>427.600006103515625</AltitudeMeters>
            <DistanceMeters>6841.7223372299</DistanceMeters>
          </Trackpoint>
          <Trackpoint>
            <Time>2022-02-06T10:07:13.000Z</Time>
            <Position>
              <LatitudeDegrees>39.13048622198402881622314453125</LatitudeDegrees>
              <LongitudeDegrees>-0.345359556376934051513671875</LongitudeDegrees>
            </Position>
            <AltitudeMeters>427.600006103515625</AltitudeMeters>
            <DistanceMeters>6842.2340717479</DistanceMeters>
          </Trackpoint>
          <Trackpoint>
            <Time>2022-02-06T10:07:14.000Z</Time>
            <Position>
              <LatitudeDegrees>39.13048404268920421600341796875</LatitudeDegrees>
              <LongitudeDegrees>-0.345353521406650543212890625</LongitudeDegrees>
            </Position>
            <AltitudeMeters>427.600006103515625</AltitudeMeters>
            <DistanceMeters>6842.8042320341</DistanceMeters>
          </Trackpoint>
          <Trackpoint>
            <Time>2022-02-06T10:07:16.000Z</Time>
            <Position>
              <LatitudeDegrees>39.13047415204346179962158203125</LatitudeDegrees>
              <LongitudeDegrees>-0.3453459776937961578369140625</LongitudeDegrees>
            </Position>
            <AltitudeMeters>427.399993896484375</AltitudeMeters>
            <DistanceMeters>6844.0791491921</DistanceMeters>
          </Trackpoint>
          <Trackpoint>
            <Time>2022-02-06T10:07:17.000Z</Time>
            <Position>
              <LatitudeDegrees>39.13046476431190967559814453125</LatitudeDegrees>
              <LongitudeDegrees>-0.34533382393419742584228515625</LongitudeDegrees>
            </Position>
            <AltitudeMeters>427.399993896484375</AltitudeMeters>
            <DistanceMeters>6845.5635139224</DistanceMeters>
          </Trackpoint>
          <Trackpoint>
            <Time>2022-02-06T10:07:18.000Z</Time>
            <Position>
              <LatitudeDegrees>39.13045655004680156707763671875</LatitudeDegrees>
              <LongitudeDegrees>-0.345326364040374755859375</LongitudeDegrees>
            </Position>
            <AltitudeMeters>427.20001220703125</AltitudeMeters>
            <DistanceMeters>6846.6838623618</DistanceMeters>
          </Trackpoint>
          <Trackpoint>
            <Time>2022-02-06T10:07:19.000Z</Time>
            <Position>
              <LatitudeDegrees>39.130448587238788604736328125</LatitudeDegrees>
              <LongitudeDegrees>-0.34532175399363040924072265625</LongitudeDegrees>
            </Position>
            <AltitudeMeters>427</AltitudeMeters>
            <DistanceMeters>6847.6529485035</DistanceMeters>
          </Trackpoint>
          <Trackpoint>
            <Time>2022-02-06T10:07:22.000Z</Time>
            <Position>
              <LatitudeDegrees>39.13042880594730377197265625</LatitudeDegrees>
              <LongitudeDegrees>-0.34530867822468280792236328125</LongitudeDegrees>
            </Position>
            <AltitudeMeters>426.20001220703125</AltitudeMeters>
            <DistanceMeters>6850.1254698387</DistanceMeters>
          </Trackpoint>
          <Trackpoint>
            <Time>2022-02-06T10:07:23.000Z</Time>
            <Position>
              <LatitudeDegrees>39.13042536936700344085693359375</LatitudeDegrees>
              <LongitudeDegrees>-0.34530666656792163848876953125</LongitudeDegrees>
            </Position>
            <AltitudeMeters>426.20001220703125</AltitudeMeters>
            <DistanceMeters>6850.5504422247</DistanceMeters>
          </Trackpoint>
          <Trackpoint>
            <Time>2022-02-06T10:07:24.000Z</Time>
            <Position>
              <LatitudeDegrees>39.13041346706449985504150390625</LatitudeDegrees>
              <LongitudeDegrees>-0.3452966921031475067138671875</LongitudeDegrees>
            </Position>
            <AltitudeMeters>425.600006103515625</AltitudeMeters>
            <DistanceMeters>6852.1291445711</DistanceMeters>
          </Trackpoint>
          <Trackpoint>
            <Time>2022-02-06T10:07:25.000Z</Time>
            <Position>
              <LatitudeDegrees>39.1304034925997257232666015625</LatitudeDegrees>
              <LongitudeDegrees>-0.34529861994087696075439453125</LongitudeDegrees>
            </Position>
            <AltitudeMeters>425.399993896484375</AltitudeMeters>
            <DistanceMeters>6853.2535158186</DistanceMeters>
          </Trackpoint>
          <Trackpoint>
            <Time>2022-02-06T10:07:28.000Z</Time>
            <Position>
              <LatitudeDegrees>39.13039117120206356048583984375</LatitudeDegrees>
              <LongitudeDegrees>-0.34530113451182842254638671875</LongitudeDegrees>
            </Position>
            <AltitudeMeters>425.20001220703125</AltitudeMeters>
            <DistanceMeters>6854.6436368057</DistanceMeters>
          </Trackpoint>
          <Trackpoint>
            <Time>2022-02-06T10:07:32.000Z</Time>
            <Position>
              <LatitudeDegrees>39.1303666122257709503173828125</LatitudeDegrees>
              <LongitudeDegrees>-0.34531152807176113128662109375</LongitudeDegrees>
            </Position>
            <AltitudeMeters>424.600006103515625</AltitudeMeters>
            <DistanceMeters>6857.5196670599</DistanceMeters>
          </Trackpoint>
          <Trackpoint>
            <Time>2022-02-06T10:07:36.000Z</Time>
            <Position>
              <LatitudeDegrees>39.13033962249755859375</LatitudeDegrees>
              <LongitudeDegrees>-0.3453241847455501556396484375</LongitudeDegrees>
            </Position>
            <AltitudeMeters>423.79998779296875</AltitudeMeters>
            <DistanceMeters>6860.7154481003</DistanceMeters>
          </Trackpoint>
          <Trackpoint>
            <Time>2022-02-06T10:07:41.000Z</Time>
            <Position>
              <LatitudeDegrees>39.13031003437936305999755859375</LatitudeDegrees>
              <LongitudeDegrees>-0.34535192884504795074462890625</LongitudeDegrees>
            </Position>
            <AltitudeMeters>423.79998779296875</AltitudeMeters>
            <DistanceMeters>6864.7860979593</DistanceMeters>
          </Trackpoint>
          <Trackpoint>
            <Time>2022-02-06T10:07:46.000Z</Time>
            <Position>
              <LatitudeDegrees>39.13027969188988208770751953125</LatitudeDegrees>
              <LongitudeDegrees>-0.345367603003978729248046875</LongitudeDegrees>
            </Position>
            <AltitudeMeters>423.20001220703125</AltitudeMeters>
            <DistanceMeters>6868.4245168558</DistanceMeters>
          </Trackpoint>
          <Trackpoint>
            <Time>2022-02-06T10:07:54.000Z</Time>
            <Position>
              <LatitudeDegrees>39.13023191504180431365966796875</LatitudeDegrees>
              <LongitudeDegrees>-0.34536651335656642913818359375</LongitudeDegrees>
            </Position>
            <AltitudeMeters>420.79998779296875</AltitudeMeters>
            <DistanceMeters>6873.7426179664</DistanceMeters>
          </Trackpoint>
          <Trackpoint>
            <Time>2022-02-06T10:08:05.000Z</Time>
            <Position>
              <LatitudeDegrees>39.130158238112926483154296875</LatitudeDegrees>
              <LongitudeDegrees>-0.345428287982940673828125</LongitudeDegrees>
            </Position>
            <AltitudeMeters>420.600006103515625</AltitudeMeters>
            <DistanceMeters>6883.5248324435</DistanceMeters>
          </Trackpoint>
          <Trackpoint>
            <Time>2022-02-06T10:08:29.000Z</Time>
            <Position>
              <LatitudeDegrees>39.1300346888601779937744140625</LatitudeDegrees>
              <LongitudeDegrees>-0.34560858272016048431396484375</LongitudeDegrees>
            </Position>
            <AltitudeMeters>425.79998779296875</AltitudeMeters>
            <DistanceMeters>6904.2952898798</DistanceMeters>
          </Trackpoint>
          <Trackpoint>
            <Time>2022-02-06T10:08:48.000Z</Time>
            <Position>
              <LatitudeDegrees>39.12988834083080291748046875</LatitudeDegrees>
              <LongitudeDegrees>-0.3457399271428585052490234375</LongitudeDegrees>
            </Position>
            <AltitudeMeters>428</AltitudeMeters>
            <DistanceMeters>6924.1426832783</DistanceMeters>
          </Trackpoint>
          <Trackpoint>
            <Time>2022-02-06T10:09:05.000Z</Time>
            <Position>
              <LatitudeDegrees>39.12977661006152629852294921875</LatitudeDegrees>
              <LongitudeDegrees>-0.34592793323099613189697265625</LongitudeDegrees>
            </Position>
            <AltitudeMeters>435</AltitudeMeters>
            <DistanceMeters>6944.5910986139</DistanceMeters>
          </Trackpoint>
          <Trackpoint>
            <Time>2022-02-06T10:09:22.000Z</Time>
            <Position>
              <LatitudeDegrees>39.12970318458974361419677734375</LatitudeDegrees>
              <LongitudeDegrees>-0.34615005366504192352294921875</LongitudeDegrees>
            </Position>
            <AltitudeMeters>443</AltitudeMeters>
            <DistanceMeters>6965.4377160599</DistanceMeters>
          </Trackpoint>
          <Trackpoint>
            <Time>2022-02-06T10:09:39.000Z</Time>
            <Position>
              <LatitudeDegrees>39.12957192398607730865478515625</LatitudeDegrees>
              <LongitudeDegrees>-0.34631836228072643280029296875</LongitudeDegrees>
            </Position>
            <AltitudeMeters>451</AltitudeMeters>
            <DistanceMeters>6986.0438378335</DistanceMeters>
          </Trackpoint>
          <Trackpoint>
            <Time>2022-02-06T10:09:57.000Z</Time>
            <Position>
              <LatitudeDegrees>39.1293892823159694671630859375</LatitudeDegrees>
              <LongitudeDegrees>-0.34639698453247547149658203125</LongitudeDegrees>
            </Position>
            <AltitudeMeters>463</AltitudeMeters>
            <DistanceMeters>7007.4754695568</DistanceMeters>
          </Trackpoint>
          <Trackpoint>
            <Time>2022-02-06T10:10:01.000Z</Time>
            <Position>
              <LatitudeDegrees>39.1293426789343357086181640625</LatitudeDegrees>
              <LongitudeDegrees>-0.34640620462596416473388671875</LongitudeDegrees>
            </Position>
            <AltitudeMeters>465.600006103515625</AltitudeMeters>
            <DistanceMeters>7012.7234913893</DistanceMeters>
          </Trackpoint>
          <Trackpoint>
            <Time>2022-02-06T10:10:02.000Z</Time>
            <Position>
              <LatitudeDegrees>39.12933354265987873077392578125</LatitudeDegrees>
              <LongitudeDegrees>-0.346415340900421142578125</LongitudeDegrees>
            </Position>
            <AltitudeMeters>466.399993896484375</AltitudeMeters>
            <DistanceMeters>7014.0124964574</DistanceMeters>
          </Trackpoint>
          <Trackpoint>
            <Time>2022-02-06T10:10:11.000Z</Time>
            <Position>
              <LatitudeDegrees>39.12926229648292064666748046875</LatitudeDegrees>
              <LongitudeDegrees>-0.346451885998249053955078125</LongitudeDegrees>
            </Position>
            <AltitudeMeters>469.399993896484375</AltitudeMeters>
            <DistanceMeters>7022.547461406</DistanceMeters>
          </Trackpoint>
          <Trackpoint>
            <Time>2022-02-06T10:10:14.000Z</Time>
            <Position>
              <LatitudeDegrees>39.1292236559092998504638671875</LatitudeDegrees>
              <LongitudeDegrees>-0.34644819796085357666015625</LongitudeDegrees>
            </Position>
            <AltitudeMeters>469.20001220703125</AltitudeMeters>
            <DistanceMeters>7026.8604600699</DistanceMeters>
          </Trackpoint>
          <Trackpoint>
            <Time>2022-02-06T10:10:15.000Z</Time>
            <Position>
              <LatitudeDegrees>39.1292095743119716644287109375</LatitudeDegrees>
              <LongitudeDegrees>-0.34644861705601215362548828125</LongitudeDegrees>
            </Position>
            <AltitudeMeters>469</AltitudeMeters>
            <DistanceMeters>7028.4276807923</DistanceMeters>
          </Trackpoint>
          <Trackpoint>
            <Time>2022-02-06T10:10:19.000Z</Time>
            <Position>
              <LatitudeDegrees>39.12915953435003757476806640625</LatitudeDegrees>
              <LongitudeDegrees>-0.346456579864025115966796875</LongitudeDegrees>
            </Position>
            <AltitudeMeters>469.20001220703125</AltitudeMeters>
            <DistanceMeters>7034.0382820509</DistanceMeters>
          </Trackpoint>
          <Trackpoint>
            <Time>2022-02-06T10:10:23.000Z</Time>
            <Position>
              <LatitudeDegrees>39.1291240788996219635009765625</LatitudeDegrees>
              <LongitudeDegrees>-0.3464721702039241790771484375</LongitudeDegrees>
            </Position>
            <AltitudeMeters>470</AltitudeMeters>
            <DistanceMeters>7038.2064791526</DistanceMeters>
          </Trackpoint>
          <Trackpoint>
            <Time>2022-02-06T10:10:44.000Z</Time>
            <Position>
              <LatitudeDegrees>39.128955937922000885009765625</LatitudeDegrees>
              <LongitudeDegrees>-0.34654517658054828643798828125</LongitudeDegrees>
            </Position>
            <AltitudeMeters>480.20001220703125</AltitudeMeters>
            <DistanceMeters>7057.9539815575</DistanceMeters>
          </Trackpoint>
          <Trackpoint>
            <Time>2022-02-06T10:11:07.000Z</Time>
            <Position>
              <LatitudeDegrees>39.12884219549596309661865234375</LatitudeDegrees>
              <LongitudeDegrees>-0.3465814702212810516357421875</LongitudeDegrees>
            </Position>
            <AltitudeMeters>488</AltitudeMeters>
            <DistanceMeters>7070.9958571856</DistanceMeters>
          </Trackpoint>
          <Trackpoint>
            <Time>2022-02-06T10:11:17.000Z</Time>
            <Position>
              <LatitudeDegrees>39.12876784801483154296875</LatitudeDegrees>
              <LongitudeDegrees>-0.34660351462662220001220703125</LongitudeDegrees>
            </Position>
            <AltitudeMeters>490.399993896484375</AltitudeMeters>
            <DistanceMeters>7079.4868012043</DistanceMeters>
          </Trackpoint>
          <Trackpoint>
            <Time>2022-02-06T10:11:44.000Z</Time>
            <Position>
              <LatitudeDegrees>39.1285842843353748321533203125</LatitudeDegrees>
              <LongitudeDegrees>-0.34661047160625457763671875</LongitudeDegrees>
            </Position>
            <AltitudeMeters>484.79998779296875</AltitudeMeters>
            <DistanceMeters>7099.9266034723</DistanceMeters>
          </Trackpoint>
          <Trackpoint>
            <Time>2022-02-06T10:12:19.000Z</Time>
            <Position>
              <LatitudeDegrees>39.128444306552410125732421875</LatitudeDegrees>
              <LongitudeDegrees>-0.34661357291042804718017578125</LongitudeDegrees>
            </Position>
            <AltitudeMeters>479.600006103515625</AltitudeMeters>
            <DistanceMeters>7115.5086667319</DistanceMeters>
          </Trackpoint>
          <Trackpoint>
            <Time>2022-02-06T10:12:44.000Z</Time>
            <Position>
              <LatitudeDegrees>39.1282771714031696319580078125</LatitudeDegrees>
              <LongitudeDegrees>-0.34668414853513240814208984375</LongitudeDegrees>
            </Position>
            <AltitudeMeters>477.20001220703125</AltitudeMeters>
            <DistanceMeters>7135.0837085919</DistanceMeters>
          </Trackpoint>
          <Trackpoint>
            <Time>2022-02-06T10:13:10.000Z</Time>
            <Position>
              <LatitudeDegrees>39.12817650474607944488525390625</LatitudeDegrees>
              <LongitudeDegrees>-0.3467011637985706329345703125</LongitudeDegrees>
            </Position>
            <AltitudeMeters>474.79998779296875</AltitudeMeters>
            <DistanceMeters>7146.3842988894</DistanceMeters>
          </Trackpoint>
          <Trackpoint>
            <Time>2022-02-06T10:13:22.000Z</Time>
            <Position>
              <LatitudeDegrees>39.12815161049365997314453125</LatitudeDegrees>
              <LongitudeDegrees>-0.34675204195082187652587890625</LongitudeDegrees>
            </Position>
            <AltitudeMeters>478.20001220703125</AltitudeMeters>
            <DistanceMeters>7151.5769675926</DistanceMeters>
          </Trackpoint>
          <Trackpoint>
            <Time>2022-02-06T10:14:09.000Z</Time>
            <Position>
              <LatitudeDegrees>39.1280468367040157318115234375</LatitudeDegrees>
              <LongitudeDegrees>-0.34689000807702541351318359375</LongitudeDegrees>
            </Position>
            <AltitudeMeters>486.399993896484375</AltitudeMeters>
            <DistanceMeters>7168.247047751</DistanceMeters>
          </Trackpoint>
          <Trackpoint>
            <Time>2022-02-06T10:14:45.000Z</Time>
            <Position>
              <LatitudeDegrees>39.12801356054842472076416015625</LatitudeDegrees>
              <LongitudeDegrees>-0.34702026285231113433837890625</LongitudeDegrees>
            </Position>
            <AltitudeMeters>492.600006103515625</AltitudeMeters>
            <DistanceMeters>7180.0880779826</DistanceMeters>
          </Trackpoint>
          <Trackpoint>
            <Time>2022-02-06T10:15:22.000Z</Time>
            <Position>
              <LatitudeDegrees>39.1278805397450923919677734375</LatitudeDegrees>
              <LongitudeDegrees>-0.34715269692242145538330078125</LongitudeDegrees>
            </Position>
            <AltitudeMeters>497.600006103515625</AltitudeMeters>
            <DistanceMeters>7198.7953122139</DistanceMeters>
          </Trackpoint>
          <Trackpoint>
            <Time>2022-02-06T10:15:37.000Z</Time>
            <Position>
              <LatitudeDegrees>39.1278000734746456146240234375</LatitudeDegrees>
              <LongitudeDegrees>-0.34717507660388946533203125</LongitudeDegrees>
            </Position>
            <AltitudeMeters>498.79998779296875</AltitudeMeters>
            <DistanceMeters>7207.9573857032</DistanceMeters>
          </Trackpoint>
          <Trackpoint>
            <Time>2022-02-06T10:16:09.000Z</Time>
            <Position>
              <LatitudeDegrees>39.1277011670172214508056640625</LatitudeDegrees>
              <LongitudeDegrees>-0.34728932194411754608154296875</LongitudeDegrees>
            </Position>
            <AltitudeMeters>501.79998779296875</AltitudeMeters>
            <DistanceMeters>7222.7388514504</DistanceMeters>
          </Trackpoint>
          <Trackpoint>
            <Time>2022-02-06T10:16:21.000Z</Time>
            <Position>
              <LatitudeDegrees>39.12767275236546993255615234375</LatitudeDegrees>
              <LongitudeDegrees>-0.347314216196537017822265625</LongitudeDegrees>
            </Position>
            <AltitudeMeters>502.399993896484375</AltitudeMeters>
            <DistanceMeters>7226.5612412378</DistanceMeters>
          </Trackpoint>
          <Trackpoint>
            <Time>2022-02-06T10:16:29.000Z</Time>
            <Position>
              <LatitudeDegrees>39.12765732966363430023193359375</LatitudeDegrees>
              <LongitudeDegrees>-0.347335673868656158447265625</LongitudeDegrees>
            </Position>
            <AltitudeMeters>502.399993896484375</AltitudeMeters>
            <DistanceMeters>7229.0861638048</DistanceMeters>
          </Trackpoint>
          <Trackpoint>
            <Time>2022-02-06T10:17:21.000Z</Time>
            <Position>
              <LatitudeDegrees>39.12762816064059734344482421875</LatitudeDegrees>
              <LongitudeDegrees>-0.34742644988000392913818359375</LongitudeDegrees>
            </Position>
            <AltitudeMeters>504</AltitudeMeters>
            <DistanceMeters>7237.5696600922</DistanceMeters>
          </Trackpoint>
          <Trackpoint>
            <Time>2022-02-06T10:18:09.000Z</Time>
            <Position>
              <LatitudeDegrees>39.12756152451038360595703125</LatitudeDegrees>
              <LongitudeDegrees>-0.34754949621856212615966796875</LongitudeDegrees>
            </Position>
            <AltitudeMeters>503.399993896484375</AltitudeMeters>
            <DistanceMeters>7250.5264402157</DistanceMeters>
          </Trackpoint>
          <Trackpoint>
            <Time>2022-02-06T10:18:53.000Z</Time>
            <Position>
              <LatitudeDegrees>39.12746001966297626495361328125</LatitudeDegrees>
              <LongitudeDegrees>-0.34764354117214679718017578125</LongitudeDegrees>
            </Position>
            <AltitudeMeters>501.20001220703125</AltitudeMeters>
            <DistanceMeters>7264.4393377807</DistanceMeters>
          </Trackpoint>
          <Trackpoint>
            <Time>2022-02-06T10:19:12.000Z</Time>
            <Position>
              <LatitudeDegrees>39.12733797915279865264892578125</LatitudeDegrees>
              <LongitudeDegrees>-0.34761403687298297882080078125</LongitudeDegrees>
            </Position>
            <AltitudeMeters>497.600006103515625</AltitudeMeters>
            <DistanceMeters>7278.2597638574</DistanceMeters>
          </Trackpoint>
          <Trackpoint>
            <Time>2022-02-06T10:19:38.000Z</Time>
            <Position>
              <LatitudeDegrees>39.127270840108394622802734375</LatitudeDegrees>
              <LongitudeDegrees>-0.34762778319418430328369140625</LongitudeDegrees>
            </Position>
            <AltitudeMeters>495.600006103515625</AltitudeMeters>
            <DistanceMeters>7285.8261820757</DistanceMeters>
          </Trackpoint>
          <Trackpoint>
            <Time>2022-02-06T10:19:44.000Z</Time>
            <Position>
              <LatitudeDegrees>39.12727477960288524627685546875</LatitudeDegrees>
              <LongitudeDegrees>-0.34765175543725490570068359375</LongitudeDegrees>
            </Position>
            <AltitudeMeters>495.79998779296875</AltitudeMeters>
            <DistanceMeters>7287.9403930018</DistanceMeters>
          </Trackpoint>
          <Trackpoint>
            <Time>2022-02-06T10:20:21.000Z</Time>
            <Position>
              <LatitudeDegrees>39.12738407962024211883544921875</LatitudeDegrees>
              <LongitudeDegrees>-0.3478122688829898834228515625</LongitudeDegrees>
            </Position>
            <AltitudeMeters>496</AltitudeMeters>
            <DistanceMeters>7306.3814525939</DistanceMeters>
          </Trackpoint>
          <Trackpoint>
            <Time>2022-02-06T10:20:30.000Z</Time>
            <Position>
              <LatitudeDegrees>39.127448536455631256103515625</LatitudeDegrees>
              <LongitudeDegrees>-0.34784889779984951019287109375</LongitudeDegrees>
            </Position>
            <AltitudeMeters>493.600006103515625</AltitudeMeters>
            <DistanceMeters>7314.2221643237</DistanceMeters>
          </Trackpoint>
          <Trackpoint>
            <Time>2022-02-06T10:20:35.000Z</Time>
            <Position>
              <LatitudeDegrees>39.127483405172824859619140625</LatitudeDegrees>
              <LongitudeDegrees>-0.347870104014873504638671875</LongitudeDegrees>
            </Position>
            <AltitudeMeters>492.20001220703125</AltitudeMeters>
            <DistanceMeters>7318.5131229426</DistanceMeters>
          </Trackpoint>
          <Trackpoint>
            <Time>2022-02-06T10:20:36.000Z</Time>
            <Position>
              <LatitudeDegrees>39.1274896077811717987060546875</LatitudeDegrees>
              <LongitudeDegrees>-0.34787270240485668182373046875</LongitudeDegrees>
            </Position>
            <AltitudeMeters>492</AltitudeMeters>
            <DistanceMeters>7319.2368248383</DistanceMeters>
          </Trackpoint>
          <Trackpoint>
            <Time>2022-02-06T10:20:45.000Z</Time>
            <Position>
              <LatitudeDegrees>39.12755507044494152069091796875</LatitudeDegrees>
              <LongitudeDegrees>-0.34791964106261730194091796875</LongitudeDegrees>
            </Position>
            <AltitudeMeters>488.399993896484375</AltitudeMeters>
            <DistanceMeters>7327.5732190416</DistanceMeters>
          </Trackpoint>
          <Trackpoint>
            <Time>2022-02-06T10:20:49.000Z</Time>
            <Position>
              <LatitudeDegrees>39.1275890171527862548828125</LatitudeDegrees>
              <LongitudeDegrees>-0.34792467020452022552490234375</LongitudeDegrees>
            </Position>
            <AltitudeMeters>487.600006103515625</AltitudeMeters>
            <DistanceMeters>7331.3766625423</DistanceMeters>
          </Trackpoint>
          <Trackpoint>
            <Time>2022-02-06T10:20:55.000Z</Time>
            <Position>
              <LatitudeDegrees>39.12761709652841091156005859375</LatitudeDegrees>
              <LongitudeDegrees>-0.34794847480952739715576171875</LongitudeDegrees>
            </Position>
            <AltitudeMeters>485.79998779296875</AltitudeMeters>
            <DistanceMeters>7335.1178680282</DistanceMeters>
          </Trackpoint>
          <Trackpoint>
            <Time>2022-02-06T10:20:56.000Z</Time>
            <Position>
              <LatitudeDegrees>39.12761609070003032684326171875</LatitudeDegrees>
              <LongitudeDegrees>-0.3479430265724658966064453125</LongitudeDegrees>
            </Position>
            <AltitudeMeters>486.20001220703125</AltitudeMeters>
            <DistanceMeters>7335.6116413203</DistanceMeters>
          </Trackpoint>
          <Trackpoint>
            <Time>2022-02-06T10:21:06.000Z</Time>
            <Position>
              <LatitudeDegrees>39.12764375098049640655517578125</LatitudeDegrees>
              <LongitudeDegrees>-0.3479723632335662841796875</LongitudeDegrees>
            </Position>
            <AltitudeMeters>484</AltitudeMeters>
            <DistanceMeters>7339.5993680685</DistanceMeters>
          </Trackpoint>
          <Trackpoint>
            <Time>2022-02-06T10:21:07.000Z</Time>
            <Position>
              <LatitudeDegrees>39.127649702131748199462890625</LatitudeDegrees>
              <LongitudeDegrees>-0.34798049367964267730712890625</LongitudeDegrees>
            </Position>
            <AltitudeMeters>483.399993896484375</AltitudeMeters>
            <DistanceMeters>7340.5684542103</DistanceMeters>
          </Trackpoint>
          <Trackpoint>
            <Time>2022-02-06T10:21:25.000Z</Time>
            <Position>
              <LatitudeDegrees>39.12771315313875675201416015625</LatitudeDegrees>
              <LongitudeDegrees>-0.34802894107997417449951171875</LongitudeDegrees>
            </Position>
            <AltitudeMeters>478.79998779296875</AltitudeMeters>
            <DistanceMeters>7348.7765843474</DistanceMeters>
          </Trackpoint>
          <Trackpoint>
            <Time>2022-02-06T10:21:37.000Z</Time>
            <Position>
              <LatitudeDegrees>39.127727486193180084228515625</LatitudeDegrees>
              <LongitudeDegrees>-0.3480756282806396484375</LongitudeDegrees>
            </Position>
            <AltitudeMeters>475.399993896484375</AltitudeMeters>
            <DistanceMeters>7353.1125524234</DistanceMeters>
          </Trackpoint>
          <Trackpoint>
            <Time>2022-02-06T10:21:45.000Z</Time>
            <Position>
              <LatitudeDegrees>39.12772287614643573760986328125</LatitudeDegrees>
              <LongitudeDegrees>-0.3480734489858150482177734375</LongitudeDegrees>
            </Position>
            <AltitudeMeters>475.79998779296875</AltitudeMeters>
            <DistanceMeters>7353.6666486236</DistanceMeters>
          </Trackpoint>
          <Trackpoint>
            <Time>2022-02-06T10:22:11.000Z</Time>
            <Position>
              <LatitudeDegrees>39.12774818949401378631591796875</LatitudeDegrees>
              <LongitudeDegrees>-0.3481059707701206207275390625</LongitudeDegrees>
            </Position>
            <AltitudeMeters>472.79998779296875</AltitudeMeters>
            <DistanceMeters>7357.6441722163</DistanceMeters>
          </Trackpoint>
          <Trackpoint>
            <Time>2022-02-06T10:23:06.000Z</Time>
            <Position>
              <LatitudeDegrees>39.1277767717838287353515625</LatitudeDegrees>
              <LongitudeDegrees>-0.34828525967895984649658203125</LongitudeDegrees>
            </Position>
            <AltitudeMeters>463.20001220703125</AltitudeMeters>
            <DistanceMeters>7373.4477747893</DistanceMeters>
          </Trackpoint>
          <Trackpoint>
            <Time>2022-02-06T10:23:36.000Z</Time>
            <Position>
              <LatitudeDegrees>39.127939380705356597900390625</LatitudeDegrees>
              <LongitudeDegrees>-0.3483721800148487091064453125</LongitudeDegrees>
            </Position>
            <AltitudeMeters>459.20001220703125</AltitudeMeters>
            <DistanceMeters>7393.0405688654</DistanceMeters>
          </Trackpoint>
          <Trackpoint>
            <Time>2022-02-06T10:23:50.000Z</Time>
            <Position>
              <LatitudeDegrees>39.12802361883223056793212890625</LatitudeDegrees>
              <LongitudeDegrees>-0.3483352996408939361572265625</LongitudeDegrees>
            </Position>
            <AltitudeMeters>459.600006103515625</AltitudeMeters>
            <DistanceMeters>7402.9425166551</DistanceMeters>
          </Trackpoint>
          <Trackpoint>
            <Time>2022-02-06T10:23:51.000Z</Time>
            <Position>
              <LatitudeDegrees>39.128027223050594329833984375</LatitudeDegrees>
              <LongitudeDegrees>-0.34833219833672046661376953125</LongitudeDegrees>
            </Position>
            <AltitudeMeters>459.600006103515625</AltitudeMeters>
            <DistanceMeters>7403.4270597259</DistanceMeters>
          </Trackpoint>
          <Trackpoint>
            <Time>2022-02-06T10:23:52.000Z</Time>
            <Position>
              <LatitudeDegrees>39.1280304081737995147705078125</LatitudeDegrees>
              <LongitudeDegrees>-0.34833169542253017425537109375</LongitudeDegrees>
            </Position>
            <AltitudeMeters>459.600006103515625</AltitudeMeters>
            <DistanceMeters>7403.7826171337</DistanceMeters>
          </Trackpoint>
          <Trackpoint>
            <Time>2022-02-06T10:23:53.000Z</Time>
            <Position>
              <LatitudeDegrees>39.12804256193339824676513671875</LatitudeDegrees>
              <LongitudeDegrees>-0.34832532517611980438232421875</LongitudeDegrees>
            </Position>
            <AltitudeMeters>459.600006103515625</AltitudeMeters>
            <DistanceMeters>7405.2455348064</DistanceMeters>
          </Trackpoint>
          <Trackpoint>
            <Time>2022-02-06T10:23:56.000Z</Time>
            <Position>
              <LatitudeDegrees>39.12806536071002483367919921875</LatitudeDegrees>
              <LongitudeDegrees>-0.348328761756420135498046875</LongitudeDegrees>
            </Position>
            <AltitudeMeters>459</AltitudeMeters>
            <DistanceMeters>7407.8024421856</DistanceMeters>
          </Trackpoint>
          <Trackpoint>
            <Time>2022-02-06T10:23:57.000Z</Time>
            <Position>
              <LatitudeDegrees>39.1280713118612766265869140625</LatitudeDegrees>
              <LongitudeDegrees>-0.34832599572837352752685546875</LongitudeDegrees>
            </Position>
            <AltitudeMeters>459</AltitudeMeters>
            <DistanceMeters>7408.500743072</DistanceMeters>
          </Trackpoint>
          <Trackpoint>
            <Time>2022-02-06T10:23:58.000Z</Time>
            <Position>
              <LatitudeDegrees>39.12807726301252841949462890625</LatitudeDegrees>
              <LongitudeDegrees>-0.3483259119093418121337890625</LongitudeDegrees>
            </Position>
            <AltitudeMeters>458.79998779296875</AltitudeMeters>
            <DistanceMeters>7409.1591074614</DistanceMeters>
          </Trackpoint>
          <Trackpoint>
            <Time>2022-02-06T10:23:59.000Z</Time>
            <Position>
              <LatitudeDegrees>39.12807944230735301971435546875</LatitudeDegrees>
              <LongitudeDegrees>-0.34833119250833988189697265625</LongitudeDegrees>
            </Position>
            <AltitudeMeters>458.600006103515625</AltitudeMeters>
            <DistanceMeters>7409.6619415697</DistanceMeters>
          </Trackpoint>
          <Trackpoint>
            <Time>2022-02-06T10:24:00.000Z</Time>
            <Position>
              <LatitudeDegrees>39.1280817054212093353271484375</LatitudeDegrees>
              <LongitudeDegrees>-0.34834091551601886749267578125</LongitudeDegrees>
            </Position>
            <AltitudeMeters>458</AltitudeMeters>
            <DistanceMeters>7410.532875793</DistanceMeters>
          </Trackpoint>
          <Trackpoint>
            <Time>2022-02-06T10:24:05.000Z</Time>
            <Position>
              <LatitudeDegrees>39.12810911424458026885986328125</LatitudeDegrees>
              <LongitudeDegrees>-0.34835767932236194610595703125</LongitudeDegrees>
            </Position>
            <AltitudeMeters>456.79998779296875</AltitudeMeters>
            <DistanceMeters>7413.9086655483</DistanceMeters>
          </Trackpoint>
          <Trackpoint>
            <Time>2022-02-06T10:24:09.000Z</Time>
            <Position>
              <LatitudeDegrees>39.1281281411647796630859375</LatitudeDegrees>
              <LongitudeDegrees>-0.348376370966434478759765625</LongitudeDegrees>
            </Position>
            <AltitudeMeters>455.600006103515625</AltitudeMeters>
            <DistanceMeters>7416.5728052003</DistanceMeters>
          </Trackpoint>
          <Trackpoint>
            <Time>2022-02-06T10:24:12.000Z</Time>
            <Position>
              <LatitudeDegrees>39.1281403787434101104736328125</LatitudeDegrees>
              <LongitudeDegrees>-0.3483933024108409881591796875</LongitudeDegrees>
            </Position>
            <AltitudeMeters>454.600006103515625</AltitudeMeters>
            <DistanceMeters>7418.5706274617</DistanceMeters>
          </Trackpoint>
          <Trackpoint>
            <Time>2022-02-06T10:24:13.000Z</Time>
            <Position>
              <LatitudeDegrees>39.128145240247249603271484375</LatitudeDegrees>
              <LongitudeDegrees>-0.34839187748730182647705078125</LongitudeDegrees>
            </Position>
            <AltitudeMeters>454.600006103515625</AltitudeMeters>
            <DistanceMeters>7419.1247236619</DistanceMeters>
          </Trackpoint>
          <Trackpoint>
            <Time>2022-02-06T10:24:14.000Z</Time>
            <Position>
              <LatitudeDegrees>39.1281477548182010650634765625</LatitudeDegrees>
              <LongitudeDegrees>-0.34839757718145847320556640625</LongitudeDegrees>
            </Position>
            <AltitudeMeters>454.399993896484375</AltitudeMeters>
            <DistanceMeters>7419.6948839481</DistanceMeters>
          </Trackpoint>
          <Trackpoint>
            <Time>2022-02-06T10:24:17.000Z</Time>
            <Position>
              <LatitudeDegrees>39.12815554998815059661865234375</LatitudeDegrees>
              <LongitudeDegrees>-0.34842523746192455291748046875</LongitudeDegrees>
            </Position>
            <AltitudeMeters>453.399993896484375</AltitudeMeters>
            <DistanceMeters>7422.2376255264</DistanceMeters>
          </Trackpoint>
          <Trackpoint>
            <Time>2022-02-06T10:24:21.000Z</Time>
            <Position>
              <LatitudeDegrees>39.12816879339516162872314453125</LatitudeDegrees>
              <LongitudeDegrees>-0.34845239482820034027099609375</LongitudeDegrees>
            </Position>
            <AltitudeMeters>452.399993896484375</AltitudeMeters>
            <DistanceMeters>7425.0081065275</DistanceMeters>
          </Trackpoint>
          <Trackpoint>
            <Time>2022-02-06T10:24:26.000Z</Time>
            <Position>
              <LatitudeDegrees>39.12818740122020244598388671875</LatitudeDegrees>
              <LongitudeDegrees>-0.34847921691834926605224609375</LongitudeDegrees>
            </Position>
            <AltitudeMeters>451.399993896484375</AltitudeMeters>
            <DistanceMeters>7428.1165115518</DistanceMeters>
          </Trackpoint>
          <Trackpoint>
            <Time>2022-02-06T10:24:48.000Z</Time>
            <Position>
              <LatitudeDegrees>39.12826753221452236175537109375</LatitudeDegrees>
              <LongitudeDegrees>-0.34860645420849323272705078125</LongitudeDegrees>
            </Position>
            <AltitudeMeters>447.399993896484375</AltitudeMeters>
            <DistanceMeters>7442.2668795706</DistanceMeters>
          </Trackpoint>
          <Trackpoint>
            <Time>2022-02-06T10:24:54.000Z</Time>
            <Position>
              <LatitudeDegrees>39.12830240093171596527099609375</LatitudeDegrees>
              <LongitudeDegrees>-0.34868113696575164794921875</LongitudeDegrees>
            </Position>
            <AltitudeMeters>444.20001220703125</AltitudeMeters>
            <DistanceMeters>7449.7926113926</DistanceMeters>
          </Trackpoint>
          <Trackpoint>
            <Time>2022-02-06T10:25:22.000Z</Time>
            <Position>
              <LatitudeDegrees>39.12841044366359710693359375</LatitudeDegrees>
              <LongitudeDegrees>-0.34885003231465816497802734375</LongitudeDegrees>
            </Position>
            <AltitudeMeters>435</AltitudeMeters>
            <DistanceMeters>7468.6938524723</DistanceMeters>
          </Trackpoint>
          <Trackpoint>
            <Time>2022-02-06T10:25:28.000Z</Time>
            <Position>
              <LatitudeDegrees>39.1284515149891376495361328125</LatitudeDegrees>
              <LongitudeDegrees>-0.34889579750597476959228515625</LongitudeDegrees>
            </Position>
            <AltitudeMeters>433.399993896484375</AltitudeMeters>
            <DistanceMeters>7474.735339788</DistanceMeters>
          </Trackpoint>
          <Trackpoint>
            <Time>2022-02-06T10:25:29.000Z</Time>
            <Position>
              <LatitudeDegrees>39.12845578975975513458251953125</LatitudeDegrees>
              <LongitudeDegrees>-0.3488982282578945159912109375</LongitudeDegrees>
            </Position>
            <AltitudeMeters>433.399993896484375</AltitudeMeters>
            <DistanceMeters>7475.2558225383</DistanceMeters>
          </Trackpoint>
          <Trackpoint>
            <Time>2022-02-06T10:25:39.000Z</Time>
            <Position>
              <LatitudeDegrees>39.12848596461117267608642578125</LatitudeDegrees>
              <LongitudeDegrees>-0.34892790019512176513671875</LongitudeDegrees>
            </Position>
            <AltitudeMeters>433</AltitudeMeters>
            <DistanceMeters>7479.4799710978</DistanceMeters>
          </Trackpoint>
          <Trackpoint>
            <Time>2022-02-06T10:25:40.000Z</Time>
            <Position>
              <LatitudeDegrees>39.12849032320082187652587890625</LatitudeDegrees>
              <LongitudeDegrees>-0.34893058240413665771484375</LongitudeDegrees>
            </Position>
            <AltitudeMeters>433</AltitudeMeters>
            <DistanceMeters>7480.0175233708</DistanceMeters>
          </Trackpoint>
          <Trackpoint>
            <Time>2022-02-06T10:25:47.000Z</Time>
            <Position>
              <LatitudeDegrees>39.1285534389317035675048828125</LatitudeDegrees>
              <LongitudeDegrees>-0.3490038402378559112548828125</LongitudeDegrees>
            </Position>
            <AltitudeMeters>434.79998779296875</AltitudeMeters>
            <DistanceMeters>7489.470174132</DistanceMeters>
          </Trackpoint>
          <Trackpoint>
            <Time>2022-02-06T10:25:51.000Z</Time>
            <Position>
              <LatitudeDegrees>39.12859090603888034820556640625</LatitudeDegrees>
              <LongitudeDegrees>-0.34904298372566699981689453125</LongitudeDegrees>
            </Position>
            <AltitudeMeters>436.79998779296875</AltitudeMeters>
            <DistanceMeters>7494.8381322105</DistanceMeters>
          </Trackpoint>
          <Trackpoint>
            <Time>2022-02-06T10:25:52.000Z</Time>
            <Position>
              <LatitudeDegrees>39.12860029377043247222900390625</LatitudeDegrees>
              <LongitudeDegrees>-0.34905974753201007843017578125</LongitudeDegrees>
            </Position>
            <AltitudeMeters>436.20001220703125</AltitudeMeters>
            <DistanceMeters>7496.6209914053</DistanceMeters>
          </Trackpoint>
          <Trackpoint>
            <Time>2022-02-06T10:25:53.000Z</Time>
            <Position>
              <LatitudeDegrees>39.1286101005971431732177734375</LatitudeDegrees>
              <LongitudeDegrees>-0.349067710340023040771484375</LongitudeDegrees>
            </Position>
            <AltitudeMeters>436.20001220703125</AltitudeMeters>
            <DistanceMeters>7497.9099964734</DistanceMeters>
          </Trackpoint>
          <Trackpoint>
            <Time>2022-02-06T10:25:54.000Z</Time>
            <Position>
              <LatitudeDegrees>39.128615297377109527587890625</LatitudeDegrees>
              <LongitudeDegrees>-0.34907810389995574951171875</LongitudeDegrees>
            </Position>
            <AltitudeMeters>435.79998779296875</AltitudeMeters>
            <DistanceMeters>7498.9766686967</DistanceMeters>
          </Trackpoint>
          <Trackpoint>
            <Time>2022-02-06T10:26:12.000Z</Time>
            <Position>
              <LatitudeDegrees>39.1287370026111602783203125</LatitudeDegrees>
              <LongitudeDegrees>-0.34924733452498912811279296875</LongitudeDegrees>
            </Position>
            <AltitudeMeters>435</AltitudeMeters>
            <DistanceMeters>7518.9010311866</DistanceMeters>
          </Trackpoint>
          <Trackpoint>
            <Time>2022-02-06T10:26:20.000Z</Time>
            <Position>
              <LatitudeDegrees>39.1287556104362010955810546875</LatitudeDegrees>
              <LongitudeDegrees>-0.3493612445890903472900390625</LongitudeDegrees>
            </Position>
            <AltitudeMeters>429</AltitudeMeters>
            <DistanceMeters>7528.9514259601</DistanceMeters>
          </Trackpoint>
          <Trackpoint>
            <Time>2022-02-06T10:26:31.000Z</Time>
            <Position>
              <LatitudeDegrees>39.1287696920335292816162109375</LatitudeDegrees>
              <LongitudeDegrees>-0.3495972789824008941650390625</LongitudeDegrees>
            </Position>
            <AltitudeMeters>418.399993896484375</AltitudeMeters>
            <DistanceMeters>7549.3907864345</DistanceMeters>
          </Trackpoint>
          <Trackpoint>
            <Time>2022-02-06T10:26:35.000Z</Time>
            <Position>
              <LatitudeDegrees>39.1287851147353649139404296875</LatitudeDegrees>
              <LongitudeDegrees>-0.3496955148875713348388671875</LongitudeDegrees>
            </Position>
            <AltitudeMeters>414.399993896484375</AltitudeMeters>
            <DistanceMeters>7558.0450024028</DistanceMeters>
          </Trackpoint>
          <Trackpoint>
            <Time>2022-02-06T10:26:50.000Z</Time>
            <Position>
              <LatitudeDegrees>39.1289162077009677886962890625</LatitudeDegrees>
              <LongitudeDegrees>-0.3498792462050914764404296875</LongitudeDegrees>
            </Position>
            <AltitudeMeters>412.20001220703125</AltitudeMeters>
            <DistanceMeters>7579.5982678766</DistanceMeters>
          </Trackpoint>
          <Trackpoint>
            <Time>2022-02-06T10:27:01.000Z</Time>
            <Position>
              <LatitudeDegrees>39.1289869509637355804443359375</LatitudeDegrees>
              <LongitudeDegrees>-0.350041687488555908203125</LongitudeDegrees>
            </Position>
            <AltitudeMeters>407.399993896484375</AltitudeMeters>
            <DistanceMeters>7595.6827849697</DistanceMeters>
          </Trackpoint>
          <Trackpoint>
            <Time>2022-02-06T10:27:05.000Z</Time>
            <Position>
              <LatitudeDegrees>39.129006899893283843994140625</LatitudeDegrees>
              <LongitudeDegrees>-0.35007932223379611968994140625</LongitudeDegrees>
            </Position>
            <AltitudeMeters>406.20001220703125</AltitudeMeters>
            <DistanceMeters>7599.6192314863</DistanceMeters>
          </Trackpoint>
          <Trackpoint>
            <Time>2022-02-06T10:27:17.000Z</Time>
            <Position>
              <LatitudeDegrees>39.12908845581114292144775390625</LatitudeDegrees>
              <LongitudeDegrees>-0.350225754082202911376953125</LongitudeDegrees>
            </Position>
            <AltitudeMeters>402</AltitudeMeters>
            <DistanceMeters>7615.183319339</DistanceMeters>
          </Trackpoint>
          <Trackpoint>
            <Time>2022-02-06T10:27:33.000Z</Time>
            <Position>
              <LatitudeDegrees>39.12907697260379791259765625</LatitudeDegrees>
              <LongitudeDegrees>-0.3502768836915493011474609375</LongitudeDegrees>
            </Position>
            <AltitudeMeters>398.600006103515625</AltitudeMeters>
            <DistanceMeters>7619.7791162016</DistanceMeters>
          </Trackpoint>
          <Trackpoint>
            <Time>2022-02-06T10:27:37.000Z</Time>
            <Position>
              <LatitudeDegrees>39.1290177963674068450927734375</LatitudeDegrees>
              <LongitudeDegrees>-0.35024880431592464447021484375</LongitudeDegrees>
            </Position>
            <AltitudeMeters>398.399993896484375</AltitudeMeters>
            <DistanceMeters>7626.7982398704</DistanceMeters>
          </Trackpoint>
          <Trackpoint>
            <Time>2022-02-06T10:27:42.000Z</Time>
            <Position>
              <LatitudeDegrees>39.128939844667911529541015625</LatitudeDegrees>
              <LongitudeDegrees>-0.3501746244728565216064453125</LongitudeDegrees>
            </Position>
            <AltitudeMeters>400.20001220703125</AltitudeMeters>
            <DistanceMeters>7637.5824113509</DistanceMeters>
          </Trackpoint>
          <Trackpoint>
            <Time>2022-02-06T10:27:45.000Z</Time>
            <Position>
              <LatitudeDegrees>39.128880165517330169677734375</LatitudeDegrees>
              <LongitudeDegrees>-0.35014386288821697235107421875</LongitudeDegrees>
            </Position>
            <AltitudeMeters>400.399993896484375</AltitudeMeters>
            <DistanceMeters>7644.7366040576</DistanceMeters>
          </Trackpoint>
          <Trackpoint>
            <Time>2022-02-06T10:27:49.000Z</Time>
            <Position>
              <LatitudeDegrees>39.12879944778978824615478515625</LatitudeDegrees>
              <LongitudeDegrees>-0.3501209802925586700439453125</LongitudeDegrees>
            </Position>
            <AltitudeMeters>399</AltitudeMeters>
            <DistanceMeters>7653.9350722062</DistanceMeters>
          </Trackpoint>
          <Trackpoint>
            <Time>2022-02-06T10:28:03.000Z</Time>
            <Position>
              <LatitudeDegrees>39.12880917079746723175048828125</LatitudeDegrees>
              <LongitudeDegrees>-0.350247211754322052001953125</LongitudeDegrees>
            </Position>
            <AltitudeMeters>394</AltitudeMeters>
            <DistanceMeters>7664.8874936499</DistanceMeters>
          </Trackpoint>
          <Trackpoint>
            <Time>2022-02-06T10:28:14.000Z</Time>
            <Position>
              <LatitudeDegrees>39.12884638644754886627197265625</LatitudeDegrees>
              <LongitudeDegrees>-0.35038962028920650482177734375</LongitudeDegrees>
            </Position>
            <AltitudeMeters>388.20001220703125</AltitudeMeters>
            <DistanceMeters>7677.8620335288</DistanceMeters>
          </Trackpoint>
          <Trackpoint>
            <Time>2022-02-06T10:28:36.000Z</Time>
            <Position>
              <LatitudeDegrees>39.128913022577762603759765625</LatitudeDegrees>
              <LongitudeDegrees>-0.35061174072325229644775390625</LongitudeDegrees>
            </Position>
            <AltitudeMeters>379.399993896484375</AltitudeMeters>
            <DistanceMeters>7698.4242863056</DistanceMeters>
          </Trackpoint>
          <Trackpoint>
            <Time>2022-02-06T10:28:40.000Z</Time>
            <Position>
              <LatitudeDegrees>39.12891830317676067352294921875</LatitudeDegrees>
              <LongitudeDegrees>-0.35065792500972747802734375</LongitudeDegrees>
            </Position>
            <AltitudeMeters>377.600006103515625</AltitudeMeters>
            <DistanceMeters>7702.454808297</DistanceMeters>
          </Trackpoint>
          <Trackpoint>
            <Time>2022-02-06T10:28:46.000Z</Time>
            <Position>
              <LatitudeDegrees>39.1289205662906169891357421875</LatitudeDegrees>
              <LongitudeDegrees>-0.350723974406719207763671875</LongitudeDegrees>
            </Position>
            <AltitudeMeters>375.79998779296875</AltitudeMeters>
            <DistanceMeters>7708.1619516922</DistanceMeters>
          </Trackpoint>
          <Trackpoint>
            <Time>2022-02-06T10:29:11.000Z</Time>
            <Position>
              <LatitudeDegrees>39.12878318689763545989990234375</LatitudeDegrees>
              <LongitudeDegrees>-0.3508150018751621246337890625</LongitudeDegrees>
            </Position>
            <AltitudeMeters>369.600006103515625</AltitudeMeters>
            <DistanceMeters>7725.3539100474</DistanceMeters>
          </Trackpoint>
          <Trackpoint>
            <Time>2022-02-06T10:29:22.000Z</Time>
            <Position>
              <LatitudeDegrees>39.12881034426391124725341796875</LatitudeDegrees>
              <LongitudeDegrees>-0.35091181285679340362548828125</LongitudeDegrees>
            </Position>
            <AltitudeMeters>369</AltitudeMeters>
            <DistanceMeters>7734.2423372878</DistanceMeters>
          </Trackpoint>
          <Trackpoint>
            <Time>2022-02-06T10:29:46.000Z</Time>
            <Position>
              <LatitudeDegrees>39.1289302892982959747314453125</LatitudeDegrees>
              <LongitudeDegrees>-0.35107433795928955078125</LongitudeDegrees>
            </Position>
            <AltitudeMeters>368</AltitudeMeters>
            <DistanceMeters>7753.6110103396</DistanceMeters>
          </Trackpoint>
          <Trackpoint>
            <Time>2022-02-06T10:30:14.000Z</Time>
            <Position>
              <LatitudeDegrees>39.12884001620113849639892578125</LatitudeDegrees>
              <LongitudeDegrees>-0.3511113859713077545166015625</LongitudeDegrees>
            </Position>
            <AltitudeMeters>366</AltitudeMeters>
            <DistanceMeters>7764.1551224965</DistanceMeters>
          </Trackpoint>
          <Trackpoint>
            <Time>2022-02-06T10:30:41.000Z</Time>
            <Position>
              <LatitudeDegrees>39.128817804157733917236328125</LatitudeDegrees>
              <LongitudeDegrees>-0.3512666188180446624755859375</LongitudeDegrees>
            </Position>
            <AltitudeMeters>363</AltitudeMeters>
            <DistanceMeters>7777.7840869639</DistanceMeters>
          </Trackpoint>
          <Trackpoint>
            <Time>2022-02-06T10:30:53.000Z</Time>
            <Position>
              <LatitudeDegrees>39.12887220270931720733642578125</LatitudeDegrees>
              <LongitudeDegrees>-0.3514231927692890167236328125</LongitudeDegrees>
            </Position>
            <AltitudeMeters>359.79998779296875</AltitudeMeters>
            <DistanceMeters>7792.5966761176</DistanceMeters>
          </Trackpoint>
          <Trackpoint>
            <Time>2022-02-06T10:30:54.000Z</Time>
            <Position>
              <LatitudeDegrees>39.128876812756061553955078125</LatitudeDegrees>
              <LongitudeDegrees>-0.35143434070050716400146484375</LongitudeDegrees>
            </Position>
            <AltitudeMeters>359.399993896484375</AltitudeMeters>
            <DistanceMeters>7793.6884499451</DistanceMeters>
          </Trackpoint>
          <Trackpoint>
            <Time>2022-02-06T10:30:55.000Z</Time>
            <Position>
              <LatitudeDegrees>39.12888226099312305450439453125</LatitudeDegrees>
              <LongitudeDegrees>-0.35144624300301074981689453125</LongitudeDegrees>
            </Position>
            <AltitudeMeters>359.20001220703125</AltitudeMeters>
            <DistanceMeters>7794.8829172231</DistanceMeters>
          </Trackpoint>
          <Trackpoint>
            <Time>2022-02-06T10:31:13.000Z</Time>
            <Position>
              <LatitudeDegrees>39.1289742104709148406982421875</LatitudeDegrees>
              <LongitudeDegrees>-0.35165294073522090911865234375</LongitudeDegrees>
            </Position>
            <AltitudeMeters>354</AltitudeMeters>
            <DistanceMeters>7815.4554876229</DistanceMeters>
          </Trackpoint>
          <Trackpoint>
            <Time>2022-02-06T10:31:16.000Z</Time>
            <Position>
              <LatitudeDegrees>39.12898267619311809539794921875</LatitudeDegrees>
              <LongitudeDegrees>-0.35168194212019443511962890625</LongitudeDegrees>
            </Position>
            <AltitudeMeters>353</AltitudeMeters>
            <DistanceMeters>7818.131464196</DistanceMeters>
          </Trackpoint>
          <Trackpoint>
            <Time>2022-02-06T10:31:29.000Z</Time>
            <Position>
              <LatitudeDegrees>39.12900145165622234344482421875</LatitudeDegrees>
              <LongitudeDegrees>-0.3518523462116718292236328125</LongitudeDegrees>
            </Position>
            <AltitudeMeters>346.600006103515625</AltitudeMeters>
            <DistanceMeters>7832.9915277679</DistanceMeters>
          </Trackpoint>
          <Trackpoint>
            <Time>2022-02-06T10:31:35.000Z</Time>
            <Position>
              <LatitudeDegrees>39.1290422715246677398681640625</LatitudeDegrees>
              <LongitudeDegrees>-0.35191588103771209716796875</LongitudeDegrees>
            </Position>
            <AltitudeMeters>344.399993896484375</AltitudeMeters>
            <DistanceMeters>7840.1147292629</DistanceMeters>
          </Trackpoint>
          <Trackpoint>
            <Time>2022-02-06T10:31:51.000Z</Time>
            <Position>
              <LatitudeDegrees>39.12917462177574634552001953125</LatitudeDegrees>
              <LongitudeDegrees>-0.35208888351917266845703125</LongitudeDegrees>
            </Position>
            <AltitudeMeters>337.79998779296875</AltitudeMeters>
            <DistanceMeters>7861.0939076519</DistanceMeters>
          </Trackpoint>
          <Trackpoint>
            <Time>2022-02-06T10:32:06.000Z</Time>
            <Position>
              <LatitudeDegrees>39.1292841732501983642578125</LatitudeDegrees>
              <LongitudeDegrees>-0.3521566092967987060546875</LongitudeDegrees>
            </Position>
            <AltitudeMeters>336.399993896484375</AltitudeMeters>
            <DistanceMeters>7874.6167800564</DistanceMeters>
          </Trackpoint>
          <Trackpoint>
            <Time>2022-02-06T10:32:14.000Z</Time>
            <Position>
              <LatitudeDegrees>39.12934645079076290130615234375</LatitudeDegrees>
              <LongitudeDegrees>-0.35222307778894901275634765625</LongitudeDegrees>
            </Position>
            <AltitudeMeters>335</AltitudeMeters>
            <DistanceMeters>7883.6157647518</DistanceMeters>
          </Trackpoint>
          <Trackpoint>
            <Time>2022-02-06T10:32:25.000Z</Time>
            <Position>
              <LatitudeDegrees>39.12953973747789859771728515625</LatitudeDegrees>
              <LongitudeDegrees>-0.35230102948844432830810546875</LongitudeDegrees>
            </Position>
            <AltitudeMeters>338.79998779296875</AltitudeMeters>
            <DistanceMeters>7906.1569346716</DistanceMeters>
          </Trackpoint>
          <Trackpoint>
            <Time>2022-02-06T10:32:33.000Z</Time>
            <Position>
              <LatitudeDegrees>39.12965892814099788665771484375</LatitudeDegrees>
              <LongitudeDegrees>-0.35233237780630588531494140625</LongitudeDegrees>
            </Position>
            <AltitudeMeters>339.20001220703125</AltitudeMeters>
            <DistanceMeters>7919.6961573897</DistanceMeters>
          </Trackpoint>
          <Trackpoint>
            <Time>2022-02-06T10:32:39.000Z</Time>
            <Position>
              <LatitudeDegrees>39.12977744825184345245361328125</LatitudeDegrees>
              <LongitudeDegrees>-0.3523167036473751068115234375</LongitudeDegrees>
            </Position>
            <AltitudeMeters>342.600006103515625</AltitudeMeters>
            <DistanceMeters>7932.9567259519</DistanceMeters>
          </Trackpoint>
          <Trackpoint>
            <Time>2022-02-06T10:32:45.000Z</Time>
            <Position>
              <LatitudeDegrees>39.1298849880695343017578125</LatitudeDegrees>
              <LongitudeDegrees>-0.35232567228376865386962890625</LongitudeDegrees>
            </Position>
            <AltitudeMeters>345.399993896484375</AltitudeMeters>
            <DistanceMeters>7944.9511904212</DistanceMeters>
          </Trackpoint>
          <Trackpoint>
            <Time>2022-02-06T10:32:49.000Z</Time>
            <Position>
              <LatitudeDegrees>39.12994609214365482330322265625</LatitudeDegrees>
              <LongitudeDegrees>-0.35236054100096225738525390625</LongitudeDegrees>
            </Position>
            <AltitudeMeters>345.600006103515625</AltitudeMeters>
            <DistanceMeters>7952.3888142552</DistanceMeters>
          </Trackpoint>
          <Trackpoint>
            <Time>2022-02-06T10:33:05.000Z</Time>
            <Position>
              <LatitudeDegrees>39.1300705634057521820068359375</LatitudeDegrees>
              <LongitudeDegrees>-0.35252918489277362823486328125</LongitudeDegrees>
            </Position>
            <AltitudeMeters>344.600006103515625</AltitudeMeters>
            <DistanceMeters>7972.4871328308</DistanceMeters>
          </Trackpoint>
          <Trackpoint>
            <Time>2022-02-06T10:33:15.000Z</Time>
            <Position>
              <LatitudeDegrees>39.1302019916474819183349609375</LatitudeDegrees>
              <LongitudeDegrees>-0.35268165171146392822265625</LongitudeDegrees>
            </Position>
            <AltitudeMeters>347.20001220703125</AltitudeMeters>
            <DistanceMeters>7992.1663830313</DistanceMeters>
          </Trackpoint>
          <Trackpoint>
            <Time>2022-02-06T10:33:18.000Z</Time>
            <Position>
              <LatitudeDegrees>39.130256809294223785400390625</LatitudeDegrees>
              <LongitudeDegrees>-0.352724902331829071044921875</LongitudeDegrees>
            </Position>
            <AltitudeMeters>349.20001220703125</AltitudeMeters>
            <DistanceMeters>7999.319313419</DistanceMeters>
          </Trackpoint>
          <Trackpoint>
            <Time>2022-02-06T10:33:20.000Z</Time>
            <Position>
              <LatitudeDegrees>39.1302589885890483856201171875</LatitudeDegrees>
              <LongitudeDegrees>-0.35275985486805438995361328125</LongitudeDegrees>
            </Position>
            <AltitudeMeters>348</AltitudeMeters>
            <DistanceMeters>8002.3482666486</DistanceMeters>
          </Trackpoint>
          <Trackpoint>
            <Time>2022-02-06T10:33:32.000Z</Time>
            <Position>
              <LatitudeDegrees>39.1301027499139308929443359375</LatitudeDegrees>
              <LongitudeDegrees>-0.3527037799358367919921875</LongitudeDegrees>
            </Position>
            <AltitudeMeters>340.399993896484375</AltitudeMeters>
            <DistanceMeters>8020.3993408107</DistanceMeters>
          </Trackpoint>
          <Trackpoint>
            <Time>2022-02-06T10:33:33.000Z</Time>
            <Position>
              <LatitudeDegrees>39.13008992560207843780517578125</LatitudeDegrees>
              <LongitudeDegrees>-0.35270688124001026153564453125</LongitudeDegrees>
            </Position>
            <AltitudeMeters>339.399993896484375</AltitudeMeters>
            <DistanceMeters>8021.8529700233</DistanceMeters>
          </Trackpoint>
          <Trackpoint>
            <Time>2022-02-06T10:33:45.000Z</Time>
            <Position>
              <LatitudeDegrees>39.130189754068851470947265625</LatitudeDegrees>
              <LongitudeDegrees>-0.35286094062030315399169921875</LongitudeDegrees>
            </Position>
            <AltitudeMeters>338.600006103515625</AltitudeMeters>
            <DistanceMeters>8039.1843422376</DistanceMeters>
          </Trackpoint>
          <Trackpoint>
            <Time>2022-02-06T10:33:50.000Z</Time>
            <Position>
              <LatitudeDegrees>39.130238704383373260498046875</LatitudeDegrees>
              <LongitudeDegrees>-0.35290318541228771209716796875</LongitudeDegrees>
            </Position>
            <AltitudeMeters>339.600006103515625</AltitudeMeters>
            <DistanceMeters>8045.7404968936</DistanceMeters>
          </Trackpoint>
          <Trackpoint>
            <Time>2022-02-06T10:34:08.000Z</Time>
            <Position>
              <LatitudeDegrees>39.13037256337702274322509765625</LatitudeDegrees>
              <LongitudeDegrees>-0.3529751859605312347412109375</LongitudeDegrees>
            </Position>
            <AltitudeMeters>347.399993896484375</AltitudeMeters>
            <DistanceMeters>8061.8841345336</DistanceMeters>
          </Trackpoint>
          <Trackpoint>
            <Time>2022-02-06T10:34:12.000Z</Time>
            <Position>
              <LatitudeDegrees>39.13040223531424999237060546875</LatitudeDegrees>
              <LongitudeDegrees>-0.3530174307525157928466796875</LongitudeDegrees>
            </Position>
            <AltitudeMeters>348.600006103515625</AltitudeMeters>
            <DistanceMeters>8066.8053808211</DistanceMeters>
          </Trackpoint>
          <Trackpoint>
            <Time>2022-02-06T10:34:15.000Z</Time>
            <Position>
              <LatitudeDegrees>39.1304125450551509857177734375</LatitudeDegrees>
              <LongitudeDegrees>-0.3530965559184551239013671875</LongitudeDegrees>
            </Position>
            <AltitudeMeters>346.600006103515625</AltitudeMeters>
            <DistanceMeters>8073.7325610716</DistanceMeters>
          </Trackpoint>
          <Trackpoint>
            <Time>2022-02-06T10:34:23.000Z</Time>
            <Position>
              <LatitudeDegrees>39.1304557956755161285400390625</LatitudeDegrees>
              <LongitudeDegrees>-0.353350527584552764892578125</LongitudeDegrees>
            </Position>
            <AltitudeMeters>341.20001220703125</AltitudeMeters>
            <DistanceMeters>8096.1822075386</DistanceMeters>
          </Trackpoint>
          <Trackpoint>
            <Time>2022-02-06T10:34:26.000Z</Time>
            <Position>
              <LatitudeDegrees>39.13046677596867084503173828125</LatitudeDegrees>
              <LongitudeDegrees>-0.35344666801393032073974609375</LongitudeDegrees>
            </Position>
            <AltitudeMeters>337</AltitudeMeters>
            <DistanceMeters>8104.5720493655</DistanceMeters>
          </Trackpoint>
          <Trackpoint>
            <Time>2022-02-06T10:34:35.000Z</Time>
            <Position>
              <LatitudeDegrees>39.1304147243499755859375</LatitudeDegrees>
              <LongitudeDegrees>-0.35348304547369480133056640625</LongitudeDegrees>
            </Position>
            <AltitudeMeters>331.399993896484375</AltitudeMeters>
            <DistanceMeters>8111.1618625357</DistanceMeters>
          </Trackpoint>
          <Trackpoint>
            <Time>2022-02-06T10:34:43.000Z</Time>
            <Position>
              <LatitudeDegrees>39.13038983009755611419677734375</LatitudeDegrees>
              <LongitudeDegrees>-0.35340341739356517791748046875</LongitudeDegrees>
            </Position>
            <AltitudeMeters>333.399993896484375</AltitudeMeters>
            <DistanceMeters>8118.5739462566</DistanceMeters>
          </Trackpoint>
          <Trackpoint>
            <Time>2022-02-06T10:34:44.000Z</Time>
            <Position>
              <LatitudeDegrees>39.1303870640695095062255859375</LatitudeDegrees>
              <LongitudeDegrees>-0.353388078510761260986328125</LongitudeDegrees>
            </Position>
            <AltitudeMeters>334</AltitudeMeters>
            <DistanceMeters>8119.9311992155</DistanceMeters>
          </Trackpoint>
          <Trackpoint>
            <Time>2022-02-06T10:34:45.000Z</Time>
            <Position>
              <LatitudeDegrees>39.13038748316466808319091796875</LatitudeDegrees>
              <LongitudeDegrees>-0.35337123088538646697998046875</LongitudeDegrees>
            </Position>
            <AltitudeMeters>334.79998779296875</AltitudeMeters>
            <DistanceMeters>8121.3848284282</DistanceMeters>
          </Trackpoint>
          <Trackpoint>
            <Time>2022-02-06T10:34:49.000Z</Time>
            <Position>
              <LatitudeDegrees>39.13037373684346675872802734375</LatitudeDegrees>
              <LongitudeDegrees>-0.35331171937286853790283203125</LongitudeDegrees>
            </Position>
            <AltitudeMeters>336</AltitudeMeters>
            <DistanceMeters>8126.7460534114</DistanceMeters>
          </Trackpoint>
          <Trackpoint>
            <Time>2022-02-06T10:34:58.000Z</Time>
            <Position>
              <LatitudeDegrees>39.13028237409889698028564453125</LatitudeDegrees>
              <LongitudeDegrees>-0.35320870578289031982421875</LongitudeDegrees>
            </Position>
            <AltitudeMeters>330.79998779296875</AltitudeMeters>
            <DistanceMeters>8140.2558981583</DistanceMeters>
          </Trackpoint>
          <Trackpoint>
            <Time>2022-02-06T10:35:07.000Z</Time>
            <Position>
              <LatitudeDegrees>39.130082465708255767822265625</LatitudeDegrees>
              <LongitudeDegrees>-0.35315682180225849151611328125</LongitudeDegrees>
            </Position>
            <AltitudeMeters>319.600006103515625</AltitudeMeters>
            <DistanceMeters>8162.9525668764</DistanceMeters>
          </Trackpoint>
          <Trackpoint>
            <Time>2022-02-06T10:35:15.000Z</Time>
            <Position>
              <LatitudeDegrees>39.12989563308656215667724609375</LatitudeDegrees>
              <LongitudeDegrees>-0.35309680737555027008056640625</LongitudeDegrees>
            </Position>
            <AltitudeMeters>311.20001220703125</AltitudeMeters>
            <DistanceMeters>8184.3831452153</DistanceMeters>
          </Trackpoint>
          <Trackpoint>
            <Time>2022-02-06T10:35:24.000Z</Time>
            <Position>
              <LatitudeDegrees>39.12972204387187957763671875</LatitudeDegrees>
              <LongitudeDegrees>-0.3531639464199542999267578125</LongitudeDegrees>
            </Position>
            <AltitudeMeters>304.399993896484375</AltitudeMeters>
            <DistanceMeters>8204.554789783</DistanceMeters>
          </Trackpoint>
          <Trackpoint>
            <Time>2022-02-06T10:35:32.000Z</Time>
            <Position>
              <LatitudeDegrees>39.12957862950861454010009765625</LatitudeDegrees>
              <LongitudeDegrees>-0.35334172658622264862060546875</LongitudeDegrees>
            </Position>
            <AltitudeMeters>295.600006103515625</AltitudeMeters>
            <DistanceMeters>8226.6996844868</DistanceMeters>
          </Trackpoint>
          <Trackpoint>
            <Time>2022-02-06T10:35:42.000Z</Time>
            <Position>
              <LatitudeDegrees>39.12943043746054172515869140625</LatitudeDegrees>
              <LongitudeDegrees>-0.35347164608538150787353515625</LongitudeDegrees>
            </Position>
            <AltitudeMeters>292.600006103515625</AltitudeMeters>
            <DistanceMeters>8246.6466949965</DistanceMeters>
          </Trackpoint>
          <Trackpoint>
            <Time>2022-02-06T10:35:52.000Z</Time>
            <Position>
              <LatitudeDegrees>39.129268415272235870361328125</LatitudeDegrees>
              <LongitudeDegrees>-0.35361145623028278350830078125</LongitudeDegrees>
            </Position>
            <AltitudeMeters>289.20001220703125</AltitudeMeters>
            <DistanceMeters>8268.3473513588</DistanceMeters>
          </Trackpoint>
          <Trackpoint>
            <Time>2022-02-06T10:36:04.000Z</Time>
            <Position>
              <LatitudeDegrees>39.12911209277808666229248046875</LatitudeDegrees>
              <LongitudeDegrees>-0.3537255339324474334716796875</LongitudeDegrees>
            </Position>
            <AltitudeMeters>286</AltitudeMeters>
            <DistanceMeters>8288.3409359304</DistanceMeters>
          </Trackpoint>
          <Trackpoint>
            <Time>2022-02-06T10:36:11.000Z</Time>
            <Position>
              <LatitudeDegrees>39.1290238313376903533935546875</LatitudeDegrees>
              <LongitudeDegrees>-0.3537525236606597900390625</LongitudeDegrees>
            </Position>
            <AltitudeMeters>286</AltitudeMeters>
            <DistanceMeters>8298.4374963831</DistanceMeters>
          </Trackpoint>
          <Trackpoint>
            <Time>2022-02-06T10:36:12.000Z</Time>
            <Position>
              <LatitudeDegrees>39.12901452742516994476318359375</LatitudeDegrees>
              <LongitudeDegrees>-0.353750176727771759033203125</LongitudeDegrees>
            </Position>
            <AltitudeMeters>286.20001220703125</AltitudeMeters>
            <DistanceMeters>8299.4956690907</DistanceMeters>
          </Trackpoint>
          <Trackpoint>
            <Time>2022-02-06T10:36:14.000Z</Time>
            <Position>
              <LatitudeDegrees>39.12899239920079708099365234375</LatitudeDegrees>
              <LongitudeDegrees>-0.35375881008803844451904296875</LongitudeDegrees>
            </Position>
            <AltitudeMeters>286</AltitudeMeters>
            <DistanceMeters>8302.0684197652</DistanceMeters>
          </Trackpoint>
          <Trackpoint>
            <Time>2022-02-06T10:36:31.000Z</Time>
            <Position>
              <LatitudeDegrees>39.1288568638265132904052734375</LatitudeDegrees>
              <LongitudeDegrees>-0.35391806624829769134521484375</LongitudeDegrees>
            </Position>
            <AltitudeMeters>280</AltitudeMeters>
            <DistanceMeters>8322.4799279646</DistanceMeters>
          </Trackpoint>
          <Trackpoint>
            <Time>2022-02-06T10:36:46.000Z</Time>
            <Position>
              <LatitudeDegrees>39.1287287883460521697998046875</LatitudeDegrees>
              <LongitudeDegrees>-0.35401596687734127044677734375</LongitudeDegrees>
            </Position>
            <AltitudeMeters>278</AltitudeMeters>
            <DistanceMeters>8339.0527613107</DistanceMeters>
          </Trackpoint>
          <Trackpoint>
            <Time>2022-02-06T10:36:56.000Z</Time>
            <Position>
              <LatitudeDegrees>39.1285641677677631378173828125</LatitudeDegrees>
              <LongitudeDegrees>-0.3541521728038787841796875</LongitudeDegrees>
            </Position>
            <AltitudeMeters>275.399993896484375</AltitudeMeters>
            <DistanceMeters>8360.8244579074</DistanceMeters>
          </Trackpoint>
          <Trackpoint>
            <Time>2022-02-06T10:37:03.000Z</Time>
            <Position>
              <LatitudeDegrees>39.12847976200282573699951171875</LatitudeDegrees>
              <LongitudeDegrees>-0.35420573316514492034912109375</LongitudeDegrees>
            </Position>
            <AltitudeMeters>275.20001220703125</AltitudeMeters>
            <DistanceMeters>8371.2955222364</DistanceMeters>
          </Trackpoint>
          <Trackpoint>
            <Time>2022-02-06T10:37:19.000Z</Time>
            <Position>
              <LatitudeDegrees>39.12831899709999561309814453125</LatitudeDegrees>
              <LongitudeDegrees>-0.35435275174677371978759765625</LongitudeDegrees>
            </Position>
            <AltitudeMeters>273.600006103515625</AltitudeMeters>
            <DistanceMeters>8393.2339370466</DistanceMeters>
          </Trackpoint>
          <Trackpoint>
            <Time>2022-02-06T10:37:30.000Z</Time>
            <Position>
              <LatitudeDegrees>39.12815387360751628875732421875</LatitudeDegrees>
              <LongitudeDegrees>-0.3544651530683040618896484375</LongitudeDegrees>
            </Position>
            <AltitudeMeters>272</AltitudeMeters>
            <DistanceMeters>8414.0172158212</DistanceMeters>
          </Trackpoint>
          <Trackpoint>
            <Time>2022-02-06T10:37:42.000Z</Time>
            <Position>
              <LatitudeDegrees>39.12798036821186542510986328125</LatitudeDegrees>
              <LongitudeDegrees>-0.3544270992279052734375</LongitudeDegrees>
            </Position>
            <AltitudeMeters>273.399993896484375</AltitudeMeters>
            <DistanceMeters>8433.6063224493</DistanceMeters>
          </Trackpoint>
          <Trackpoint>
            <Time>2022-02-06T10:37:46.000Z</Time>
            <Position>
              <LatitudeDegrees>39.12789420224726200103759765625</LatitudeDegrees>
              <LongitudeDegrees>-0.35443338565528392791748046875</LongitudeDegrees>
            </Position>
            <AltitudeMeters>273</AltitudeMeters>
            <DistanceMeters>8443.2120145693</DistanceMeters>
          </Trackpoint>
          <Trackpoint>
            <Time>2022-02-06T10:37:58.000Z</Time>
            <Position>
              <LatitudeDegrees>39.1277256421744823455810546875</LatitudeDegrees>
              <LongitudeDegrees>-0.35443841479718685150146484375</LongitudeDegrees>
            </Position>
            <AltitudeMeters>271.79998779296875</AltitudeMeters>
            <DistanceMeters>8461.9780464151</DistanceMeters>
          </Trackpoint>
          <Trackpoint>
            <Time>2022-02-06T10:38:12.000Z</Time>
            <Position>
              <LatitudeDegrees>39.1275637038052082061767578125</LatitudeDegrees>
              <LongitudeDegrees>-0.35455173812806606292724609375</LongitudeDegrees>
            </Position>
            <AltitudeMeters>268.600006103515625</AltitudeMeters>
            <DistanceMeters>8482.4866519407</DistanceMeters>
          </Trackpoint>
          <Trackpoint>
            <Time>2022-02-06T10:38:25.000Z</Time>
            <Position>
              <LatitudeDegrees>39.12742850370705127716064453125</LatitudeDegrees>
              <LongitudeDegrees>-0.35471099428832530975341796875</LongitudeDegrees>
            </Position>
            <AltitudeMeters>264.20001220703125</AltitudeMeters>
            <DistanceMeters>8502.8707128093</DistanceMeters>
          </Trackpoint>
          <Trackpoint>
            <Time>2022-02-06T10:38:33.000Z</Time>
            <Position>
              <LatitudeDegrees>39.1273395717144012451171875</LatitudeDegrees>
              <LongitudeDegrees>-0.3549305163323879241943359375</LongitudeDegrees>
            </Position>
            <AltitudeMeters>257</AltitudeMeters>
            <DistanceMeters>8524.2536239924</DistanceMeters>
          </Trackpoint>
          <Trackpoint>
            <Time>2022-02-06T10:38:44.000Z</Time>
            <Position>
              <LatitudeDegrees>39.1271690838038921356201171875</LatitudeDegrees>
              <LongitudeDegrees>-0.354998409748077392578125</LongitudeDegrees>
            </Position>
            <AltitudeMeters>255</AltitudeMeters>
            <DistanceMeters>8544.114434631</DistanceMeters>
          </Trackpoint>
          <Trackpoint>
            <Time>2022-02-06T10:38:57.000Z</Time>
            <Position>
              <LatitudeDegrees>39.12697755731642246246337890625</LatitudeDegrees>
              <LongitudeDegrees>-0.35504023544490337371826171875</LongitudeDegrees>
            </Position>
            <AltitudeMeters>255.8000030517578125</AltitudeMeters>
            <DistanceMeters>8565.7354659975</DistanceMeters>
          </Trackpoint>
          <Trackpoint>
            <Time>2022-02-06T10:39:02.000Z</Time>
            <Position>
              <LatitudeDegrees>39.12691703997552394866943359375</LatitudeDegrees>
              <LongitudeDegrees>-0.35510896705090999603271484375</LongitudeDegrees>
            </Position>
            <AltitudeMeters>255.399993896484375</AltitudeMeters>
            <DistanceMeters>8574.7123475377</DistanceMeters>
          </Trackpoint>
          <Trackpoint>
            <Time>2022-02-06T10:39:14.000Z</Time>
            <Position>
              <LatitudeDegrees>39.1269850172102451324462890625</LatitudeDegrees>
              <LongitudeDegrees>-0.35520493984222412109375</LongitudeDegrees>
            </Position>
            <AltitudeMeters>252.1999969482421875</AltitudeMeters>
            <DistanceMeters>8585.933550055</DistanceMeters>
          </Trackpoint>
          <Trackpoint>
            <Time>2022-02-06T10:39:16.000Z</Time>
            <Position>
              <LatitudeDegrees>39.12699163891375064849853515625</LatitudeDegrees>
              <LongitudeDegrees>-0.35522430203855037689208984375</LongitudeDegrees>
            </Position>
            <AltitudeMeters>251.600006103515625</AltitudeMeters>
            <DistanceMeters>8587.761425402</DistanceMeters>
          </Trackpoint>
          <Trackpoint>
            <Time>2022-02-06T10:39:22.000Z</Time>
            <Position>
              <LatitudeDegrees>39.1270235739648342132568359375</LatitudeDegrees>
              <LongitudeDegrees>-0.35529538057744503021240234375</LongitudeDegrees>
            </Position>
            <AltitudeMeters>249.8000030517578125</AltitudeMeters>
            <DistanceMeters>8594.8535002601</DistanceMeters>
          </Trackpoint>
          <Trackpoint>
            <Time>2022-02-06T10:39:30.000Z</Time>
            <Position>
              <LatitudeDegrees>39.12707394920289516448974609375</LatitudeDegrees>
              <LongitudeDegrees>-0.35536788403987884521484375</LongitudeDegrees>
            </Position>
            <AltitudeMeters>248</AltitudeMeters>
            <DistanceMeters>8603.2578597208</DistanceMeters>
          </Trackpoint>
          <Trackpoint>
            <Time>2022-02-06T10:39:34.000Z</Time>
            <Position>
              <LatitudeDegrees>39.1271127574145793914794921875</LatitudeDegrees>
              <LongitudeDegrees>-0.35539747215807437896728515625</LongitudeDegrees>
            </Position>
            <AltitudeMeters>246.8000030517578125</AltitudeMeters>
            <DistanceMeters>8608.276313985</DistanceMeters>
          </Trackpoint>
          <Trackpoint>
            <Time>2022-02-06T10:39:52.000Z</Time>
            <Position>
              <LatitudeDegrees>39.1271684132516384124755859375</LatitudeDegrees>
              <LongitudeDegrees>-0.35556024871766567230224609375</LongitudeDegrees>
            </Position>
            <AltitudeMeters>244.600006103515625</AltitudeMeters>
            <DistanceMeters>8623.6354063092</DistanceMeters>
          </Trackpoint>
          <Trackpoint>
            <Time>2022-02-06T10:39:56.000Z</Time>
            <Position>
              <LatitudeDegrees>39.12716095335781574249267578125</LatitudeDegrees>
              <LongitudeDegrees>-0.35559746436774730682373046875</LongitudeDegrees>
            </Position>
            <AltitudeMeters>244.399993896484375</AltitudeMeters>
            <DistanceMeters>8626.9545467494</DistanceMeters>
          </Trackpoint>
          <Trackpoint>
            <Time>2022-02-06T10:40:00.000Z</Time>
            <Position>
              <LatitudeDegrees>39.1271362267434597015380859375</LatitudeDegrees>
              <LongitudeDegrees>-0.35567306913435459136962890625</LongitudeDegrees>
            </Position>
            <AltitudeMeters>243.8000030517578125</AltitudeMeters>
            <DistanceMeters>8634.0389779104</DistanceMeters>
          </Trackpoint>
          <Trackpoint>
            <Time>2022-02-06T10:40:08.000Z</Time>
            <Position>
              <LatitudeDegrees>39.127111919224262237548828125</LatitudeDegrees>
              <LongitudeDegrees>-0.35577901639044284820556640625</LongitudeDegrees>
            </Position>
            <AltitudeMeters>243.1999969482421875</AltitudeMeters>
            <DistanceMeters>8643.5786377787</DistanceMeters>
          </Trackpoint>
          <Trackpoint>
            <Time>2022-02-06T10:40:09.000Z</Time>
            <Position>
              <LatitudeDegrees>39.12710295058786869049072265625</LatitudeDegrees>
              <LongitudeDegrees>-0.355798043310642242431640625</LongitudeDegrees>
            </Position>
            <AltitudeMeters>243</AltitudeMeters>
            <DistanceMeters>8645.5027820929</DistanceMeters>
          </Trackpoint>
          <Trackpoint>
            <Time>2022-02-06T10:40:14.000Z</Time>
            <Position>
              <LatitudeDegrees>39.12707294337451457977294921875</LatitudeDegrees>
              <LongitudeDegrees>-0.35589451901614665985107421875</LongitudeDegrees>
            </Position>
            <AltitudeMeters>242</AltitudeMeters>
            <DistanceMeters>8654.477651556</DistanceMeters>
          </Trackpoint>
          <Trackpoint>
            <Time>2022-02-06T10:40:20.000Z</Time>
            <Position>
              <LatitudeDegrees>39.127053581178188323974609375</LatitudeDegrees>
              <LongitudeDegrees>-0.3560149669647216796875</LongitudeDegrees>
            </Position>
            <AltitudeMeters>241</AltitudeMeters>
            <DistanceMeters>8665.0977106324</DistanceMeters>
          </Trackpoint>
          <Trackpoint>
            <Time>2022-02-06T10:40:27.000Z</Time>
            <Position>
              <LatitudeDegrees>39.127058945596218109130859375</LatitudeDegrees>
              <LongitudeDegrees>-0.35612694919109344482421875</LongitudeDegrees>
            </Position>
            <AltitudeMeters>239.399993896484375</AltitudeMeters>
            <DistanceMeters>8674.7848440786</DistanceMeters>
          </Trackpoint>
          <Trackpoint>
            <Time>2022-02-06T10:40:30.000Z</Time>
            <Position>
              <LatitudeDegrees>39.12706254981458187103271484375</LatitudeDegrees>
              <LongitudeDegrees>-0.35616626031696796417236328125</LongitudeDegrees>
            </Position>
            <AltitudeMeters>239</AltitudeMeters>
            <DistanceMeters>8678.2031651458</DistanceMeters>
          </Trackpoint>
          <Trackpoint>
            <Time>2022-02-06T10:40:47.000Z</Time>
            <Position>
              <LatitudeDegrees>39.1270674951374530792236328125</LatitudeDegrees>
              <LongitudeDegrees>-0.35643414594233036041259765625</LongitudeDegrees>
            </Position>
            <AltitudeMeters>235</AltitudeMeters>
            <DistanceMeters>8701.3395845214</DistanceMeters>
          </Trackpoint>
          <Trackpoint>
            <Time>2022-02-06T10:40:54.000Z</Time>
            <Position>
              <LatitudeDegrees>39.1271114163100719451904296875</LatitudeDegrees>
              <LongitudeDegrees>-0.3565173782408237457275390625</LongitudeDegrees>
            </Position>
            <AltitudeMeters>234.1999969482421875</AltitudeMeters>
            <DistanceMeters>8710.0307633513</DistanceMeters>
          </Trackpoint>
          <Trackpoint>
            <Time>2022-02-06T10:41:00.000Z</Time>
            <Position>
              <LatitudeDegrees>39.12719297222793102264404296875</LatitudeDegrees>
              <LongitudeDegrees>-0.35653187893331050872802734375</LongitudeDegrees>
            </Position>
            <AltitudeMeters>233.600006103515625</AltitudeMeters>
            <DistanceMeters>8719.1933296239</DistanceMeters>
          </Trackpoint>
          <Trackpoint>
            <Time>2022-02-06T10:41:07.000Z</Time>
            <Position>
              <LatitudeDegrees>39.127249382436275482177734375</LatitudeDegrees>
              <LongitudeDegrees>-0.3565549291670322418212890625</LongitudeDegrees>
            </Position>
            <AltitudeMeters>232.399993896484375</AltitudeMeters>
            <DistanceMeters>8725.7797161322</DistanceMeters>
          </Trackpoint>
          <Trackpoint>
            <Time>2022-02-06T10:41:09.000Z</Time>
            <Position>
              <LatitudeDegrees>39.1272646375000476837158203125</LatitudeDegrees>
              <LongitudeDegrees>-0.3565653227269649505615234375</LongitudeDegrees>
            </Position>
            <AltitudeMeters>232</AltitudeMeters>
            <DistanceMeters>8727.6991616743</DistanceMeters>
          </Trackpoint>
          <Trackpoint>
            <Time>2022-02-06T10:41:27.000Z</Time>
            <Position>
              <LatitudeDegrees>39.127402938902378082275390625</LatitudeDegrees>
              <LongitudeDegrees>-0.3567111678421497344970703125</LongitudeDegrees>
            </Position>
            <AltitudeMeters>227.1999969482421875</AltitudeMeters>
            <DistanceMeters>8747.5870066637</DistanceMeters>
          </Trackpoint>
          <Trackpoint>
            <Time>2022-02-06T10:41:37.000Z</Time>
            <Position>
              <LatitudeDegrees>39.12733429111540317535400390625</LatitudeDegrees>
              <LongitudeDegrees>-0.356750898063182830810546875</LongitudeDegrees>
            </Position>
            <AltitudeMeters>226.399993896484375</AltitudeMeters>
            <DistanceMeters>8755.9623056922</DistanceMeters>
          </Trackpoint>
          <Trackpoint>
            <Time>2022-02-06T10:41:45.000Z</Time>
            <Position>
              <LatitudeDegrees>39.12727846764028072357177734375</LatitudeDegrees>
              <LongitudeDegrees>-0.35681954585015773773193359375</LongitudeDegrees>
            </Position>
            <AltitudeMeters>224.8000030517578125</AltitudeMeters>
            <DistanceMeters>8764.5494824251</DistanceMeters>
          </Trackpoint>
          <Trackpoint>
            <Time>2022-02-06T10:41:48.000Z</Time>
            <Position>
              <LatitudeDegrees>39.1272579319775104522705078125</LatitudeDegrees>
              <LongitudeDegrees>-0.35685223527252674102783203125</LongitudeDegrees>
            </Position>
            <AltitudeMeters>224.1999969482421875</AltitudeMeters>
            <DistanceMeters>8768.1816913514</DistanceMeters>
          </Trackpoint>
          <Trackpoint>
            <Time>2022-02-06T10:42:07.000Z</Time>
            <Position>
              <LatitudeDegrees>39.12719213403761386871337890625</LatitudeDegrees>
              <LongitudeDegrees>-0.35704233683645725250244140625</LongitudeDegrees>
            </Position>
            <AltitudeMeters>219.600006103515625</AltitudeMeters>
            <DistanceMeters>8786.1550592803</DistanceMeters>
          </Trackpoint>
          <Trackpoint>
            <Time>2022-02-06T10:42:29.000Z</Time>
            <Position>
              <LatitudeDegrees>39.1271576844155788421630859375</LatitudeDegrees>
              <LongitudeDegrees>-0.3572657145559787750244140625</LongitudeDegrees>
            </Position>
            <AltitudeMeters>215</AltitudeMeters>
            <DistanceMeters>8805.8193907839</DistanceMeters>
          </Trackpoint>
          <Trackpoint>
            <Time>2022-02-06T10:42:35.000Z</Time>
            <Position>
              <LatitudeDegrees>39.12717989645898342132568359375</LatitudeDegrees>
              <LongitudeDegrees>-0.3573636151850223541259765625</LongitudeDegrees>
            </Position>
            <AltitudeMeters>213.600006103515625</AltitudeMeters>
            <DistanceMeters>8814.626680756</DistanceMeters>
          </Trackpoint>
          <Trackpoint>
            <Time>2022-02-06T10:42:38.000Z</Time>
            <Position>
              <LatitudeDegrees>39.1271989233791828155517578125</LatitudeDegrees>
              <LongitudeDegrees>-0.357412733137607574462890625</LongitudeDegrees>
            </Position>
            <AltitudeMeters>212.8000030517578125</AltitudeMeters>
            <DistanceMeters>8819.366599552</DistanceMeters>
          </Trackpoint>
          <Trackpoint>
            <Time>2022-02-06T10:42:40.000Z</Time>
            <Position>
              <LatitudeDegrees>39.12721392698585987091064453125</LatitudeDegrees>
              <LongitudeDegrees>-0.35743662156164646148681640625</LongitudeDegrees>
            </Position>
            <AltitudeMeters>212.600006103515625</AltitudeMeters>
            <DistanceMeters>8822.0205512521</DistanceMeters>
          </Trackpoint>
          <Trackpoint>
            <Time>2022-02-06T10:42:52.000Z</Time>
            <Position>
              <LatitudeDegrees>39.12737519480288028717041015625</LatitudeDegrees>
              <LongitudeDegrees>-0.35753779113292694091796875</LongitudeDegrees>
            </Position>
            <AltitudeMeters>211.8000030517578125</AltitudeMeters>
            <DistanceMeters>8841.9829477383</DistanceMeters>
          </Trackpoint>
          <Trackpoint>
            <Time>2022-02-06T10:42:57.000Z</Time>
            <Position>
              <LatitudeDegrees>39.1274332813918590545654296875</LatitudeDegrees>
              <LongitudeDegrees>-0.35757341422140598297119140625</LongitudeDegrees>
            </Position>
            <AltitudeMeters>212</AltitudeMeters>
            <DistanceMeters>8849.1421874951</DistanceMeters>
          </Trackpoint>
          <Trackpoint>
            <Time>2022-02-06T10:43:00.000Z</Time>
            <Position>
              <LatitudeDegrees>39.12743889726698398590087890625</LatitudeDegrees>
              <LongitudeDegrees>-0.3576268069446086883544921875</LongitudeDegrees>
            </Position>
            <AltitudeMeters>210.8000030517578125</AltitudeMeters>
            <DistanceMeters>8853.7946162411</DistanceMeters>
          </Trackpoint>
          <Trackpoint>
            <Time>2022-02-06T10:43:04.000Z</Time>
            <Position>
              <LatitudeDegrees>39.12745021283626556396484375</LatitudeDegrees>
              <LongitudeDegrees>-0.35767458379268646240234375</LongitudeDegrees>
            </Position>
            <AltitudeMeters>210</AltitudeMeters>
            <DistanceMeters>8858.1076149049</DistanceMeters>
          </Trackpoint>
          <Trackpoint>
            <Time>2022-02-06T10:43:09.000Z</Time>
            <Position>
              <LatitudeDegrees>39.127466976642608642578125</LatitudeDegrees>
              <LongitudeDegrees>-0.357726551592350006103515625</LongitudeDegrees>
            </Position>
            <AltitudeMeters>209.399993896484375</AltitudeMeters>
            <DistanceMeters>8862.9660734902</DistanceMeters>
          </Trackpoint>
          <Trackpoint>
            <Time>2022-02-06T10:43:15.000Z</Time>
            <Position>
              <LatitudeDegrees>39.1274731792509555816650390625</LatitudeDegrees>
              <LongitudeDegrees>-0.35778715275228023529052734375</LongitudeDegrees>
            </Position>
            <AltitudeMeters>208.399993896484375</AltitudeMeters>
            <DistanceMeters>8868.2432655232</DistanceMeters>
          </Trackpoint>
          <Trackpoint>
            <Time>2022-02-06T10:43:29.000Z</Time>
            <Position>
              <LatitudeDegrees>39.12750796414911746978759765625</LatitudeDegrees>
              <LongitudeDegrees>-0.3579526953399181365966796875</LongitudeDegrees>
            </Position>
            <AltitudeMeters>205</AltitudeMeters>
            <DistanceMeters>8883.0515867098</DistanceMeters>
          </Trackpoint>
          <Trackpoint>
            <Time>2022-02-06T10:43:36.000Z</Time>
            <Position>
              <LatitudeDegrees>39.1275395639240741729736328125</LatitudeDegrees>
              <LongitudeDegrees>-0.3580244444310665130615234375</LongitudeDegrees>
            </Position>
            <AltitudeMeters>203.399993896484375</AltitudeMeters>
            <DistanceMeters>8890.1754220261</DistanceMeters>
          </Trackpoint>
          <Trackpoint>
            <Time>2022-02-06T10:43:38.000Z</Time>
            <Position>
              <LatitudeDegrees>39.1275539807975292205810546875</LatitudeDegrees>
              <LongitudeDegrees>-0.358047746121883392333984375</LongitudeDegrees>
            </Position>
            <AltitudeMeters>203</AltitudeMeters>
            <DistanceMeters>8892.7481727007</DistanceMeters>
          </Trackpoint>
          <Trackpoint>
            <Time>2022-02-06T10:43:53.000Z</Time>
            <Position>
              <LatitudeDegrees>39.12760133855044841766357421875</LatitudeDegrees>
              <LongitudeDegrees>-0.35826064646244049072265625</LongitudeDegrees>
            </Position>
            <AltitudeMeters>198.600006103515625</AltitudeMeters>
            <DistanceMeters>8911.8712217712</DistanceMeters>
          </Trackpoint>
          <Trackpoint>
            <Time>2022-02-06T10:44:00.000Z</Time>
            <Position>
              <LatitudeDegrees>39.12762547843158245086669921875</LatitudeDegrees>
              <LongitudeDegrees>-0.3583540208637714385986328125</LongitudeDegrees>
            </Position>
            <AltitudeMeters>196.8000030517578125</AltitudeMeters>
            <DistanceMeters>8920.3696069942</DistanceMeters>
          </Trackpoint>
          <Trackpoint>
            <Time>2022-02-06T10:44:04.000Z</Time>
            <Position>
              <LatitudeDegrees>39.12764676846563816070556640625</LatitudeDegrees>
              <LongitudeDegrees>-0.358400456607341766357421875</LongitudeDegrees>
            </Position>
            <AltitudeMeters>196.399993896484375</AltitudeMeters>
            <DistanceMeters>8925.0278549153</DistanceMeters>
          </Trackpoint>
          <Trackpoint>
            <Time>2022-02-06T10:44:07.000Z</Time>
            <Position>
              <LatitudeDegrees>39.1276656277477741241455078125</LatitudeDegrees>
              <LongitudeDegrees>-0.35843976773321628570556640625</LongitudeDegrees>
            </Position>
            <AltitudeMeters>196.1999969482421875</AltitudeMeters>
            <DistanceMeters>8929.0189769189</DistanceMeters>
          </Trackpoint>
          <Trackpoint>
            <Time>2022-02-06T10:44:13.000Z</Time>
            <Position>
              <LatitudeDegrees>39.127686917781829833984375</LatitudeDegrees>
              <LongitudeDegrees>-0.3585196472704410552978515625</LongitudeDegrees>
            </Position>
            <AltitudeMeters>195</AltitudeMeters>
            <DistanceMeters>8936.3119290135</DistanceMeters>
          </Trackpoint>
          <Trackpoint>
            <Time>2022-02-06T10:44:18.000Z</Time>
            <Position>
              <LatitudeDegrees>39.12770745344460010528564453125</LatitudeDegrees>
              <LongitudeDegrees>-0.358579494059085845947265625</LongitudeDegrees>
            </Position>
            <AltitudeMeters>194</AltitudeMeters>
            <DistanceMeters>8941.9626236881</DistanceMeters>
          </Trackpoint>
          <Trackpoint>
            <Time>2022-02-06T10:44:20.000Z</Time>
            <Position>
              <LatitudeDegrees>39.1277204453945159912109375</LatitudeDegrees>
              <LongitudeDegrees>-0.35859785042703151702880859375</LongitudeDegrees>
            </Position>
            <AltitudeMeters>193.600006103515625</AltitudeMeters>
            <DistanceMeters>8944.1086290438</DistanceMeters>
          </Trackpoint>
          <Trackpoint>
            <Time>2022-02-06T10:44:24.000Z</Time>
            <Position>
              <LatitudeDegrees>39.12772874347865581512451171875</LatitudeDegrees>
              <LongitudeDegrees>-0.35865618847310543060302734375</LongitudeDegrees>
            </Position>
            <AltitudeMeters>192.399993896484375</AltitudeMeters>
            <DistanceMeters>8949.2295022108</DistanceMeters>
          </Trackpoint>
          <Trackpoint>
            <Time>2022-02-06T10:44:33.000Z</Time>
            <Position>
              <LatitudeDegrees>39.12777165882289409637451171875</LatitudeDegrees>
              <LongitudeDegrees>-0.3587456233799457550048828125</LongitudeDegrees>
            </Position>
            <AltitudeMeters>190.600006103515625</AltitudeMeters>
            <DistanceMeters>8958.3089057076</DistanceMeters>
          </Trackpoint>
          <Trackpoint>
            <Time>2022-02-06T10:44:36.000Z</Time>
            <Position>
              <LatitudeDegrees>39.12779060192406177520751953125</LatitudeDegrees>
              <LongitudeDegrees>-0.35878275521099567413330078125</LongitudeDegrees>
            </Position>
            <AltitudeMeters>190</AltitudeMeters>
            <DistanceMeters>8962.1466204807</DistanceMeters>
          </Trackpoint>
          <Trackpoint>
            <Time>2022-02-06T10:44:42.000Z</Time>
            <Position>
              <LatitudeDegrees>39.1278188489377498626708984375</LatitudeDegrees>
              <LongitudeDegrees>-0.35885743796825408935546875</LongitudeDegrees>
            </Position>
            <AltitudeMeters>189</AltitudeMeters>
            <DistanceMeters>8969.320980085</DistanceMeters>
          </Trackpoint>
          <Trackpoint>
            <Time>2022-02-06T10:44:52.000Z</Time>
            <Position>
              <LatitudeDegrees>39.12789386697113513946533203125</LatitudeDegrees>
              <LongitudeDegrees>-0.35896338522434234619140625</LongitudeDegrees>
            </Position>
            <AltitudeMeters>187.399993896484375</AltitudeMeters>
            <DistanceMeters>8981.7062095359</DistanceMeters>
          </Trackpoint>
          <Trackpoint>
            <Time>2022-02-06T10:45:06.000Z</Time>
            <Position>
              <LatitudeDegrees>39.128060080111026763916015625</LatitudeDegrees>
              <LongitudeDegrees>-0.35907478071749210357666015625</LongitudeDegrees>
            </Position>
            <AltitudeMeters>184</AltitudeMeters>
            <DistanceMeters>9002.5571582067</DistanceMeters>
          </Trackpoint>
          <Trackpoint>
            <Time>2022-02-06T10:45:21.000Z</Time>
            <Position>
              <LatitudeDegrees>39.12819460965692996978759765625</LatitudeDegrees>
              <LongitudeDegrees>-0.35914602689445018768310546875</LongitudeDegrees>
            </Position>
            <AltitudeMeters>182</AltitudeMeters>
            <DistanceMeters>9018.7452037467</DistanceMeters>
          </Trackpoint>
          <Trackpoint>
            <Time>2022-02-06T10:45:43.000Z</Time>
            <Position>
              <LatitudeDegrees>39.12809285335242748260498046875</LatitudeDegrees>
              <LongitudeDegrees>-0.35930695943534374237060546875</LongitudeDegrees>
            </Position>
            <AltitudeMeters>180.399993896484375</AltitudeMeters>
            <DistanceMeters>9036.6712825241</DistanceMeters>
          </Trackpoint>
          <Trackpoint>
            <Time>2022-02-06T10:45:51.000Z</Time>
            <Position>
              <LatitudeDegrees>39.1280441544950008392333984375</LatitudeDegrees>
              <LongitudeDegrees>-0.35935406573116779327392578125</LongitudeDegrees>
            </Position>
            <AltitudeMeters>180</AltitudeMeters>
            <DistanceMeters>9043.4482264367</DistanceMeters>
          </Trackpoint>
          <Trackpoint>
            <Time>2022-02-06T10:45:58.000Z</Time>
            <Position>
              <LatitudeDegrees>39.12802244536578655242919921875</LatitudeDegrees>
              <LongitudeDegrees>-0.35943922586739063262939453125</LongitudeDegrees>
            </Position>
            <AltitudeMeters>179</AltitudeMeters>
            <DistanceMeters>9051.1880925291</DistanceMeters>
          </Trackpoint>
          <Trackpoint>
            <Time>2022-02-06T10:46:14.000Z</Time>
            <Position>
              <LatitudeDegrees>39.12805379368364810943603515625</LatitudeDegrees>
              <LongitudeDegrees>-0.3596729971468448638916015625</LongitudeDegrees>
            </Position>
            <AltitudeMeters>175.8000030517578125</AltitudeMeters>
            <DistanceMeters>9071.6715851974</DistanceMeters>
          </Trackpoint>
          <Trackpoint>
            <Time>2022-02-06T10:46:29.000Z</Time>
            <Position>
              <LatitudeDegrees>39.12808991968631744384765625</LatitudeDegrees>
              <LongitudeDegrees>-0.3599070198833942413330078125</LongitudeDegrees>
            </Position>
            <AltitudeMeters>174.600006103515625</AltitudeMeters>
            <DistanceMeters>9092.2735434319</DistanceMeters>
          </Trackpoint>
          <Trackpoint>
            <Time>2022-02-06T10:46:46.000Z</Time>
            <Position>
              <LatitudeDegrees>39.12814783863723278045654296875</LatitudeDegrees>
              <LongitudeDegrees>-0.360136516392230987548828125</LongitudeDegrees>
            </Position>
            <AltitudeMeters>174.600006103515625</AltitudeMeters>
            <DistanceMeters>9113.1106290146</DistanceMeters>
          </Trackpoint>
          <Trackpoint>
            <Time>2022-02-06T10:47:01.000Z</Time>
            <Position>
              <LatitudeDegrees>39.12828614003956317901611328125</LatitudeDegrees>
              <LongitudeDegrees>-0.36029778420925140380859375</LongitudeDegrees>
            </Position>
            <AltitudeMeters>173.399993896484375</AltitudeMeters>
            <DistanceMeters>9133.8671696034</DistanceMeters>
          </Trackpoint>
          <Trackpoint>
            <Time>2022-02-06T10:47:18.000Z</Time>
            <Position>
              <LatitudeDegrees>39.1284122876822948455810546875</LatitudeDegrees>
              <LongitudeDegrees>-0.360481850802898406982421875</LongitudeDegrees>
            </Position>
            <AltitudeMeters>171.8000030517578125</AltitudeMeters>
            <DistanceMeters>9155.073674904</DistanceMeters>
          </Trackpoint>
          <Trackpoint>
            <Time>2022-02-06T10:47:34.000Z</Time>
            <Position>
              <LatitudeDegrees>39.12843190133571624755859375</LatitudeDegrees>
              <LongitudeDegrees>-0.36072165705263614654541015625</LongitudeDegrees>
            </Position>
            <AltitudeMeters>171</AltitudeMeters>
            <DistanceMeters>9175.8932017811</DistanceMeters>
          </Trackpoint>
          <Trackpoint>
            <Time>2022-02-06T10:47:36.000Z</Time>
            <Position>
              <LatitudeDegrees>39.12842695601284503936767578125</LatitudeDegrees>
              <LongitudeDegrees>-0.3607616387307643890380859375</LongitudeDegrees>
            </Position>
            <AltitudeMeters>171</AltitudeMeters>
            <DistanceMeters>9179.3872915556</DistanceMeters>
          </Trackpoint>
          <Trackpoint>
            <Time>2022-02-06T10:47:50.000Z</Time>
            <Position>
              <LatitudeDegrees>39.12844086997210979461669921875</LatitudeDegrees>
              <LongitudeDegrees>-0.361000187695026397705078125</LongitudeDegrees>
            </Position>
            <AltitudeMeters>170.8000030517578125</AltitudeMeters>
            <DistanceMeters>9200.041998804</DistanceMeters>
          </Trackpoint>
          <Trackpoint>
            <Time>2022-02-06T10:48:05.000Z</Time>
            <Position>
              <LatitudeDegrees>39.12848495878279209136962890625</LatitudeDegrees>
              <LongitudeDegrees>-0.36123278550803661346435546875</LongitudeDegrees>
            </Position>
            <AltitudeMeters>170.8000030517578125</AltitudeMeters>
            <DistanceMeters>9220.7154967686</DistanceMeters>
          </Trackpoint>
          <Trackpoint>
            <Time>2022-02-06T10:48:18.000Z</Time>
            <Position>
              <LatitudeDegrees>39.12850566208362579345703125</LatitudeDegrees>
              <LongitudeDegrees>-0.36146278493106365203857421875</LongitudeDegrees>
            </Position>
            <AltitudeMeters>171</AltitudeMeters>
            <DistanceMeters>9240.7068229692</DistanceMeters>
          </Trackpoint>
          <Trackpoint>
            <Time>2022-02-06T10:48:32.000Z</Time>
            <Position>
              <LatitudeDegrees>39.1285510919988155364990234375</LatitudeDegrees>
              <LongitudeDegrees>-0.36169253289699554443359375</LongitudeDegrees>
            </Position>
            <AltitudeMeters>171</AltitudeMeters>
            <DistanceMeters>9261.1775270963</DistanceMeters>
          </Trackpoint>
          <Trackpoint>
            <Time>2022-02-06T10:48:47.000Z</Time>
            <Position>
              <LatitudeDegrees>39.128633402287960052490234375</LatitudeDegrees>
              <LongitudeDegrees>-0.3619106300175189971923828125</LongitudeDegrees>
            </Position>
            <AltitudeMeters>170.1999969482421875</AltitudeMeters>
            <DistanceMeters>9282.1183621386</DistanceMeters>
          </Trackpoint>
          <Trackpoint>
            <Time>2022-02-06T10:49:02.000Z</Time>
            <Position>
              <LatitudeDegrees>39.128715880215167999267578125</LatitudeDegrees>
              <LongitudeDegrees>-0.36212579347193241119384765625</LongitudeDegrees>
            </Position>
            <AltitudeMeters>169</AltitudeMeters>
            <DistanceMeters>9302.8398518271</DistanceMeters>
          </Trackpoint>
          <Trackpoint>
            <Time>2022-02-06T10:49:03.000Z</Time>
            <Position>
              <LatitudeDegrees>39.1287173889577388763427734375</LatitudeDegrees>
              <LongitudeDegrees>-0.3621483407914638519287109375</LongitudeDegrees>
            </Position>
            <AltitudeMeters>168.8000030517578125</AltitudeMeters>
            <DistanceMeters>9304.7896369904</DistanceMeters>
          </Trackpoint>
          <Trackpoint>
            <Time>2022-02-06T10:49:17.000Z</Time>
            <Position>
              <LatitudeDegrees>39.12877866066992282867431640625</LatitudeDegrees>
              <LongitudeDegrees>-0.3623830340802669525146484375</LongitudeDegrees>
            </Position>
            <AltitudeMeters>166.399993896484375</AltitudeMeters>
            <DistanceMeters>9326.1695918452</DistanceMeters>
          </Trackpoint>
          <Trackpoint>
            <Time>2022-02-06T10:49:32.000Z</Time>
            <Position>
              <LatitudeDegrees>39.128849320113658905029296875</LatitudeDegrees>
              <LongitudeDegrees>-0.3625989519059658050537109375</LongitudeDegrees>
            </Position>
            <AltitudeMeters>163.399993896484375</AltitudeMeters>
            <DistanceMeters>9346.4029194426</DistanceMeters>
          </Trackpoint>
          <Trackpoint>
            <Time>2022-02-06T10:49:37.000Z</Time>
            <Position>
              <LatitudeDegrees>39.12886516191065311431884765625</LatitudeDegrees>
              <LongitudeDegrees>-0.36266324110329151153564453125</LongitudeDegrees>
            </Position>
            <AltitudeMeters>162.8000030517578125</AltitudeMeters>
            <DistanceMeters>9352.2267469747</DistanceMeters>
          </Trackpoint>
          <Trackpoint>
            <Time>2022-02-06T10:49:51.000Z</Time>
            <Position>
              <LatitudeDegrees>39.1289564408361911773681640625</LatitudeDegrees>
              <LongitudeDegrees>-0.36286775954067707061767578125</LongitudeDegrees>
            </Position>
            <AltitudeMeters>159.600006103515625</AltitudeMeters>
            <DistanceMeters>9372.5988434148</DistanceMeters>
          </Trackpoint>
          <Trackpoint>
            <Time>2022-02-06T10:49:53.000Z</Time>
            <Position>
              <LatitudeDegrees>39.12897110916674137115478515625</LatitudeDegrees>
              <LongitudeDegrees>-0.3629010356962680816650390625</LongitudeDegrees>
            </Position>
            <AltitudeMeters>159.399993896484375</AltitudeMeters>
            <DistanceMeters>9375.9043528305</DistanceMeters>
          </Trackpoint>
          <Trackpoint>
            <Time>2022-02-06T10:50:04.000Z</Time>
            <Position>
              <LatitudeDegrees>39.1290526650846004486083984375</LatitudeDegrees>
              <LongitudeDegrees>-0.3631182946264743804931640625</LongitudeDegrees>
            </Position>
            <AltitudeMeters>159.8000030517578125</AltitudeMeters>
            <DistanceMeters>9396.7433884671</DistanceMeters>
          </Trackpoint>
          <Trackpoint>
            <Time>2022-02-06T10:50:09.000Z</Time>
            <Position>
              <LatitudeDegrees>39.12908501923084259033203125</LatitudeDegrees>
              <LongitudeDegrees>-0.36319917999207973480224609375</LongitudeDegrees>
            </Position>
            <AltitudeMeters>160.1999969482421875</AltitudeMeters>
            <DistanceMeters>9404.6002073254</DistanceMeters>
          </Trackpoint>
          <Trackpoint>
            <Time>2022-02-06T10:50:25.000Z</Time>
            <Position>
              <LatitudeDegrees>39.12919440306723117828369140625</LatitudeDegrees>
              <LongitudeDegrees>-0.3634016029536724090576171875</LongitudeDegrees>
            </Position>
            <AltitudeMeters>161</AltitudeMeters>
            <DistanceMeters>9425.8997622631</DistanceMeters>
          </Trackpoint>
          <Trackpoint>
            <Time>2022-02-06T10:50:35.000Z</Time>
            <Position>
              <LatitudeDegrees>39.12928752601146697998046875</LatitudeDegrees>
              <LongitudeDegrees>-0.363602600991725921630859375</LongitudeDegrees>
            </Position>
            <AltitudeMeters>162</AltitudeMeters>
            <DistanceMeters>9446.1134432474</DistanceMeters>
          </Trackpoint>
          <Trackpoint>
            <Time>2022-02-06T10:50:49.000Z</Time>
            <Position>
              <LatitudeDegrees>39.12938944995403289794921875</LatitudeDegrees>
              <LongitudeDegrees>-0.36380217410624027252197265625</LongitudeDegrees>
            </Position>
            <AltitudeMeters>161</AltitudeMeters>
            <DistanceMeters>9466.7434343497</DistanceMeters>
          </Trackpoint>
          <Trackpoint>
            <Time>2022-02-06T10:51:03.000Z</Time>
            <Position>
              <LatitudeDegrees>39.1294687427580356597900390625</LatitudeDegrees>
              <LongitudeDegrees>-0.3640181757509708404541015625</LongitudeDegrees>
            </Position>
            <AltitudeMeters>158.600006103515625</AltitudeMeters>
            <DistanceMeters>9487.3758327493</DistanceMeters>
          </Trackpoint>
          <Trackpoint>
            <Time>2022-02-06T10:51:04.000Z</Time>
            <Position>
              <LatitudeDegrees>39.12947871722280979156494140625</LatitudeDegrees>
              <LongitudeDegrees>-0.364029742777347564697265625</LongitudeDegrees>
            </Position>
            <AltitudeMeters>158</AltitudeMeters>
            <DistanceMeters>9488.8723149437</DistanceMeters>
          </Trackpoint>
          <Trackpoint>
            <Time>2022-02-06T10:51:06.000Z</Time>
            <Position>
              <LatitudeDegrees>39.1294831596314907073974609375</LatitudeDegrees>
              <LongitudeDegrees>-0.36405966617166996002197265625</LongitudeDegrees>
            </Position>
            <AltitudeMeters>157.8000030517578125</AltitudeMeters>
            <DistanceMeters>9491.502341285</DistanceMeters>
          </Trackpoint>
          <Trackpoint>
            <Time>2022-02-06T10:51:15.000Z</Time>
            <Position>
              <LatitudeDegrees>39.129529930651187896728515625</LatitudeDegrees>
              <LongitudeDegrees>-0.3642072714865207672119140625</LongitudeDegrees>
            </Position>
            <AltitudeMeters>156.1999969482421875</AltitudeMeters>
            <DistanceMeters>9505.268757461</DistanceMeters>
          </Trackpoint>
          <Trackpoint>
            <Time>2022-02-06T10:51:24.000Z</Time>
            <Position>
              <LatitudeDegrees>39.12954225204885005950927734375</LatitudeDegrees>
              <LongitudeDegrees>-0.36434867419302463531494140625</LongitudeDegrees>
            </Position>
            <AltitudeMeters>156.1999969482421875</AltitudeMeters>
            <DistanceMeters>9517.5544291057</DistanceMeters>
          </Trackpoint>
          <Trackpoint>
            <Time>2022-02-06T10:51:27.000Z</Time>
            <Position>
              <LatitudeDegrees>39.1295542381703853607177734375</LatitudeDegrees>
              <LongitudeDegrees>-0.36439058370888233184814453125</LongitudeDegrees>
            </Position>
            <AltitudeMeters>155.8000030517578125</AltitudeMeters>
            <DistanceMeters>9521.4109218002</DistanceMeters>
          </Trackpoint>
          <Trackpoint>
            <Time>2022-02-06T10:51:38.000Z</Time>
            <Position>
              <LatitudeDegrees>39.1296353749930858612060546875</LatitudeDegrees>
              <LongitudeDegrees>-0.36457984708249568939208984375</LongitudeDegrees>
            </Position>
            <AltitudeMeters>153.8000030517578125</AltitudeMeters>
            <DistanceMeters>9540.0811925773</DistanceMeters>
          </Trackpoint>
          <Trackpoint>
            <Time>2022-02-06T10:51:43.000Z</Time>
            <Position>
              <LatitudeDegrees>39.12965188734233379364013671875</LatitudeDegrees>
              <LongitudeDegrees>-0.36466014571487903594970703125</LongitudeDegrees>
            </Position>
            <AltitudeMeters>154</AltitudeMeters>
            <DistanceMeters>9547.2542934115</DistanceMeters>
          </Trackpoint>
          <Trackpoint>
            <Time>2022-02-06T10:51:47.000Z</Time>
            <Position>
              <LatitudeDegrees>39.129661358892917633056640625</LatitudeDegrees>
              <LongitudeDegrees>-0.3647101856768131256103515625</LongitudeDegrees>
            </Position>
            <AltitudeMeters>153.8000030517578125</AltitudeMeters>
            <DistanceMeters>9551.7012999791</DistanceMeters>
          </Trackpoint>
          <Trackpoint>
            <Time>2022-02-06T10:51:57.000Z</Time>
            <Position>
              <LatitudeDegrees>39.12968541495501995086669921875</LatitudeDegrees>
              <LongitudeDegrees>-0.364853851497173309326171875</LongitudeDegrees>
            </Position>
            <AltitudeMeters>153</AltitudeMeters>
            <DistanceMeters>9564.3911917527</DistanceMeters>
          </Trackpoint>
          <Trackpoint>
            <Time>2022-02-06T10:52:12.000Z</Time>
            <Position>
              <LatitudeDegrees>39.12972648628056049346923828125</LatitudeDegrees>
              <LongitudeDegrees>-0.36509583704173564910888671875</LongitudeDegrees>
            </Position>
            <AltitudeMeters>150.8000030517578125</AltitudeMeters>
            <DistanceMeters>9585.778325553</DistanceMeters>
          </Trackpoint>
          <Trackpoint>
            <Time>2022-02-06T10:52:13.000Z</Time>
            <Position>
              <LatitudeDegrees>39.12973369471728801727294921875</LatitudeDegrees>
              <LongitudeDegrees>-0.3651130199432373046875</LongitudeDegrees>
            </Position>
            <AltitudeMeters>150.399993896484375</AltitudeMeters>
            <DistanceMeters>9587.4648824242</DistanceMeters>
          </Trackpoint>
          <Trackpoint>
            <Time>2022-02-06T10:52:17.000Z</Time>
            <Position>
              <LatitudeDegrees>39.12974911741912364959716796875</LatitudeDegrees>
              <LongitudeDegrees>-0.36518518812954425811767578125</LongitudeDegrees>
            </Position>
            <AltitudeMeters>149.600006103515625</AltitudeMeters>
            <DistanceMeters>9593.9273976894</DistanceMeters>
          </Trackpoint>
          <Trackpoint>
            <Time>2022-02-06T10:52:32.000Z</Time>
            <Position>
              <LatitudeDegrees>39.1297280788421630859375</LatitudeDegrees>
              <LongitudeDegrees>-0.36542507819831371307373046875</LongitudeDegrees>
            </Position>
            <AltitudeMeters>147.8000030517578125</AltitudeMeters>
            <DistanceMeters>9614.7711993568</DistanceMeters>
          </Trackpoint>
          <Trackpoint>
            <Time>2022-02-06T10:52:46.000Z</Time>
            <Position>
              <LatitudeDegrees>39.1296960599720478057861328125</LatitudeDegrees>
              <LongitudeDegrees>-0.36565591581165790557861328125</LongitudeDegrees>
            </Position>
            <AltitudeMeters>147.1999969482421875</AltitudeMeters>
            <DistanceMeters>9635.0174654347</DistanceMeters>
          </Trackpoint>
          <Trackpoint>
            <Time>2022-02-06T10:52:56.000Z</Time>
            <Position>
              <LatitudeDegrees>39.12972598336637020111083984375</LatitudeDegrees>
              <LongitudeDegrees>-0.36584165878593921661376953125</LongitudeDegrees>
            </Position>
            <AltitudeMeters>146</AltitudeMeters>
            <DistanceMeters>9651.3962783037</DistanceMeters>
          </Trackpoint>
          <Trackpoint>
            <Time>2022-02-06T10:53:10.000Z</Time>
            <Position>
              <LatitudeDegrees>39.12979940883815288543701171875</LatitudeDegrees>
              <LongitudeDegrees>-0.36605807952582836151123046875</LongitudeDegrees>
            </Position>
            <AltitudeMeters>145</AltitudeMeters>
            <DistanceMeters>9671.7907469431</DistanceMeters>
          </Trackpoint>
          <Trackpoint>
            <Time>2022-02-06T10:53:26.000Z</Time>
            <Position>
              <LatitudeDegrees>39.12986679933965206146240234375</LatitudeDegrees>
              <LongitudeDegrees>-0.36627902649343013763427734375</LongitudeDegrees>
            </Position>
            <AltitudeMeters>144.399993896484375</AltitudeMeters>
            <DistanceMeters>9692.2887823841</DistanceMeters>
          </Trackpoint>
          <Trackpoint>
            <Time>2022-02-06T10:53:39.000Z</Time>
            <Position>
              <LatitudeDegrees>39.129911474883556365966796875</LatitudeDegrees>
              <LongitudeDegrees>-0.3665106184780597686767578125</LongitudeDegrees>
            </Position>
            <AltitudeMeters>143.8000030517578125</AltitudeMeters>
            <DistanceMeters>9712.8931511911</DistanceMeters>
          </Trackpoint>
          <Trackpoint>
            <Time>2022-02-06T10:53:54.000Z</Time>
            <Position>
              <LatitudeDegrees>39.12994793616235256195068359375</LatitudeDegrees>
              <LongitudeDegrees>-0.36674908362329006195068359375</LongitudeDegrees>
            </Position>
            <AltitudeMeters>143</AltitudeMeters>
            <DistanceMeters>9733.8779244295</DistanceMeters>
          </Trackpoint>
          <Trackpoint>
            <Time>2022-02-06T10:54:08.000Z</Time>
            <Position>
              <LatitudeDegrees>39.13001834414899349212646484375</LatitudeDegrees>
              <LongitudeDegrees>-0.366971790790557861328125</LongitudeDegrees>
            </Position>
            <AltitudeMeters>141.600006103515625</AltitudeMeters>
            <DistanceMeters>9754.6416420576</DistanceMeters>
          </Trackpoint>
          <Trackpoint>
            <Time>2022-02-06T10:54:22.000Z</Time>
            <Position>
              <LatitudeDegrees>39.13004390895366668701171875</LatitudeDegrees>
              <LongitudeDegrees>-0.36720455624163150787353515625</LongitudeDegrees>
            </Position>
            <AltitudeMeters>142.1999969482421875</AltitudeMeters>
            <DistanceMeters>9774.9386898116</DistanceMeters>
          </Trackpoint>
          <Trackpoint>
            <Time>2022-02-06T10:54:36.000Z</Time>
            <Position>
              <LatitudeDegrees>39.13006846792995929718017578125</LatitudeDegrees>
              <LongitudeDegrees>-0.3674312867224216461181640625</LongitudeDegrees>
            </Position>
            <AltitudeMeters>142.8000030517578125</AltitudeMeters>
            <DistanceMeters>9794.7042464005</DistanceMeters>
          </Trackpoint>
          <Trackpoint>
            <Time>2022-02-06T10:54:49.000Z</Time>
            <Position>
              <LatitudeDegrees>39.130079448223114013671875</LatitudeDegrees>
              <LongitudeDegrees>-0.3676629625260829925537109375</LongitudeDegrees>
            </Position>
            <AltitudeMeters>143.399993896484375</AltitudeMeters>
            <DistanceMeters>9814.7440714919</DistanceMeters>
          </Trackpoint>
          <Trackpoint>
            <Time>2022-02-06T10:55:03.000Z</Time>
            <Position>
              <LatitudeDegrees>39.130093194544315338134765625</LatitudeDegrees>
              <LongitudeDegrees>-0.36789354868233203887939453125</LongitudeDegrees>
            </Position>
            <AltitudeMeters>143.1999969482421875</AltitudeMeters>
            <DistanceMeters>9834.7112171336</DistanceMeters>
          </Trackpoint>
          <Trackpoint>
            <Time>2022-02-06T10:55:17.000Z</Time>
            <Position>
              <LatitudeDegrees>39.13013502024114131927490234375</LatitudeDegrees>
              <LongitudeDegrees>-0.3681263141334056854248046875</LongitudeDegrees>
            </Position>
            <AltitudeMeters>141</AltitudeMeters>
            <DistanceMeters>9855.3401139169</DistanceMeters>
          </Trackpoint>
          <Trackpoint>
            <Time>2022-02-06T10:55:26.000Z</Time>
            <Position>
              <LatitudeDegrees>39.13016988895833492279052734375</LatitudeDegrees>
              <LongitudeDegrees>-0.36829956807196140289306640625</LongitudeDegrees>
            </Position>
            <AltitudeMeters>139.1999969482421875</AltitudeMeters>
            <DistanceMeters>9870.7935731296</DistanceMeters>
          </Trackpoint>
          <Trackpoint>
            <Time>2022-02-06T10:55:40.000Z</Time>
            <Position>
              <LatitudeDegrees>39.13017843849956989288330078125</LatitudeDegrees>
              <LongitudeDegrees>-0.36853845231235027313232421875</LongitudeDegrees>
            </Position>
            <AltitudeMeters>139.8000030517578125</AltitudeMeters>
            <DistanceMeters>9891.4404094191</DistanceMeters>
          </Trackpoint>
          <Trackpoint>
            <Time>2022-02-06T10:55:54.000Z</Time>
            <Position>
              <LatitudeDegrees>39.1301765106618404388427734375</LatitudeDegrees>
              <LongitudeDegrees>-0.3687801025807857513427734375</LongitudeDegrees>
            </Position>
            <AltitudeMeters>140.8000030517578125</AltitudeMeters>
            <DistanceMeters>9912.305211967</DistanceMeters>
          </Trackpoint>
          <Trackpoint>
            <Time>2022-02-06T10:56:09.000Z</Time>
            <Position>
              <LatitudeDegrees>39.13021867163479328155517578125</LatitudeDegrees>
              <LongitudeDegrees>-0.369014628231525421142578125</LongitudeDegrees>
            </Position>
            <AltitudeMeters>140.1999969482421875</AltitudeMeters>
            <DistanceMeters>9933.0902286192</DistanceMeters>
          </Trackpoint>
          <Trackpoint>
            <Time>2022-02-06T10:56:23.000Z</Time>
            <Position>
              <LatitudeDegrees>39.1302261315286159515380859375</LatitudeDegrees>
              <LongitudeDegrees>-0.3692605532705783843994140625</LongitudeDegrees>
            </Position>
            <AltitudeMeters>138.8000030517578125</AltitudeMeters>
            <DistanceMeters>9954.3392728884</DistanceMeters>
          </Trackpoint>
          <Trackpoint>
            <Time>2022-02-06T10:56:36.000Z</Time>
            <Position>
              <LatitudeDegrees>39.13032562471926212310791015625</LatitudeDegrees>
              <LongitudeDegrees>-0.36947051994502544403076171875</LongitudeDegrees>
            </Position>
            <AltitudeMeters>136.600006103515625</AltitudeMeters>
            <DistanceMeters>9975.5823668299</DistanceMeters>
          </Trackpoint>
          <Trackpoint>
            <Time>2022-02-06T10:56:49.000Z</Time>
            <Position>
              <LatitudeDegrees>39.13044665940105915069580078125</LatitudeDegrees>
              <LongitudeDegrees>-0.3696350567042827606201171875</LongitudeDegrees>
            </Position>
            <AltitudeMeters>135.8000030517578125</AltitudeMeters>
            <DistanceMeters>9995.1599457064</DistanceMeters>
          </Trackpoint>
          <Trackpoint>
            <Time>2022-02-06T10:57:04.000Z</Time>
            <Position>
              <LatitudeDegrees>39.1305925883352756500244140625</LatitudeDegrees>
              <LongitudeDegrees>-0.369783081114292144775390625</LongitudeDegrees>
            </Position>
            <AltitudeMeters>137.1999969482421875</AltitudeMeters>
            <DistanceMeters>10015.827109176</DistanceMeters>
          </Trackpoint>
          <Trackpoint>
            <Time>2022-02-06T10:57:20.000Z</Time>
            <Position>
              <LatitudeDegrees>39.13076081313192844390869140625</LatitudeDegrees>
              <LongitudeDegrees>-0.36991157568991184234619140625</LongitudeDegrees>
            </Position>
            <AltitudeMeters>136.399993896484375</AltitudeMeters>
            <DistanceMeters>10037.590923864</DistanceMeters>
          </Trackpoint>
          <Trackpoint>
            <Time>2022-02-06T10:57:31.000Z</Time>
            <Position>
              <LatitudeDegrees>39.130916297435760498046875</LatitudeDegrees>
              <LongitudeDegrees>-0.37003378383815288543701171875</LongitudeDegrees>
            </Position>
            <AltitudeMeters>135.600006103515625</AltitudeMeters>
            <DistanceMeters>10057.859478271</DistanceMeters>
          </Trackpoint>
          <Trackpoint>
            <Time>2022-02-06T10:57:44.000Z</Time>
            <Position>
              <LatitudeDegrees>39.13102350197732448577880859375</LatitudeDegrees>
              <LongitudeDegrees>-0.37021868862211704254150390625</LongitudeDegrees>
            </Position>
            <AltitudeMeters>134.600006103515625</AltitudeMeters>
            <DistanceMeters>10077.790184801</DistanceMeters>
          </Trackpoint>
          <Trackpoint>
            <Time>2022-02-06T10:58:01.000Z</Time>
            <Position>
              <LatitudeDegrees>39.1310941614210605621337890625</LatitudeDegrees>
              <LongitudeDegrees>-0.37044550292193889617919921875</LongitudeDegrees>
            </Position>
            <AltitudeMeters>136</AltitudeMeters>
            <DistanceMeters>10098.892963052</DistanceMeters>
          </Trackpoint>
          <Trackpoint>
            <Time>2022-02-06T10:58:14.000Z</Time>
            <Position>
              <LatitudeDegrees>39.13117387332022190093994140625</LatitudeDegrees>
              <LongitudeDegrees>-0.37067080847918987274169921875</LongitudeDegrees>
            </Position>
            <AltitudeMeters>135.1999969482421875</AltitudeMeters>
            <DistanceMeters>10120.272917907</DistanceMeters>
          </Trackpoint>
          <Trackpoint>
            <Time>2022-02-06T10:58:29.000Z</Time>
            <Position>
              <LatitudeDegrees>39.13128803484141826629638671875</LatitudeDegrees>
              <LongitudeDegrees>-0.37087013013660907745361328125</LongitudeDegrees>
            </Position>
            <AltitudeMeters>136.1999969482421875</AltitudeMeters>
            <DistanceMeters>10141.664484558</DistanceMeters>
          </Trackpoint>
          <Trackpoint>
            <Time>2022-02-06T10:58:41.000Z</Time>
            <Position>
              <LatitudeDegrees>39.13141745142638683319091796875</LatitudeDegrees>
              <LongitudeDegrees>-0.3710371814668178558349609375</LongitudeDegrees>
            </Position>
            <AltitudeMeters>137.8000030517578125</AltitudeMeters>
            <DistanceMeters>10162.048323927</DistanceMeters>
          </Trackpoint>
          <Trackpoint>
            <Time>2022-02-06T10:58:57.000Z</Time>
            <Position>
              <LatitudeDegrees>39.1315238177776336669921875</LatitudeDegrees>
              <LongitudeDegrees>-0.37121613509953022003173828125</LongitudeDegrees>
            </Position>
            <AltitudeMeters>139.600006103515625</AltitudeMeters>
            <DistanceMeters>10181.512801502</DistanceMeters>
          </Trackpoint>
          <Trackpoint>
            <Time>2022-02-06T10:59:10.000Z</Time>
            <Position>
              <LatitudeDegrees>39.131681732833385467529296875</LatitudeDegrees>
              <LongitudeDegrees>-0.37136600352823734283447265625</LongitudeDegrees>
            </Position>
            <AltitudeMeters>138.600006103515625</AltitudeMeters>
            <DistanceMeters>10203.33814371</DistanceMeters>
          </Trackpoint>
          <Trackpoint>
            <Time>2022-02-06T10:59:22.000Z</Time>
            <Position>
              <LatitudeDegrees>39.13183269090950489044189453125</LatitudeDegrees>
              <LongitudeDegrees>-0.37151872180402278900146484375</LongitudeDegrees>
            </Position>
            <AltitudeMeters>134.8000030517578125</AltitudeMeters>
            <DistanceMeters>10224.696124458</DistanceMeters>
          </Trackpoint>
          <Trackpoint>
            <Time>2022-02-06T10:59:36.000Z</Time>
            <Position>
              <LatitudeDegrees>39.13188113830983638763427734375</LatitudeDegrees>
              <LongitudeDegrees>-0.37175106815993785858154296875</LongitudeDegrees>
            </Position>
            <AltitudeMeters>133.8000030517578125</AltitudeMeters>
            <DistanceMeters>10245.468103484</DistanceMeters>
          </Trackpoint>
          <Trackpoint>
            <Time>2022-02-06T10:59:49.000Z</Time>
            <Position>
              <LatitudeDegrees>39.13198322989046573638916015625</LatitudeDegrees>
              <LongitudeDegrees>-0.3719534911215305328369140625</LongitudeDegrees>
            </Position>
            <AltitudeMeters>131.1999969482421875</AltitudeMeters>
            <DistanceMeters>10266.313854577</DistanceMeters>
          </Trackpoint>
          <Trackpoint>
            <Time>2022-02-06T11:00:02.000Z</Time>
            <Position>
              <LatitudeDegrees>39.13208515383303165435791015625</LatitudeDegrees>
              <LongitudeDegrees>-0.37215624935925006866455078125</LongitudeDegrees>
            </Position>
            <AltitudeMeters>128.8000030517578125</AltitudeMeters>
            <DistanceMeters>10287.173462999</DistanceMeters>
          </Trackpoint>
          <Trackpoint>
            <Time>2022-02-06T11:00:13.000Z</Time>
            <Position>
              <LatitudeDegrees>39.132183305919170379638671875</LatitudeDegrees>
              <LongitudeDegrees>-0.37234970368444919586181640625</LongitudeDegrees>
            </Position>
            <AltitudeMeters>127</AltitudeMeters>
            <DistanceMeters>10307.130882968</DistanceMeters>
          </Trackpoint>
          <Trackpoint>
            <Time>2022-02-06T11:00:27.000Z</Time>
            <Position>
              <LatitudeDegrees>39.1322614252567291259765625</LatitudeDegrees>
              <LongitudeDegrees>-0.37256226874887943267822265625</LongitudeDegrees>
            </Position>
            <AltitudeMeters>126.40000152587890625</AltitudeMeters>
            <DistanceMeters>10327.438383088</DistanceMeters>
          </Trackpoint>
          <Trackpoint>
            <Time>2022-02-06T11:00:28.000Z</Time>
            <Position>
              <LatitudeDegrees>39.13226754404604434967041015625</LatitudeDegrees>
              <LongitudeDegrees>-0.37257769145071506500244140625</LongitudeDegrees>
            </Position>
            <AltitudeMeters>126.40000152587890625</AltitudeMeters>
            <DistanceMeters>10328.934865282</DistanceMeters>
          </Trackpoint>
        </Track>
      </Lap>
    </Activity>
  </Activities>
</TrainingCenterDatabase>
